<
# Wetter Temperatur Luftdruck Luftfeuchtigkeit Sichtweite Windgeschwindigkeit Windrichtung Zeit
1 Clouds 22 1015 88 10000 1.54 310 13:22 22.04.2021
2 Clouds 21 1015 88 10000 2.06 310 12:52 22.04.2021
3 Clouds 21 1014 94 10000 2.09 220 12:30 22.04.2021
4 Clouds 21 1014 94 6000 3.09 210 11:50 22.04.2021
5 Clouds 21 1014 94 6000 3.09 210 11:26 22.04.2021
6 Clouds 21 1014 94 10000 2.57 280 10:48 22.04.2021
7 Clouds 21 1014 94 10000 2.57 280 10:30 22.04.2021
8 Clouds 21 1013 94 10000 2.57 300 09:59 22.04.2021
9 Clouds 21 1013 94 10000 2.57 300 09:34 22.04.2021
10 Clouds 21 1013 100 10000 1.03 290 08:48 22.04.2021
11 Clouds 21 1013 100 10000 1.03 290 08:23 22.04.2021
12 Clouds 21 1014 94 10000 2.06 290 07:49 22.04.2021
13 Clouds 21 1014 94 10000 2.06 290 07:31 22.04.2021
14 Clouds 21 1014 94 10000 1.03 250 06:44 22.04.2021
15 Clouds 21 1014 94 10000 1.03 250 06:18 22.04.2021
16 Clouds 22 1014 94 10000 1.85 288 05:21 22.04.2021
17 Clouds 22 1014 88 10000 2.06 290 02:25 22.04.2021
18 Mist 22 1013 94 5000 3.09 180 23:59 21.04.2021
19 Mist 22 1013 94 5000 3.09 180 23:39 21.04.2021
20 Mist 22 1013 94 5000 3.09 180 23:19 21.04.2021
21 Rain 23 1013 83 6000 2.57 270 22:40 21.04.2021
22 Rain 23 1013 83 6000 2.57 270 22:19 21.04.2021
23 Rain 24 1012 83 10000 5.14 200 21:41 21.04.2021
24 Clouds 24 1012 83 10000 5.14 200 21:19 21.04.2021
25 Clouds 26 1012 73 10000 2.06 180 20:32 21.04.2021
26 Clouds 25 1012 88 10000 4.12 160 19:51 21.04.2021
27 Clouds 25 1012 88 10000 4.12 160 19:28 21.04.2021
28 Clouds 24 1012 94 9000 4.63 330 18:57 21.04.2021
29 Clouds 25 1012 94 9000 4.63 330 18:39 21.04.2021
30 Clouds 25 1012 94 9000 4.63 330 18:19 21.04.2021
31 Clouds 25 1013 88 9000 3.6 330 17:43 21.04.2021
32 Rain 25 1013 88 9000 3.6 330 17:22 21.04.2021
33 Clouds 23 1014 83 9000 2.06 260 16:40 21.04.2021
34 Rain 24 1014 88 9000 4.63 320 15:52 21.04.2021
35 Clouds 24 1014 88 9000 4.63 320 15:26 21.04.2021
36 Clouds 23 1014 88 10000 5.14 300 14:46 21.04.2021
37 Rain 23 1014 88 10000 5.14 300 14:27 21.04.2021
38 Clouds 23 1013 88 10000 3.09 280 13:50 21.04.2021
39 Clouds 23 1013 88 10000 3.09 280 13:23 21.04.2021
40 Clouds 21 1013 94 9000 4.63 310 12:48 21.04.2021
41 Clouds 21 1013 94 9000 4.63 310 12:25 21.04.2021
42 Rain 21 1012 94 7000 3.09 310 11:46 21.04.2021
43 Clouds 21 1012 94 7000 3.09 310 11:25 21.04.2021
44 Rain 21 1012 94 9000 4.63 310 10:40 21.04.2021
45 Clouds 21 1012 88 9000 4.63 280 09:57 21.04.2021
46 Clouds 21 1012 88 9000 4.63 280 09:31 21.04.2021
47 Rain 21 1013 88 5000 4.63 290 08:51 21.04.2021
48 Rain 21 1013 88 5000 4.63 290 08:24 21.04.2021
49 Clouds 21 1013 88 5000 6.69 270 07:57 21.04.2021
50 Clouds 21 1013 88 5000 6.69 270 07:29 21.04.2021
51 Clouds 21 1013 88 5000 6.69 270 07:29 21.04.2021
52 Clouds 22 1013 83 7000 7.2 170 06:23 21.04.2021
53 Clouds 24 1013 65 10000 6.17 250 02:56 21.04.2021
54 Clouds 24 1013 65 10000 5.66 250 00:49 21.04.2021
55 Clouds 24 1013 65 10000 7.72 250 23:47 20.04.2021
56 Clouds 25 1012 65 10000 8.23 250 22:50 20.04.2021
57 Clouds 25 1012 65 10000 8.23 250 22:24 20.04.2021
58 Clouds 26 1012 57 10000 7.72 250 21:59 20.04.2021
59 Clouds 26 1012 57 10000 7.72 250 21:41 20.04.2021
60 Clouds 26 1012 57 10000 7.72 250 21:22 20.04.2021
61 Clouds 26 1012 65 10000 5.14 260 20:41 20.04.2021
62 Clouds 26 1012 65 10000 5.14 260 20:21 20.04.2021
63 Clouds 25 1012 69 10000 7.2 250 19:51 20.04.2021
64 Clouds 26 1012 69 10000 7.2 250 19:33 20.04.2021
65 Rain 28 1012 57 10000 8.23 240 18:50 20.04.2021
66 Clouds 28 1012 57 10000 8.23 240 18:31 20.04.2021
67 Clouds 28 1013 57 10000 6.69 240 17:43 20.04.2021
68 Clouds 27 1014 61 10000 6.17 240 16:57 20.04.2021
69 Clouds 27 1014 61 10000 6.17 240 16:36 20.04.2021
70 Clouds 27 1014 61 10000 6.69 250 15:42 20.04.2021
71 Clouds 27 1014 61 10000 6.69 250 15:23 20.04.2021
72 Clouds 26 1013 65 10000 4.12 250 14:49 20.04.2021
73 Clouds 26 1013 65 10000 4.12 250 14:24 20.04.2021
74 Clouds 24 1013 69 10000 4.12 250 13:31 20.04.2021
75 Clouds 23 1012 73 10000 4.12 270 12:55 20.04.2021
76 Clouds 23 1012 73 10000 4.12 270 12:31 20.04.2021
77 Clouds 23 1011 73 10000 4.63 270 11:58 20.04.2021
78 Clouds 23 1011 73 10000 4.63 270 11:38 20.04.2021
79 Clouds 23 1011 73 10000 4.63 270 11:19 20.04.2021
80 Clouds 22 1013 83 10000 3.09 290 10:42 20.04.2021
81 Clouds 22 1013 83 10000 3.09 290 10:20 20.04.2021
82 Clouds 22 1013 83 10000 4.12 210 09:20 20.04.2021
83 Clouds 23 1013 83 10000 4.63 230 08:53 20.04.2021
84 Clouds 22 1013 83 10000 6.17 230 07:59 20.04.2021
85 Clouds 22 1013 83 10000 6.17 230 07:35 20.04.2021
86 Clouds 23 1014 78 10000 7.72 250 05:56 20.04.2021
87 Clouds 23 1013 83 10000 3.6 270 05:31 20.04.2021
88 Clouds 23 1013 83 10000 3.6 270 04:40 20.04.2021
89 Clouds 24 1012 69 10000 7.72 240 00:53 20.04.2021
90 Clouds 24 1012 69 10000 7.72 240 00:27 20.04.2021
91 Clouds 25 1012 69 10000 5.14 240 23:32 19.04.2021
92 Clouds 25 1011 73 10000 5.66 220 22:46 19.04.2021
93 Clouds 25 1011 73 10000 5.66 220 22:26 19.04.2021
94 Clouds 26 1011 61 10000 8.75 240 21:46 19.04.2021
95 Clouds 26 1011 61 10000 8.75 240 21:22 19.04.2021
96 Clouds 28 1010 57 10000 5.66 230 20:42 19.04.2021
97 Clouds 28 1010 57 10000 5.66 230 20:22 19.04.2021
98 Clouds 29 1010 54 10000 5.14 210 19:50 19.04.2021
99 Clouds 29 1010 54 10000 5.14 210 19:28 19.04.2021
100 Clouds 29 1011 58 10000 3.6 250 18:59 19.04.2021
101 Clouds 29 1011 58 10000 3.6 250 18:41 19.04.2021
102 Clouds 28 1011 58 10000 3.6 250 18:19 19.04.2021
103 Clouds 27 1012 65 10000 4.12 250 17:44 19.04.2021
104 Clouds 27 1012 65 10000 4.12 250 17:24 19.04.2021
105 Clouds 27 1012 65 10000 3.6 250 16:45 19.04.2021
106 Clouds 27 1012 65 10000 3.6 250 16:25 19.04.2021
107 Clouds 27 1013 65 10000 3.6 240 15:44 19.04.2021
108 Clouds 27 1013 65 10000 3.6 240 15:24 19.04.2021
109 Clouds 26 1013 69 10000 2.06 150 14:52 19.04.2021
110 Clouds 26 1013 69 10000 2.06 150 14:32 19.04.2021
111 Clouds 26 1012 73 10000 2.06 330 13:53 19.04.2021
112 Clouds 26 1012 73 10000 2.06 330 13:28 19.04.2021
113 Clouds 24 1011 83 10000 0.51 0 12:48 19.04.2021
114 Clouds 24 1011 83 10000 0.51 0 12:28 19.04.2021
115 Clouds 23 1011 94 10000 3.32 264 11:59 19.04.2021
116 Clouds 23 1011 94 10000 3.38 264 11:39 19.04.2021
117 Clouds 23 1011 94 10000 3.69 257 11:18 19.04.2021
118 Clouds 23 1011 94 10000 3.69 257 11:18 19.04.2021
119 Clouds 23 1011 94 10000 3.69 257 11:18 19.04.2021
120 Clouds 23 1011 88 8000 2.06 290 10:41 19.04.2021
121 Clouds 23 1011 88 8000 2.06 290 10:18 19.04.2021
122 Clouds 23 1011 88 8000 2.06 290 10:18 19.04.2021
123 Clouds 23 1012 94 9000 3.09 230 09:40 19.04.2021
124 Clouds 23 1012 94 9000 3.09 230 09:21 19.04.2021
125 Clouds 23 1012 88 9000 2.57 220 08:33 19.04.2021
126 Clouds 23 1012 88 10000 2.57 250 07:50 19.04.2021
127 Clouds 24 1012 88 10000 2.57 250 07:21 19.04.2021
128 Clouds 24 1012 83 10000 2.06 240 06:47 19.04.2021
129 Clouds 25 1012 78 9000 1.54 220 04:21 19.04.2021
130 Clouds 25 1011 73 10000 2.06 200 01:49 19.04.2021
131 Clouds 25 1011 73 10000 3.6 200 00:34 19.04.2021
132 Clouds 25 1010 73 10000 5.66 210 23:21 18.04.2021
133 Rain 26 1010 78 10000 6.17 190 22:57 18.04.2021
134 Clouds 26 1010 78 10000 6.17 190 22:31 18.04.2021
135 Clouds 27 1010 74 10000 6.17 190 21:51 18.04.2021
136 Clouds 27 1010 74 10000 6.17 190 21:28 18.04.2021
137 Rain 27 1010 74 10000 6.69 190 20:43 18.04.2021
138 Rain 27 1010 74 10000 6.69 190 20:25 18.04.2021
139 Rain 28 1010 69 10000 7.72 190 19:57 18.04.2021
140 Rain 28 1010 69 10000 7.72 190 19:38 18.04.2021
141 Clouds 28 1010 69 10000 7.72 190 19:18 18.04.2021
142 Clouds 28 1010 74 10000 7.72 180 18:44 18.04.2021
143 Clouds 27 1010 74 10000 7.72 180 18:25 18.04.2021
144 Clouds 29 1011 65 10000 5.66 160 17:45 18.04.2021
145 Clouds 29 1011 65 10000 5.66 160 17:27 18.04.2021
146 Clouds 28 1012 83 10000 4.63 140 16:46 18.04.2021
147 Clouds 28 1012 83 10000 4.63 140 16:27 18.04.2021
148 Clouds 27 1012 83 10000 3.6 140 15:44 18.04.2021
149 Clouds 28 1012 83 10000 3.6 140 15:25 18.04.2021
150 Clouds 26 1012 83 10000 0.51 0 14:52 18.04.2021
151 Clouds 26 1012 83 10000 0.51 0 14:23 18.04.2021
152 Clouds 24 1012 88 10000 1.54 20 13:55 18.04.2021
153 Clouds 24 1012 88 10000 1.54 20 13:34 18.04.2021
154 Clouds 22 1012 88 10000 1.54 350 12:50 18.04.2021
155 Clouds 22 1012 88 10000 1.54 350 12:28 18.04.2021
156 Clouds 23 1011 88 10000 1.03 50 11:43 18.04.2021
157 Clouds 23 1011 88 10000 1.03 50 11:21 18.04.2021
158 Clear 22 1011 94 10000 2.06 350 10:48 18.04.2021
159 Clear 21 1011 94 10000 2.06 350 10:23 18.04.2021
160 Clear 22 1011 94 10000 2.06 320 09:53 18.04.2021
161 Clear 22 1011 94 10000 2.06 320 09:53 18.04.2021
162 Clear 22 1011 94 10000 2.06 320 09:34 18.04.2021
163 Clear 22 1011 94 10000 2.06 320 09:34 18.04.2021
164 Clear 23 1011 94 10000 1.03 350 08:57 18.04.2021
165 Clear 23 1011 94 10000 1.03 350 08:35 18.04.2021
166 Clear 23 1011 94 10000 1.82 4 07:59 18.04.2021
167 Clear 24 1011 94 10000 1.82 4 07:38 18.04.2021
168 Clear 23 1012 88 10000 1.03 80 05:42 18.04.2021
169 Clear 24 1011 88 10000 2.06 340 05:24 18.04.2021
170 Clear 25 1012 83 10000 1.03 150 02:39 18.04.2021
171 Clear 25 1012 83 10000 1.03 150 02:39 18.04.2021
172 Clear 25 1012 83 10000 1.03 150 02:20 18.04.2021
173 Clear 25 1011 83 10000 3.09 180 00:37 18.04.2021
174 Clear 26 1011 83 10000 5.14 180 23:37 17.04.2021
175 Clear 27 1011 69 10000 4.63 190 22:51 17.04.2021
176 Clear 27 1011 69 10000 4.63 190 22:31 17.04.2021
177 Clear 29 1011 69 10000 5.14 170 21:50 17.04.2021
178 Clear 29 1011 69 10000 5.14 170 21:30 17.04.2021
179 Clear 29 1011 65 10000 4.63 170 20:48 17.04.2021
180 Clear 29 1011 65 10000 4.63 170 20:27 17.04.2021
181 Clear 29 1012 69 10000 5.66 150 19:45 17.04.2021
182 Clear 29 1012 69 10000 5.66 150 19:21 17.04.2021
183 Clear 29 1013 73 10000 2.57 150 18:55 17.04.2021
184 Clear 29 1013 73 10000 2.57 150 18:35 17.04.2021
185 Clear 27 1014 57 10000 1.54 40 17:56 17.04.2021
186 Clear 28 1014 57 10000 1.54 40 17:56 17.04.2021
187 Clear 27 1014 57 10000 1.54 40 17:38 17.04.2021
188 Clear 27 1015 61 10000 2.57 10 16:52 17.04.2021
189 Clear 27 1015 61 10000 2.57 10 16:27 17.04.2021
190 Clear 26 1015 83 10000 3.09 340 15:42 17.04.2021
191 Clear 25 1015 78 10000 2.57 350 14:50 17.04.2021
192 Clear 25 1015 78 10000 2.57 350 14:30 17.04.2021
193 Clear 22 1015 88 10000 1.54 360 13:47 17.04.2021
194 Clear 22 1015 88 10000 1.54 360 13:20 17.04.2021
195 Clear 20 1014 73 10000 2.06 10 12:39 17.04.2021
196 Clear 20 1014 73 10000 2.06 10 12:18 17.04.2021
197 Clear 21 1014 88 10000 3.09 20 11:39 17.04.2021
198 Clear 21 1014 88 10000 3.09 20 11:20 17.04.2021
199 Clear 21 1014 94 10000 2.31 17 10:41 17.04.2021
200 Clear 20 1014 94 10000 2.11 12 10:22 17.04.2021
201 Clear 21 1014 88 10000 1.03 270 09:19 17.04.2021
202 Clear 21 1014 88 10000 1.03 70 08:34 17.04.2021
203 Clear 21 1014 88 10000 1.03 150 07:59 17.04.2021
204 Clear 21 1015 83 10000 1.54 100 06:42 17.04.2021
205 Clear 24 1015 73 10000 1.54 60 03:49 17.04.2021
206 Clear 24 1015 69 10000 3.6 130 02:28 17.04.2021
207 Clear 24 1014 73 10000 2.06 170 00:43 17.04.2021
208 Clear 24 1014 73 10000 2.06 170 00:21 17.04.2021
209 Clear 25 1014 69 10000 4.63 120 23:43 16.04.2021
210 Clear 25 1014 69 10000 4.63 120 23:20 16.04.2021
211 Clouds 26 1013 69 10000 5.66 120 22:42 16.04.2021
212 Clouds 26 1013 69 10000 5.66 120 22:20 16.04.2021
213 Clouds 28 1014 61 10000 4.12 150 21:49 16.04.2021
214 Clouds 28 1014 61 10000 4.12 150 21:28 16.04.2021
215 Clouds 28 1014 69 10000 6.17 160 20:47 16.04.2021
216 Clouds 28 1014 69 10000 6.17 160 20:24 16.04.2021
217 Clouds 28 1014 65 10000 5.14 150 19:50 16.04.2021
218 Clouds 28 1014 65 10000 5.14 150 19:27 16.04.2021
219 Clouds 28 1015 69 10000 5.14 140 18:28 16.04.2021
220 Clouds 28 1015 69 10000 5.14 140 18:28 16.04.2021
221 Clouds 28 1015 69 10000 5.14 140 17:55 16.04.2021
222 Clouds 28 1016 50 10000 3.09 340 17:22 16.04.2021
223 Clouds 28 1017 65 10000 2.57 350 16:59 16.04.2021
224 Clouds 27 1017 65 10000 2.57 350 16:41 16.04.2021
225 Clouds 27 1017 65 10000 2.57 350 16:21 16.04.2021
226 Clouds 26 1018 73 10000 3.09 340 15:42 16.04.2021
227 Clear 25 1017 78 10000 2.06 10 14:59 16.04.2021
228 Clear 25 1017 78 10000 2.06 10 14:40 16.04.2021
229 Clear 23 1017 83 10000 1.54 10 13:59 16.04.2021
230 Clear 23 1017 83 10000 1.54 10 13:38 16.04.2021
231 Clear 23 1017 83 10000 1.54 10 13:18 16.04.2021
232 Clear 21 1016 83 10000 1.54 10 12:44 16.04.2021
233 Clear 21 1016 83 10000 1.54 10 12:25 16.04.2021
234 Clear 21 1016 78 10000 1.03 0 11:43 16.04.2021
235 Clear 21 1016 78 10000 1.03 0 11:24 16.04.2021
236 Clear 19 1016 94 10000 1.03 360 10:43 16.04.2021
237 Clear 19 1016 94 10000 1.03 360 10:25 16.04.2021
238 Clear 19 1015 94 10000 1.03 230 09:52 16.04.2021
239 Clear 19 1015 94 10000 1.03 230 09:24 16.04.2021
240 Clear 20 1016 88 10000 1.03 60 08:46 16.04.2021
241 Clear 20 1016 88 10000 1.03 60 08:27 16.04.2021
242 Clear 20 1016 88 10000 2.06 80 07:47 16.04.2021
243 Clear 20 1016 88 10000 2.06 80 07:28 16.04.2021
244 Clear 21 1017 88 10000 2.06 110 06:56 16.04.2021
245 Clear 22 1017 73 10000 1.54 90 05:33 16.04.2021
246 Clear 23 1017 73 10000 1.54 90 04:18 16.04.2021
247 Clouds 24 1017 78 10000 4.63 130 00:49 16.04.2021
248 Clouds 24 1017 78 10000 4.63 130 00:23 16.04.2021
249 Clouds 24 1017 78 10000 4.12 140 23:59 15.04.2021
250 Clouds 24 1017 78 10000 4.12 140 23:35 15.04.2021
251 Clouds 25 1016 65 10000 4.63 150 22:53 15.04.2021
252 Clouds 25 1016 65 10000 4.63 150 22:33 15.04.2021
253 Clouds 26 1016 65 10000 6.17 170 21:59 15.04.2021
254 Clouds 26 1016 65 10000 6.17 170 21:40 15.04.2021
255 Clouds 26 1016 65 10000 6.17 170 21:19 15.04.2021
256 Clouds 27 1016 65 10000 6.17 170 20:40 15.04.2021
257 Clouds 27 1016 65 10000 6.17 170 20:21 15.04.2021
258 Clouds 27 1017 61 10000 5.14 160 19:43 15.04.2021
259 Clouds 27 1017 61 10000 5.14 160 19:24 15.04.2021
260 Clouds 28 1017 65 10000 3.09 130 18:42 15.04.2021
261 Clouds 27 1017 65 10000 3.09 130 18:20 15.04.2021
262 Clouds 27 1018 57 10000 1.54 350 17:54 15.04.2021
263 Clouds 27 1018 57 10000 1.54 350 17:36 15.04.2021
264 Clouds 27 1019 65 10000 2.57 340 16:57 15.04.2021
265 Clouds 27 1019 65 10000 2.57 340 16:39 15.04.2021
266 Clouds 27 1019 65 10000 2.57 340 16:20 15.04.2021
267 Clouds 25 1019 78 10000 3.09 340 15:44 15.04.2021
268 Clouds 25 1019 78 10000 3.09 340 15:25 15.04.2021
269 Clouds 25 1019 78 10000 2.57 360 14:39 15.04.2021
270 Clouds 25 1019 78 10000 2.57 360 14:21 15.04.2021
271 Clouds 22 1018 83 10000 2.06 340 13:41 15.04.2021
272 Clouds 21 1018 83 10000 2.06 340 13:18 15.04.2021
273 Clouds 20 1018 83 10000 2.57 340 12:40 15.04.2021
274 Clouds 20 1018 83 10000 2.57 340 12:21 15.04.2021
275 Clouds 20 1018 83 10000 2.57 340 12:21 15.04.2021
276 Clouds 21 1017 88 10000 3.09 30 11:45 15.04.2021
277 Clouds 21 1017 88 10000 3.09 30 11:23 15.04.2021
278 Clouds 21 1018 77 10000 2.06 110 10:50 15.04.2021
279 Clouds 22 1018 77 10000 2.06 110 10:27 15.04.2021
280 Clear 22 1018 73 10000 2.06 120 09:48 15.04.2021
281 Clear 21 1018 73 10000 2.06 120 09:23 15.04.2021
282 Clear 22 1018 73 10000 2.57 90 08:47 15.04.2021
283 Clear 22 1018 73 10000 2.57 90 08:21 15.04.2021
284 Clear 22 1018 73 10000 3.09 60 07:24 15.04.2021
285 Clear 22 1019 73 10000 2.06 50 06:40 15.04.2021
286 Clear 22 1019 73 10000 2.06 50 06:21 15.04.2021
287 Clouds 23 1019 73 10000 2.06 50 04:52 15.04.2021
288 Clouds 24 1019 64 10000 3.6 170 01:58 15.04.2021
289 Clouds 24 1017 64 10000 4.63 170 23:43 14.04.2021
290 Clouds 24 1017 64 10000 4.63 170 23:43 14.04.2021
291 Clouds 24 1017 64 10000 4.63 170 23:25 14.04.2021
292 Clouds 25 1017 61 10000 5.14 170 22:47 14.04.2021
293 Clouds 26 1017 61 10000 5.14 170 22:26 14.04.2021
294 Clouds 26 1017 61 10000 5.66 180 21:51 14.04.2021
295 Clouds 26 1017 61 10000 5.66 180 21:32 14.04.2021
296 Clouds 26 1017 61 10000 5.66 170 20:58 14.04.2021
297 Clouds 27 1017 61 10000 5.66 170 20:34 14.04.2021
298 Clouds 27 1017 61 10000 4.63 150 19:55 14.04.2021
299 Clouds 27 1017 61 10000 4.63 150 19:36 14.04.2021
300 Clouds 27 1017 61 10000 4.63 150 19:18 14.04.2021
301 Clouds 27 1018 54 10000 4.12 140 18:46 14.04.2021
302 Clouds 27 1018 54 10000 4.12 140 18:18 14.04.2021
303 Clouds 27 1018 65 10000 4.63 140 17:46 14.04.2021
304 Clouds 27 1018 65 10000 4.63 140 17:23 14.04.2021
305 Clouds 27 1019 65 10000 3.09 50 16:39 14.04.2021
306 Clouds 27 1019 65 10000 3.09 50 16:19 14.04.2021
307 Clouds 26 1019 83 10000 3.09 20 15:39 14.04.2021
308 Clouds 26 1019 83 10000 3.09 20 15:18 14.04.2021
309 Clouds 25 1019 83 10000 2.57 20 14:40 14.04.2021
310 Clouds 25 1019 83 10000 2.57 20 14:20 14.04.2021
311 Clouds 24 1018 88 10000 2.57 340 13:46 14.04.2021
312 Clouds 22 1018 94 10000 3.09 340 12:45 14.04.2021
313 Clouds 22 1018 94 10000 3.09 340 12:24 14.04.2021
314 Clouds 22 1017 83 10000 1.54 350 11:42 14.04.2021
315 Clouds 22 1017 83 10000 1.54 350 11:23 14.04.2021
316 Clouds 22 1018 94 9000 1.54 330 10:34 14.04.2021
317 Clouds 22 1018 94 10000 2.57 340 09:43 14.04.2021
318 Clouds 22 1018 94 10000 2.57 340 09:25 14.04.2021
319 Clouds 22 1018 94 10000 1.03 310 08:56 14.04.2021
320 Clouds 22 1018 94 10000 1.03 310 08:32 14.04.2021
321 Clouds 22 1018 94 10000 2.06 310 07:51 14.04.2021
322 Clouds 22 1019 94 10000 1.03 330 06:35 14.04.2021
323 Clouds 23 1019 88 10000 2.57 330 05:50 14.04.2021
324 Clouds 23 1018 69 10000 1.03 0 02:57 14.04.2021
325 Clouds 23 1018 73 10000 2.57 180 01:19 14.04.2021
326 Clouds 23 1017 73 10000 4.63 190 00:34 14.04.2021
327 Clouds 23 1017 73 10000 3.09 180 23:38 13.04.2021
328 Clouds 24 1017 78 10000 2.57 170 22:55 13.04.2021
329 Clouds 24 1017 78 10000 2.57 170 22:36 13.04.2021
330 Clouds 24 1017 78 10000 2.57 170 22:18 13.04.2021
331 Clouds 24 1016 78 10000 2.06 120 21:40 13.04.2021
332 Clouds 24 1016 78 10000 2.06 50 21:20 13.04.2021
333 Clouds 25 1017 83 10000 3.09 180 20:39 13.04.2021
334 Clouds 25 1017 83 10000 3.09 180 20:20 13.04.2021
335 Clouds 25 1017 83 10000 3.09 340 19:27 13.04.2021
336 Clouds 25 1017 88 10000 3.6 330 18:58 13.04.2021
337 Clouds 25 1017 88 10000 3.6 330 18:35 13.04.2021
338 Clouds 25 1018 94 10000 3.6 350 17:45 13.04.2021
339 Clouds 25 1018 94 10000 3.6 350 17:23 13.04.2021
340 Clouds 25 1018 83 10000 1.03 0 16:57 13.04.2021
341 Clouds 25 1018 83 10000 1.03 0 16:39 13.04.2021
342 Clouds 24 1018 83 10000 1.03 0 16:19 13.04.2021
343 Mist 25 1018 88 5000 2.06 30 15:40 13.04.2021
344 Clouds 23 1017 94 10000 1.54 50 14:59 13.04.2021
345 Clouds 23 1017 94 10000 1.54 50 14:41 13.04.2021
346 Clouds 23 1017 94 10000 1.54 50 14:18 13.04.2021
347 Clouds 23 1017 94 9000 1.03 0 13:41 13.04.2021
348 Clouds 23 1017 94 9000 1.03 0 13:22 13.04.2021
349 Clouds 24 1017 94 8000 6.17 90 12:53 13.04.2021
350 Clouds 23 1016 88 10000 1.03 60 12:24 13.04.2021
351 Clouds 23 1015 94 7000 3.09 180 11:50 13.04.2021
352 Clouds 23 1015 94 7000 3.09 180 11:29 13.04.2021
353 Clouds 23 1014 88 8000 2.57 140 10:45 13.04.2021
354 Clouds 23 1014 88 8000 2.57 140 10:20 13.04.2021
355 Clouds 23 1014 88 8000 2.57 140 10:20 13.04.2021
356 Clouds 23 1014 94 8000 2.57 160 09:53 13.04.2021
357 Clouds 23 1014 94 8000 2.57 160 09:34 13.04.2021
358 Clouds 24 1014 94 6000 1.03 120 08:51 13.04.2021
359 Clouds 24 1014 94 6000 1.03 120 08:26 13.04.2021
360 Clouds 24 1014 94 6000 1.54 120 07:59 13.04.2021
361 Clouds 24 1014 94 6000 1.54 120 07:35 13.04.2021
362 Mist 25 1015 88 5000 3.09 150 06:29 13.04.2021
363 Clouds 26 1015 89 10000 5.14 190 04:45 13.04.2021
364 Clouds 27 1014 74 10000 5.14 200 01:37 13.04.2021
365 Clouds 28 1013 69 10000 5.14 250 00:18 13.04.2021
366 Clouds 28 1012 65 10000 6.69 250 23:42 12.04.2021
367 Clouds 28 1012 65 10000 6.69 250 23:20 12.04.2021
368 Clouds 29 1011 54 10000 7.72 210 22:38 12.04.2021
369 Clear 33 1011 29 10000 6.69 190 21:57 12.04.2021
370 Clear 33 1011 29 10000 6.69 190 21:38 12.04.2021
371 Clear 33 1011 29 10000 6.69 190 21:19 12.04.2021
372 Clear 35 1010 26 10000 6.17 200 20:38 12.04.2021
373 Clear 34 1010 26 10000 6.17 200 20:20 12.04.2021
374 Clear 34 1010 43 10000 2.57 50 19:43 12.04.2021
375 Clear 34 1010 43 10000 2.57 50 19:23 12.04.2021
376 Clear 34 1010 43 10000 2.57 50 19:23 12.04.2021
377 Clear 34 1011 49 10000 3.6 40 18:59 12.04.2021
378 Clear 34 1011 49 10000 3.6 40 18:40 12.04.2021
379 Clear 34 1011 49 10000 3.6 40 18:22 12.04.2021
380 Clear 33 1012 66 10000 3.6 20 17:43 12.04.2021
381 Clear 33 1012 66 10000 3.6 20 17:22 12.04.2021
382 Clear 32 1012 70 10000 3.6 350 16:46 12.04.2021
383 Clear 32 1012 70 10000 3.6 350 16:46 12.04.2021
384 Clear 32 1012 70 10000 3.6 350 16:27 12.04.2021
385 Clear 30 1013 74 10000 4.12 360 15:48 12.04.2021
386 Clear 30 1013 74 10000 4.12 360 15:27 12.04.2021
387 Clear 28 1013 78 10000 4.12 360 14:50 12.04.2021
388 Clear 28 1013 78 10000 4.12 360 14:30 12.04.2021
389 Clear 28 1013 78 10000 4.12 360 14:30 12.04.2021
390 Clear 26 1012 83 10000 4.12 360 13:46 12.04.2021
391 Clear 26 1012 83 10000 4.12 360 13:27 12.04.2021
392 Clear 23 1011 83 10000 3.6 350 12:48 12.04.2021
393 Clear 23 1011 83 10000 3.6 350 12:26 12.04.2021
394 Clear 22 1011 83 10000 3.09 350 11:59 12.04.2021
395 Clear 22 1011 83 10000 3.09 350 11:59 12.04.2021
396 Clear 22 1011 83 10000 3.09 350 11:24 12.04.2021
397 Clear 22 1013 78 10000 2.57 20 10:46 12.04.2021
398 Clear 22 1013 78 10000 2.57 20 10:26 12.04.2021
399 Clear 22 1013 78 10000 1.54 340 09:49 12.04.2021
400 Clear 22 1013 78 10000 1.54 340 09:19 12.04.2021
401 Clear 22 1012 78 10000 2.06 50 08:36 12.04.2021
402 Clear 22 1013 83 10000 1.03 40 07:40 12.04.2021
403 Clear 22 1013 83 10000 1.03 40 07:20 12.04.2021
404 Clear 22 1013 83 10000 1.03 40 07:20 12.04.2021
405 Clear 23 1013 78 10000 2.14 357 05:52 12.04.2021
406 Clear 25 1013 50 10000 0.51 300 04:48 12.04.2021
407 Clear 26 1013 47 10000 2.06 180 01:31 12.04.2021
408 Clear 27 1012 65 10000 3.6 170 00:25 12.04.2021
409 Clear 27 1012 73 10000 5.66 170 23:48 11.04.2021
410 Clear 27 1012 73 10000 5.66 170 23:29 11.04.2021
411 Clear 29 1011 54 10000 5.14 170 22:46 11.04.2021
412 Clear 29 1011 54 10000 5.14 170 22:25 11.04.2021
413 Clear 30 1011 57 10000 6.17 170 21:50 11.04.2021
414 Clear 30 1011 57 10000 6.17 170 21:30 11.04.2021
415 Clear 31 1011 54 10000 6.17 160 20:58 11.04.2021
416 Clear 32 1011 54 10000 6.17 160 20:31 11.04.2021
417 Clear 32 1011 55 10000 3.6 30 19:58 11.04.2021
418 Clear 32 1011 55 10000 3.6 30 19:38 11.04.2021
419 Clear 32 1011 55 10000 3.6 30 19:19 11.04.2021
420 Clear 32 1011 55 10000 3.6 30 19:19 11.04.2021
421 Clear 32 1011 55 10000 3.6 30 19:19 11.04.2021
422 Clear 32 1011 55 10000 3.6 30 19:19 11.04.2021
423 Clear 32 1012 65 10000 2.57 30 18:45 11.04.2021
424 Clear 32 1012 65 10000 2.57 30 18:26 11.04.2021
425 Clear 31 1013 51 10000 2.57 340 17:48 11.04.2021
426 Clear 31 1013 51 10000 2.57 340 17:28 11.04.2021
427 Clear 30 1014 65 10000 3.09 360 16:52 11.04.2021
428 Clear 30 1014 65 10000 3.09 360 16:26 11.04.2021
429 Clear 28 1015 69 10000 3.6 360 15:57 11.04.2021
430 Clear 28 1015 69 10000 3.6 360 15:38 11.04.2021
431 Clear 28 1015 69 10000 3.6 360 15:20 11.04.2021
432 Clear 26 1015 78 10000 3.6 360 14:46 11.04.2021
433 Clear 25 1015 78 10000 3.6 360 14:18 11.04.2021
434 Clear 24 1015 78 10000 3.09 350 13:39 11.04.2021
435 Clear 24 1015 78 10000 3.09 350 13:21 11.04.2021
436 Clear 22 1015 83 10000 3.6 350 12:23 11.04.2021
437 Clear 21 1014 88 10000 3.09 360 11:53 11.04.2021
438 Clear 21 1014 88 10000 3.09 360 11:31 11.04.2021
439 Clouds 20 1014 88 10000 0.51 0 10:56 11.04.2021
440 Clouds 20 1014 88 10000 0.51 0 10:38 11.04.2021
441 Clouds 20 1014 88 10000 0.51 0 10:19 11.04.2021
442 Clouds 20 1014 88 10000 1.03 310 09:37 11.04.2021
443 Clouds 20 1014 88 10000 1.03 310 09:19 11.04.2021
444 Clear 21 1014 88 10000 1.54 70 08:31 11.04.2021
445 Clear 21 1014 88 10000 2.57 100 07:37 11.04.2021
446 Clear 21 1014 88 10000 2.57 100 07:18 11.04.2021
447 Clear 22 1015 83 10000 2.06 70 05:44 11.04.2021
448 Clear 24 1015 73 10000 2.57 100 05:21 11.04.2021
449 Clear 24 1015 73 10000 2.57 100 04:35 11.04.2021
450 Clear 24 1015 61 10000 1.03 200 02:58 11.04.2021
451 Clear 26 1014 61 10000 4.12 190 00:49 11.04.2021
452 Clear 26 1014 61 10000 4.12 190 00:25 11.04.2021
453 Clear 26 1013 61 10000 5.14 130 23:33 10.04.2021
454 Clear 27 1013 47 10000 5.66 150 22:54 10.04.2021
455 Clear 28 1013 47 10000 5.66 150 22:26 10.04.2021
456 Clear 28 1013 57 10000 5.66 170 21:52 10.04.2021
457 Clear 28 1013 57 10000 5.66 170 21:24 10.04.2021
458 Clear 29 1013 61 10000 7.2 170 20:53 10.04.2021
459 Clear 29 1013 61 10000 7.2 170 20:34 10.04.2021
460 Clear 30 1014 61 10000 6.69 160 19:58 10.04.2021
461 Clear 30 1014 61 10000 6.69 160 19:40 10.04.2021
462 Clear 30 1014 61 10000 6.69 160 19:21 10.04.2021
463 Clear 30 1015 54 10000 2.57 20 18:41 10.04.2021
464 Clear 30 1015 54 10000 2.57 20 18:23 10.04.2021
465 Clear 30 1016 54 10000 3.09 40 17:35 10.04.2021
466 Clear 29 1017 65 10000 3.09 10 16:37 10.04.2021
467 Clear 29 1017 65 10000 3.09 10 16:19 10.04.2021
468 Clear 28 1018 65 10000 3.09 350 15:43 10.04.2021
469 Clear 25 1018 78 10000 3.09 340 14:52 10.04.2021
470 Clear 25 1018 78 10000 3.09 340 14:30 10.04.2021
471 Clear 24 1017 83 10000 3.6 340 13:55 10.04.2021
472 Clear 24 1017 83 10000 3.6 340 13:36 10.04.2021
473 Clear 22 1017 78 10000 2.57 330 12:41 10.04.2021
474 Clear 22 1017 78 10000 2.57 330 12:20 10.04.2021
475 Clear 22 1017 83 10000 2.57 360 11:45 10.04.2021
476 Clear 22 1017 83 10000 2.57 360 11:21 10.04.2021
477 Clear 22 1018 83 10000 2.57 360 10:50 10.04.2021
478 Clear 22 1018 83 10000 2.57 360 10:30 10.04.2021
479 Clear 22 1017 83 10000 2.57 20 09:37 10.04.2021
480 Clear 22 1017 83 10000 2.57 20 09:18 10.04.2021
481 Clear 22 1018 83 10000 3.09 50 08:34 10.04.2021
482 Clear 22 1018 83 10000 3.6 70 07:56 10.04.2021
483 Clear 22 1018 83 10000 3.6 70 07:26 10.04.2021
484 Clear 22 1019 83 10000 2.06 90 06:29 10.04.2021
485 Clear 23 1019 78 10000 1.03 0 05:34 10.04.2021
486 Clear 24 1019 73 10000 2.57 90 03:41 10.04.2021
487 Clear 25 1019 69 10000 1.54 110 02:42 10.04.2021
488 Clear 26 1019 65 10000 3.6 100 01:27 10.04.2021
489 Clouds 26 1018 65 10000 1.03 110 00:32 10.04.2021
490 Clouds 26 1018 65 10000 1.03 110 00:32 10.04.2021
491 Clouds 27 1018 69 10000 5.66 100 23:55 09.04.2021
492 Clouds 27 1018 69 10000 5.66 100 23:30 09.04.2021
493 Clouds 28 1018 61 10000 6.69 120 22:54 09.04.2021
494 Clouds 28 1018 61 10000 6.69 120 22:36 09.04.2021
495 Clouds 29 1018 61 10000 5.66 130 21:41 09.04.2021
496 Clouds 29 1018 61 10000 5.66 130 21:22 09.04.2021
497 Clouds 29 1018 65 10000 6.17 150 20:57 09.04.2021
498 Clouds 29 1018 65 10000 6.17 150 20:39 09.04.2021
499 Clouds 29 1018 65 10000 6.17 150 20:20 09.04.2021
500 Clouds 29 1019 61 10000 5.14 160 19:43 09.04.2021
501 Clouds 29 1019 61 10000 5.14 160 19:22 09.04.2021
502 Clouds 29 1019 58 10000 3.6 160 18:44 09.04.2021
503 Clouds 29 1019 58 10000 3.6 160 18:25 09.04.2021
504 Clouds 29 1021 57 10000 1.03 0 17:49 09.04.2021
505 Clouds 29 1021 57 10000 1.03 0 17:30 09.04.2021
506 Clouds 28 1021 57 10000 2.06 330 16:55 09.04.2021
507 Clouds 28 1021 57 10000 2.06 330 16:30 09.04.2021
508 Clear 27 1022 69 10000 1.54 340 15:47 09.04.2021
509 Clear 27 1022 69 10000 1.54 340 15:24 09.04.2021
510 Clear 26 1022 78 10000 1.54 20 14:47 09.04.2021
511 Clear 26 1022 78 10000 1.54 20 14:29 09.04.2021
512 Clouds 25 1021 83 10000 2.06 20 13:47 09.04.2021
513 Clouds 24 1021 83 10000 2.06 20 13:22 09.04.2021
514 Clouds 23 1020 88 10000 3.09 20 12:47 09.04.2021
515 Clouds 23 1020 88 10000 3.09 20 12:24 09.04.2021
516 Clear 22 1020 88 10000 2.57 360 11:43 09.04.2021
517 Clear 22 1020 88 10000 2.57 360 11:20 09.04.2021
518 Clouds 21 1020 94 10000 1.54 320 10:38 09.04.2021
519 Clouds 21 1020 94 10000 1.54 320 10:18 09.04.2021
520 Clear 22 1020 88 10000 2.06 90 09:29 09.04.2021
521 Clear 22 1020 88 10000 2.06 110 08:56 09.04.2021
522 Clear 22 1020 88 10000 2.06 110 08:34 09.04.2021
523 Clear 23 1020 88 10000 2.57 60 07:34 09.04.2021
524 Clear 23 1021 83 10000 3.09 70 06:30 09.04.2021
525 Clear 24 1021 78 10000 4.12 70 05:45 09.04.2021
526 Clouds 25 1021 73 10000 2.57 130 03:43 09.04.2021
527 Clouds 25 1020 83 10000 5.14 110 00:40 09.04.2021
528 Clouds 25 1020 83 10000 5.14 110 00:21 09.04.2021
529 Clouds 25 1020 83 10000 7.2 110 23:56 08.04.2021
530 Clouds 26 1020 83 10000 6.17 120 22:58 08.04.2021
531 Clouds 26 1020 83 10000 6.17 120 22:38 08.04.2021
532 Clouds 26 1019 73 10000 7.72 120 22:20 08.04.2021
533 Clouds 26 1019 73 10000 7.72 120 21:54 08.04.2021
534 Clouds 26 1019 73 10000 7.72 120 21:54 08.04.2021
535 Clouds 27 1019 73 10000 7.72 120 21:36 08.04.2021
536 Clouds 27 1020 83 10000 4.63 150 21:18 08.04.2021
537 Clouds 26 1020 83 10000 4.63 150 20:42 08.04.2021
538 Clouds 26 1020 78 10000 6.17 180 20:20 08.04.2021
539 Clouds 26 1020 78 10000 6.17 180 19:41 08.04.2021
540 Clouds 26 1020 78 10000 6.17 180 19:19 08.04.2021
541 Clouds 26 1021 78 10000 6.17 160 18:44 08.04.2021
542 Clouds 27 1021 78 10000 6.17 160 18:20 08.04.2021
543 Clouds 26 1021 83 10000 5.66 150 17:48 08.04.2021
544 Clouds 26 1021 83 10000 5.66 150 17:24 08.04.2021
545 Clouds 26 1022 78 10000 5.14 160 16:46 08.04.2021
546 Clouds 27 1022 78 10000 5.14 160 16:25 08.04.2021
547 Clouds 26 1022 69 10000 2.57 120 15:47 08.04.2021
548 Clouds 25 1022 69 10000 2.57 120 15:28 08.04.2021
549 Clouds 26 1022 78 10000 2.57 20 14:45 08.04.2021
550 Clouds 25 1022 78 10000 2.57 20 14:24 08.04.2021
551 Clouds 24 1021 88 10000 3.6 340 13:56 08.04.2021
552 Clouds 24 1021 88 10000 3.6 340 13:38 08.04.2021
553 Clouds 23 1021 88 10000 3.6 340 13:19 08.04.2021
554 Clouds 23 1021 88 10000 3.6 340 13:19 08.04.2021
555 Clouds 22 1021 83 10000 3.09 310 12:38 08.04.2021
556 Clouds 22 1020 94 10000 2.57 330 11:59 08.04.2021
557 Clouds 22 1020 94 10000 2.57 330 11:41 08.04.2021
558 Clouds 22 1020 88 10000 2.06 350 10:57 08.04.2021
559 Clouds 22 1020 83 10000 2.06 140 10:28 08.04.2021
560 Clear 22 1020 88 10000 2.06 100 09:59 08.04.2021
561 Clear 22 1020 88 10000 2.06 100 09:40 08.04.2021
562 Clear 21 1020 94 10000 1.03 80 08:45 08.04.2021
563 Clear 21 1020 94 10000 1.03 80 08:27 08.04.2021
564 Clouds 22 1020 83 10000 3.6 100 07:57 08.04.2021
565 Clouds 22 1020 83 10000 3.6 100 07:27 08.04.2021
566 Clouds 24 1020 78 10000 2.57 90 03:48 08.04.2021
567 Clouds 25 1019 69 10000 5.66 110 00:54 08.04.2021
568 Clouds 26 1018 69 10000 6.17 110 23:59 07.04.2021
569 Clouds 26 1018 69 10000 6.17 110 23:39 07.04.2021
570 Clouds 26 1018 69 10000 6.17 110 23:21 07.04.2021
571 Clouds 26 1018 69 10000 6.69 110 22:47 07.04.2021
572 Clouds 26 1018 69 10000 6.69 110 22:29 07.04.2021
573 Clouds 28 1017 69 10000 6.69 110 21:44 07.04.2021
574 Clouds 28 1017 69 10000 6.69 110 21:24 07.04.2021
575 Clouds 27 1017 65 10000 5.66 140 20:43 07.04.2021
576 Clouds 27 1017 69 10000 7.2 140 20:21 07.04.2021
577 Clouds 27 1017 69 10000 7.2 140 20:21 07.04.2021
578 Clouds 27 1017 69 10000 7.2 140 19:44 07.04.2021
579 Clouds 28 1017 69 10000 7.2 140 19:26 07.04.2021
580 Clouds 28 1017 69 10000 6.17 160 18:47 07.04.2021
581 Clouds 28 1017 69 10000 6.17 160 18:20 07.04.2021
582 Clouds 27 1018 73 10000 1.03 0 17:55 07.04.2021
583 Clouds 27 1018 73 10000 1.03 0 17:37 07.04.2021
584 Clouds 27 1018 83 10000 1.54 20 16:58 07.04.2021
585 Clouds 27 1018 83 10000 1.54 20 16:38 07.04.2021
586 Clouds 25 1018 83 10000 1.54 20 16:19 07.04.2021
587 Clouds 25 1018 78 10000 2.57 180 15:39 07.04.2021
588 Clouds 24 1018 83 10000 3.09 140 14:57 07.04.2021
589 Clouds 24 1018 83 10000 3.09 140 14:32 07.04.2021
590 Clouds 24 1017 83 10000 2.06 40 13:52 07.04.2021
591 Clouds 24 1017 83 10000 2.06 40 13:27 07.04.2021
592 Clouds 23 1016 78 10000 2.57 120 12:53 07.04.2021
593 Clouds 23 1016 78 10000 2.57 120 12:25 07.04.2021
594 Clouds 23 1016 83 10000 2.57 100 11:56 07.04.2021
595 Clouds 23 1016 83 10000 2.57 100 11:28 07.04.2021
596 Clouds 23 1016 83 10000 2.57 110 10:53 07.04.2021
597 Rain 22 1016 100 10000 2.06 280 10:21 07.04.2021
598 Clouds 23 1016 100 10000 1.54 300 09:44 07.04.2021
599 Clouds 23 1016 100 10000 1.54 300 09:25 07.04.2021
600 Clouds 22 1015 100 10000 2.06 330 08:47 07.04.2021
601 Clouds 22 1015 100 10000 2.06 330 08:22 07.04.2021
602 Clouds 23 1015 94 8000 1.54 350 07:43 07.04.2021
603 Rain 22 1015 94 8000 1.54 350 07:24 07.04.2021
604 Rain 23 1016 88 8000 1.03 0 06:32 07.04.2021
605 Rain 24 1016 73 10000 1.03 60 04:23 07.04.2021
606 Rain 26 1015 73 10000 6.17 100 00:31 07.04.2021
607 Rain 26 1014 78 10000 7.2 110 23:47 06.04.2021
608 Rain 26 1014 78 10000 7.2 110 23:22 06.04.2021
609 Rain 27 1014 74 10000 7.2 130 22:48 06.04.2021
610 Rain 27 1014 74 10000 7.2 130 22:19 06.04.2021
611 Rain 27 1014 69 10000 6.69 150 21:43 06.04.2021
612 Clouds 28 1014 69 10000 6.69 150 21:22 06.04.2021
613 Clouds 28 1014 65 10000 7.2 150 20:54 06.04.2021
614 Clouds 28 1014 65 10000 7.2 150 20:25 06.04.2021
615 Clouds 29 1014 74 10000 6.69 160 19:58 06.04.2021
616 Clouds 29 1014 74 10000 6.69 160 19:35 06.04.2021
617 Clouds 29 1014 74 10000 5.14 170 18:58 06.04.2021
618 Clouds 29 1014 74 10000 5.14 170 18:40 06.04.2021
619 Clouds 29 1014 74 10000 5.14 170 18:19 06.04.2021
620 Clouds 29 1016 74 10000 5.66 160 17:43 06.04.2021
621 Clouds 28 1016 74 10000 5.66 160 17:19 06.04.2021
622 Clouds 28 1017 69 10000 4.12 160 16:46 06.04.2021
623 Clouds 28 1017 69 10000 4.12 160 16:26 06.04.2021
624 Clouds 28 1018 73 10000 1.54 50 15:27 06.04.2021
625 Clouds 26 1018 83 10000 2.57 20 14:45 06.04.2021
626 Clouds 26 1018 83 10000 2.57 20 14:45 06.04.2021
627 Clouds 26 1018 83 10000 2.57 20 14:26 06.04.2021
628 Clouds 24 1018 88 10000 1.54 20 13:47 06.04.2021
629 Clouds 24 1018 88 10000 1.54 20 13:27 06.04.2021
630 Clouds 22 1017 88 10000 3.09 30 12:55 06.04.2021
631 Clouds 22 1017 88 10000 3.09 30 12:36 06.04.2021
632 Clouds 22 1017 88 10000 3.09 30 12:18 06.04.2021
633 Clouds 22 1016 83 10000 2.57 360 11:43 06.04.2021
634 Clouds 22 1016 83 10000 2.57 360 11:19 06.04.2021
635 Clouds 22 1016 88 10000 1.54 360 10:43 06.04.2021
636 Clouds 22 1016 88 10000 1.54 360 10:22 06.04.2021
637 Clouds 22 1015 88 10000 1.03 0 09:45 06.04.2021
638 Clouds 22 1015 88 10000 1.03 0 09:23 06.04.2021
639 Clouds 22 1015 88 10000 0.51 0 08:29 06.04.2021
640 Clouds 22 1016 88 10000 2.06 30 07:32 06.04.2021
641 Clouds 23 1016 88 10000 1.54 100 06:54 06.04.2021
642 Clear 24 1017 73 10000 1.54 100 04:52 06.04.2021
643 Clouds 25 1017 73 10000 3.09 110 00:59 06.04.2021
644 Clouds 26 1017 73 10000 3.09 110 00:38 06.04.2021
645 Clouds 26 1017 73 10000 3.09 110 00:20 06.04.2021
646 Clouds 26 1016 69 10000 4.12 100 23:41 05.04.2021
647 Clouds 26 1016 69 10000 4.12 100 23:18 05.04.2021
648 Clouds 27 1016 69 10000 3.6 130 22:41 05.04.2021
649 Clouds 27 1016 69 10000 3.6 130 22:22 05.04.2021
650 Clouds 27 1016 65 10000 4.63 130 21:39 05.04.2021
651 Clouds 27 1016 65 10000 4.63 130 21:19 05.04.2021
652 Clouds 27 1016 69 10000 4.12 160 20:42 05.04.2021
653 Clouds 27 1016 69 10000 4.12 160 20:22 05.04.2021
654 Clouds 27 1016 57 10000 3.6 60 19:39 05.04.2021
655 Clouds 27 1016 57 10000 3.6 60 19:19 05.04.2021
656 Clouds 26 1017 88 6000 4.12 60 18:42 05.04.2021
657 Clouds 26 1017 88 6000 4.12 60 18:23 05.04.2021
658 Clouds 27 1017 69 10000 2.57 110 17:47 05.04.2021
659 Clouds 27 1017 69 10000 2.57 110 17:24 05.04.2021
660 Clouds 28 1018 73 10000 2.57 310 16:57 05.04.2021
661 Clouds 28 1018 73 10000 2.57 310 16:38 05.04.2021
662 Clouds 27 1018 73 10000 2.57 310 16:18 05.04.2021
663 Clouds 27 1018 78 10000 3.6 350 15:40 05.04.2021
664 Clouds 26 1018 78 10000 3.6 350 15:21 05.04.2021
665 Clouds 26 1018 83 10000 3.09 360 14:36 05.04.2021
666 Clouds 23 1017 83 10000 2.57 360 13:56 05.04.2021
667 Clouds 23 1017 83 10000 2.57 360 13:31 05.04.2021
668 Clouds 22 1017 88 10000 1.54 10 12:47 05.04.2021
669 Clouds 23 1017 88 10000 1.54 10 12:26 05.04.2021
670 Clouds 23 1017 88 10000 1.54 10 12:26 05.04.2021
671 Clouds 23 1016 88 10000 1.03 60 11:53 05.04.2021
672 Clouds 23 1016 88 10000 1.03 60 11:31 05.04.2021
673 Clouds 23 1016 88 6000 2.06 70 10:57 05.04.2021
674 Clouds 22 1016 88 6000 2.06 70 10:36 05.04.2021
675 Clear 23 1016 94 10000 2.57 90 09:56 05.04.2021
676 Clear 22 1016 94 10000 2.57 90 09:37 05.04.2021
677 Clear 22 1016 94 10000 2.57 90 09:19 05.04.2021
678 Clear 22 1015 88 10000 2.57 80 08:40 05.04.2021
679 Clear 23 1015 88 10000 2.57 80 08:19 05.04.2021
680 Clear 23 1016 88 10000 2.06 80 07:34 05.04.2021
681 Clouds 24 1017 78 10000 3.6 50 04:23 05.04.2021
682 Clouds 25 1017 78 10000 4.63 130 01:34 05.04.2021
683 Clouds 26 1016 73 10000 4.63 170 00:24 05.04.2021
684 Clouds 26 1016 73 10000 6.17 170 23:43 04.04.2021
685 Clouds 26 1016 73 10000 6.17 170 23:20 04.04.2021
686 Clouds 27 1016 69 10000 5.66 260 22:50 04.04.2021
687 Clouds 27 1016 69 10000 5.66 260 22:28 04.04.2021
688 Clouds 28 1015 69 10000 6.17 180 21:25 04.04.2021
689 Clouds 28 1015 65 10000 6.69 170 20:54 04.04.2021
690 Clouds 28 1015 65 10000 6.69 170 20:29 04.04.2021
691 Clouds 29 1016 61 10000 6.17 190 19:44 04.04.2021
692 Clouds 29 1016 61 10000 6.17 190 19:23 04.04.2021
693 Clouds 29 1016 65 10000 5.66 170 18:59 04.04.2021
694 Clouds 29 1016 65 10000 5.66 170 18:40 04.04.2021
695 Clouds 29 1016 65 10000 5.66 170 18:40 04.04.2021
696 Clouds 29 1016 65 10000 5.66 170 18:20 04.04.2021
697 Clouds 29 1017 61 10000 5.66 170 17:37 04.04.2021
698 Clouds 29 1017 61 10000 5.66 170 17:19 04.04.2021
699 Clouds 29 1017 65 10000 4.63 160 16:41 04.04.2021
700 Clouds 28 1017 65 10000 4.63 160 16:18 04.04.2021
701 Clouds 28 1017 69 10000 1.54 50 15:34 04.04.2021
702 Clouds 25 1017 83 10000 2.06 360 14:45 04.04.2021
703 Clouds 26 1017 83 10000 2.06 360 14:27 04.04.2021
704 Clouds 25 1017 83 10000 1.54 20 13:30 04.04.2021
705 Clouds 24 1016 78 10000 1.54 260 12:57 04.04.2021
706 Clouds 24 1016 78 10000 1.54 260 12:33 04.04.2021
707 Clouds 23 1016 83 10000 1.54 290 11:59 04.04.2021
708 Clouds 23 1016 83 10000 1.54 290 11:39 04.04.2021
709 Clouds 23 1016 83 10000 1.54 290 11:20 04.04.2021
710 Clear 23 1016 88 10000 2.57 320 10:40 04.04.2021
711 Clouds 23 1015 88 10000 1.54 30 09:54 04.04.2021
712 Clouds 23 1015 88 10000 1.54 30 09:25 04.04.2021
713 Clouds 24 1015 88 10000 2.06 300 08:53 04.04.2021
714 Clouds 24 1015 88 10000 2.06 300 08:35 04.04.2021
715 Clouds 24 1016 88 10000 2.57 300 07:54 04.04.2021
716 Clouds 24 1016 88 10000 2.57 330 06:37 04.04.2021
717 Clouds 25 1016 83 10000 1.03 0 05:33 04.04.2021
718 Clouds 26 1016 78 10000 4.63 190 01:28 04.04.2021
719 Clouds 26 1016 78 10000 5.66 190 00:20 04.04.2021
720 Clouds 26 1015 78 10000 6.17 170 23:48 03.04.2021
721 Clouds 26 1015 78 10000 6.17 170 23:29 03.04.2021
722 Clouds 26 1015 73 10000 6.69 180 22:52 03.04.2021
723 Clouds 27 1015 73 10000 6.69 180 22:22 03.04.2021
724 Clouds 27 1015 69 10000 6.69 170 21:52 03.04.2021
725 Clouds 28 1015 69 10000 6.69 170 21:25 03.04.2021
726 Clouds 28 1015 65 10000 6.69 180 20:51 03.04.2021
727 Clouds 28 1015 65 10000 6.69 180 20:28 03.04.2021
728 Clouds 28 1015 69 10000 6.69 170 19:51 03.04.2021
729 Clouds 28 1015 69 10000 6.69 170 19:27 03.04.2021
730 Clouds 29 1015 65 10000 5.66 170 18:53 03.04.2021
731 Clouds 29 1015 65 10000 5.66 170 18:34 03.04.2021
732 Clouds 29 1016 61 10000 4.12 160 17:55 03.04.2021
733 Clouds 29 1016 61 10000 4.12 160 17:26 03.04.2021
734 Clouds 29 1016 61 10000 1.54 30 16:54 03.04.2021
735 Clouds 29 1016 61 10000 1.54 30 16:28 03.04.2021
736 Clouds 28 1016 78 10000 3.6 20 15:52 03.04.2021
737 Clouds 28 1016 78 10000 3.6 20 15:31 03.04.2021
738 Clouds 26 1017 78 10000 3.09 20 14:49 03.04.2021
739 Clouds 26 1017 78 10000 3.09 20 14:26 03.04.2021
740 Clouds 24 1016 83 10000 3.6 320 13:55 03.04.2021
741 Clouds 24 1016 83 10000 3.6 320 13:35 03.04.2021
742 Clouds 22 1016 83 10000 2.06 350 12:59 03.04.2021
743 Clouds 22 1016 83 10000 2.06 350 12:35 03.04.2021
744 Clear 22 1015 88 10000 3.09 220 11:54 03.04.2021
745 Clear 22 1015 88 10000 3.09 220 11:30 03.04.2021
746 Clear 22 1015 88 10000 2.57 320 10:49 03.04.2021
747 Clear 22 1015 88 10000 2.57 320 10:27 03.04.2021
748 Clear 22 1015 88 10000 2.06 320 09:42 03.04.2021
749 Clear 22 1015 88 10000 2.06 320 09:23 03.04.2021
750 Clear 22 1015 83 10000 2.06 330 08:38 03.04.2021
751 Clear 23 1016 83 10000 2.06 340 07:48 03.04.2021
752 Clear 22 1016 83 10000 2.06 340 07:27 03.04.2021
753 Clouds 24 1016 73 10000 2.06 260 04:26 03.04.2021
754 Clouds 25 1016 73 10000 2.06 210 02:57 03.04.2021
755 Clouds 25 1016 73 10000 2.06 210 02:34 03.04.2021
756 Clouds 25 1016 73 10000 4.12 210 01:31 03.04.2021
757 Clouds 25 1015 73 10000 3.6 200 00:19 03.04.2021
758 Clouds 26 1014 69 10000 5.14 210 23:44 02.04.2021
759 Clouds 26 1014 69 10000 5.14 210 23:19 02.04.2021
760 Clouds 27 1014 61 10000 5.66 200 22:45 02.04.2021
761 Clouds 27 1014 61 10000 5.66 200 22:26 02.04.2021
762 Clouds 28 1014 61 10000 7.72 190 21:42 02.04.2021
763 Clouds 28 1014 61 10000 7.72 190 21:19 02.04.2021
764 Clouds 28 1014 65 10000 7.2 190 20:47 02.04.2021
765 Clouds 28 1014 65 10000 7.2 190 20:25 02.04.2021
766 Clouds 28 1014 65 10000 7.2 190 19:43 02.04.2021
767 Clouds 28 1014 65 10000 7.2 190 19:24 02.04.2021
768 Clouds 29 1014 61 10000 6.69 190 18:50 02.04.2021
769 Clouds 29 1014 61 10000 6.69 190 18:31 02.04.2021
770 Clouds 29 1015 65 10000 3.09 200 17:59 02.04.2021
771 Clouds 29 1015 65 10000 3.09 200 17:34 02.04.2021
772 Clouds 28 1015 65 10000 2.57 130 16:44 02.04.2021
773 Clouds 28 1015 65 10000 3.09 190 15:51 02.04.2021
774 Clouds 28 1015 65 10000 3.09 190 15:32 02.04.2021
775 Clouds 26 1015 73 10000 3.09 340 14:42 02.04.2021
776 Clouds 26 1015 73 10000 3.09 340 14:21 02.04.2021
777 Clouds 25 1014 83 10000 3.6 320 13:39 02.04.2021
778 Clouds 24 1014 83 10000 3.6 320 13:19 02.04.2021
779 Clouds 23 1014 83 10000 3.09 300 12:40 02.04.2021
780 Clouds 23 1014 83 10000 3.09 300 12:19 02.04.2021
781 Clouds 23 1013 88 10000 3.09 330 11:49 02.04.2021
782 Clouds 22 1013 88 10000 3.09 330 11:19 02.04.2021
783 Clouds 22 1013 88 10000 3.09 300 10:44 02.04.2021
784 Clouds 22 1013 88 10000 3.09 300 10:25 02.04.2021
785 Clouds 22 1013 94 10000 2.06 310 09:52 02.04.2021
786 Clouds 22 1013 94 10000 2.06 310 09:26 02.04.2021
787 Clouds 22 1013 88 10000 3.09 300 08:46 02.04.2021
788 Clouds 22 1013 88 10000 3.09 300 08:27 02.04.2021
789 Clouds 23 1013 83 10000 3.6 330 07:23 02.04.2021
790 Clouds 23 1013 78 10000 2.57 280 06:46 02.04.2021
791 Clouds 25 1013 65 10000 4.12 230 03:54 02.04.2021
792 Clouds 25 1012 65 10000 5.66 220 02:19 02.04.2021
793 Clouds 26 1011 61 10000 5.14 220 00:47 02.04.2021
794 Clouds 26 1010 61 10000 6.69 220 23:58 01.04.2021
795 Clouds 27 1010 61 10000 6.69 220 23:27 01.04.2021
796 Clouds 27 1010 61 10000 7.2 220 22:52 01.04.2021
797 Clouds 27 1010 61 10000 7.2 220 22:19 01.04.2021
798 Clouds 28 1009 57 10000 6.17 220 21:49 01.04.2021
799 Clouds 28 1009 57 10000 6.17 220 21:25 01.04.2021
800 Clouds 29 1009 54 10000 5.14 210 20:43 01.04.2021
801 Clouds 29 1009 54 10000 5.14 210 20:24 01.04.2021
802 Clouds 29 1009 54 10000 5.66 240 19:46 01.04.2021
803 Clouds 30 1009 54 10000 5.66 240 19:27 01.04.2021
804 Clouds 30 1009 48 10000 7.2 230 18:45 01.04.2021
805 Clouds 30 1009 48 10000 7.2 230 18:18 01.04.2021
806 Clear 30 1009 42 10000 5.66 230 17:51 01.04.2021
807 Clear 30 1009 42 10000 5.66 230 17:32 01.04.2021
808 Clear 30 1010 45 10000 4.12 280 16:51 01.04.2021
809 Clear 30 1010 45 10000 4.12 280 16:28 01.04.2021
810 Clear 29 1010 51 10000 3.6 290 15:47 01.04.2021
811 Clear 28 1010 51 10000 3.6 290 15:20 01.04.2021
812 Clear 27 1010 54 10000 4.63 300 14:45 01.04.2021
813 Clear 27 1010 54 10000 4.63 300 14:45 01.04.2021
814 Clear 28 1010 54 10000 4.63 300 14:26 01.04.2021
815 Clear 25 1010 65 10000 5.14 300 13:56 01.04.2021
816 Clear 25 1010 65 10000 5.14 300 13:31 01.04.2021
817 Clouds 23 1009 78 10000 4.63 310 12:54 01.04.2021
818 Clouds 23 1009 78 10000 4.63 310 12:32 01.04.2021
819 Clouds 23 1009 83 10000 4.12 310 11:50 01.04.2021
820 Clouds 23 1009 83 10000 4.12 310 11:25 01.04.2021
821 Clouds 23 1009 83 10000 3.6 310 10:58 01.04.2021
822 Clouds 22 1009 88 10000 1.54 300 10:40 01.04.2021
823 Clouds 22 1009 88 10000 1.54 300 10:21 01.04.2021
824 Clouds 23 1008 88 10000 3.09 320 09:30 01.04.2021
825 Clouds 23 1008 88 10000 3.09 320 09:30 01.04.2021
826 Clouds 23 1009 88 10000 2.57 320 08:40 01.04.2021
827 Clouds 23 1009 88 10000 2.57 320 08:19 01.04.2021
828 Clouds 23 1009 88 10000 2.06 280 07:21 01.04.2021
829 Clouds 23 1009 83 10000 2.57 270 06:50 01.04.2021
830 Clouds 24 1009 73 10000 2.06 270 04:56 01.04.2021
831 Clouds 25 1009 65 10000 3.6 210 02:29 01.04.2021
832 Clouds 26 1007 65 10000 5.14 210 23:52 31.03.2021
833 Clouds 26 1007 65 10000 5.14 210 23:32 31.03.2021
834 Clouds 27 1007 61 10000 5.14 230 22:43 31.03.2021
835 Clouds 27 1007 61 10000 5.14 230 22:21 31.03.2021
836 Clouds 27 1006 57 10000 4.63 240 21:47 31.03.2021
837 Clouds 27 1006 57 10000 4.63 240 21:24 31.03.2021
838 Clouds 28 1007 65 10000 4.12 210 20:58 31.03.2021
839 Clouds 28 1007 65 10000 4.12 210 20:40 31.03.2021
840 Clouds 27 1007 65 10000 4.12 210 20:19 31.03.2021
841 Clouds 28 1007 65 10000 5.66 200 19:42 31.03.2021
842 Clouds 28 1007 65 10000 5.66 200 19:19 31.03.2021
843 Clouds 28 1008 61 10000 5.66 210 18:52 31.03.2021
844 Clouds 29 1008 61 10000 5.66 210 18:26 31.03.2021
845 Clouds 29 1008 69 10000 4.12 130 17:38 31.03.2021
846 Clouds 30 1008 69 10000 4.12 130 17:19 31.03.2021
847 Clouds 29 1009 74 10000 4.12 130 16:49 31.03.2021
848 Clouds 29 1009 74 10000 4.12 130 16:30 31.03.2021
849 Clouds 29 1009 65 10000 1.54 70 15:52 31.03.2021
850 Clouds 29 1009 65 10000 1.54 70 15:20 31.03.2021
851 Clouds 26 1009 83 10000 3.6 20 14:49 31.03.2021
852 Clouds 26 1009 83 10000 3.6 20 14:24 31.03.2021
853 Clouds 26 1009 83 10000 3.6 20 14:24 31.03.2021
854 Clouds 25 1009 78 10000 3.09 220 13:53 31.03.2021
855 Clouds 25 1009 78 10000 3.09 220 13:19 31.03.2021
856 Clouds 24 1009 83 10000 5.66 200 12:37 31.03.2021
857 Clouds 24 1008 88 10000 2.06 80 12:18 31.03.2021
858 Clouds 24 1008 88 10000 2.06 80 12:18 31.03.2021
859 Clouds 24 1007 83 10000 2.57 340 11:22 31.03.2021
860 Clouds 23 1009 88 8000 5.14 290 10:48 31.03.2021
861 Clouds 23 1009 88 8000 5.14 290 10:27 31.03.2021
862 Clouds 23 1008 88 10000 5.14 310 09:54 31.03.2021
863 Clouds 23 1008 88 10000 5.14 310 09:29 31.03.2021
864 Clouds 23 1008 88 10000 4.12 340 08:46 31.03.2021
865 Clouds 23 1008 88 10000 4.12 340 08:25 31.03.2021
866 Clouds 23 1008 88 10000 4.63 350 07:33 31.03.2021
867 Clouds 23 1009 94 10000 1.54 160 04:46 31.03.2021
868 Rain 24 1010 88 10000 3.09 10 02:37 31.03.2021
869 Clouds 25 1009 88 10000 3.6 350 00:54 31.03.2021
870 Rain 25 1009 88 10000 3.6 350 00:25 31.03.2021
871 Clouds 26 1008 89 10000 2.57 20 23:55 30.03.2021
872 Clouds 26 1008 89 10000 2.57 20 23:24 30.03.2021
873 Rain 27 1008 89 10000 3.09 110 22:49 30.03.2021
874 Clouds 27 1008 89 10000 3.09 110 22:30 30.03.2021
875 Rain 28 1007 78 10000 6.69 170 21:56 30.03.2021
876 Rain 29 1007 78 10000 6.69 170 21:29 30.03.2021
877 Clouds 30 1006 79 10000 8.23 280 20:59 30.03.2021
878 Clouds 30 1006 79 10000 8.23 280 20:38 30.03.2021
879 Clouds 31 1006 79 10000 8.23 280 20:18 30.03.2021
880 Clouds 31 1006 70 10000 6.17 150 19:41 30.03.2021
881 Clear 33 1006 66 10000 3.6 140 18:57 30.03.2021
882 Clear 33 1006 66 10000 3.6 140 18:27 30.03.2021
883 Clear 32 1007 70 10000 3.6 360 17:47 30.03.2021
884 Clear 32 1007 70 10000 3.6 360 17:29 30.03.2021
885 Clear 31 1008 74 10000 3.6 10 16:47 30.03.2021
886 Clear 31 1008 74 10000 3.6 10 16:27 30.03.2021
887 Clear 29 1008 78 10000 4.12 350 15:38 30.03.2021
888 Clear 28 1008 78 10000 4.12 350 15:19 30.03.2021
889 Clouds 27 1009 83 10000 3.6 340 14:45 30.03.2021
890 Clouds 26 1009 83 10000 3.6 340 14:20 30.03.2021
891 Clouds 25 1010 83 10000 3.6 350 13:49 30.03.2021
892 Clouds 25 1010 83 10000 3.6 350 13:26 30.03.2021
893 Clouds 24 1010 94 10000 5.14 20 12:41 30.03.2021
894 Clouds 24 1010 94 10000 5.14 20 12:41 30.03.2021
895 Clouds 24 1010 94 10000 5.14 20 12:21 30.03.2021
896 Rain 23 1010 94 10000 5.14 10 11:47 30.03.2021
897 Rain 23 1010 94 10000 5.14 10 11:19 30.03.2021
898 Rain 23 1010 94 10000 4.12 30 10:42 30.03.2021
899 Rain 23 1010 94 10000 4.12 30 10:19 30.03.2021
900 Rain 23 1011 88 10000 4.63 260 09:41 30.03.2021
901 Rain 23 1011 88 10000 4.63 260 09:21 30.03.2021
902 Rain 23 1010 94 6000 7.72 250 08:43 30.03.2021
903 Mist 23 1011 94 4000 8.75 170 07:56 30.03.2021
904 Rain 24 1010 88 10000 2.57 0 07:31 30.03.2021
905 Clouds 25 1010 83 10000 3.6 60 06:53 30.03.2021
906 Rain 28 1010 89 9000 4.12 170 05:25 30.03.2021
907 Clouds 28 1010 89 10000 4.12 150 01:57 30.03.2021
908 Clouds 29 1009 79 10000 6.17 160 23:55 29.03.2021
909 Clouds 29 1009 79 10000 6.17 160 23:27 29.03.2021
910 Clouds 30 1008 84 10000 7.2 160 22:43 29.03.2021
911 Clouds 31 1008 79 10000 6.17 140 21:58 29.03.2021
912 Clouds 31 1008 79 10000 6.17 140 21:37 29.03.2021
913 Clouds 32 1008 74 10000 6.69 160 20:57 29.03.2021
914 Clouds 32 1008 74 10000 6.69 160 20:37 29.03.2021
915 Clouds 33 1008 62 9000 5.14 170 19:56 29.03.2021
916 Clouds 33 1008 62 9000 5.14 170 19:32 29.03.2021
917 Clouds 34 1009 62 9000 3.6 150 18:57 29.03.2021
918 Clouds 34 1009 62 9000 3.6 150 18:38 29.03.2021
919 Clouds 35 1009 62 9000 3.6 150 18:20 29.03.2021
920 Clouds 34 1010 79 8000 3.6 30 17:37 29.03.2021
921 Clouds 33 1011 79 8000 3.6 20 16:55 29.03.2021
922 Clouds 33 1011 79 8000 3.6 20 16:34 29.03.2021
923 Clouds 32 1011 79 9000 3.6 360 15:47 29.03.2021
924 Clouds 31 1011 79 9000 3.6 360 15:28 29.03.2021
925 Clear 28 1012 83 10000 3.09 350 14:49 29.03.2021
926 Clear 28 1012 83 10000 3.09 350 14:31 29.03.2021
927 Clear 27 1011 89 10000 1.03 360 13:47 29.03.2021
928 Clear 28 1011 89 10000 1.03 360 13:24 29.03.2021
929 Clear 27 1010 94 10000 2.06 330 12:50 29.03.2021
930 Clear 27 1010 94 10000 2.06 330 11:49 29.03.2021
931 Clear 26 1010 94 10000 2.06 330 11:30 29.03.2021
932 Clear 26 1010 94 10000 2.06 320 10:55 29.03.2021
933 Clouds 25 1010 88 7000 2.06 100 10:36 29.03.2021
934 Clouds 25 1010 88 8000 2.06 80 09:42 29.03.2021
935 Clear 26 1010 83 10000 1.54 350 08:52 29.03.2021
936 Clear 26 1010 83 10000 1.54 350 08:28 29.03.2021
937 Clear 26 1011 83 10000 2.57 40 07:28 29.03.2021
938 Clear 27 1011 78 10000 1.54 20 06:27 29.03.2021
939 Rain 27 1011 78 10000 1.03 150 03:51 29.03.2021
940 Clear 28 1010 78 10000 4.12 180 01:54 29.03.2021
941 Clear 28 1010 89 10000 5.66 170 00:22 29.03.2021
942 Clouds 28 1009 83 10000 6.17 170 23:44 28.03.2021
943 Clouds 29 1009 83 10000 6.17 170 23:19 28.03.2021
944 Clouds 29 1009 83 10000 6.17 160 22:41 28.03.2021
945 Clouds 29 1009 83 10000 6.17 160 22:21 28.03.2021
946 Clouds 30 1009 74 10000 6.69 150 21:41 28.03.2021
947 Clouds 30 1009 74 10000 6.69 150 21:22 28.03.2021
948 Clouds 31 1009 70 10000 6.69 160 20:49 28.03.2021
949 Clouds 31 1009 70 10000 6.69 160 20:31 28.03.2021
950 Clouds 31 1010 79 10000 5.14 150 19:45 28.03.2021
951 Clouds 31 1010 79 10000 5.14 150 19:23 28.03.2021
952 Clouds 31 1011 79 10000 5.66 140 18:58 28.03.2021
953 Clouds 31 1011 79 10000 5.66 140 18:28 28.03.2021
954 Clouds 32 1012 74 10000 4.63 150 17:55 28.03.2021
955 Clouds 32 1012 74 10000 4.63 150 17:32 28.03.2021
956 Clouds 32 1013 79 10000 4.12 140 16:47 28.03.2021
957 Clouds 32 1013 79 10000 4.12 140 16:47 28.03.2021
958 Clouds 32 1013 79 10000 4.12 140 16:23 28.03.2021
959 Clouds 32 1013 79 9000 3.09 140 15:48 28.03.2021
960 Clouds 30 1013 79 9000 3.09 140 15:22 28.03.2021
961 Clouds 30 1013 79 8000 3.09 10 14:38 28.03.2021
962 Clouds 28 1013 83 8000 2.57 340 13:52 28.03.2021
963 Clouds 28 1013 83 8000 2.57 340 13:33 28.03.2021
964 Clouds 26 1012 89 7000 2.57 340 12:53 28.03.2021
965 Clouds 26 1012 89 7000 2.57 340 12:33 28.03.2021
966 Clouds 26 1012 94 8000 2.06 10 11:50 28.03.2021
967 Clouds 26 1012 94 8000 2.06 10 11:32 28.03.2021
968 Clear 26 1011 94 8000 2.57 310 10:47 28.03.2021
969 Clear 26 1011 94 8000 2.57 310 10:28 28.03.2021
970 Clear 25 1011 94 8000 2.06 300 09:49 28.03.2021
971 Clear 26 1011 94 8000 2.06 300 09:27 28.03.2021
972 Clear 26 1011 83 9000 2.06 290 08:48 28.03.2021
973 Clear 26 1011 83 9000 2.06 290 08:23 28.03.2021
974 Clear 26 1011 89 9000 2.06 270 07:38 28.03.2021
975 Clear 27 1012 83 10000 2.06 140 05:33 28.03.2021
976 Clear 27 1012 74 10000 2.06 190 01:50 28.03.2021
977 Clear 28 1011 78 10000 4.63 190 00:34 28.03.2021
978 Clouds 28 1011 94 10000 5.14 170 23:50 27.03.2021
979 Clouds 27 1011 94 10000 5.14 170 23:32 27.03.2021
980 Clouds 28 1010 83 10000 6.69 170 22:40 27.03.2021
981 Clouds 28 1010 83 10000 6.69 170 22:20 27.03.2021
982 Clouds 29 1010 84 10000 8.23 180 21:41 27.03.2021
983 Clouds 30 1010 84 10000 8.23 180 21:20 27.03.2021
984 Clouds 30 1009 84 10000 6.17 170 20:55 27.03.2021
985 Clouds 30 1009 84 10000 6.17 170 20:55 27.03.2021
986 Clouds 30 1009 84 10000 6.17 170 20:36 27.03.2021
987 Clouds 31 1010 84 10000 8.23 160 19:45 27.03.2021
988 Clouds 31 1010 84 10000 8.23 160 19:24 27.03.2021
989 Clouds 32 1010 79 10000 7.72 160 18:57 27.03.2021
990 Clouds 33 1010 79 10000 7.72 160 18:38 27.03.2021
991 Clouds 33 1010 79 10000 7.72 160 18:19 27.03.2021
992 Clear 34 1010 66 10000 1.54 30 17:28 27.03.2021
993 Clear 33 1011 70 10000 2.57 360 16:54 27.03.2021
994 Clear 33 1011 70 10000 2.57 360 16:36 27.03.2021
995 Clear 33 1011 70 10000 2.57 360 16:18 27.03.2021
996 Clear 33 1012 74 9000 3.09 10 15:38 27.03.2021
997 Clear 32 1012 79 8000 3.09 300 14:55 27.03.2021
998 Clear 32 1012 79 8000 3.09 300 14:23 27.03.2021
999 Clouds 30 1012 83 7000 3.09 340 13:37 27.03.2021
1000 Clouds 28 1012 83 7000 3.09 340 13:19 27.03.2021
1001 Clouds 28 1012 89 7000 2.57 350 12:39 27.03.2021
1002 Clouds 26 1012 94 7000 3.09 360 11:48 27.03.2021
1003 Clouds 26 1012 94 7000 3.09 360 11:30 27.03.2021
1004 Clouds 26 1011 94 7000 2.57 50 10:48 27.03.2021
1005 Clouds 26 1011 94 7000 2.57 50 10:29 27.03.2021
1006 Clear 25 1014 88 10000 2.57 360 09:44 27.03.2021
1007 Clear 25 1014 88 10000 2.57 360 09:18 27.03.2021
1008 Clear 25 1013 88 10000 3.09 10 08:38 27.03.2021
1009 Clear 26 1013 88 10000 3.09 340 07:48 27.03.2021
1010 Clear 26 1013 83 10000 2.57 330 06:59 27.03.2021
1011 Clear 26 1013 83 10000 2.57 330 06:59 27.03.2021
1012 Clear 26 1013 83 10000 2.57 330 06:39 27.03.2021
1013 Clear 27 1014 78 10000 2.06 310 04:42 27.03.2021
1014 Clouds 27 1013 83 10000 3.09 190 02:19 27.03.2021
1015 Clouds 28 1012 89 10000 5.14 180 00:32 27.03.2021
1016 Clear 28 1012 83 10000 6.17 190 23:59 26.03.2021
1017 Clear 28 1012 83 10000 6.17 190 23:25 26.03.2021
1018 Clear 28 1011 83 10000 5.14 170 22:39 26.03.2021
1019 Clear 29 1011 83 10000 6.69 170 21:42 26.03.2021
1020 Clear 29 1011 83 10000 6.69 170 21:23 26.03.2021
1021 Clear 30 1011 70 10000 6.17 170 20:55 26.03.2021
1022 Clear 31 1011 70 10000 6.17 170 20:31 26.03.2021
1023 Clouds 30 1011 79 10000 6.17 160 19:52 26.03.2021
1024 Clouds 31 1011 79 10000 6.17 160 19:33 26.03.2021
1025 Clouds 31 1011 70 10000 6.69 160 18:51 26.03.2021
1026 Clouds 32 1011 70 10000 6.69 160 18:31 26.03.2021
1027 Clouds 31 1012 66 10000 4.63 150 17:57 26.03.2021
1028 Clouds 32 1012 66 10000 4.63 150 17:28 26.03.2021
1029 Clouds 32 1013 62 9000 2.06 10 16:49 26.03.2021
1030 Clouds 32 1013 62 9000 2.06 10 16:22 26.03.2021
1031 Clouds 31 1014 70 9000 3.09 350 15:36 26.03.2021
1032 Clouds 31 1015 74 9000 2.57 350 14:45 26.03.2021
1033 Clouds 29 1015 83 9000 2.57 10 13:52 26.03.2021
1034 Clouds 29 1015 83 9000 2.57 10 13:52 26.03.2021
1035 Clouds 29 1015 83 9000 2.57 10 13:26 26.03.2021
1036 Clouds 27 1015 89 9000 3.09 10 12:40 26.03.2021
1037 Clouds 25 1014 83 9000 2.06 10 11:50 26.03.2021
1038 Clouds 25 1014 83 9000 2.06 10 11:31 26.03.2021
1039 Clouds 25 1014 88 10000 1.54 10 10:44 26.03.2021
1040 Clouds 25 1014 88 10000 1.54 10 10:23 26.03.2021
1041 Clouds 25 1014 88 8000 1.03 360 09:41 26.03.2021
1042 Clouds 25 1014 88 10000 1.54 40 08:49 26.03.2021
1043 Clouds 25 1014 88 10000 1.54 40 08:31 26.03.2021
1044 Clouds 25 1014 88 10000 1.54 30 07:58 26.03.2021
1045 Clouds 26 1014 88 10000 1.54 30 07:22 26.03.2021
1046 Clear 26 1015 88 10000 1.54 30 06:57 26.03.2021
1047 Clouds 26 1015 88 10000 1.54 70 05:33 26.03.2021
1048 Clouds 25 1016 83 10000 2.06 70 04:43 26.03.2021
1049 Clouds 27 1016 78 10000 2.57 170 01:36 26.03.2021
1050 Clouds 27 1015 78 10000 3.09 130 00:23 26.03.2021
1051 Clouds 27 1015 83 10000 4.63 160 23:42 25.03.2021
1052 Clouds 27 1014 83 10000 5.14 170 22:50 25.03.2021
1053 Clouds 27 1014 83 10000 5.14 170 22:27 25.03.2021
1054 Clouds 28 1014 78 10000 6.17 170 21:49 25.03.2021
1055 Clouds 28 1014 78 10000 6.17 170 21:49 25.03.2021
1056 Clouds 28 1014 78 10000 6.17 170 21:31 25.03.2021
1057 Clouds 29 1014 74 10000 7.72 160 20:42 25.03.2021
1058 Clouds 29 1014 74 10000 7.72 160 20:24 25.03.2021
1059 Clouds 30 1013 70 10000 7.2 160 19:43 25.03.2021
1060 Clouds 30 1013 70 10000 7.2 160 19:25 25.03.2021
1061 Clouds 31 1014 62 10000 6.17 160 18:46 25.03.2021
1062 Clouds 31 1014 62 10000 6.17 160 18:26 25.03.2021
1063 Clouds 31 1014 62 10000 6.17 160 18:26 25.03.2021
1064 Clouds 32 1014 62 10000 6.17 170 17:43 25.03.2021
1065 Clouds 32 1014 62 10000 6.17 170 17:24 25.03.2021
1066 Clouds 31 1015 70 10000 4.12 150 16:50 25.03.2021
1067 Clouds 31 1015 70 10000 4.12 150 16:29 25.03.2021
1068 Clouds 31 1015 66 10000 2.06 40 15:43 25.03.2021
1069 Clouds 32 1015 66 10000 2.06 40 15:20 25.03.2021
1070 Clouds 30 1016 78 9000 3.09 30 14:46 25.03.2021
1071 Clouds 29 1016 78 8000 3.09 10 13:49 25.03.2021
1072 Clouds 29 1016 78 8000 3.09 10 13:24 25.03.2021
1073 Clouds 27 1016 83 7000 2.57 350 12:44 25.03.2021
1074 Clouds 26 1016 83 7000 2.57 350 12:20 25.03.2021
1075 Clouds 25 1015 89 7000 2.57 340 11:52 25.03.2021
1076 Clouds 25 1015 89 7000 2.57 340 11:30 25.03.2021
1077 Clouds 25 1015 83 8000 2.06 50 10:55 25.03.2021
1078 Clouds 25 1015 83 8000 2.06 50 10:26 25.03.2021
1079 Clouds 24 1015 88 9000 2.57 360 09:57 25.03.2021
1080 Clouds 24 1015 88 9000 2.57 360 09:38 25.03.2021
1081 Clear 25 1014 88 10000 2.57 270 08:57 25.03.2021
1082 Clear 25 1014 88 10000 2.57 270 08:29 25.03.2021
1083 Clouds 25 1014 88 9000 2.57 340 07:23 25.03.2021
1084 Clouds 25 1015 88 9000 2.57 360 06:26 25.03.2021
1085 Clear 25 1015 83 10000 2.06 330 05:49 25.03.2021
1086 Clear 25 1015 89 10000 1.03 170 03:59 25.03.2021
1087 Clouds 26 1015 89 10000 3.09 170 00:35 25.03.2021
1088 Clouds 26 1014 89 10000 5.66 170 23:55 24.03.2021
1089 Clouds 26 1014 89 10000 5.66 170 23:33 24.03.2021
1090 Clouds 27 1014 83 10000 6.17 170 22:50 24.03.2021
1091 Clouds 27 1014 83 10000 6.17 170 22:30 24.03.2021
1092 Clear 28 1013 78 10000 6.69 160 21:47 24.03.2021
1093 Clear 29 1013 78 10000 6.69 160 21:25 24.03.2021
1094 Clear 29 1013 78 10000 7.72 160 20:46 24.03.2021
1095 Clear 29 1013 78 10000 7.72 160 20:20 24.03.2021
1096 Clear 30 1013 74 10000 7.2 160 19:59 24.03.2021
1097 Clear 30 1013 74 10000 7.2 160 19:31 24.03.2021
1098 Clouds 31 1013 79 10000 7.2 150 18:52 24.03.2021
1099 Clouds 31 1013 79 10000 7.2 150 18:24 24.03.2021
1100 Clouds 31 1013 79 10000 7.2 160 17:53 24.03.2021
1101 Clouds 31 1013 79 10000 7.2 160 17:32 24.03.2021
1102 Clear 31 1013 79 10000 6.69 150 16:54 24.03.2021
1103 Clear 32 1013 66 10000 2.57 50 16:31 24.03.2021
1104 Clouds 31 1014 74 7000 4.63 20 15:57 24.03.2021
1105 Clouds 31 1014 74 7000 4.63 20 15:33 24.03.2021
1106 Clouds 30 1015 83 6000 4.63 20 14:59 24.03.2021
1107 Clouds 30 1015 83 6000 4.63 20 14:28 24.03.2021
1108 Clouds 28 1015 83 7000 4.12 350 13:58 24.03.2021
1109 Clouds 28 1015 83 7000 4.12 350 13:58 24.03.2021
1110 Clouds 28 1015 83 7000 4.12 350 13:28 24.03.2021
1111 Clouds 26 1015 89 7000 4.12 340 12:49 24.03.2021
1112 Clouds 26 1015 89 7000 4.12 340 12:27 24.03.2021
1113 Clouds 24 1015 89 7000 4.12 10 11:54 24.03.2021
1114 Clouds 24 1015 89 7000 4.12 10 11:35 24.03.2021
1115 Clouds 24 1015 89 7000 4.12 10 11:35 24.03.2021
1116 Clouds 24 1015 88 10000 1.03 0 10:48 24.03.2021
1117 Clouds 24 1015 88 10000 1.03 0 10:28 24.03.2021
1118 Clouds 25 1015 88 10000 1.03 170 09:54 24.03.2021
1119 Clouds 24 1014 83 10000 2.06 120 09:25 24.03.2021
1120 Clouds 24 1014 83 10000 2.57 20 08:57 24.03.2021
1121 Clouds 24 1014 83 10000 2.57 20 08:32 24.03.2021
1122 Clear 24 1014 88 10000 2.57 40 07:44 24.03.2021
1123 Clear 24 1014 88 10000 2.57 40 07:18 24.03.2021
1124 Clear 24 1015 88 10000 2.06 100 06:41 24.03.2021
1125 Clouds 26 1015 89 10000 4.63 160 01:24 24.03.2021
1126 Clouds 26 1014 89 10000 5.14 170 00:36 24.03.2021
1127 Clouds 27 1013 78 10000 5.66 170 23:43 23.03.2021
1128 Clouds 27 1013 78 10000 5.66 170 23:19 23.03.2021
1129 Clouds 27 1013 83 10000 6.17 160 22:44 23.03.2021
1130 Clouds 27 1013 83 10000 6.17 160 22:24 23.03.2021
1131 Clouds 28 1013 83 10000 5.66 150 21:41 23.03.2021
1132 Clouds 28 1013 83 10000 5.66 150 21:22 23.03.2021
1133 Clouds 29 1013 78 10000 6.69 160 20:44 23.03.2021
1134 Clouds 29 1013 78 10000 6.69 160 20:25 23.03.2021
1135 Clouds 30 1013 74 10000 6.17 160 19:47 23.03.2021
1136 Clouds 30 1013 74 10000 6.17 160 19:25 23.03.2021
1137 Clouds 31 1013 66 10000 5.66 160 18:43 23.03.2021
1138 Clouds 31 1013 66 10000 5.66 160 18:22 23.03.2021
1139 Clouds 31 1014 74 10000 5.14 160 17:45 23.03.2021
1140 Clouds 31 1014 74 10000 5.14 160 17:21 23.03.2021
1141 Clouds 31 1015 70 10000 4.63 140 16:39 23.03.2021
1142 Clouds 30 1015 70 10000 4.63 140 16:19 23.03.2021
1143 Clouds 31 1015 70 10000 4.12 140 15:38 23.03.2021
1144 Clouds 30 1015 74 10000 3.09 120 14:55 23.03.2021
1145 Clouds 30 1015 74 10000 3.09 120 14:21 23.03.2021
1146 Clouds 30 1015 74 10000 3.09 120 14:21 23.03.2021
1147 Clouds 29 1015 78 10000 2.57 30 13:55 23.03.2021
1148 Clouds 29 1015 78 10000 2.57 30 13:37 23.03.2021
1149 Clouds 28 1015 78 10000 2.57 30 13:18 23.03.2021
1150 Clouds 27 1015 74 10000 3.6 320 12:41 23.03.2021
1151 Clouds 26 1015 74 10000 3.6 320 12:20 23.03.2021
1152 Clouds 25 1015 83 10000 2.06 290 11:44 23.03.2021
1153 Clear 24 1014 83 10000 2.06 310 10:44 23.03.2021
1154 Clear 24 1014 83 10000 2.06 310 10:25 23.03.2021
1155 Clear 26 1014 83 10000 1.03 0 09:58 23.03.2021
1156 Clouds 25 1014 83 10000 2.06 300 09:38 23.03.2021
1157 Clouds 25 1014 83 10000 2.06 300 09:19 23.03.2021
1158 Clouds 25 1014 83 10000 1.54 340 08:39 23.03.2021
1159 Clouds 25 1014 83 10000 1.54 340 08:21 23.03.2021
1160 Clouds 25 1014 83 10000 2.06 330 07:28 23.03.2021
1161 Clouds 26 1015 83 10000 1.54 300 06:59 23.03.2021
1162 Clouds 25 1015 83 10000 1.54 300 06:26 23.03.2021
1163 Clouds 26 1015 89 10000 3.6 190 03:22 23.03.2021
1164 Clouds 27 1015 83 10000 3.09 190 02:18 23.03.2021
1165 Clouds 28 1013 78 10000 5.14 190 23:43 22.03.2021
1166 Clouds 29 1013 70 10000 6.17 180 22:56 22.03.2021
1167 Clouds 29 1013 70 10000 6.17 180 22:37 22.03.2021
1168 Clouds 29 1013 70 10000 6.17 180 22:18 22.03.2021
1169 Clouds 30 1012 66 10000 5.14 170 21:40 22.03.2021
1170 Clouds 30 1012 66 10000 5.14 170 21:40 22.03.2021
1171 Clouds 31 1012 66 10000 5.14 170 21:21 22.03.2021
1172 Clouds 32 1012 66 10000 6.69 170 20:41 22.03.2021
1173 Clouds 32 1012 66 10000 6.69 170 20:21 22.03.2021
1174 Clouds 32 1012 74 10000 6.69 150 19:53 22.03.2021
1175 Clouds 32 1012 74 10000 6.69 150 19:31 22.03.2021
1176 Clouds 32 1012 79 10000 8.23 140 18:47 22.03.2021
1177 Clouds 32 1012 79 10000 8.23 140 18:29 22.03.2021
1178 Clouds 33 1013 62 10000 6.69 180 17:59 22.03.2021
1179 Clouds 33 1013 62 10000 6.69 180 17:41 22.03.2021
1180 Clouds 34 1013 62 10000 6.69 180 17:19 22.03.2021
1181 Clear 33 1013 62 10000 3.09 30 16:44 22.03.2021
1182 Clear 33 1013 62 10000 3.09 30 16:19 22.03.2021
1183 Clear 32 1014 70 10000 3.09 10 15:38 22.03.2021
1184 Clear 32 1014 70 10000 3.09 10 15:18 22.03.2021
1185 Clear 31 1014 70 10000 2.57 360 14:52 22.03.2021
1186 Clear 31 1014 70 10000 2.57 360 14:34 22.03.2021
1187 Clear 28 1014 83 10000 3.09 10 13:48 22.03.2021
1188 Clear 27 1014 83 10000 3.09 10 13:27 22.03.2021
1189 Clear 27 1014 89 10000 3.09 360 12:54 22.03.2021
1190 Clear 27 1014 89 10000 3.09 360 12:25 22.03.2021
1191 Clear 26 1014 88 10000 3.6 10 11:49 22.03.2021
1192 Clear 24 1014 88 10000 3.6 10 11:27 22.03.2021
1193 Clear 24 1013 88 10000 3.6 350 10:46 22.03.2021
1194 Clear 24 1013 88 10000 3.6 350 10:25 22.03.2021
1195 Clear 24 1013 94 10000 1.03 20 09:49 22.03.2021
1196 Clear 24 1013 94 10000 1.03 20 09:30 22.03.2021
1197 Clear 25 1013 88 10000 1.03 40 08:46 22.03.2021
1198 Clear 25 1013 88 10000 1.03 40 08:27 22.03.2021
1199 Clear 25 1013 88 10000 1.54 30 07:50 22.03.2021
1200 Clear 25 1013 88 10000 1.54 30 07:31 22.03.2021
1201 Clear 25 1014 88 10000 1.03 50 06:51 22.03.2021
1202 Clear 27 1015 74 10000 1.03 360 02:47 22.03.2021
1203 Clear 28 1015 70 10000 3.09 60 00:48 22.03.2021
1204 Clear 28 1014 70 10000 2.06 170 23:59 21.03.2021
1205 Clear 29 1014 70 10000 2.06 170 23:39 21.03.2021
1206 Clear 29 1014 70 10000 2.06 170 23:18 21.03.2021
1207 Clear 30 1014 74 10000 5.14 180 22:41 21.03.2021
1208 Clouds 31 1014 79 10000 4.63 180 21:43 21.03.2021
1209 Clouds 31 1014 79 10000 4.63 180 21:25 21.03.2021
1210 Clouds 32 1014 79 10000 5.66 160 20:57 21.03.2021
1211 Clouds 32 1014 79 10000 5.66 160 20:38 21.03.2021
1212 Clouds 32 1014 79 10000 5.66 160 20:19 21.03.2021
1213 Clouds 32 1014 70 10000 6.17 160 19:40 21.03.2021
1214 Clouds 32 1014 70 10000 6.17 160 19:19 21.03.2021
1215 Clouds 32 1015 62 10000 5.66 160 18:41 21.03.2021
1216 Clouds 32 1015 62 10000 5.66 160 18:18 21.03.2021
1217 Clouds 32 1016 58 10000 4.63 150 17:42 21.03.2021
1218 Clouds 31 1016 58 10000 4.63 150 17:18 21.03.2021
1219 Clouds 30 1017 70 10000 4.12 140 16:50 21.03.2021
1220 Clouds 31 1017 70 10000 4.12 140 16:23 21.03.2021
1221 Clouds 30 1017 70 10000 3.6 140 15:48 21.03.2021
1222 Clear 30 1017 58 10000 2.57 10 15:22 21.03.2021
1223 Clear 28 1018 65 10000 3.09 340 14:48 21.03.2021
1224 Clear 29 1018 65 10000 3.09 340 14:27 21.03.2021
1225 Clear 27 1018 74 10000 3.09 340 13:59 21.03.2021
1226 Clear 27 1018 74 10000 3.09 340 13:40 21.03.2021
1227 Clear 27 1017 74 10000 1.03 40 12:45 21.03.2021
1228 Clear 27 1017 74 10000 1.03 40 12:25 21.03.2021
1229 Clear 27 1017 74 10000 1.03 40 12:25 21.03.2021
1230 Clear 25 1017 83 10000 1.54 340 11:44 21.03.2021
1231 Clear 24 1017 83 10000 1.54 340 11:26 21.03.2021
1232 Clear 23 1016 83 10000 1.54 330 10:50 21.03.2021
1233 Clear 23 1016 83 10000 1.54 330 10:32 21.03.2021
1234 Clear 25 1016 78 10000 1.03 310 09:55 21.03.2021
1235 Clouds 24 1016 94 10000 2.57 120 09:37 21.03.2021
1236 Clouds 24 1016 94 10000 2.57 120 09:18 21.03.2021
1237 Clear 24 1016 88 10000 1.54 150 08:38 21.03.2021
1238 Clear 24 1016 88 10000 1.54 150 08:19 21.03.2021
1239 Clear 25 1016 88 10000 2.06 110 07:30 21.03.2021
1240 Clear 26 1016 83 10000 2.57 340 06:21 21.03.2021
1241 Clear 26 1017 83 10000 3.09 130 04:57 21.03.2021
1242 Clouds 28 1017 69 10000 2.57 90 00:59 21.03.2021
1243 Clouds 28 1017 69 10000 2.57 90 00:39 21.03.2021
1244 Clouds 28 1017 69 10000 2.57 90 00:20 21.03.2021
1245 Clouds 29 1016 70 10000 3.09 80 23:46 20.03.2021
1246 Clouds 29 1016 70 10000 3.09 80 23:20 20.03.2021
1247 Clouds 29 1015 79 10000 4.63 120 22:47 20.03.2021
1248 Clouds 30 1015 79 10000 4.63 120 22:18 20.03.2021
1249 Clouds 30 1015 79 10000 6.17 190 21:44 20.03.2021
1250 Clouds 30 1015 79 10000 6.17 190 21:24 20.03.2021
1251 Clouds 31 1015 74 10000 7.2 190 20:42 20.03.2021
1252 Clouds 31 1015 74 10000 7.2 190 20:22 20.03.2021
1253 Clouds 31 1015 74 10000 6.69 170 19:47 20.03.2021
1254 Clouds 31 1015 74 10000 6.69 170 19:26 20.03.2021
1255 Clouds 30 1016 74 10000 6.69 160 18:48 20.03.2021
1256 Clouds 31 1016 74 10000 6.69 160 18:25 20.03.2021
1257 Clouds 31 1017 66 10000 6.17 160 17:53 20.03.2021
1258 Clouds 31 1017 66 10000 6.17 160 17:29 20.03.2021
1259 Clouds 31 1017 74 10000 5.14 150 16:45 20.03.2021
1260 Clouds 31 1017 74 10000 5.14 150 16:21 20.03.2021
1261 Clouds 30 1017 79 10000 3.09 340 15:59 20.03.2021
1262 Clouds 30 1017 79 10000 3.09 340 15:39 20.03.2021
1263 Clouds 29 1018 74 10000 3.09 330 14:48 20.03.2021
1264 Clouds 29 1018 74 10000 3.09 330 14:28 20.03.2021
1265 Clear 28 1017 78 10000 3.09 340 13:40 20.03.2021
1266 Clear 26 1017 83 10000 2.57 360 12:59 20.03.2021
1267 Clear 26 1017 83 10000 2.57 360 12:27 20.03.2021
1268 Clear 26 1017 83 10000 2.57 360 12:27 20.03.2021
1269 Clear 25 1016 88 10000 1.54 20 11:50 20.03.2021
1270 Clear 25 1016 88 10000 1.54 20 11:29 20.03.2021
1271 Clear 24 1016 83 10000 1.54 40 10:56 20.03.2021
1272 Clear 24 1016 83 10000 1.54 40 10:37 20.03.2021
1273 Clear 25 1016 83 10000 1.54 40 10:18 20.03.2021
1274 Clear 24 1014 88 10000 2.06 20 09:29 20.03.2021
1275 Clear 25 1014 88 10000 1.54 350 08:58 20.03.2021
1276 Clear 25 1014 88 10000 1.54 350 08:39 20.03.2021
1277 Clear 25 1015 88 10000 1.54 20 07:54 20.03.2021
1278 Clear 25 1015 88 10000 1.54 20 07:32 20.03.2021
1279 Clear 26 1015 88 10000 2.06 10 06:55 20.03.2021
1280 Clear 26 1015 88 10000 2.06 10 06:27 20.03.2021
1281 Clear 25 1014 94 10000 2.57 150 04:24 20.03.2021
1282 Clear 25 1014 94 10000 2.57 150 03:42 20.03.2021
1283 Clouds 27 1014 89 10000 3.6 170 00:36 20.03.2021
1284 Clouds 27 1013 89 10000 5.14 160 23:32 19.03.2021
1285 Clouds 27 1013 89 10000 5.66 150 22:59 19.03.2021
1286 Clouds 27 1013 89 10000 5.66 150 22:40 19.03.2021
1287 Clouds 28 1013 89 10000 5.66 150 22:22 19.03.2021
1288 Clouds 29 1012 83 10000 7.72 160 21:36 19.03.2021
1289 Clouds 29 1012 83 10000 7.72 160 21:18 19.03.2021
1290 Clouds 30 1011 79 10000 6.17 160 20:42 19.03.2021
1291 Clouds 30 1011 79 10000 6.17 160 20:24 19.03.2021
1292 Clouds 30 1011 74 10000 6.17 150 19:47 19.03.2021
1293 Clouds 30 1011 74 10000 6.17 150 19:22 19.03.2021
1294 Clouds 31 1012 74 10000 5.66 160 18:46 19.03.2021
1295 Clouds 31 1012 74 10000 5.66 160 18:21 19.03.2021
1296 Clouds 31 1013 70 10000 5.14 160 17:56 19.03.2021
1297 Clouds 31 1013 70 10000 5.14 160 17:36 19.03.2021
1298 Clouds 31 1013 74 10000 4.12 140 16:59 19.03.2021
1299 Clouds 31 1013 74 10000 4.12 140 16:40 19.03.2021
1300 Clouds 31 1013 74 10000 4.12 140 16:21 19.03.2021
1301 Clouds 31 1014 74 10000 4.63 140 15:33 19.03.2021
1302 Clouds 31 1014 74 10000 2.06 20 14:51 19.03.2021
1303 Clouds 31 1014 74 10000 2.06 20 14:32 19.03.2021
1304 Clouds 30 1014 74 10000 3.09 360 13:48 19.03.2021
1305 Clouds 29 1014 74 10000 3.09 360 13:18 19.03.2021
1306 Clear 28 1013 78 10000 2.06 20 12:40 19.03.2021
1307 Clear 25 1013 83 10000 2.57 20 11:55 19.03.2021
1308 Clear 25 1013 83 10000 2.57 20 11:26 19.03.2021
1309 Clear 24 1012 88 10000 3.09 20 10:42 19.03.2021
1310 Clear 25 1012 88 10000 3.09 20 10:21 19.03.2021
1311 Clouds 26 1012 83 10000 1.03 10 09:44 19.03.2021
1312 Clouds 27 1012 83 10000 1.03 10 09:24 19.03.2021
1313 Clouds 26 1011 78 10000 2.06 310 08:51 19.03.2021
1314 Clouds 26 1011 78 10000 2.06 310 08:26 19.03.2021
1315 Clouds 26 1011 78 10000 3.09 310 07:44 19.03.2021
1316 Clouds 26 1011 78 10000 3.09 310 07:24 19.03.2021
1317 Clouds 27 1012 78 10000 3.09 330 05:27 19.03.2021
1318 Clear 28 1012 74 10000 1.54 320 01:58 19.03.2021
1319 Clouds 28 1010 78 10000 3.09 160 23:55 18.03.2021
1320 Clouds 28 1010 78 10000 3.09 160 23:29 18.03.2021
1321 Clouds 29 1009 70 10000 4.12 170 22:46 18.03.2021
1322 Clouds 29 1009 70 10000 4.12 170 22:25 18.03.2021
1323 Clouds 30 1009 62 10000 6.17 170 21:48 18.03.2021
1324 Clouds 30 1009 62 10000 6.17 170 21:30 18.03.2021
1325 Clouds 30 1008 62 10000 6.69 170 20:42 18.03.2021
1326 Clouds 30 1008 62 10000 6.69 170 20:22 18.03.2021
1327 Clouds 31 1008 58 10000 6.69 180 19:43 18.03.2021
1328 Clouds 31 1008 58 10000 6.69 180 19:23 18.03.2021
1329 Rain 33 1008 62 10000 5.66 170 18:47 18.03.2021
1330 Clouds 35 1009 46 10000 2.06 40 17:58 18.03.2021
1331 Clouds 35 1009 46 10000 2.06 40 17:27 18.03.2021
1332 Clear 35 1010 55 10000 2.57 350 16:59 18.03.2021
1333 Clear 35 1010 55 10000 2.57 350 16:41 18.03.2021
1334 Clear 35 1010 55 10000 2.57 350 16:22 18.03.2021
1335 Clear 34 1010 55 10000 2.06 340 15:41 18.03.2021
1336 Clear 34 1010 55 10000 2.06 340 15:21 18.03.2021
1337 Clear 32 1010 66 10000 2.06 10 14:49 18.03.2021
1338 Clear 32 1010 66 10000 2.06 10 14:23 18.03.2021
1339 Clear 31 1010 70 10000 2.06 20 13:43 18.03.2021
1340 Clear 30 1010 70 10000 2.06 20 13:25 18.03.2021
1341 Clear 29 1010 74 10000 2.06 360 12:40 18.03.2021
1342 Clear 27 1010 74 10000 2.06 360 12:22 18.03.2021
1343 Clear 26 1009 83 10000 2.57 330 11:46 18.03.2021
1344 Clear 26 1009 83 10000 2.57 330 11:25 18.03.2021
1345 Clear 25 1009 88 10000 1.54 340 10:42 18.03.2021
1346 Clear 25 1009 88 10000 1.54 340 10:23 18.03.2021
1347 Clear 25 1009 88 10000 1.54 130 09:53 18.03.2021
1348 Clear 26 1009 88 10000 1.54 130 09:27 18.03.2021
1349 Clear 26 1009 94 10000 0.51 130 08:46 18.03.2021
1350 Clear 26 1009 94 10000 0.51 130 08:27 18.03.2021
1351 Clear 26 1009 88 10000 1.54 80 07:50 18.03.2021
1352 Clear 27 1009 88 10000 1.03 60 06:54 18.03.2021
1353 Clear 27 1009 88 10000 1.03 60 06:27 18.03.2021
1354 Clear 27 1009 88 10000 1.54 130 05:40 18.03.2021
1355 Clear 28 1008 78 10000 2.06 140 00:52 18.03.2021
1356 Clear 29 1008 78 10000 4.63 180 23:58 17.03.2021
1357 Clear 30 1007 74 10000 4.63 180 22:44 17.03.2021
1358 Clear 30 1007 74 10000 4.63 180 22:25 17.03.2021
1359 Clouds 31 1007 74 10000 5.14 160 21:55 17.03.2021
1360 Clouds 31 1007 74 10000 5.14 160 21:33 17.03.2021
1361 Clouds 31 1007 74 10000 5.14 160 21:33 17.03.2021
1362 Clouds 32 1008 70 10000 4.63 160 20:58 17.03.2021
1363 Clouds 32 1008 70 10000 4.63 160 20:40 17.03.2021
1364 Clouds 32 1008 70 10000 4.63 160 20:21 17.03.2021
1365 Clouds 33 1008 70 10000 5.14 150 19:43 17.03.2021
1366 Clouds 33 1008 70 10000 5.14 150 19:21 17.03.2021
1367 Clouds 32 1009 70 10000 4.63 150 18:52 17.03.2021
1368 Clouds 32 1009 70 10000 4.63 150 18:33 17.03.2021
1369 Clouds 32 1010 74 10000 4.63 150 17:46 17.03.2021
1370 Clouds 32 1010 74 10000 4.63 150 17:23 17.03.2021
1371 Clear 32 1011 66 10000 3.6 150 16:45 17.03.2021
1372 Clear 32 1011 66 10000 3.6 150 16:24 17.03.2021
1373 Clear 30 1011 69 10000 1.54 30 15:53 17.03.2021
1374 Clear 30 1011 69 10000 1.54 30 15:35 17.03.2021
1375 Clear 30 1012 74 10000 2.06 320 14:45 17.03.2021
1376 Clear 29 1012 74 10000 2.06 320 14:27 17.03.2021
1377 Clouds 27 1012 83 10000 3.09 340 13:55 17.03.2021
1378 Clouds 27 1012 83 10000 3.09 340 13:30 17.03.2021
1379 Clouds 25 1011 88 10000 3.09 340 12:51 17.03.2021
1380 Clouds 25 1011 88 10000 3.09 340 12:33 17.03.2021
1381 Clouds 23 1011 88 10000 3.09 360 11:51 17.03.2021
1382 Clouds 23 1011 88 10000 3.09 360 11:23 17.03.2021
1383 Clouds 22 1011 88 10000 2.06 300 10:55 17.03.2021
1384 Clouds 22 1011 88 10000 2.06 300 10:28 17.03.2021
1385 Clouds 23 1010 100 8000 1.54 360 09:49 17.03.2021
1386 Clouds 23 1010 100 8000 1.54 360 09:26 17.03.2021
1387 Clouds 23 1010 94 10000 1.54 110 08:58 17.03.2021
1388 Clouds 23 1010 94 10000 1.54 110 08:38 17.03.2021
1389 Clouds 24 1010 94 6000 2.06 320 07:50 17.03.2021
1390 Clouds 24 1010 94 6000 2.06 320 07:32 17.03.2021
1391 Clouds 23 1011 94 6000 1.54 100 06:46 17.03.2021
1392 Clouds 23 1012 83 10000 3.6 360 04:26 17.03.2021
1393 Clouds 23 1012 83 10000 3.6 360 03:25 17.03.2021
1394 Clouds 23 1011 88 10000 2.57 20 00:40 17.03.2021
1395 Clouds 24 1012 88 10000 4.12 320 23:38 16.03.2021
1396 Clouds 24 1012 88 10000 4.12 320 23:18 16.03.2021
1397 Clouds 24 1012 88 10000 4.63 310 22:40 16.03.2021
1398 Clouds 25 1012 88 10000 4.63 310 22:21 16.03.2021
1399 Clouds 25 1011 88 8000 6.17 20 21:39 16.03.2021
1400 Clouds 25 1011 88 8000 6.17 20 21:21 16.03.2021
1401 Rain 25 1011 78 6000 6.69 290 20:46 16.03.2021
1402 Rain 26 1011 78 6000 6.69 290 20:18 16.03.2021
1403 Rain 27 1010 89 9000 6.69 170 19:43 16.03.2021
1404 Clouds 28 1010 89 9000 6.69 170 19:24 16.03.2021
1405 Clouds 30 1010 79 10000 7.72 160 18:50 16.03.2021
1406 Clouds 30 1010 79 10000 7.72 160 18:29 16.03.2021
1407 Clouds 31 1011 79 10000 7.72 160 17:51 16.03.2021
1408 Clouds 31 1011 79 10000 7.72 160 17:33 16.03.2021
1409 Clouds 31 1011 83 10000 6.69 160 16:53 16.03.2021
1410 Clouds 31 1011 83 10000 6.69 160 16:53 16.03.2021
1411 Clouds 31 1011 83 10000 6.69 160 16:31 16.03.2021
1412 Clouds 31 1012 79 10000 2.57 110 15:57 16.03.2021
1413 Clouds 31 1012 79 10000 2.57 110 15:36 16.03.2021
1414 Clouds 31 1012 79 10000 2.57 110 15:18 16.03.2021
1415 Clouds 30 1012 89 9000 2.57 40 14:41 16.03.2021
1416 Clouds 30 1012 89 9000 2.57 40 14:22 16.03.2021
1417 Clouds 29 1012 89 9000 4.12 20 13:57 16.03.2021
1418 Clouds 29 1012 89 9000 4.12 20 13:29 16.03.2021
1419 Clouds 27 1012 94 9000 4.63 20 12:56 16.03.2021
1420 Clouds 27 1012 94 9000 4.63 20 12:36 16.03.2021
1421 Clouds 26 1012 94 10000 3.6 30 11:56 16.03.2021
1422 Clouds 26 1012 94 10000 3.6 30 11:34 16.03.2021
1423 Clouds 25 1012 94 10000 3.6 30 10:49 16.03.2021
1424 Clouds 26 1012 94 10000 3.6 30 10:21 16.03.2021
1425 Clouds 26 1012 83 10000 2.06 280 09:40 16.03.2021
1426 Clouds 26 1012 83 10000 2.06 280 09:20 16.03.2021
1427 Clouds 26 1012 83 10000 2.57 280 08:55 16.03.2021
1428 Clouds 26 1012 83 10000 2.57 280 08:36 16.03.2021
1429 Clouds 26 1012 83 10000 1.54 310 07:53 16.03.2021
1430 Clouds 26 1012 83 10000 1.54 310 07:24 16.03.2021
1431 Clouds 26 1012 83 10000 1.54 310 07:24 16.03.2021
1432 Clouds 27 1012 74 10000 2.06 250 06:38 16.03.2021
1433 Rain 27 1013 78 10000 2.06 290 05:36 16.03.2021
1434 Clouds 27 1013 74 10000 4.12 180 02:46 16.03.2021
1435 Clouds 27 1013 74 10000 4.12 180 02:26 16.03.2021
1436 Clear 27 1012 74 10000 4.63 170 00:39 16.03.2021
1437 Clear 27 1011 78 10000 6.17 180 23:54 15.03.2021
1438 Clear 28 1011 78 10000 6.17 180 23:19 15.03.2021
1439 Clouds 28 1011 74 10000 5.14 190 22:43 15.03.2021
1440 Clouds 28 1011 74 10000 5.14 190 22:24 15.03.2021
1441 Clouds 28 1010 74 10000 5.66 180 21:49 15.03.2021
1442 Clouds 29 1010 74 10000 5.66 180 21:28 15.03.2021
1443 Clouds 29 1010 78 10000 6.17 160 20:54 15.03.2021
1444 Clouds 29 1010 78 10000 6.17 160 20:36 15.03.2021
1445 Clouds 29 1010 78 10000 6.17 160 20:18 15.03.2021
1446 Clouds 30 1010 78 10000 7.2 160 19:43 15.03.2021
1447 Rain 31 1010 78 10000 7.2 160 19:22 15.03.2021
1448 Clouds 31 1011 83 10000 6.69 160 18:47 15.03.2021
1449 Clouds 31 1011 83 10000 6.69 160 18:23 15.03.2021
1450 Clouds 32 1012 79 10000 6.17 150 17:55 15.03.2021
1451 Clouds 32 1012 79 10000 6.17 150 17:28 15.03.2021
1452 Clouds 31 1012 78 10000 5.66 150 16:50 15.03.2021
1453 Clouds 31 1012 78 10000 5.66 150 16:25 15.03.2021
1454 Clouds 31 1013 62 10000 1.54 50 15:44 15.03.2021
1455 Clouds 31 1013 62 10000 1.54 50 15:25 15.03.2021
1456 Clouds 30 1013 78 10000 2.57 320 14:42 15.03.2021
1457 Clouds 30 1013 78 10000 2.57 320 14:21 15.03.2021
1458 Clouds 29 1013 89 9000 3.09 340 13:46 15.03.2021
1459 Clouds 29 1013 89 9000 3.09 340 13:24 15.03.2021
1460 Clouds 27 1013 94 9000 2.06 360 12:47 15.03.2021
1461 Clouds 27 1013 94 9000 2.06 360 12:18 15.03.2021
1462 Clouds 25 1013 94 9000 2.06 80 11:48 15.03.2021
1463 Clouds 25 1013 94 9000 2.06 80 11:30 15.03.2021
1464 Mist 24 1012 100 5000 2.57 40 10:45 15.03.2021
1465 Mist 24 1012 100 5000 2.57 40 10:27 15.03.2021
1466 Clear 25 1012 94 10000 1.54 0 09:51 15.03.2021
1467 Clear 24 1012 94 10000 1.54 0 09:31 15.03.2021
1468 Clear 26 1013 88 10000 2.57 310 08:49 15.03.2021
1469 Clear 25 1013 88 10000 2.57 310 08:30 15.03.2021
1470 Clear 25 1013 88 10000 2.57 310 07:51 15.03.2021
1471 Clear 25 1013 88 10000 2.57 310 07:31 15.03.2021
1472 Clear 25 1013 94 10000 2.57 300 06:39 15.03.2021
1473 Clear 26 1013 89 10000 2.06 340 05:31 15.03.2021
1474 Clouds 26 1014 89 10000 2.06 140 01:26 15.03.2021
1475 Clouds 26 1012 89 10000 4.63 190 23:54 14.03.2021
1476 Clouds 26 1012 89 10000 4.63 190 23:19 14.03.2021
1477 Clouds 27 1012 89 10000 5.66 170 22:46 14.03.2021
1478 Clouds 27 1012 89 10000 5.66 170 22:19 14.03.2021
1479 Clouds 27 1012 83 10000 7.2 160 21:45 14.03.2021
1480 Clouds 28 1012 83 10000 7.2 160 21:18 14.03.2021
1481 Clouds 27 1012 78 10000 6.69 160 20:43 14.03.2021
1482 Clouds 28 1012 78 10000 6.69 160 20:24 14.03.2021
1483 Clouds 29 1012 78 10000 7.2 150 19:43 14.03.2021
1484 Clouds 29 1012 78 10000 7.2 150 19:23 14.03.2021
1485 Clouds 30 1013 83 10000 7.2 150 18:47 14.03.2021
1486 Clouds 30 1013 83 10000 7.2 150 18:22 14.03.2021
1487 Clouds 30 1013 83 10000 5.66 150 17:40 14.03.2021
1488 Clouds 31 1013 83 10000 5.66 150 17:22 14.03.2021
1489 Clouds 31 1014 79 10000 5.14 140 16:46 14.03.2021
1490 Clouds 31 1014 79 10000 5.14 140 16:26 14.03.2021
1491 Clouds 31 1014 79 10000 3.09 140 15:52 14.03.2021
1492 Clouds 31 1014 79 10000 3.09 140 15:33 14.03.2021
1493 Clouds 30 1015 83 10000 2.06 30 14:41 14.03.2021
1494 Clouds 29 1015 83 10000 2.06 30 14:20 14.03.2021
1495 Clouds 28 1015 83 10000 2.06 20 13:49 14.03.2021
1496 Clouds 28 1015 83 10000 2.06 20 13:28 14.03.2021
1497 Clouds 28 1015 83 10000 2.06 20 13:28 14.03.2021
1498 Clouds 28 1014 94 10000 3.09 30 12:46 14.03.2021
1499 Clouds 28 1014 94 10000 3.09 30 12:28 14.03.2021
1500 Clouds 25 1014 94 10000 2.57 340 11:47 14.03.2021
1501 Clouds 25 1014 94 10000 2.57 340 11:29 14.03.2021
1502 Clouds 24 1013 94 10000 2.06 360 10:56 14.03.2021
1503 Clouds 24 1013 94 10000 2.06 360 10:36 14.03.2021
1504 Clouds 25 1013 94 10000 2.06 360 10:18 14.03.2021
1505 Clouds 25 1014 94 10000 1.54 60 09:43 14.03.2021
1506 Clouds 24 1014 94 10000 1.54 60 09:22 14.03.2021
1507 Clouds 25 1014 94 10000 1.54 60 09:22 14.03.2021
1508 Clouds 25 1013 88 10000 1.54 30 08:41 14.03.2021
1509 Clouds 25 1013 88 10000 1.54 30 08:18 14.03.2021
1510 Clouds 26 1014 88 10000 1.03 70 07:35 14.03.2021
1511 Clouds 26 1014 88 10000 1.03 30 06:41 14.03.2021
1512 Clouds 26 1015 94 10000 2.57 170 03:54 14.03.2021
1513 Clouds 27 1014 89 10000 2.57 170 00:51 14.03.2021
1514 Clouds 27 1014 89 10000 2.57 170 00:19 14.03.2021
1515 Clouds 26 1013 94 10000 3.09 160 23:47 13.03.2021
1516 Clouds 26 1013 94 10000 3.09 160 23:25 13.03.2021
1517 Clouds 27 1013 89 10000 3.09 120 22:52 13.03.2021
1518 Clouds 27 1013 89 10000 3.09 120 22:26 13.03.2021
1519 Clouds 28 1013 89 10000 5.14 160 21:43 13.03.2021
1520 Clouds 28 1013 89 10000 5.14 160 21:25 13.03.2021
1521 Clouds 28 1012 78 10000 5.14 160 20:50 13.03.2021
1522 Clouds 28 1012 78 10000 5.14 160 20:31 13.03.2021
1523 Clouds 30 1012 74 10000 5.66 160 19:53 13.03.2021
1524 Clouds 30 1012 74 10000 5.66 160 19:30 13.03.2021
1525 Clouds 29 1013 74 10000 6.17 150 18:44 13.03.2021
1526 Clouds 29 1013 74 10000 6.17 150 18:23 13.03.2021
1527 Clouds 30 1013 74 10000 5.66 160 17:59 13.03.2021
1528 Clouds 30 1013 74 10000 5.66 160 17:40 13.03.2021
1529 Clouds 30 1013 74 10000 5.66 160 17:21 13.03.2021
1530 Clouds 31 1014 74 10000 5.14 160 16:42 13.03.2021
1531 Clouds 30 1014 74 10000 5.14 160 16:19 13.03.2021
1532 Clouds 29 1014 83 9000 4.12 150 15:26 13.03.2021
1533 Clouds 30 1014 79 8000 2.57 160 14:47 13.03.2021
1534 Clouds 30 1014 79 8000 2.57 160 14:25 13.03.2021
1535 Clouds 30 1014 79 8000 2.57 160 14:25 13.03.2021
1536 Clouds 29 1014 89 8000 2.06 60 13:47 13.03.2021
1537 Clouds 29 1014 89 8000 2.06 60 13:24 13.03.2021
1538 Clouds 29 1014 89 8000 2.06 60 13:24 13.03.2021
1539 Clouds 26 1014 94 7000 2.57 340 12:43 13.03.2021
1540 Clouds 25 1014 94 7000 2.57 340 12:20 13.03.2021
1541 Clouds 25 1013 100 8000 4.12 20 11:46 13.03.2021
1542 Clouds 25 1013 100 8000 4.12 20 11:28 13.03.2021
1543 Clouds 25 1013 100 7000 1.03 0 10:49 13.03.2021
1544 Clouds 25 1013 100 7000 1.03 0 10:25 13.03.2021
1545 Clouds 26 1013 94 7000 2.06 350 09:47 13.03.2021
1546 Clouds 26 1012 94 8000 1.54 340 08:58 13.03.2021
1547 Clouds 26 1012 94 8000 1.54 340 08:39 13.03.2021
1548 Clouds 25 1012 94 8000 1.54 340 08:19 13.03.2021
1549 Clouds 26 1012 94 10000 1.54 330 07:41 13.03.2021
1550 Clouds 26 1013 88 10000 1.03 120 06:18 13.03.2021
1551 Clouds 26 1014 89 10000 2.06 160 02:54 13.03.2021
1552 Clouds 26 1013 89 10000 3.6 170 00:51 13.03.2021
1553 Clouds 27 1012 89 10000 4.63 160 23:57 12.03.2021
1554 Clouds 27 1012 89 10000 4.63 160 23:32 12.03.2021
1555 Clouds 27 1012 83 10000 4.63 170 22:43 12.03.2021
1556 Clouds 27 1012 83 10000 4.63 170 22:23 12.03.2021
1557 Clouds 27 1011 83 10000 5.14 170 21:45 12.03.2021
1558 Clouds 27 1011 83 10000 5.14 170 21:26 12.03.2021
1559 Clouds 28 1011 74 10000 6.69 160 20:56 12.03.2021
1560 Clouds 28 1011 74 10000 6.69 160 20:32 12.03.2021
1561 Clouds 29 1011 74 10000 9.26 190 19:59 12.03.2021
1562 Clouds 29 1011 74 10000 9.26 190 19:40 12.03.2021
1563 Clouds 29 1011 74 10000 9.26 190 19:21 12.03.2021
1564 Clouds 30 1011 74 10000 8.75 190 18:36 12.03.2021
1565 Clouds 30 1012 70 10000 7.2 180 17:54 12.03.2021
1566 Clouds 30 1012 70 10000 7.2 180 17:36 12.03.2021
1567 Clouds 30 1012 70 10000 7.2 180 17:18 12.03.2021
1568 Clouds 31 1012 74 10000 5.14 170 16:40 12.03.2021
1569 Clouds 30 1013 78 10000 4.12 140 15:52 12.03.2021
1570 Clouds 30 1013 78 10000 4.12 140 15:31 12.03.2021
1571 Clouds 29 1013 89 10000 5.14 140 14:48 12.03.2021
1572 Clouds 30 1013 89 10000 5.14 140 14:21 12.03.2021
1573 Clouds 29 1013 94 10000 4.12 150 13:44 12.03.2021
1574 Clouds 29 1013 94 10000 4.12 150 13:23 12.03.2021
1575 Clear 28 1012 94 10000 2.06 150 12:57 12.03.2021
1576 Clear 28 1012 94 10000 2.06 150 12:38 12.03.2021
1577 Clear 28 1012 94 10000 2.06 150 12:38 12.03.2021
1578 Clear 27 1012 94 10000 2.06 150 12:20 12.03.2021
1579 Clouds 26 1011 100 10000 2.06 140 11:50 12.03.2021
1580 Clouds 25 1011 100 10000 2.06 140 11:22 12.03.2021
1581 Clouds 25 1011 100 10000 1.54 150 10:53 12.03.2021
1582 Clouds 25 1011 100 10000 1.54 150 10:25 12.03.2021
1583 Clear 26 1011 78 10000 2.57 300 09:54 12.03.2021
1584 Clouds 25 1011 100 10000 1.54 160 09:54 12.03.2021
1585 Clear 26 1011 78 10000 2.57 300 09:24 12.03.2021
1586 Clear 26 1010 88 10000 1.54 60 08:44 12.03.2021
1587 Clear 26 1010 78 10000 1.54 260 07:58 12.03.2021
1588 Clear 26 1010 78 10000 1.54 260 07:33 12.03.2021
1589 Clear 27 1011 89 10000 1.54 300 06:51 12.03.2021
1590 Clear 26 1011 89 10000 1.54 300 06:28 12.03.2021
1591 Rain 27 1012 89 10000 1.54 180 02:41 12.03.2021
1592 Clouds 27 1010 78 10000 1.03 180 00:42 12.03.2021
1593 Clouds 27 1010 78 10000 3.09 190 23:30 11.03.2021
1594 Clouds 27 1009 78 10000 5.66 190 22:50 11.03.2021
1595 Clouds 27 1009 78 10000 5.66 190 22:30 11.03.2021
1596 Clouds 28 1009 83 10000 6.17 190 21:54 11.03.2021
1597 Clouds 28 1009 83 10000 6.17 190 21:32 11.03.2021
1598 Clouds 28 1009 89 10000 7.72 170 20:55 11.03.2021
1599 Clouds 28 1009 89 10000 7.72 170 20:37 11.03.2021
1600 Clouds 28 1009 89 10000 7.72 170 20:19 11.03.2021
1601 Clouds 28 1009 78 10000 7.72 170 19:44 11.03.2021
1602 Clouds 28 1009 78 10000 7.72 170 19:26 11.03.2021
1603 Clouds 29 1010 78 10000 7.72 170 18:46 11.03.2021
1604 Clouds 29 1010 78 10000 7.72 170 18:28 11.03.2021
1605 Clear 30 1010 78 10000 7.2 160 17:44 11.03.2021
1606 Clear 30 1010 78 10000 4.63 150 16:53 11.03.2021
1607 Clear 30 1010 78 10000 4.63 150 16:27 11.03.2021
1608 Clouds 29 1011 69 10000 2.57 320 15:48 11.03.2021
1609 Clouds 30 1011 69 10000 2.57 320 15:22 11.03.2021
1610 Clouds 29 1011 83 10000 3.09 330 14:46 11.03.2021
1611 Clouds 27 1011 83 10000 3.09 330 14:19 11.03.2021
1612 Clouds 27 1011 88 10000 3.09 10 13:49 11.03.2021
1613 Clouds 27 1011 88 10000 3.09 10 13:31 11.03.2021
1614 Clouds 25 1011 83 10000 2.57 30 12:58 11.03.2021
1615 Clouds 25 1011 83 10000 2.57 30 12:39 11.03.2021
1616 Clouds 25 1011 83 10000 2.57 30 12:21 11.03.2021
1617 Clouds 24 1010 88 10000 1.03 80 11:43 11.03.2021
1618 Clouds 23 1010 88 10000 1.03 80 11:21 11.03.2021
1619 Rain 24 1010 88 10000 0.51 60 10:42 11.03.2021
1620 Rain 24 1010 88 10000 0.51 60 10:20 11.03.2021
1621 Clouds 24 1010 94 9000 1.03 0 09:44 11.03.2021
1622 Clouds 24 1010 94 9000 1.03 0 09:23 11.03.2021
1623 Rain 24 1010 88 10000 1.03 0 08:47 11.03.2021
1624 Rain 24 1010 88 10000 1.03 0 08:19 11.03.2021
1625 Clouds 24 1010 94 10000 1.54 350 07:30 11.03.2021
1626 Clouds 25 1010 88 10000 2.06 10 06:50 11.03.2021
1627 Clouds 25 1010 88 10000 2.06 10 06:30 11.03.2021
1628 -273 0 0 0 0 0 03:55 11.03.2021
1629 Clouds 26 1011 78 10000 2.57 170 01:19 11.03.2021
1630 Clouds 26 1009 73 10000 4.63 190 23:48 10.03.2021
1631 Clouds 26 1009 73 10000 4.63 190 23:19 10.03.2021
1632 Clouds 26 1009 73 10000 4.63 190 23:19 10.03.2021
1633 Rain 26 1009 78 10000 6.17 180 22:39 10.03.2021
1634 Rain 26 1009 78 10000 6.17 180 22:39 10.03.2021
1635 Clouds 26 1009 78 10000 7.72 180 21:47 10.03.2021
1636 Clouds 26 1009 78 10000 7.72 180 21:26 10.03.2021
1637 Clouds 27 1008 73 10000 9.26 180 20:58 10.03.2021
1638 Clouds 27 1008 73 10000 9.26 180 20:37 10.03.2021
1639 Clouds 27 1008 73 10000 9.26 180 20:19 10.03.2021
1640 Clouds 27 1008 69 10000 10.8 190 19:39 10.03.2021
1641 Clouds 28 1008 69 10000 10.8 190 19:20 10.03.2021
1642 Clouds 28 1008 65 10000 10.29 190 18:37 10.03.2021
1643 Clouds 28 1008 65 10000 10.29 190 18:18 10.03.2021
1644 Clouds 29 1008 69 10000 9.77 190 17:41 10.03.2021
1645 Clouds 29 1008 69 10000 9.77 190 17:19 10.03.2021
1646 Clouds 29 1009 65 10000 6.69 170 16:52 10.03.2021
1647 Clouds 29 1009 65 10000 6.69 170 16:29 10.03.2021
1648 Clouds 28 1009 69 10000 5.14 180 15:54 10.03.2021
1649 Clouds 28 1009 69 10000 5.14 180 15:36 10.03.2021
1650 Clouds 29 1009 69 10000 5.14 180 15:18 10.03.2021
1651 Clouds 29 1009 74 10000 3.09 100 14:23 10.03.2021
1652 Clouds 28 1009 74 10000 1.54 100 13:58 10.03.2021
1653 Clouds 28 1009 74 10000 1.54 100 13:34 10.03.2021
1654 Clouds 27 1009 83 10000 2.06 40 12:53 10.03.2021
1655 Clouds 27 1009 83 10000 2.06 40 12:32 10.03.2021
1656 Clouds 25 1008 83 10000 2.06 30 11:58 10.03.2021
1657 Clouds 25 1008 83 10000 2.06 30 11:30 10.03.2021
1658 Clouds 23 1008 83 10000 0.51 360 10:56 10.03.2021
1659 Clouds 24 1008 83 10000 0.51 360 10:34 10.03.2021
1660 Clouds 24 1008 83 10000 0.51 330 09:57 10.03.2021
1661 Clouds 24 1008 83 10000 0.93 9 09:39 10.03.2021
1662 Clouds 24 1008 83 10000 1.49 30 09:19 10.03.2021
1663 Clouds 24 1008 83 10000 0.51 300 08:45 10.03.2021
1664 Clouds 25 1008 83 10000 0.51 300 08:27 10.03.2021
1665 Clouds 25 1007 83 10000 1.03 70 07:46 10.03.2021
1666 Clouds 25 1007 83 10000 1.03 70 07:25 10.03.2021
1667 Clouds 25 1008 88 10000 1.54 160 06:52 10.03.2021
1668 Clouds 25 1009 78 10000 1.54 60 03:29 10.03.2021
1669 Rain 26 1009 73 10000 3.6 110 00:42 10.03.2021
1670 Clouds 27 1008 78 10000 2.06 150 23:47 09.03.2021
1671 Rain 27 1008 73 10000 4.12 130 22:58 09.03.2021
1672 Clouds 27 1008 73 10000 4.12 130 22:38 09.03.2021
1673 Rain 27 1007 69 10000 4.63 170 22:18 09.03.2021
1674 Clouds 28 1007 69 10000 4.63 170 21:42 09.03.2021
1675 Clouds 29 1007 74 10000 6.17 170 21:22 09.03.2021
1676 Clouds 29 1007 74 10000 6.17 170 20:56 09.03.2021
1677 Clouds 29 1007 74 10000 6.17 170 20:37 09.03.2021
1678 Clouds 28 1008 78 10000 6.69 170 20:19 09.03.2021
1679 Clouds 29 1008 78 10000 6.69 170 19:43 09.03.2021
1680 Clouds 29 1008 78 10000 6.69 170 19:25 09.03.2021
1681 Clouds 28 1008 83 10000 6.17 160 18:42 09.03.2021
1682 Clouds 29 1008 83 10000 6.17 160 18:20 09.03.2021
1683 Clouds 29 1010 78 10000 6.69 160 17:47 09.03.2021
1684 Clouds 29 1010 78 10000 6.69 160 17:27 09.03.2021
1685 Clouds 29 1011 83 10000 5.14 150 16:41 09.03.2021
1686 Clouds 29 1011 83 10000 5.14 150 16:22 09.03.2021
1687 Clouds 28 1011 83 10000 5.14 160 15:56 09.03.2021
1688 Clouds 28 1011 83 10000 5.14 160 15:28 09.03.2021
1689 Clouds 28 1011 83 10000 1.54 120 14:52 09.03.2021
1690 Clouds 27 1011 83 10000 1.54 120 14:26 09.03.2021
1691 Clouds 27 1011 83 10000 1.03 0 13:43 09.03.2021
1692 Clouds 26 1011 83 10000 1.03 0 13:21 09.03.2021
1693 Clouds 26 1011 88 10000 1.03 0 12:55 09.03.2021
1694 Clouds 26 1011 88 10000 1.03 0 12:37 09.03.2021
1695 Clouds 24 1010 94 10000 1.54 40 11:58 09.03.2021
1696 Clouds 25 1010 94 10000 1.54 40 11:39 09.03.2021
1697 Clouds 23 1010 94 10000 1.54 40 11:19 09.03.2021
1698 Clouds 22 1010 94 10000 1.54 360 10:40 09.03.2021
1699 Clouds 23 1010 94 10000 1.54 360 10:21 09.03.2021
1700 Clouds 24 1010 94 10000 1.54 350 09:47 09.03.2021
1701 Clouds 24 1010 94 10000 1.54 350 09:28 09.03.2021
1702 Clouds 24 1010 94 10000 1.54 340 08:58 09.03.2021
1703 Clouds 24 1010 94 10000 1.54 340 08:34 09.03.2021
1704 Clouds 24 1010 94 10000 1.03 350 07:47 09.03.2021
1705 Clouds 24 1010 94 10000 1.03 350 07:28 09.03.2021
1706 Clouds 24 1010 94 10000 1.03 350 07:28 09.03.2021
1707 Clouds 25 1011 94 10000 1.03 360 06:59 09.03.2021
1708 Clouds 25 1012 94 10000 1.4 17 05:53 09.03.2021
1709 Clouds 25 1012 94 10000 1.54 170 01:48 09.03.2021
1710 Clouds 26 1011 88 10000 2.57 150 23:59 08.03.2021
1711 Clouds 26 1011 88 10000 2.57 150 23:39 08.03.2021
1712 Clouds 25 1011 88 10000 2.57 150 23:20 08.03.2021
1713 Clouds 25 1011 88 10000 3.6 150 22:41 08.03.2021
1714 Clouds 26 1011 88 10000 3.6 150 22:23 08.03.2021
1715 Rain 26 1011 88 10000 5.14 160 21:50 08.03.2021
1716 Clouds 26 1011 88 10000 5.14 160 21:30 08.03.2021
1717 Clouds 27 1010 78 10000 6.17 160 20:45 08.03.2021
1718 Clouds 26 1010 78 10000 6.17 160 20:24 08.03.2021
1719 Clouds 26 1010 78 10000 6.17 170 19:54 08.03.2021
1720 Rain 26 1010 78 10000 6.17 170 19:28 08.03.2021
1721 Rain 28 1011 78 10000 6.17 170 18:39 08.03.2021
1722 Clouds 28 1011 78 10000 6.17 170 18:20 08.03.2021
1723 Clouds 28 1011 83 10000 5.66 150 17:50 08.03.2021
1724 Clouds 28 1011 83 10000 5.66 150 17:25 08.03.2021
1725 Clouds 28 1012 83 10000 6.17 160 16:46 08.03.2021
1726 Clouds 28 1012 83 10000 6.17 160 16:27 08.03.2021
1727 Clouds 28 1012 83 10000 3.6 140 15:49 08.03.2021
1728 Clouds 29 1012 83 10000 3.6 140 15:26 08.03.2021
1729 Clouds 27 1012 89 10000 1.54 10 14:43 08.03.2021
1730 Clouds 26 1012 89 10000 1.54 10 14:20 08.03.2021
1731 Clouds 25 1013 88 10000 2.06 20 13:37 08.03.2021
1732 Clouds 25 1013 88 10000 2.06 20 13:18 08.03.2021
1733 Clouds 25 1012 88 10000 1.54 10 12:42 08.03.2021
1734 Clouds 25 1012 88 10000 1.54 10 12:22 08.03.2021
1735 Clouds 25 1012 94 10000 1.03 0 11:40 08.03.2021
1736 Clouds 23 1012 94 10000 1.03 0 11:18 08.03.2021
1737 Clouds 23 1011 100 10000 1.03 160 10:43 08.03.2021
1738 Clouds 23 1011 100 10000 1.03 160 10:22 08.03.2021
1739 Clouds 24 1011 94 10000 1.03 60 09:41 08.03.2021
1740 Clouds 24 1011 94 10000 1.03 60 09:22 08.03.2021
1741 Clouds 24 1010 94 10000 1.03 0 08:28 08.03.2021
1742 Clouds 24 1011 94 10000 1.03 40 07:24 08.03.2021
1743 Clouds 24 1011 94 10000 1.03 40 07:24 08.03.2021
1744 Clouds 24 1011 88 10000 1.54 180 06:44 08.03.2021
1745 Clouds 24 1012 88 10000 2.06 170 03:39 08.03.2021
1746 Clouds 24 1012 83 10000 1.54 130 00:44 08.03.2021
1747 Rain 25 1011 83 10000 1.54 110 23:59 07.03.2021
1748 Rain 24 1011 83 10000 1.54 110 23:39 07.03.2021
1749 Rain 25 1011 83 10000 1.54 110 23:19 07.03.2021
1750 Rain 25 1011 83 10000 2.57 170 22:43 07.03.2021
1751 Rain 25 1011 83 10000 2.57 170 22:25 07.03.2021
1752 Clouds 25 1010 88 10000 4.12 170 21:45 07.03.2021
1753 Rain 25 1010 88 10000 4.12 170 21:25 07.03.2021
1754 Rain 25 1010 88 8000 3.09 160 20:48 07.03.2021
1755 Rain 25 1010 88 8000 3.09 160 20:30 07.03.2021
1756 Rain 26 1010 88 10000 3.09 160 19:57 07.03.2021
1757 Rain 26 1010 88 10000 3.09 160 19:38 07.03.2021
1758 Rain 26 1010 88 10000 3.09 160 19:20 07.03.2021
1759 Rain 27 1011 78 10000 1.03 0 18:44 07.03.2021
1760 Rain 27 1011 78 10000 1.03 0 18:20 07.03.2021
1761 Clouds 27 1011 83 10000 1.03 30 17:42 07.03.2021
1762 Clouds 27 1011 83 10000 1.03 30 17:21 07.03.2021
1763 Clouds 27 1012 89 9000 2.06 30 16:59 07.03.2021
1764 Clouds 27 1012 89 9000 2.06 30 16:38 07.03.2021
1765 Clouds 26 1012 89 9000 2.06 30 16:19 07.03.2021
1766 Rain 25 1012 94 8000 3.6 30 15:45 07.03.2021
1767 Rain 26 1012 94 8000 3.6 30 15:23 07.03.2021
1768 Rain 24 1012 94 9000 2.57 10 14:37 07.03.2021
1769 Rain 24 1012 94 9000 2.57 10 14:19 07.03.2021
1770 Rain 25 1012 94 10000 2.06 360 13:41 07.03.2021
1771 Rain 25 1012 94 10000 2.06 360 13:21 07.03.2021
1772 Rain 24 1012 94 10000 1.54 330 12:46 07.03.2021
1773 Rain 24 1011 94 10000 2.06 30 12:28 07.03.2021
1774 Rain 23 1010 88 10000 1.54 340 11:49 07.03.2021
1775 Rain 23 1010 88 10000 1.54 340 11:22 07.03.2021
1776 Clouds 23 1009 94 10000 2.06 340 10:44 07.03.2021
1777 Clouds 23 1009 94 10000 2.06 340 10:26 07.03.2021
1778 Clouds 25 1010 94 10000 1.03 330 09:44 07.03.2021
1779 Clouds 24 1010 94 10000 1.03 330 09:25 07.03.2021
1780 Clouds 23 1009 94 10000 1.03 0 08:46 07.03.2021
1781 Clouds 23 1009 94 10000 1.03 0 08:24 07.03.2021
1782 Clouds 23 1010 94 10000 1.03 0 07:51 07.03.2021
1783 Rain 24 1011 100 3000 2.57 280 02:43 07.03.2021
1784 Rain 25 1010 94 10000 5.14 170 01:19 07.03.2021
1785 Clouds 27 1009 74 10000 5.14 200 23:54 06.03.2021
1786 Clouds 27 1009 74 10000 5.14 200 23:35 06.03.2021
1787 Clouds 27 1007 78 10000 7.2 190 22:48 06.03.2021
1788 Clouds 27 1007 78 10000 7.2 190 22:29 06.03.2021
1789 Clouds 28 1007 69 10000 9.77 190 21:59 06.03.2021
1790 Rain 28 1007 69 10000 9.77 190 21:24 06.03.2021
1791 Clouds 30 1006 65 10000 8.75 190 20:55 06.03.2021
1792 Clouds 30 1006 65 10000 8.75 190 20:36 06.03.2021
1793 Rain 31 1006 62 10000 6.69 190 19:50 06.03.2021
1794 Clouds 31 1006 62 10000 6.69 190 19:23 06.03.2021
1795 Clouds 31 1006 62 10000 6.69 190 19:23 06.03.2021
1796 Clouds 31 1007 62 10000 3.6 130 18:57 06.03.2021
1797 Clouds 31 1007 62 10000 3.6 130 18:38 06.03.2021
1798 Rain 32 1007 62 10000 3.6 130 18:18 06.03.2021
1799 Clouds 32 1007 66 10000 3.09 130 17:45 06.03.2021
1800 Rain 33 1007 66 10000 3.09 130 17:25 06.03.2021
1801 Rain 33 1007 52 10000 4.12 280 16:52 06.03.2021
1802 Rain 33 1007 52 10000 4.12 280 16:29 06.03.2021
1803 Rain 32 1008 55 10000 3.09 310 15:54 06.03.2021
1804 Clouds 32 1008 55 10000 3.09 310 15:32 06.03.2021
1805 Rain 30 1008 58 10000 3.6 300 14:54 06.03.2021
1806 Rain 30 1008 58 10000 3.6 300 14:30 06.03.2021
1807 Rain 30 1008 58 10000 3.09 300 13:44 06.03.2021
1808 Rain 30 1008 58 10000 3.09 300 13:23 06.03.2021
1809 Clouds 28 1007 61 10000 2.06 280 12:46 06.03.2021
1810 Rain 28 1007 61 10000 2.06 280 12:20 06.03.2021
1811 Rain 28 1007 61 10000 2.06 280 12:20 06.03.2021
1812 Rain 27 1006 61 10000 3.09 300 11:57 06.03.2021
1813 Rain 28 1006 61 10000 3.09 300 11:22 06.03.2021
1814 Rain 27 1005 89 10000 2.06 20 10:54 06.03.2021
1815 Rain 27 1005 89 10000 2.06 20 10:35 06.03.2021
1816 Rain 28 1005 69 10000 3.09 290 09:51 06.03.2021
1817 Rain 28 1005 69 10000 3.09 290 09:21 06.03.2021
1818 Rain 28 1005 89 10000 1.54 70 08:53 06.03.2021
1819 Rain 28 1005 89 10000 1.54 70 08:29 06.03.2021
1820 Clouds 26 1005 89 10000 1.03 70 07:43 06.03.2021
1821 Rain 26 1005 89 10000 1.03 70 07:21 06.03.2021
1822 Clouds 26 1007 89 10000 1.03 70 05:40 06.03.2021
1823 Rain 26 1007 83 10000 2.06 320 03:36 06.03.2021
1824 Rain 27 1006 89 10000 5.14 20 01:32 06.03.2021
1825 Clouds 28 1005 83 10000 5.66 350 00:45 06.03.2021
1826 Clouds 27 1004 89 10000 2.57 360 23:41 05.03.2021
1827 Rain 27 1004 89 10000 2.57 360 23:19 05.03.2021
1828 Clouds 27 1004 69 10000 3.09 310 22:43 05.03.2021
1829 Clouds 28 1004 69 10000 3.09 310 22:20 05.03.2021
1830 Rain 28 1005 61 10000 7.2 290 21:43 05.03.2021
1831 Rain 31 1003 65 10000 5.66 190 21:23 05.03.2021
1832 Rain 32 1003 65 10000 5.66 160 20:47 05.03.2021
1833 Rain 32 1003 65 10000 5.66 160 20:24 05.03.2021
1834 Rain 35 1003 49 10000 2.57 0 19:45 05.03.2021
1835 Rain 35 1003 49 10000 2.57 0 19:22 05.03.2021
1836 Rain 35 1004 41 10000 5.66 340 18:45 05.03.2021
1837 Clouds 35 1004 41 10000 5.66 340 18:26 05.03.2021
1838 Clouds 35 1004 41 10000 5.66 340 18:26 05.03.2021
1839 Clouds 35 1005 43 10000 4.12 340 17:51 05.03.2021
1840 Clouds 35 1005 43 10000 4.12 340 17:33 05.03.2021
1841 Clouds 35 1006 58 10000 3.09 40 16:44 05.03.2021
1842 Clouds 35 1006 58 10000 3.09 40 16:24 05.03.2021
1843 Rain 33 1007 62 10000 3.09 350 15:55 05.03.2021
1844 Clouds 34 1007 62 10000 3.09 350 15:27 05.03.2021
1845 Clouds 30 1007 70 10000 2.57 310 14:52 05.03.2021
1846 Clouds 30 1007 70 10000 2.57 310 14:34 05.03.2021
1847 Clouds 30 1008 74 10000 3.09 340 13:45 05.03.2021
1848 Clouds 28 1008 74 10000 3.09 340 13:21 05.03.2021
1849 Clouds 29 1008 83 10000 2.57 360 12:46 05.03.2021
1850 Clear 27 1007 89 10000 3.09 30 11:40 05.03.2021
1851 Clear 25 1007 89 10000 3.09 30 11:20 05.03.2021
1852 Clear 26 1007 88 10000 0.51 110 10:57 05.03.2021
1853 Clear 26 1007 88 10000 0.51 110 10:37 05.03.2021
1854 Clear 27 1007 88 10000 0.51 110 10:19 05.03.2021
1855 Clear 27 1008 78 10000 2.06 300 09:42 05.03.2021
1856 Clear 27 1008 78 10000 2.06 300 09:23 05.03.2021
1857 Clear 28 1008 69 10000 3.6 260 08:39 05.03.2021
1858 Clear 28 1008 69 10000 3.6 260 08:20 05.03.2021
1859 Clear 28 1008 69 10000 5.66 250 07:35 05.03.2021
1860 Clear 27 1008 74 10000 4.63 270 06:43 05.03.2021
1861 Rain 27 1008 74 10000 4.63 270 06:25 05.03.2021
1862 Clear 30 1009 61 10000 1.03 0 01:40 05.03.2021
1863 Clear 31 1008 58 10000 3.6 180 23:55 04.03.2021
1864 Clear 31 1008 58 10000 3.6 180 23:25 04.03.2021
1865 Clouds 32 1008 55 10000 5.14 180 22:31 04.03.2021
1866 Clouds 33 1008 51 10000 4.63 190 21:55 04.03.2021
1867 Clouds 33 1008 51 10000 4.63 190 21:33 04.03.2021
1868 Clouds 35 1008 49 10000 5.14 190 20:59 04.03.2021
1869 Clouds 35 1008 49 10000 5.14 190 20:40 04.03.2021
1870 Clouds 35 1008 49 10000 5.14 190 20:21 04.03.2021
1871 Clouds 35 1009 52 10000 2.57 170 19:51 04.03.2021
1872 Clouds 35 1009 52 10000 2.57 170 19:26 04.03.2021
1873 Clouds 35 1010 55 10000 2.57 140 18:52 04.03.2021
1874 Clouds 35 1010 55 10000 2.57 140 18:30 04.03.2021
1875 Clouds 34 1010 52 10000 2.06 110 17:50 04.03.2021
1876 Clouds 35 1010 52 10000 2.06 110 17:31 04.03.2021
1877 Clouds 35 1011 49 10000 2.57 360 16:56 04.03.2021
1878 Clouds 35 1011 49 10000 2.57 360 16:38 04.03.2021
1879 Clouds 35 1011 49 10000 2.57 360 16:19 04.03.2021
1880 Clear 34 1012 55 10000 2.06 20 15:45 04.03.2021
1881 Clear 34 1012 55 10000 2.06 20 15:24 04.03.2021
1882 Clear 32 1012 66 10000 2.06 360 14:40 04.03.2021
1883 Clouds 30 1013 78 10000 2.57 10 13:59 04.03.2021
1884 Clouds 30 1013 78 10000 2.57 10 13:40 04.03.2021
1885 Clouds 29 1013 78 10000 2.57 10 13:19 04.03.2021
1886 Clouds 29 1013 78 10000 1.54 340 12:41 04.03.2021
1887 Clouds 25 1012 89 10000 1.54 360 11:51 04.03.2021
1888 Clouds 25 1012 89 10000 1.54 360 11:32 04.03.2021
1889 Clear 25 1012 88 10000 2.06 340 10:58 04.03.2021
1890 Clear 26 1012 88 10000 2.06 340 10:36 04.03.2021
1891 Clear 25 1012 88 10000 2.06 340 09:53 04.03.2021
1892 Clear 25 1012 94 10000 1.54 320 09:28 04.03.2021
1893 Clear 26 1012 88 10000 1.54 310 08:51 04.03.2021
1894 Clear 26 1012 88 10000 1.54 310 08:25 04.03.2021
1895 Clear 26 1012 88 10000 1.54 360 07:36 04.03.2021
1896 Clear 26 1012 88 10000 2.06 330 06:41 04.03.2021
1897 Clear 27 1012 88 10000 2.06 330 06:21 04.03.2021
1898 Clear 27 1012 78 10000 1.54 190 02:38 04.03.2021
1899 Clear 29 1012 69 10000 3.6 180 23:57 03.03.2021
1900 Clear 31 1012 65 10000 5.66 190 22:39 03.03.2021
1901 Clear 30 1012 65 10000 5.66 190 22:20 03.03.2021
1902 Clouds 31 1012 62 10000 6.17 190 21:41 03.03.2021
1903 Clouds 32 1012 62 10000 6.17 190 21:23 03.03.2021
1904 Clouds 31 1012 58 10000 6.69 180 20:54 03.03.2021
1905 Clouds 31 1012 58 10000 6.69 180 20:35 03.03.2021
1906 Clouds 32 1013 55 10000 6.69 180 19:51 03.03.2021
1907 Clouds 32 1013 55 10000 6.69 180 19:30 03.03.2021
1908 Clouds 33 1013 61 10000 7.2 150 18:58 03.03.2021
1909 Clouds 33 1013 61 10000 7.2 150 18:39 03.03.2021
1910 Clouds 32 1014 70 10000 5.66 150 17:58 03.03.2021
1911 Clouds 33 1014 70 10000 5.66 150 17:22 03.03.2021
1912 Clouds 32 1014 70 10000 5.14 150 16:55 03.03.2021
1913 Clouds 33 1014 70 10000 5.14 150 16:27 03.03.2021
1914 Clouds 32 1015 62 10000 2.06 50 15:59 03.03.2021
1915 Clouds 32 1015 62 10000 2.06 50 15:33 03.03.2021
1916 Clear 32 1015 70 10000 2.06 20 14:51 03.03.2021
1917 Clear 31 1015 70 10000 2.06 20 14:28 03.03.2021
1918 Clear 30 1015 74 10000 2.57 360 13:48 03.03.2021
1919 Clear 30 1015 74 10000 2.57 360 13:29 03.03.2021
1920 Clear 28 1014 78 10000 2.57 330 12:43 03.03.2021
1921 Clear 28 1014 78 10000 2.57 330 12:23 03.03.2021
1922 Clear 25 1014 83 10000 3.09 310 11:46 03.03.2021
1923 Clear 25 1014 83 10000 3.09 310 11:27 03.03.2021
1924 Clear 23 1013 88 10000 2.06 320 10:46 03.03.2021
1925 Clear 24 1013 88 10000 2.06 320 10:23 03.03.2021
1926 Clear 24 1013 83 10000 1.03 100 09:45 03.03.2021
1927 Clear 25 1013 78 10000 1.54 80 08:59 03.03.2021
1928 Clear 25 1013 78 10000 1.54 80 08:39 03.03.2021
1929 Clear 25 1013 78 10000 1.54 80 08:20 03.03.2021
1930 Clear 25 1013 83 10000 2.06 110 07:39 03.03.2021
1931 Clear 25 1013 83 10000 1.03 0 06:50 03.03.2021
1932 Clear 25 1014 78 10000 1.54 70 05:46 03.03.2021
1933 Clear 26 1014 78 10000 2.06 100 04:57 03.03.2021
1934 Clear 26 1014 83 10000 0.51 10 04:25 03.03.2021
1935 Clear 28 1012 78 10000 1.03 140 01:46 03.03.2021
1936 Clear 28 1011 74 10000 3.6 170 23:55 02.03.2021
1937 Clear 28 1011 74 10000 3.6 170 23:22 02.03.2021
1938 Clouds 29 1011 69 10000 5.66 180 22:41 02.03.2021
1939 Clouds 30 1011 69 10000 5.66 180 22:18 02.03.2021
1940 Clouds 30 1011 65 10000 6.17 180 21:40 02.03.2021
1941 Clouds 30 1011 65 10000 6.17 180 21:21 02.03.2021
1942 Clouds 30 1011 61 10000 5.66 190 20:46 02.03.2021
1943 Clouds 31 1011 61 10000 5.66 190 20:22 02.03.2021
1944 Clouds 31 1012 69 10000 6.17 170 19:53 02.03.2021
1945 Clouds 31 1012 69 10000 6.17 170 19:33 02.03.2021
1946 Clouds 31 1012 65 10000 6.17 160 18:58 02.03.2021
1947 Clouds 31 1012 65 10000 6.17 160 18:40 02.03.2021
1948 Clouds 31 1012 65 10000 6.17 160 18:21 02.03.2021
1949 Clouds 31 1013 65 10000 5.14 150 17:49 02.03.2021
1950 Clouds 31 1013 65 10000 5.14 150 17:29 02.03.2021
1951 Clouds 31 1013 65 10000 4.12 150 16:49 02.03.2021
1952 Clouds 30 1013 65 10000 4.12 150 16:20 02.03.2021
1953 Clouds 31 1013 65 10000 4.12 150 16:20 02.03.2021
1954 Clear 30 1014 74 10000 3.09 150 15:48 02.03.2021
1955 Clear 30 1014 74 10000 3.09 150 15:22 02.03.2021
1956 Clear 29 1014 74 10000 1.03 40 14:22 02.03.2021
1957 Clear 28 1014 78 10000 2.06 340 13:49 02.03.2021
1958 Clear 27 1014 78 10000 2.06 340 13:30 02.03.2021
1959 Clear 27 1013 78 10000 2.06 360 12:51 02.03.2021
1960 Clear 27 1013 78 10000 2.06 360 12:29 02.03.2021
1961 Clear 25 1013 83 10000 1.54 10 11:53 02.03.2021
1962 Clear 25 1013 83 10000 1.54 10 11:32 02.03.2021
1963 Clear 23 1012 88 10000 2.06 350 10:57 02.03.2021
1964 Clear 24 1012 88 10000 2.06 350 10:32 02.03.2021
1965 Clear 24 1012 83 10000 1.03 10 09:57 02.03.2021
1966 Clear 24 1012 88 10000 2.57 90 09:39 02.03.2021
1967 Clear 24 1012 88 10000 2.57 90 09:18 02.03.2021
1968 Clear 24 1012 88 10000 3.09 100 08:36 02.03.2021
1969 Clear 25 1012 83 10000 2.57 90 07:53 02.03.2021
1970 Clear 25 1012 83 10000 2.57 90 06:59 02.03.2021
1971 Clear 25 1012 83 10000 2.57 90 06:32 02.03.2021
1972 Clear 25 1013 88 10000 3.6 90 05:44 02.03.2021
1973 Clear 25 1013 88 10000 3.6 90 05:24 02.03.2021
1974 Clear 27 1012 78 10000 3.09 100 01:44 02.03.2021
1975 Clear 27 1012 78 10000 3.09 100 01:23 02.03.2021
1976 Clouds 27 1011 88 10000 3.09 170 23:55 01.03.2021
1977 Clouds 28 1011 88 10000 3.09 170 23:22 01.03.2021
1978 Clouds 28 1011 88 10000 3.09 170 23:22 01.03.2021
1979 Clouds 28 1010 83 10000 4.12 180 22:40 01.03.2021
1980 Clouds 29 1010 83 10000 4.12 180 22:21 01.03.2021
1981 Clouds 30 1010 74 10000 4.63 190 21:45 01.03.2021
1982 Clouds 30 1010 74 10000 4.63 190 21:23 01.03.2021
1983 Clouds 30 1010 70 10000 4.12 160 20:46 01.03.2021
1984 Clouds 30 1010 70 10000 4.12 160 20:27 01.03.2021
1985 Clouds 30 1011 74 10000 5.14 170 19:51 01.03.2021
1986 Clouds 30 1011 74 10000 5.14 170 19:32 01.03.2021
1987 Clouds 30 1012 74 10000 5.66 160 18:45 01.03.2021
1988 Clouds 30 1012 74 10000 5.66 160 18:24 01.03.2021
1989 Clouds 31 1012 66 10000 5.14 150 17:49 01.03.2021
1990 Clouds 31 1012 66 10000 5.14 150 17:25 01.03.2021
1991 Clouds 30 1013 74 10000 5.14 170 16:57 01.03.2021
1992 Clouds 30 1013 74 10000 5.14 170 16:38 01.03.2021
1993 Clouds 30 1013 74 10000 5.14 170 16:20 01.03.2021
1994 Clouds 30 1013 74 10000 4.63 160 15:38 01.03.2021
1995 Clouds 30 1013 74 10000 4.63 160 15:18 01.03.2021
1996 Clouds 28 1013 74 10000 2.06 320 14:41 01.03.2021
1997 Clouds 28 1013 74 10000 2.06 320 14:22 01.03.2021
1998 Clear 27 1013 78 10000 2.57 350 13:39 01.03.2021
1999 Clear 26 1013 78 10000 2.57 350 13:20 01.03.2021
2000 Clear 26 1013 78 10000 2.57 20 12:43 01.03.2021
2001 Clear 26 1013 78 10000 2.57 20 12:25 01.03.2021
2002 Clear 24 1013 88 10000 2.06 360 11:57 01.03.2021
2003 Clear 24 1013 88 10000 2.06 360 11:30 01.03.2021
2004 Clear 24 1012 88 10000 2.06 10 10:43 01.03.2021
2005 Clear 24 1012 88 10000 2.06 10 10:22 01.03.2021
2006 Clear 24 1012 88 10000 2.06 20 09:56 01.03.2021
2007 Clear 24 1012 88 10000 2.57 100 09:36 01.03.2021
2008 Clouds 25 1012 88 10000 2.06 110 08:57 01.03.2021
2009 Clouds 25 1012 88 10000 2.06 110 08:36 01.03.2021
2010 Clouds 25 1012 83 10000 2.06 120 07:34 01.03.2021
2011 Clouds 25 1012 83 10000 2.06 70 06:31 01.03.2021
2012 Clouds 26 1013 74 10000 5.14 80 02:40 01.03.2021
2013 Clouds 29 1011 69 10000 6.17 90 23:54 28.02.2021
2014 Clouds 29 1011 69 10000 6.17 90 23:22 28.02.2021
2015 Clouds 29 1011 74 10000 2.06 150 22:45 28.02.2021
2016 Clouds 30 1011 74 10000 2.06 150 22:21 28.02.2021
2017 Clouds 30 1011 70 10000 5.14 150 21:47 28.02.2021
2018 Clouds 30 1011 70 10000 5.14 150 21:24 28.02.2021
2019 Clouds 31 1011 66 10000 5.66 130 20:49 28.02.2021
2020 Clouds 31 1011 66 10000 5.66 130 20:30 28.02.2021
2021 Clouds 32 1011 62 10000 5.14 150 19:47 28.02.2021
2022 Clouds 32 1011 62 10000 5.14 150 19:27 28.02.2021
2023 Clouds 31 1012 70 10000 4.12 130 18:47 28.02.2021
2024 Clouds 31 1012 70 10000 4.12 130 18:28 28.02.2021
2025 Clouds 31 1013 66 10000 3.09 150 17:58 28.02.2021
2026 Clouds 32 1013 66 10000 3.09 150 17:38 28.02.2021
2027 Clouds 32 1013 66 10000 3.09 150 17:20 28.02.2021
2028 Clouds 31 1013 66 10000 4.12 160 16:48 28.02.2021
2029 Clouds 31 1013 66 10000 4.12 160 16:29 28.02.2021
2030 Clouds 31 1013 66 10000 4.12 160 16:29 28.02.2021
2031 Clouds 31 1014 66 10000 2.06 140 15:52 28.02.2021
2032 Clouds 31 1014 66 10000 2.06 140 15:28 28.02.2021
2033 Clouds 30 1015 70 10000 2.06 0 14:58 28.02.2021
2034 Clouds 30 1015 70 10000 2.06 0 14:39 28.02.2021
2035 Clouds 29 1015 70 10000 2.06 0 14:19 28.02.2021
2036 Clouds 29 1015 69 10000 0.51 30 13:39 28.02.2021
2037 Clouds 29 1015 69 10000 0.51 30 13:19 28.02.2021
2038 Clouds 28 1014 78 10000 2.57 40 12:54 28.02.2021
2039 Clouds 28 1014 78 10000 2.57 40 12:35 28.02.2021
2040 Clouds 25 1014 88 10000 1.54 330 11:59 28.02.2021
2041 Clouds 25 1014 88 10000 1.54 330 11:41 28.02.2021
2042 Clouds 25 1014 88 10000 1.54 330 11:22 28.02.2021
2043 Clouds 25 1013 88 10000 1.54 40 10:43 28.02.2021
2044 Clouds 25 1013 88 10000 1.54 40 10:25 28.02.2021
2045 Clouds 25 1013 88 10000 1.27 54 09:40 28.02.2021
2046 Clouds 25 1013 88 10000 1.36 36 09:22 28.02.2021
2047 Clouds 25 1013 88 10000 1.36 36 08:46 28.02.2021
2048 Clouds 25 1013 88 10000 1.78 50 08:28 28.02.2021
2049 Clouds 25 1013 94 7000 2.06 80 07:50 28.02.2021
2050 Clouds 25 1013 94 7000 2.06 80 07:28 28.02.2021
2051 Clouds 26 1013 94 10000 1.81 49 06:25 28.02.2021
2052 Clouds 26 1014 94 10000 0.51 360 05:24 28.02.2021
2053 Clouds 26 1014 94 10000 2.57 70 03:24 28.02.2021
2054 Clouds 27 1013 83 10000 3.09 310 01:36 28.02.2021
2055 Clouds 26 1012 83 10000 1.54 150 00:49 28.02.2021
2056 Clouds 26 1012 83 10000 1.54 150 00:25 28.02.2021
2057 Rain 26 1011 83 10000 2.06 340 23:44 27.02.2021
2058 Clouds 27 1011 83 10000 2.06 340 23:19 27.02.2021
2059 Rain 27 1012 78 10000 4.63 190 22:44 27.02.2021
2060 Rain 28 1012 78 10000 4.63 190 22:19 27.02.2021
2061 Rain 27 1011 83 10000 5.66 180 21:42 27.02.2021
2062 Rain 27 1011 83 10000 5.66 180 21:42 27.02.2021
2063 Rain 27 1011 83 10000 5.66 180 21:24 27.02.2021
2064 Rain 27 1012 78 10000 6.17 170 20:49 27.02.2021
2065 Rain 27 1012 78 10000 6.17 170 20:27 27.02.2021
2066 Rain 28 1012 74 10000 5.66 170 19:46 27.02.2021
2067 Rain 28 1012 74 10000 5.66 170 19:27 27.02.2021
2068 Rain 28 1013 74 10000 6.69 150 18:46 27.02.2021
2069 Rain 29 1013 74 10000 6.69 150 18:22 27.02.2021
2070 Rain 29 1013 83 9000 6.69 160 17:58 27.02.2021
2071 Rain 29 1013 83 9000 6.69 160 17:38 27.02.2021
2072 Clouds 29 1013 83 9000 6.69 160 17:19 27.02.2021
2073 Clouds 30 1014 74 9000 3.6 150 16:49 27.02.2021
2074 Clouds 30 1014 74 9000 3.6 150 16:27 27.02.2021
2075 Clouds 29 1014 83 9000 2.06 50 15:44 27.02.2021
2076 Clouds 28 1014 83 9000 2.06 50 15:19 27.02.2021
2077 Clouds 27 1014 89 8000 2.06 20 14:40 27.02.2021
2078 Clouds 27 1014 89 8000 2.06 20 14:21 27.02.2021
2079 Clouds 26 1014 89 8000 2.57 10 13:40 27.02.2021
2080 Clouds 26 1014 89 8000 2.57 10 13:19 27.02.2021
2081 Clouds 25 1013 94 7000 2.06 20 12:45 27.02.2021
2082 Clouds 25 1013 94 7000 2.06 20 12:24 27.02.2021
2083 Clouds 24 1013 94 7000 2.06 10 11:51 27.02.2021
2084 Clouds 24 1013 94 7000 2.06 10 11:31 27.02.2021
2085 Clouds 23 1012 100 6000 2.57 20 10:53 27.02.2021
2086 Clouds 24 1012 100 6000 2.57 20 10:34 27.02.2021
2087 Clouds 24 1012 100 6000 2.57 360 09:54 27.02.2021
2088 Rain 24 1012 94 8000 1.54 340 09:32 27.02.2021
2089 Rain 24 1012 94 8000 2.06 300 08:44 27.02.2021
2090 Rain 24 1012 94 8000 2.06 300 08:24 27.02.2021
2091 Rain 23 1012 94 10000 3.09 300 07:58 27.02.2021
2092 Clouds 23 1012 94 10000 3.09 300 07:25 27.02.2021
2093 Rain 26 1013 94 9000 3.09 180 01:30 27.02.2021
2094 Rain 26 1012 89 9000 4.12 170 00:31 27.02.2021
2095 Rain 26 1011 89 9000 4.63 160 23:41 26.02.2021
2096 Rain 26 1011 89 9000 4.63 160 23:22 26.02.2021
2097 Rain 26 1011 94 9000 5.14 160 22:38 26.02.2021
2098 Rain 26 1011 94 9000 5.14 160 22:19 26.02.2021
2099 Clouds 27 1010 89 9000 5.14 160 21:36 26.02.2021
2100 Rain 27 1010 83 10000 5.66 160 20:56 26.02.2021
2101 Rain 27 1010 83 10000 5.66 160 20:37 26.02.2021
2102 Rain 27 1010 83 10000 5.66 160 20:19 26.02.2021
2103 Rain 27 1010 89 10000 5.66 160 19:27 26.02.2021
2104 Rain 28 1010 83 10000 4.63 160 18:57 26.02.2021
2105 Rain 28 1010 83 10000 4.63 160 18:36 26.02.2021
2106 Rain 28 1010 83 10000 4.63 160 18:18 26.02.2021
2107 Rain 28 1011 78 10000 4.63 150 17:38 26.02.2021
2108 Rain 29 1011 78 10000 4.63 150 17:19 26.02.2021
2109 Rain 29 1011 78 9000 1.54 70 16:48 26.02.2021
2110 Rain 29 1011 78 9000 1.54 70 16:30 26.02.2021
2111 Clouds 29 1012 78 9000 2.06 10 15:48 26.02.2021
2112 Clouds 29 1012 78 9000 2.06 10 15:29 26.02.2021
2113 Rain 29 1012 83 8000 2.57 340 14:59 26.02.2021
2114 Clouds 29 1012 83 8000 2.57 340 14:37 26.02.2021
2115 Clouds 27 1012 83 8000 2.57 340 14:18 26.02.2021
2116 Rain 26 1011 89 7000 2.57 10 13:39 26.02.2021
2117 Rain 26 1011 89 7000 2.57 10 13:20 26.02.2021
2118 Rain 26 1011 89 7000 2.57 10 13:20 26.02.2021
2119 Rain 25 1011 94 7000 3.09 360 12:33 26.02.2021
2120 Rain 25 1011 94 8000 3.6 20 11:47 26.02.2021
2121 Clouds 24 1010 94 8000 2.06 10 11:28 26.02.2021
2122 Clouds 24 1010 100 9000 1.03 0 10:45 26.02.2021
2123 Clouds 24 1010 94 10000 1.03 280 09:49 26.02.2021
2124 Clouds 24 1010 94 10000 1.03 280 09:29 26.02.2021
2125 Clouds 24 1010 94 8000 1.03 310 08:51 26.02.2021
2126 Clouds 24 1010 94 8000 1.03 310 08:18 26.02.2021
2127 Rain 25 1010 83 10000 1.03 60 07:41 26.02.2021
2128 Clouds 25 1011 83 10000 1.54 300 06:35 26.02.2021
2129 Clouds 25 1011 88 10000 1.03 40 05:21 26.02.2021
2130 Rain 24 1012 94 10000 2.06 170 03:28 26.02.2021
2131 Rain 25 1012 94 10000 3.6 170 01:29 26.02.2021
2132 Rain 26 1010 83 10000 4.12 160 23:44 25.02.2021
2133 Rain 26 1010 83 10000 4.12 160 23:25 25.02.2021
2134 Clouds 26 1010 83 10000 5.14 170 22:47 25.02.2021
2135 Clouds 27 1010 83 10000 5.66 170 21:59 25.02.2021
2136 Clouds 27 1010 83 10000 5.66 170 21:38 25.02.2021
2137 Clouds 27 1010 83 10000 5.66 170 21:19 25.02.2021
2138 Clouds 27 1010 78 10000 5.14 170 20:40 25.02.2021
2139 Clouds 27 1010 78 10000 5.14 170 20:22 25.02.2021
2140 Clouds 27 1011 78 10000 6.17 170 19:51 25.02.2021
2141 Clouds 27 1011 78 10000 6.17 170 19:21 25.02.2021
2142 Rain 27 1011 83 8000 5.66 170 18:56 25.02.2021
2143 Clouds 27 1011 83 8000 5.66 170 18:20 25.02.2021
2144 Clouds 27 1012 78 8000 6.69 180 17:47 25.02.2021
2145 Clouds 27 1012 78 8000 6.69 180 17:25 25.02.2021
2146 Rain 28 1012 78 8000 6.17 180 16:43 25.02.2021
2147 Rain 28 1012 78 8000 6.17 180 16:25 25.02.2021
2148 Clouds 27 1013 83 8000 1.54 70 15:30 25.02.2021
2149 Clouds 27 1012 89 8000 2.06 20 14:57 25.02.2021
2150 Clouds 27 1012 89 8000 2.06 20 14:22 25.02.2021
2151 Clouds 27 1012 89 8000 3.6 10 13:53 25.02.2021
2152 Clouds 27 1012 89 8000 3.6 10 13:26 25.02.2021
2153 Clouds 26 1011 89 8000 3.6 20 12:53 25.02.2021
2154 Clouds 26 1011 89 8000 2.57 300 12:21 25.02.2021
2155 Mist 24 1011 94 5000 2.57 30 11:47 25.02.2021
2156 Mist 24 1011 94 5000 2.57 30 11:19 25.02.2021
2157 Clouds 25 1011 94 7000 3.6 20 10:45 25.02.2021
2158 Clouds 24 1011 94 7000 3.6 20 10:23 25.02.2021
2159 Clouds 26 1011 88 10000 2.06 330 09:42 25.02.2021
2160 Clouds 26 1011 88 10000 2.06 340 08:56 25.02.2021
2161 Clouds 26 1011 88 10000 2.06 340 08:25 25.02.2021
2162 Clouds 26 1011 88 10000 2.57 360 07:56 25.02.2021
2163 Clouds 26 1011 88 10000 2.57 360 07:34 25.02.2021
2164 Clouds 26 1012 88 10000 3.09 0 06:53 25.02.2021
2165 Clear 25 1013 94 10000 3.09 170 02:39 25.02.2021
2166 Clouds 26 1012 89 10000 3.6 150 01:38 25.02.2021
2167 Clouds 26 1012 89 10000 4.12 160 00:42 25.02.2021
2168 Clouds 27 1012 94 10000 5.66 170 23:53 24.02.2021
2169 Clouds 27 1012 94 10000 5.66 170 23:28 24.02.2021
2170 Clouds 28 1011 83 10000 4.12 160 22:45 24.02.2021
2171 Clouds 28 1011 83 10000 4.12 160 22:25 24.02.2021
2172 Clouds 28 1010 89 10000 6.69 150 21:46 24.02.2021
2173 Clouds 28 1010 89 10000 6.69 150 21:19 24.02.2021
2174 Clouds 30 1010 79 10000 8.75 160 20:41 24.02.2021
2175 Clouds 30 1010 79 10000 8.75 160 20:22 24.02.2021
2176 Clouds 31 1010 74 10000 10.8 180 19:36 24.02.2021
2177 Clouds 31 1010 74 10000 10.8 180 19:18 24.02.2021
2178 Clouds 30 1011 79 10000 7.72 150 18:42 24.02.2021
2179 Clouds 32 1011 79 10000 7.72 150 18:22 24.02.2021
2180 Clouds 33 1011 74 10000 6.17 160 17:38 24.02.2021
2181 Clouds 33 1011 74 10000 6.17 160 17:19 24.02.2021
2182 Clear 32 1011 74 10000 2.06 100 16:44 24.02.2021
2183 Clear 33 1011 74 10000 2.06 100 16:19 24.02.2021
2184 Clear 32 1012 70 10000 3.09 10 15:40 24.02.2021
2185 Clear 31 1012 89 10000 3.6 350 14:57 24.02.2021
2186 Clear 31 1012 89 10000 3.6 350 14:35 24.02.2021
2187 Clouds 27 1012 94 7000 3.6 340 13:59 24.02.2021
2188 Clouds 27 1012 94 7000 3.6 340 13:40 24.02.2021
2189 Mist 26 1011 100 4500 3.09 360 13:22 24.02.2021
2190 Mist 26 1012 94 1000 3.09 10 12:45 24.02.2021
2191 Mist 26 1011 94 4000 4.12 360 12:26 24.02.2021
2192 Mist 24 1011 100 4000 4.12 360 11:47 24.02.2021
2193 Clouds 23 1011 100 6000 3.6 10 11:21 24.02.2021
2194 Clouds 24 1010 94 6000 4.12 20 10:32 24.02.2021
2195 Clouds 24 1011 94 10000 1.54 20 09:50 24.02.2021
2196 Clouds 23 1011 94 10000 1.54 20 09:20 24.02.2021
2197 Clouds 24 1010 94 10000 1.54 20 08:37 24.02.2021
2198 Clouds 24 1010 94 10000 1.54 20 08:19 24.02.2021
2199 Clouds 24 1011 94 9000 1.03 10 07:20 24.02.2021
2200 Clouds 24 1011 94 9000 2.06 30 06:52 24.02.2021
2201 Clear 24 1012 94 10000 2.06 90 04:23 24.02.2021
2202 Clear 26 1011 83 10000 5.14 180 00:43 24.02.2021
2203 Clouds 26 1011 83 10000 6.69 180 23:32 23.02.2021
2204 Clouds 27 1011 89 10000 6.69 170 22:42 23.02.2021
2205 Clouds 27 1011 89 10000 6.69 170 22:20 23.02.2021
2206 Clouds 28 1010 83 10000 7.2 170 21:47 23.02.2021
2207 Clouds 28 1010 83 10000 7.2 170 21:24 23.02.2021
2208 Clouds 29 1011 78 10000 7.72 170 20:50 23.02.2021
2209 Clouds 29 1011 78 10000 7.72 170 20:30 23.02.2021
2210 Clouds 30 1010 83 10000 6.69 170 19:57 23.02.2021
2211 Clouds 30 1010 83 10000 6.69 170 19:38 23.02.2021
2212 Clouds 30 1010 83 10000 6.69 170 19:19 23.02.2021
2213 Clouds 30 1011 78 10000 7.2 160 18:43 23.02.2021
2214 Clouds 30 1011 78 10000 7.2 160 18:21 23.02.2021
2215 Clouds 31 1012 83 10000 6.17 160 17:48 23.02.2021
2216 Clouds 31 1012 83 10000 6.17 160 17:25 23.02.2021
2217 Clouds 31 1013 78 10000 3.6 140 16:43 23.02.2021
2218 Clouds 30 1013 78 10000 3.6 140 16:20 23.02.2021
2219 Clouds 30 1013 78 10000 3.6 140 16:20 23.02.2021
2220 Clouds 30 1013 74 10000 2.06 350 15:44 23.02.2021
2221 Clouds 30 1013 74 10000 2.06 350 15:25 23.02.2021
2222 Clouds 28 1014 89 10000 2.57 10 14:46 23.02.2021
2223 Clouds 27 1014 89 10000 2.57 10 14:27 23.02.2021
2224 Clouds 27 1014 89 10000 3.09 340 13:56 23.02.2021
2225 Clouds 27 1014 89 10000 3.09 340 13:34 23.02.2021
2226 Clouds 26 1014 94 10000 2.57 20 12:56 23.02.2021
2227 Clouds 26 1014 94 10000 2.57 20 12:23 23.02.2021
2228 Clouds 24 1014 88 10000 3.09 350 11:52 23.02.2021
2229 Clouds 24 1014 88 10000 3.09 350 11:25 23.02.2021
2230 Clouds 23 1013 94 10000 2.06 310 10:54 23.02.2021
2231 Clouds 23 1013 94 10000 2.06 310 10:36 23.02.2021
2232 Clouds 23 1013 100 10000 1.54 330 09:55 23.02.2021
2233 Clouds 23 1013 100 10000 1.54 330 09:36 23.02.2021
2234 Clouds 23 1013 100 10000 1.54 330 09:18 23.02.2021
2235 Clouds 23 1013 94 10000 2.57 320 08:40 23.02.2021
2236 Clouds 24 1013 94 10000 2.57 320 08:20 23.02.2021
2237 Clouds 24 1013 94 10000 2.57 330 06:50 23.02.2021
2238 Clouds 25 1014 88 10000 1.54 310 05:22 23.02.2021
2239 Clouds 26 1015 89 10000 1.03 0 02:36 23.02.2021
2240 Clouds 26 1014 89 10000 2.57 180 01:42 23.02.2021
2241 Clouds 26 1014 89 10000 2.06 160 00:18 23.02.2021
2242 Clouds 26 1013 89 10000 3.09 140 23:25 22.02.2021
2243 Clouds 27 1013 89 10000 4.12 160 22:42 22.02.2021
2244 Clouds 27 1013 89 10000 4.12 160 22:21 22.02.2021
2245 Clouds 28 1012 89 10000 4.12 160 21:54 22.02.2021
2246 Clouds 28 1012 89 10000 4.12 160 21:36 22.02.2021
2247 Clouds 28 1012 89 10000 4.12 160 21:18 22.02.2021
2248 Clouds 28 1012 83 10000 5.66 160 20:42 22.02.2021
2249 Clouds 29 1012 83 10000 5.66 160 20:22 22.02.2021
2250 Clouds 28 1012 83 10000 5.66 170 19:38 22.02.2021
2251 Clouds 28 1012 83 10000 5.66 170 19:19 22.02.2021
2252 Clouds 28 1013 89 8000 5.66 180 18:46 22.02.2021
2253 Clouds 27 1013 89 8000 5.66 180 18:22 22.02.2021
2254 Rain 26 1013 100 5000 3.09 200 17:43 22.02.2021
2255 Rain 27 1013 100 5000 3.09 200 17:18 22.02.2021
2256 Mist 26 1014 94 3000 5.66 160 16:47 22.02.2021
2257 Rain 28 1014 94 8000 6.17 180 16:25 22.02.2021
2258 Rain 29 1014 83 10000 3.09 120 15:31 22.02.2021
2259 Clouds 28 1014 83 10000 2.57 130 14:49 22.02.2021
2260 Clouds 28 1014 83 10000 2.57 130 14:30 22.02.2021
2261 Clouds 27 1014 94 10000 2.57 40 13:51 22.02.2021
2262 Clouds 27 1014 94 10000 2.57 40 13:29 22.02.2021
2263 Clouds 26 1014 89 10000 2.06 40 12:45 22.02.2021
2264 Clouds 26 1014 89 10000 1.54 70 12:22 22.02.2021
2265 Clouds 25 1014 94 10000 2.06 90 11:48 22.02.2021
2266 Rain 25 1014 94 10000 2.06 90 11:28 22.02.2021
2267 Rain 25 1012 94 10000 1.54 50 10:50 22.02.2021
2268 Rain 24 1012 94 10000 1.54 50 10:31 22.02.2021
2269 Clouds 25 1013 88 10000 1.03 270 09:52 22.02.2021
2270 Clouds 25 1013 88 10000 1.03 270 09:32 22.02.2021
2271 Rain 25 1013 88 10000 1.03 220 08:58 22.02.2021
2272 Rain 25 1013 88 10000 1.03 220 08:39 22.02.2021
2273 Rain 25 1013 88 10000 1.03 220 08:19 22.02.2021
2274 Clouds 26 1013 88 10000 1.03 160 07:28 22.02.2021
2275 Clouds 25 1014 88 10000 1.54 80 06:47 22.02.2021
2276 Clouds 26 1014 88 10000 1.54 80 06:23 22.02.2021
2277 Rain 26 1014 89 10000 2.57 50 03:49 22.02.2021
2278 Rain 26 1014 89 10000 1.54 150 02:55 22.02.2021
2279 Clouds 26 1014 94 10000 4.12 170 00:49 22.02.2021
2280 Clouds 26 1014 94 10000 4.12 170 00:26 22.02.2021
2281 Clouds 27 1013 89 10000 4.12 170 23:50 21.02.2021
2282 Clouds 27 1013 83 10000 5.14 170 22:55 21.02.2021
2283 Clouds 27 1013 83 10000 5.14 170 22:25 21.02.2021
2284 Clouds 27 1012 83 10000 6.17 170 21:50 21.02.2021
2285 Clouds 28 1012 83 10000 6.17 170 21:30 21.02.2021
2286 Clouds 27 1012 78 10000 5.66 180 20:55 21.02.2021
2287 Clouds 27 1012 78 10000 5.66 180 20:22 21.02.2021
2288 Clouds 27 1012 89 10000 5.66 180 19:59 21.02.2021
2289 Clouds 27 1012 89 10000 5.66 180 19:39 21.02.2021
2290 Clouds 27 1012 89 10000 5.66 180 19:21 21.02.2021
2291 Clouds 28 1013 74 10000 5.66 170 18:28 21.02.2021
2292 Clouds 28 1013 83 10000 4.63 160 17:57 21.02.2021
2293 Clouds 28 1013 83 10000 4.63 160 17:25 21.02.2021
2294 Clouds 29 1014 89 10000 3.6 150 16:53 21.02.2021
2295 Clouds 28 1014 89 10000 3.6 150 16:31 21.02.2021
2296 Clouds 29 1014 89 9000 3.09 140 15:43 21.02.2021
2297 Clouds 29 1014 89 9000 3.09 140 15:19 21.02.2021
2298 Clouds 29 1014 89 8000 2.06 50 14:40 21.02.2021
2299 Clouds 28 1014 89 8000 2.06 50 14:19 21.02.2021
2300 Clouds 28 1014 94 7000 2.57 20 13:30 21.02.2021
2301 Clouds 25 1014 94 7000 3.6 20 12:59 21.02.2021
2302 Clouds 25 1014 94 7000 3.6 20 12:28 21.02.2021
2303 Clouds 26 1013 94 8000 2.06 330 11:43 21.02.2021
2304 Clouds 24 1012 94 9000 1.54 310 10:58 21.02.2021
2305 Clouds 25 1012 94 9000 1.54 310 10:23 21.02.2021
2306 Clouds 26 1012 94 10000 2.06 300 09:53 21.02.2021
2307 Clouds 26 1012 94 10000 2.06 300 09:28 21.02.2021
2308 Clouds 26 1012 94 10000 2.06 350 08:54 21.02.2021
2309 Clouds 26 1012 94 10000 2.06 350 08:20 21.02.2021
2310 Clouds 26 1012 94 10000 2.06 300 07:35 21.02.2021
2311 Clouds 26 1012 94 10000 1.05 272 06:53 21.02.2021
2312 Rain 25 1013 94 10000 0.51 330 03:36 21.02.2021
2313 Rain 25 1013 100 10000 1.03 350 02:29 21.02.2021
2314 Rain 26 1013 94 7000 4.63 120 00:44 21.02.2021
2315 Rain 27 1013 94 6000 5.14 150 00:19 21.02.2021
2316 Clouds 27 1012 100 10000 4.63 160 23:25 20.02.2021
2317 Clouds 27 1011 89 10000 6.69 170 22:46 20.02.2021
2318 Clouds 27 1011 89 10000 6.69 170 22:27 20.02.2021
2319 Clouds 28 1011 83 10000 6.69 170 21:45 20.02.2021
2320 Clouds 28 1011 83 10000 6.69 170 21:26 20.02.2021
2321 Clouds 28 1011 83 9000 6.17 180 20:48 20.02.2021
2322 Clouds 28 1011 83 10000 6.17 170 20:24 20.02.2021
2323 Clouds 29 1012 74 10000 6.17 160 19:52 20.02.2021
2324 Clouds 29 1012 74 10000 6.17 160 19:31 20.02.2021
2325 Clouds 29 1012 74 10000 6.17 160 18:45 20.02.2021
2326 Clouds 30 1012 74 10000 6.17 160 18:24 20.02.2021
2327 Clouds 29 1012 83 10000 6.69 160 17:41 20.02.2021
2328 Clouds 29 1012 83 10000 6.69 160 17:22 20.02.2021
2329 Clouds 29 1013 83 10000 5.66 150 16:43 20.02.2021
2330 Clouds 30 1013 83 10000 5.66 150 16:22 20.02.2021
2331 Clouds 29 1013 94 10000 3.6 150 15:37 20.02.2021
2332 Clouds 29 1014 89 10000 3.6 150 14:49 20.02.2021
2333 Clouds 29 1014 89 10000 3.6 150 14:24 20.02.2021
2334 Clouds 28 1014 94 10000 3.6 150 13:51 20.02.2021
2335 Clouds 28 1014 94 10000 3.6 150 13:27 20.02.2021
2336 Clouds 27 1013 94 10000 3.09 130 12:52 20.02.2021
2337 Clouds 27 1013 94 10000 3.09 130 12:32 20.02.2021
2338 Clouds 27 1012 94 10000 2.57 130 11:48 20.02.2021
2339 Clouds 26 1012 94 10000 2.57 130 11:30 20.02.2021
2340 Clouds 25 1012 100 10000 2.06 110 10:50 20.02.2021
2341 Clouds 25 1012 100 10000 2.06 110 10:21 20.02.2021
2342 Clouds 26 1012 94 10000 1.54 310 09:41 20.02.2021
2343 Clouds 26 1011 94 10000 1.54 290 08:49 20.02.2021
2344 Clouds 26 1011 94 10000 1.54 290 08:22 20.02.2021
2345 Clouds 26 1012 94 10000 3.09 170 04:37 20.02.2021
2346 Clouds 26 1012 94 10000 2.06 140 02:32 20.02.2021
2347 Clouds 26 1011 94 10000 2.57 170 01:54 20.02.2021
2348 Clouds 26 1010 94 10000 4.12 160 00:55 20.02.2021
2349 Clouds 26 1010 94 10000 4.12 160 00:36 20.02.2021
2350 Clouds 27 1010 83 10000 4.12 170 23:26 19.02.2021
2351 Clouds 27 1009 83 10000 4.63 170 22:43 19.02.2021
2352 Clouds 27 1009 83 10000 4.63 170 22:19 19.02.2021
2353 Clouds 27 1008 83 10000 5.66 170 21:43 19.02.2021
2354 Clouds 28 1008 83 10000 5.66 170 21:23 19.02.2021
2355 Clouds 28 1008 78 10000 5.66 160 20:42 19.02.2021
2356 Clouds 29 1008 78 10000 5.66 160 20:24 19.02.2021
2357 Clouds 29 1008 78 10000 6.17 160 19:44 19.02.2021
2358 Clouds 29 1008 78 10000 6.17 160 19:20 19.02.2021
2359 Clouds 29 1009 78 10000 5.66 160 18:50 19.02.2021
2360 Clouds 29 1009 78 10000 5.66 160 18:26 19.02.2021
2361 Clouds 29 1009 78 10000 5.66 150 17:39 19.02.2021
2362 Clouds 28 1009 89 10000 5.66 150 16:43 19.02.2021
2363 Clouds 28 1009 89 10000 5.66 150 16:22 19.02.2021
2364 Clouds 28 1009 94 8000 5.14 150 15:55 19.02.2021
2365 Clouds 29 1009 94 8000 5.14 150 15:30 19.02.2021
2366 Clouds 29 1009 89 9000 5.14 140 14:52 19.02.2021
2367 Clouds 29 1009 89 9000 5.14 140 14:33 19.02.2021
2368 Clear 27 1009 89 10000 1.03 90 13:56 19.02.2021
2369 Clear 28 1009 89 10000 1.03 90 13:36 19.02.2021
2370 Clear 26 1008 88 10000 1.54 360 12:54 19.02.2021
2371 Clear 26 1008 88 10000 1.54 360 12:28 19.02.2021
2372 Clouds 26 1008 94 10000 3.6 30 11:59 19.02.2021
2373 Clouds 26 1008 94 10000 3.6 30 11:34 19.02.2021
2374 Clear 24 1007 94 10000 2.57 20 10:55 19.02.2021
2375 Clear 24 1007 94 10000 2.57 20 10:33 19.02.2021
2376 Clear 25 1007 94 10000 2.57 20 09:58 19.02.2021
2377 Clouds 26 1007 94 10000 2.06 330 09:28 19.02.2021
2378 Clouds 26 1006 88 10000 2.06 310 08:55 19.02.2021
2379 Clouds 26 1006 88 10000 2.06 310 08:29 19.02.2021
2380 Clouds 26 1007 83 10000 2.57 290 07:56 19.02.2021
2381 Clouds 26 1007 83 10000 2.57 290 07:37 19.02.2021
2382 Clouds 26 1007 83 10000 2.57 290 07:19 19.02.2021
2383 Clouds 26 1007 83 10000 2.57 280 06:36 19.02.2021
2384 Clouds 27 1007 89 10000 1.03 10 04:42 19.02.2021
2385 Clouds 27 1008 78 10000 1.54 310 02:44 19.02.2021
2386 Clear 26 1007 89 10000 2.06 320 01:28 19.02.2021
2387 Clouds 27 1007 83 10000 1.54 30 00:35 19.02.2021
2388 Clouds 28 1006 78 10000 2.57 20 23:45 18.02.2021
2389 Clouds 28 1006 78 10000 2.57 20 23:27 18.02.2021
2390 Clouds 30 1005 61 10000 2.06 170 22:37 18.02.2021
2391 Clouds 29 1005 61 10000 2.06 170 22:18 18.02.2021
2392 Clouds 30 1005 65 10000 4.12 190 21:40 18.02.2021
2393 Clouds 29 1005 65 10000 4.12 190 21:21 18.02.2021
2394 Clouds 30 1005 70 10000 5.14 180 20:39 18.02.2021
2395 Clouds 29 1005 70 10000 5.14 180 20:21 18.02.2021
2396 Clouds 29 1005 74 10000 6.17 160 19:44 18.02.2021
2397 Clouds 29 1005 74 10000 6.17 160 19:20 18.02.2021
2398 Clouds 28 1006 78 10000 7.72 160 18:50 18.02.2021
2399 Clouds 29 1006 78 10000 7.72 160 18:26 18.02.2021
2400 Clouds 29 1006 83 10000 7.72 150 17:52 18.02.2021
2401 Clouds 29 1006 83 10000 7.72 150 17:25 18.02.2021
2402 Clouds 29 1006 83 10000 7.72 150 17:25 18.02.2021
2403 Clouds 29 1006 78 10000 7.72 170 16:51 18.02.2021
2404 Clouds 30 1006 78 10000 7.72 170 16:32 18.02.2021
2405 Clear 32 1006 66 10000 3.09 160 15:43 18.02.2021
2406 Clear 32 1006 66 10000 3.09 160 15:24 18.02.2021
2407 Clear 30 1006 83 10000 4.63 30 14:56 18.02.2021
2408 Clear 30 1006 83 10000 4.63 30 14:34 18.02.2021
2409 Clouds 29 1005 89 10000 4.63 350 13:50 18.02.2021
2410 Clouds 28 1005 89 10000 4.63 350 13:22 18.02.2021
2411 Clouds 27 1005 89 10000 3.6 360 12:56 18.02.2021
2412 Clouds 27 1005 89 10000 3.6 360 12:36 18.02.2021
2413 Clouds 26 1005 78 10000 3.6 330 11:48 18.02.2021
2414 Clouds 26 1005 78 10000 3.6 330 11:28 18.02.2021
2415 Clouds 26 1005 78 10000 3.6 330 11:28 18.02.2021
2416 Clouds 25 1004 88 10000 2.57 40 10:59 18.02.2021
2417 Clouds 26 1004 88 10000 2.57 40 10:41 18.02.2021
2418 Clouds 26 1004 88 10000 2.57 40 10:23 18.02.2021
2419 Clouds 26 1005 83 10000 3.09 260 09:39 18.02.2021
2420 Clouds 26 1005 83 10000 3.09 260 09:20 18.02.2021
2421 Clouds 25 1005 94 10000 3.6 210 08:37 18.02.2021
2422 Clouds 26 1005 94 10000 3.6 210 08:19 18.02.2021
2423 Clouds 25 1006 88 7000 3.09 90 07:30 18.02.2021
2424 Clouds 26 1007 94 10000 2.06 330 06:29 18.02.2021
2425 Clouds 27 1007 89 10000 5.66 160 01:20 18.02.2021
2426 Clouds 27 1005 83 10000 4.63 160 23:48 17.02.2021
2427 Clouds 27 1005 83 10000 4.63 160 23:20 17.02.2021
2428 Clouds 28 1004 61 10000 5.66 180 22:46 17.02.2021
2429 Rain 29 1004 61 10000 5.66 180 22:22 17.02.2021
2430 Rain 28 1003 69 10000 6.17 180 21:48 17.02.2021
2431 Clouds 29 1003 69 10000 6.17 180 21:21 17.02.2021
2432 Clouds 29 1003 69 10000 5.66 180 20:47 17.02.2021
2433 Rain 29 1003 69 10000 5.66 180 20:28 17.02.2021
2434 Clouds 29 1004 78 10000 7.2 160 19:46 17.02.2021
2435 Clouds 29 1004 78 10000 7.2 160 19:27 17.02.2021
2436 Clear 30 1005 78 10000 7.2 160 18:41 17.02.2021
2437 Clear 30 1005 78 10000 7.2 160 18:22 17.02.2021
2438 Clear 30 1005 78 10000 5.14 160 17:40 17.02.2021
2439 Clear 30 1005 78 10000 5.14 160 17:19 17.02.2021
2440 Rain 30 1005 78 10000 5.14 160 16:45 17.02.2021
2441 Rain 30 1005 78 10000 5.14 160 16:24 17.02.2021
2442 Clear 30 1006 74 10000 3.09 150 15:44 17.02.2021
2443 Clear 30 1006 74 10000 3.09 150 15:25 17.02.2021
2444 Clear 31 1006 78 10000 2.06 20 14:46 17.02.2021
2445 Clear 30 1006 78 10000 2.06 20 14:28 17.02.2021
2446 Clear 27 1006 89 10000 4.12 10 13:47 17.02.2021
2447 Clear 27 1006 89 10000 4.12 10 13:29 17.02.2021
2448 Clear 27 1006 89 10000 3.09 360 12:47 17.02.2021
2449 Clear 27 1006 89 10000 3.09 360 12:24 17.02.2021
2450 Clear 25 1006 88 10000 3.09 360 11:44 17.02.2021
2451 Clear 25 1006 88 10000 3.09 360 11:22 17.02.2021
2452 Clear 25 1005 94 10000 3.6 360 10:49 17.02.2021
2453 Clear 25 1005 94 10000 3.6 360 10:31 17.02.2021
2454 Clear 25 1005 94 10000 3.6 360 09:55 17.02.2021
2455 Clouds 26 1006 88 10000 2.57 320 09:30 17.02.2021
2456 Clouds 26 1006 88 10000 2.57 340 08:45 17.02.2021
2457 Clouds 26 1006 88 10000 2.57 340 08:23 17.02.2021
2458 Clouds 26 1006 88 10000 3.09 330 07:34 17.02.2021
2459 Clouds 26 1006 88 10000 3.09 360 06:36 17.02.2021
2460 Clouds 26 1007 78 10000 1.03 70 03:47 17.02.2021
2461 Clouds 26 1007 73 10000 1.54 170 02:30 17.02.2021
2462 Clouds 26 1007 78 10000 2.57 10 01:34 17.02.2021
2463 Rain 27 1006 74 10000 1.54 0 00:25 17.02.2021
2464 Clouds 27 1006 89 10000 4.63 140 23:39 16.02.2021
2465 Clouds 27 1004 89 10000 6.17 160 22:47 16.02.2021
2466 Clouds 27 1004 89 10000 6.17 160 22:26 16.02.2021
2467 Clouds 27 1004 89 10000 6.17 160 21:59 16.02.2021
2468 Clouds 27 1004 89 10000 6.17 160 21:39 16.02.2021
2469 Clouds 27 1004 89 10000 6.17 160 21:39 16.02.2021
2470 Clouds 27 1004 89 10000 6.17 160 21:39 16.02.2021
2471 Clouds 28 1004 89 10000 6.17 160 21:21 16.02.2021
2472 Clouds 29 1004 83 10000 7.72 160 20:50 16.02.2021
2473 Clouds 29 1004 83 10000 7.72 160 20:24 16.02.2021
2474 Clouds 30 1004 74 10000 7.72 160 19:50 16.02.2021
2475 Clouds 30 1004 74 10000 7.72 160 19:29 16.02.2021
2476 Clouds 29 1005 69 10000 7.2 160 18:53 16.02.2021
2477 Clouds 29 1005 69 10000 7.2 160 18:27 16.02.2021
2478 Clouds 30 1006 78 10000 6.69 150 17:58 16.02.2021
2479 Clouds 30 1006 78 10000 6.69 150 17:38 16.02.2021
2480 Clouds 30 1006 78 10000 6.69 150 17:20 16.02.2021
2481 Clouds 30 1006 83 10000 5.14 150 16:44 16.02.2021
2482 Clouds 30 1006 83 10000 5.14 150 16:21 16.02.2021
2483 Clear 31 1006 74 10000 4.12 150 15:43 16.02.2021
2484 Clear 31 1006 74 10000 4.12 150 15:24 16.02.2021
2485 Clear 31 1007 78 10000 1.03 0 14:44 16.02.2021
2486 Clear 30 1007 78 10000 1.03 0 14:25 16.02.2021
2487 Clear 28 1007 83 10000 1.54 30 13:48 16.02.2021
2488 Clear 28 1007 83 10000 1.54 30 13:24 16.02.2021
2489 Clear 26 1006 88 10000 4.12 350 12:43 16.02.2021
2490 Clear 25 1006 88 10000 4.12 350 12:20 16.02.2021
2491 Clouds 25 1006 100 10000 4.12 350 11:48 16.02.2021
2492 Mist 25 1006 94 5000 4.12 10 11:23 16.02.2021
2493 Fog 22 1005 100 800 4.63 10 10:51 16.02.2021
2494 Fog 22 1005 100 800 4.63 10 10:32 16.02.2021
2495 Fog 24 1005 100 800 4.63 360 09:56 16.02.2021
2496 Clear 24 1006 94 10000 2.57 360 09:36 16.02.2021
2497 Clear 24 1006 94 10000 2.57 360 09:18 16.02.2021
2498 Clear 24 1006 94 10000 2.06 10 08:39 16.02.2021
2499 Clear 24 1006 94 10000 2.06 10 08:18 16.02.2021
2500 Clear 24 1006 94 10000 1.03 330 07:20 16.02.2021
2501 Clear 25 1007 94 10000 2.06 360 04:39 16.02.2021
2502 Clear 26 1006 78 10000 1.54 320 00:45 16.02.2021
2503 Clouds 26 1006 78 10000 2.57 310 23:32 15.02.2021
2504 Clouds 26 1006 78 10000 1.54 360 22:59 15.02.2021
2505 Clouds 26 1006 78 10000 1.54 360 22:41 15.02.2021
2506 Clouds 26 1006 78 10000 2.57 190 21:59 15.02.2021
2507 Clouds 26 1006 78 10000 2.57 190 21:38 15.02.2021
2508 Clouds 26 1006 78 10000 2.57 190 21:19 15.02.2021
2509 Clouds 26 1007 83 10000 4.63 180 20:45 15.02.2021
2510 Clouds 26 1007 83 10000 4.63 180 20:25 15.02.2021
2511 Rain 26 1007 88 10000 5.14 170 19:44 15.02.2021
2512 Rain 26 1007 88 10000 5.14 170 19:22 15.02.2021
2513 Clouds 26 1007 88 10000 5.66 160 18:44 15.02.2021
2514 Clouds 26 1007 88 10000 5.66 160 18:26 15.02.2021
2515 Rain 28 1008 83 10000 6.69 160 17:42 15.02.2021
2516 Clouds 28 1008 83 10000 6.69 160 17:24 15.02.2021
2517 Rain 28 1008 83 10000 6.69 160 16:55 15.02.2021
2518 Rain 28 1008 83 10000 6.69 160 16:27 15.02.2021
2519 Clouds 28 1008 78 10000 6.17 170 15:51 15.02.2021
2520 Clouds 28 1008 78 10000 6.17 170 15:23 15.02.2021
2521 Clouds 27 1008 83 10000 7.72 190 14:55 15.02.2021
2522 Clouds 27 1008 83 10000 7.72 190 14:36 15.02.2021
2523 Clouds 27 1008 83 10000 7.72 190 14:18 15.02.2021
2524 Clouds 27 1007 89 10000 3.6 350 13:44 15.02.2021
2525 Clouds 27 1007 89 10000 3.6 350 13:18 15.02.2021
2526 Clouds 26 1007 89 10000 3.09 350 12:43 15.02.2021
2527 Clouds 26 1007 89 10000 3.09 350 12:19 15.02.2021
2528 Rain 26 1007 94 10000 2.06 360 11:42 15.02.2021
2529 Rain 25 1007 94 10000 2.06 360 11:19 15.02.2021
2530 Clouds 25 1006 100 10000 2.57 350 10:46 15.02.2021
2531 Clouds 24 1006 100 10000 2.57 350 10:23 15.02.2021
2532 Clouds 25 1006 100 10000 2.57 340 09:54 15.02.2021
2533 Clear 26 1006 94 10000 2.06 350 09:33 15.02.2021
2534 Clear 26 1006 94 10000 2.06 350 09:33 15.02.2021
2535 Clear 26 1006 88 10000 1.03 0 08:44 15.02.2021
2536 Clear 26 1007 88 10000 2.06 320 07:39 15.02.2021
2537 Clear 26 1007 88 10000 2.06 340 06:53 15.02.2021
2538 Clear 26 1007 88 10000 2.06 340 06:34 15.02.2021
2539 Clouds 26 1008 74 10000 2.57 320 02:29 15.02.2021
2540 Clouds 26 1008 73 10000 1.03 140 00:41 15.02.2021
2541 Clouds 27 1007 78 10000 3.6 150 23:33 14.02.2021
2542 Rain 27 1006 83 10000 4.63 170 22:55 14.02.2021
2543 Rain 27 1006 83 10000 4.63 170 22:36 14.02.2021
2544 Rain 28 1006 83 10000 4.63 170 22:18 14.02.2021
2545 Clouds 28 1006 89 10000 6.69 150 21:43 14.02.2021
2546 Rain 29 1006 78 10000 6.17 150 21:23 14.02.2021
2547 Rain 29 1006 78 10000 6.17 150 21:23 14.02.2021
2548 Clouds 29 1006 83 10000 7.72 150 20:42 14.02.2021
2549 Clouds 29 1006 83 10000 7.72 150 20:22 14.02.2021
2550 Clouds 30 1007 78 10000 7.2 170 19:46 14.02.2021
2551 Clouds 32 1007 74 10000 6.69 170 18:51 14.02.2021
2552 Rain 32 1007 74 10000 6.69 170 18:29 14.02.2021
2553 Clouds 33 1007 70 10000 4.63 40 17:56 14.02.2021
2554 Clouds 33 1007 70 10000 4.63 40 17:35 14.02.2021
2555 Clouds 32 1008 84 10000 5.14 30 16:52 14.02.2021
2556 Clouds 32 1008 84 10000 5.14 30 16:26 14.02.2021
2557 Clear 32 1008 79 10000 4.12 20 15:49 14.02.2021
2558 Clear 32 1008 79 10000 4.12 20 15:30 14.02.2021
2559 Clear 31 1009 78 10000 3.6 10 14:48 14.02.2021
2560 Clear 30 1009 78 10000 3.6 10 14:26 14.02.2021
2561 Clouds 28 1009 74 10000 2.06 30 13:48 14.02.2021
2562 Clouds 28 1009 74 10000 2.06 30 13:27 14.02.2021
2563 Clear 27 1009 83 10000 2.57 110 12:38 14.02.2021
2564 Clear 26 1009 83 10000 2.57 110 12:19 14.02.2021
2565 Clouds 25 1009 94 10000 1.54 70 11:49 14.02.2021
2566 Clouds 24 1009 88 10000 0.51 190 11:21 14.02.2021
2567 Clouds 24 1007 94 10000 1.03 210 10:35 14.02.2021
2568 Rain 24 1007 94 10000 1.54 340 09:55 14.02.2021
2569 Rain 24 1008 94 10000 1.54 140 09:37 14.02.2021
2570 Rain 25 1008 94 10000 1.54 140 09:19 14.02.2021
2571 Rain 25 1008 88 8000 1.54 130 08:35 14.02.2021
2572 Rain 25 1008 94 8000 5.66 70 07:54 14.02.2021
2573 Clouds 24 1010 94 8000 3.6 50 06:37 14.02.2021
2574 Clouds 24 1011 94 7000 1.54 350 05:37 14.02.2021
2575 Rain 24 1012 94 8000 3.6 320 03:23 14.02.2021
2576 Rain 25 1012 100 6000 2.57 320 01:42 14.02.2021
2577 Rain 25 1011 94 6000 4.12 20 00:46 14.02.2021
2578 Rain 25 1011 94 6000 4.12 20 00:18 14.02.2021
2579 Rain 26 1011 89 6000 5.14 350 23:38 13.02.2021
2580 Rain 27 1010 94 9000 2.57 200 23:20 13.02.2021
2581 Rain 27 1010 94 9000 2.57 200 23:20 13.02.2021
2582 Rain 27 1009 89 9000 4.12 180 22:33 13.02.2021
2583 Rain 27 1009 89 10000 4.12 160 21:59 13.02.2021
2584 Rain 27 1009 89 10000 4.12 160 21:40 13.02.2021
2585 Clouds 28 1009 89 10000 4.63 150 20:52 13.02.2021
2586 Rain 29 1009 83 9000 3.6 160 20:28 13.02.2021
2587 Rain 29 1009 83 9000 3.6 160 20:28 13.02.2021
2588 Clouds 28 1009 78 9000 4.63 160 19:51 13.02.2021
2589 Rain 30 1009 78 9000 4.63 160 19:25 13.02.2021
2590 Rain 29 1010 89 10000 3.09 160 18:54 13.02.2021
2591 Clouds 30 1010 89 10000 3.09 160 18:34 13.02.2021
2592 Rain 29 1011 79 10000 2.57 10 17:55 13.02.2021
2593 Rain 30 1011 79 10000 2.57 10 17:36 13.02.2021
2594 Rain 30 1011 79 10000 2.57 10 17:18 13.02.2021
2595 Rain 29 1011 83 10000 2.57 360 16:42 13.02.2021
2596 Rain 28 1012 89 10000 2.06 350 15:58 13.02.2021
2597 Rain 28 1012 89 10000 2.06 350 15:27 13.02.2021
2598 Rain 26 1012 89 10000 2.57 330 14:42 13.02.2021
2599 Rain 26 1012 89 10000 2.57 330 14:24 13.02.2021
2600 Rain 27 1012 89 10000 2.57 350 13:44 13.02.2021
2601 Rain 26 1012 89 10000 2.57 350 13:23 13.02.2021
2602 Rain 25 1012 94 9000 2.06 10 12:41 13.02.2021
2603 Rain 25 1012 94 9000 2.06 10 12:18 13.02.2021
2604 Rain 25 1011 94 9000 2.06 20 11:41 13.02.2021
2605 Rain 25 1011 94 9000 2.06 20 11:19 13.02.2021
2606 Rain 25 1011 100 9000 1.54 30 10:44 13.02.2021
2607 Rain 25 1011 100 9000 1.54 30 10:23 13.02.2021
2608 Rain 26 1011 88 10000 1.54 30 09:52 13.02.2021
2609 Rain 26 1011 88 10000 1.54 30 09:29 13.02.2021
2610 Rain 26 1012 94 10000 2.06 350 08:54 13.02.2021
2611 Rain 26 1012 94 10000 2.06 350 08:31 13.02.2021
2612 Rain 25 1012 88 10000 1.03 330 07:46 13.02.2021
2613 Rain 25 1012 88 10000 1.03 60 06:37 13.02.2021
2614 Rain 26 1012 83 10000 1.03 120 05:20 13.02.2021
2615 Rain 26 1012 89 10000 3.09 130 03:58 13.02.2021
2616 Clouds 26 1012 89 10000 2.06 170 01:32 13.02.2021
2617 Clouds 27 1011 89 10000 2.06 140 00:36 13.02.2021
2618 Rain 26 1011 94 10000 2.06 100 23:53 12.02.2021
2619 Rain 27 1011 94 10000 2.06 100 23:20 12.02.2021
2620 Rain 27 1010 89 10000 2.06 150 22:40 12.02.2021
2621 Rain 28 1010 89 10000 2.06 150 22:18 12.02.2021
2622 Rain 28 1010 74 10000 4.12 180 21:45 12.02.2021
2623 Rain 28 1010 74 10000 4.12 180 21:25 12.02.2021
2624 Rain 28 1010 78 10000 4.63 170 20:46 12.02.2021
2625 Rain 28 1010 78 10000 4.63 170 20:27 12.02.2021
2626 Rain 29 1010 78 10000 6.69 150 19:55 12.02.2021
2627 Rain 29 1010 78 10000 6.69 150 19:55 12.02.2021
2628 Rain 30 1010 78 10000 6.69 150 19:30 12.02.2021
2629 Clouds 31 1011 78 10000 4.12 150 18:55 12.02.2021
2630 Clouds 31 1011 78 10000 4.12 150 18:29 12.02.2021
2631 Clouds 30 1012 83 10000 2.57 130 17:44 12.02.2021
2632 Clouds 30 1012 83 10000 2.57 130 17:20 12.02.2021
2633 Clouds 28 1013 78 10000 2.57 20 16:27 12.02.2021
2634 Rain 28 1013 78 10000 2.57 350 15:46 12.02.2021
2635 Rain 27 1013 78 10000 2.57 350 15:21 12.02.2021
2636 Rain 27 1013 78 10000 2.57 350 15:21 12.02.2021
2637 Clouds 26 1013 83 10000 2.57 340 14:42 12.02.2021
2638 Clouds 26 1013 83 10000 2.06 330 13:59 12.02.2021
2639 Clouds 25 1013 83 10000 2.06 330 13:40 12.02.2021
2640 Clouds 25 1013 83 10000 2.06 330 13:40 12.02.2021
2641 Clouds 25 1013 88 9000 1.54 350 12:56 12.02.2021
2642 Clouds 24 1013 88 9000 1.54 350 12:37 12.02.2021
2643 Clouds 24 1013 88 9000 1.54 350 12:18 12.02.2021
2644 Clouds 25 1013 94 9000 1.03 30 11:38 12.02.2021
2645 Clouds 24 1013 94 9000 1.03 30 11:19 12.02.2021
2646 Rain 24 1012 94 9000 2.57 10 10:41 12.02.2021
2647 Clouds 24 1012 94 8000 1.54 270 09:49 12.02.2021
2648 Clouds 24 1012 94 8000 1.54 270 09:25 12.02.2021
2649 Clouds 24 1012 94 8000 1.54 310 08:49 12.02.2021
2650 Clouds 24 1012 94 8000 1.54 310 08:28 12.02.2021
2651 Clouds 24 1012 88 8000 2.06 280 07:57 12.02.2021
2652 Clouds 24 1012 88 8000 2.06 280 07:31 12.02.2021
2653 Clouds 25 1013 88 8000 1.54 260 06:55 12.02.2021
2654 Clouds 25 1013 88 8000 1.54 260 06:55 12.02.2021
2655 Rain 25 1013 94 8000 1.54 310 05:47 12.02.2021
2656 Rain 24 1014 94 10000 2.57 10 04:31 12.02.2021
2657 Rain 24 1013 88 10000 1.54 310 01:32 12.02.2021
2658 Clouds 24 1012 94 8000 1.54 340 23:41 11.02.2021
2659 Clouds 24 1012 94 8000 1.54 340 23:22 11.02.2021
2660 Rain 25 1012 83 9000 3.09 330 22:46 11.02.2021
2661 Rain 25 1012 83 9000 3.09 330 22:24 11.02.2021
2662 Rain 26 1012 89 10000 1.54 0 21:59 11.02.2021
2663 Rain 26 1012 89 10000 1.54 0 21:38 11.02.2021
2664 Rain 26 1012 89 10000 1.54 0 21:18 11.02.2021
2665 Rain 26 1012 89 10000 6.69 170 20:42 11.02.2021
2666 Rain 27 1012 89 10000 6.69 170 20:21 11.02.2021
2667 Rain 27 1011 89 10000 8.23 160 19:48 11.02.2021
2668 Rain 27 1011 89 10000 8.23 160 19:28 11.02.2021
2669 Rain 28 1012 83 10000 8.23 160 18:49 11.02.2021
2670 Clouds 28 1012 83 10000 8.23 160 18:28 11.02.2021
2671 Clouds 28 1012 83 10000 8.23 160 18:28 11.02.2021
2672 Clouds 29 1012 83 10000 7.72 160 17:53 11.02.2021
2673 Clouds 29 1012 83 10000 7.72 160 17:22 11.02.2021
2674 Clouds 29 1013 78 10000 5.14 150 16:57 11.02.2021
2675 Clouds 29 1013 78 10000 5.14 150 16:39 11.02.2021
2676 Clouds 30 1013 78 10000 5.14 150 16:20 11.02.2021
2677 Clouds 30 1014 78 9000 3.09 150 15:41 11.02.2021
2678 Clouds 30 1014 78 9000 3.09 150 15:23 11.02.2021
2679 Clouds 30 1014 78 8000 1.54 130 14:44 11.02.2021
2680 Clouds 29 1014 78 8000 1.54 130 14:25 11.02.2021
2681 Clouds 28 1014 89 7000 3.09 30 13:41 11.02.2021
2682 Clouds 27 1014 89 7000 3.09 30 13:19 11.02.2021
2683 Clouds 27 1014 83 7000 1.54 60 12:47 11.02.2021
2684 Clouds 27 1014 83 7000 1.54 60 12:23 11.02.2021
2685 Clouds 25 1013 94 8000 2.06 90 11:45 11.02.2021
2686 Clouds 24 1013 94 8000 2.06 90 11:21 11.02.2021
2687 Clouds 22 1013 94 10000 1.54 10 10:44 11.02.2021
2688 Clouds 22 1013 94 10000 1.54 10 10:25 11.02.2021
2689 Clouds 24 1013 94 10000 1.03 360 09:53 11.02.2021
2690 Clouds 25 1013 88 8000 3.09 330 09:22 11.02.2021
2691 Clouds 25 1013 88 10000 1.54 290 08:51 11.02.2021
2692 Clouds 25 1013 88 10000 1.54 290 08:23 11.02.2021
2693 Clouds 25 1013 88 10000 1.54 300 06:58 11.02.2021
2694 Clouds 25 1013 88 10000 1.54 300 06:35 11.02.2021
2695 Clouds 25 1014 78 10000 1.03 130 04:58 11.02.2021
2696 Clouds 25 1014 88 10000 3.6 180 02:29 11.02.2021
2697 Clouds 24 1013 88 10000 5.66 180 00:50 11.02.2021
2698 Clouds 24 1013 88 10000 5.66 180 00:20 11.02.2021
2699 Clouds 24 1012 88 10000 6.17 170 23:44 10.02.2021
2700 Clouds 25 1012 83 10000 6.17 160 22:53 10.02.2021
2701 Clouds 25 1012 83 10000 6.17 160 22:29 10.02.2021
2702 Clouds 26 1012 83 10000 7.2 160 21:59 10.02.2021
2703 Clouds 26 1012 83 10000 7.2 160 21:38 10.02.2021
2704 Clouds 26 1012 83 10000 7.2 160 21:19 10.02.2021
2705 Clouds 26 1012 83 10000 7.2 160 20:41 10.02.2021
2706 Clouds 27 1012 83 10000 7.2 160 20:22 10.02.2021
2707 Clouds 28 1012 83 10000 6.17 150 19:46 10.02.2021
2708 Clouds 28 1012 83 10000 6.17 150 19:25 10.02.2021
2709 Clouds 29 1013 74 10000 6.17 160 18:44 10.02.2021
2710 Clouds 29 1013 74 10000 6.17 160 18:23 10.02.2021
2711 Clouds 28 1013 78 10000 5.14 160 17:57 10.02.2021
2712 Clouds 28 1013 78 10000 5.14 160 17:24 10.02.2021
2713 Rain 29 1014 74 10000 5.66 140 16:57 10.02.2021
2714 Clouds 29 1014 74 10000 5.66 140 16:37 10.02.2021
2715 Clouds 29 1014 74 10000 5.66 140 16:18 10.02.2021
2716 Clouds 29 1015 69 10000 3.6 140 15:24 10.02.2021
2717 Clouds 29 1015 69 10000 3.6 140 15:24 10.02.2021
2718 Clouds 27 1015 83 10000 1.54 40 14:52 10.02.2021
2719 Clouds 27 1015 83 10000 1.54 40 14:34 10.02.2021
2720 Clouds 26 1015 94 7000 3.09 10 13:53 10.02.2021
2721 Clouds 26 1015 94 7000 3.09 10 13:30 10.02.2021
2722 Mist 25 1015 88 5000 2.57 10 12:53 10.02.2021
2723 Mist 25 1015 88 5000 2.57 10 12:30 10.02.2021
2724 Mist 23 1014 94 5000 2.57 30 11:57 10.02.2021
2725 Mist 23 1014 94 5000 2.57 30 11:39 10.02.2021
2726 Mist 23 1014 94 5000 2.57 30 11:20 10.02.2021
2727 Clouds 23 1013 100 8000 1.03 50 10:24 10.02.2021
2728 Clouds 23 1013 100 8000 2.57 20 09:56 10.02.2021
2729 Clouds 23 1014 94 10000 1.54 0 09:32 10.02.2021
2730 Clouds 23 1013 94 10000 1.54 140 08:56 10.02.2021
2731 Clouds 23 1013 94 10000 1.54 140 08:33 10.02.2021
2732 Clouds 23 1013 88 10000 1.03 0 07:39 10.02.2021
2733 Clouds 24 1014 88 10000 1.03 0 06:22 10.02.2021
2734 Clouds 24 1014 88 10000 2.06 160 01:37 10.02.2021
2735 Clouds 24 1014 88 10000 3.09 150 00:22 10.02.2021
2736 Clouds 25 1013 83 10000 3.09 160 23:33 09.02.2021
2737 Clouds 25 1013 78 10000 4.12 160 22:53 09.02.2021
2738 Clouds 25 1013 78 10000 4.12 160 22:24 09.02.2021
2739 Clouds 26 1012 78 10000 4.63 160 21:52 09.02.2021
2740 Clouds 26 1012 78 10000 4.63 160 21:27 09.02.2021
2741 Clouds 27 1012 73 10000 4.63 170 20:46 09.02.2021
2742 Clouds 27 1012 73 10000 4.63 170 20:26 09.02.2021
2743 Clouds 27 1012 69 10000 5.14 170 19:55 09.02.2021
2744 Clouds 27 1012 69 10000 5.14 170 19:31 09.02.2021
2745 Rain 26 1013 73 10000 5.14 170 18:58 09.02.2021
2746 Rain 26 1013 73 10000 5.14 170 18:36 09.02.2021
2747 Rain 27 1013 78 10000 4.63 150 17:57 09.02.2021
2748 Rain 27 1013 78 10000 4.63 150 17:37 09.02.2021
2749 Rain 27 1013 78 10000 4.63 150 17:18 09.02.2021
2750 Clouds 26 1014 78 10000 5.14 150 16:40 09.02.2021
2751 Clouds 27 1014 78 10000 5.14 150 16:18 09.02.2021
2752 Clouds 27 1014 73 10000 3.6 150 15:48 09.02.2021
2753 Clouds 27 1014 73 10000 3.6 150 15:24 09.02.2021
2754 Clouds 27 1014 78 10000 2.57 130 14:53 09.02.2021
2755 Clouds 27 1014 83 10000 1.54 30 14:27 09.02.2021
2756 Clouds 25 1014 88 10000 1.54 20 13:51 09.02.2021
2757 Clouds 25 1014 88 10000 1.54 20 13:25 09.02.2021
2758 Clouds 24 1014 94 10000 2.06 10 12:51 09.02.2021
2759 Clouds 24 1014 94 10000 2.06 10 12:32 09.02.2021
2760 Clouds 23 1014 88 10000 2.06 330 11:56 09.02.2021
2761 Clouds 24 1014 88 10000 2.06 330 11:38 09.02.2021
2762 Clouds 23 1014 88 10000 2.06 330 11:20 09.02.2021
2763 Clouds 22 1013 94 10000 3.09 30 10:49 09.02.2021
2764 Clouds 23 1013 94 10000 3.09 30 10:18 09.02.2021
2765 Clouds 23 1013 88 10000 2.06 20 09:43 09.02.2021
2766 Clouds 23 1013 88 10000 2.06 20 09:24 09.02.2021
2767 Clouds 23 1013 88 10000 1.25 357 08:44 09.02.2021
2768 Clouds 23 1013 88 10000 0.85 6 08:25 09.02.2021
2769 Clouds 23 1013 83 10000 1.03 250 06:20 09.02.2021
2770 Clouds 23 1014 94 10000 4.12 10 04:18 09.02.2021
2771 Clouds 22 1014 94 10000 4.12 10 03:34 09.02.2021
2772 Clouds 23 1013 78 10000 1.03 0 00:34 09.02.2021
2773 Clouds 23 1012 83 10000 1.54 130 23:57 08.02.2021
2774 Clouds 24 1012 83 10000 1.54 130 23:21 08.02.2021
2775 Clouds 24 1012 83 10000 2.06 150 22:44 08.02.2021
2776 Clouds 24 1012 83 10000 2.06 150 22:25 08.02.2021
2777 Clouds 25 1012 83 10000 2.06 150 22:25 08.02.2021
2778 Clouds 25 1012 83 10000 4.12 140 21:57 08.02.2021
2779 Clouds 25 1012 83 10000 4.12 140 21:33 08.02.2021
2780 Clouds 24 1012 78 10000 3.09 120 20:59 08.02.2021
2781 Clouds 25 1012 78 10000 3.09 120 20:39 08.02.2021
2782 Clouds 24 1012 78 10000 3.09 120 20:21 08.02.2021
2783 Rain 24 1012 88 10000 2.57 150 19:43 08.02.2021
2784 Rain 24 1012 88 10000 2.57 150 19:25 08.02.2021
2785 Rain 23 1012 94 10000 3.6 150 18:49 08.02.2021
2786 Rain 23 1012 94 10000 3.6 150 18:23 08.02.2021
2787 Clouds 23 1013 94 9000 5.14 150 17:46 08.02.2021
2788 Clouds 23 1013 94 9000 5.14 150 17:26 08.02.2021
2789 Rain 22 1013 94 6000 4.63 150 16:45 08.02.2021
2790 Rain 22 1013 94 6000 4.63 150 16:23 08.02.2021
2791 Mist 22 1014 100 5000 4.12 120 15:48 08.02.2021
2792 Rain 23 1014 100 5000 4.12 120 15:21 08.02.2021
2793 Clouds 24 1014 94 6000 4.12 160 14:58 08.02.2021
2794 Clouds 24 1013 88 6000 4.12 190 14:39 08.02.2021
2795 Rain 24 1013 88 6000 4.12 190 14:20 08.02.2021
2796 Rain 24 1013 88 7000 2.06 10 13:41 08.02.2021
2797 Clouds 24 1013 88 7000 2.06 10 13:22 08.02.2021
2798 Clouds 23 1013 94 7000 2.06 360 12:37 08.02.2021
2799 Rain 23 1012 94 8000 2.57 10 11:51 08.02.2021
2800 Clouds 23 1012 94 8000 2.57 10 11:26 08.02.2021
2801 Clouds 23 1012 94 6000 3.6 340 10:46 08.02.2021
2802 Clouds 23 1012 94 6000 3.6 340 10:24 08.02.2021
2803 Clouds 23 1012 88 6000 3.09 340 09:55 08.02.2021
2804 Rain 23 1011 88 10000 2.06 350 09:36 08.02.2021
2805 Rain 23 1011 88 10000 1.03 260 08:52 08.02.2021
2806 Clouds 23 1011 88 10000 1.03 260 08:24 08.02.2021
2807 Clouds 23 1011 88 10000 1.54 120 07:38 08.02.2021
2808 Rain 23 1011 88 10000 0.37 265 06:33 08.02.2021
2809 Clouds 24 1013 78 10000 0.51 50 04:54 08.02.2021
2810 Rain 23 1013 83 10000 1.56 59 02:26 08.02.2021
2811 Rain 23 1013 83 10000 3.6 40 00:25 08.02.2021
2812 Rain 23 1013 88 10000 5.14 30 23:53 07.02.2021
2813 Clouds 24 1013 88 10000 5.14 30 23:28 07.02.2021
2814 Clouds 23 1012 88 10000 3.6 30 22:56 07.02.2021
2815 Rain 24 1012 88 10000 3.6 30 22:38 07.02.2021
2816 Clouds 24 1012 88 10000 3.6 30 22:19 07.02.2021
2817 Rain 24 1012 83 10000 2.57 130 21:49 07.02.2021
2818 Rain 25 1012 83 10000 2.57 130 21:24 07.02.2021
2819 Rain 25 1012 83 10000 2.57 130 21:24 07.02.2021
2820 Rain 25 1012 83 10000 3.09 120 20:50 07.02.2021
2821 Rain 25 1012 83 10000 3.09 120 20:29 07.02.2021
2822 Rain 25 1012 83 10000 3.6 120 19:49 07.02.2021
2823 Rain 26 1012 83 10000 3.6 120 19:29 07.02.2021
2824 Clouds 25 1012 83 8000 3.6 140 18:48 07.02.2021
2825 Clouds 26 1012 83 8000 3.6 140 18:27 07.02.2021
2826 Clouds 26 1012 73 10000 4.63 140 17:58 07.02.2021
2827 Clouds 26 1012 73 10000 4.63 140 17:39 07.02.2021
2828 Clouds 26 1012 73 10000 4.63 140 17:18 07.02.2021
2829 Clouds 26 1012 78 10000 4.12 140 16:42 07.02.2021
2830 Clouds 27 1012 78 10000 4.12 140 16:21 07.02.2021
2831 Clouds 27 1013 78 10000 3.09 130 15:44 07.02.2021
2832 Clouds 27 1013 78 10000 1.54 30 15:22 07.02.2021
2833 Clouds 27 1013 78 10000 2.06 20 14:46 07.02.2021
2834 Clouds 27 1013 78 10000 2.06 20 14:27 07.02.2021
2835 Clouds 25 1013 83 10000 2.06 10 13:52 07.02.2021
2836 Clouds 25 1013 83 10000 2.06 10 13:33 07.02.2021
2837 Clouds 24 1012 94 10000 2.57 350 12:44 07.02.2021
2838 Clouds 22 1012 94 10000 2.57 350 12:22 07.02.2021
2839 Clear 22 1012 88 10000 2.06 360 11:49 07.02.2021
2840 Clear 22 1012 88 10000 2.06 360 11:27 07.02.2021
2841 Clear 21 1011 94 10000 1.03 300 10:49 07.02.2021
2842 Clear 21 1011 94 10000 1.03 300 10:49 07.02.2021
2843 Clear 21 1011 94 10000 1.03 300 10:25 07.02.2021
2844 Clouds 23 1011 94 10000 2.06 340 09:48 07.02.2021
2845 Clouds 22 1011 94 10000 2.06 340 09:21 07.02.2021
2846 Clouds 22 1011 94 10000 2.06 340 09:21 07.02.2021
2847 Clouds 23 1011 94 10000 2.06 350 08:26 07.02.2021
2848 Clouds 23 1011 94 10000 1.54 320 07:32 07.02.2021
2849 Clouds 23 1012 94 10000 1.03 260 05:57 07.02.2021
2850 Clouds 22 1013 94 10000 2.06 310 03:52 07.02.2021
2851 Clouds 23 1012 88 10000 1.54 340 01:37 07.02.2021
2852 Clouds 22 1011 88 10000 1.54 310 00:35 07.02.2021
2853 Clouds 23 1011 88 10000 1.54 320 23:46 06.02.2021
2854 Clouds 22 1010 88 7000 1.54 210 22:42 06.02.2021
2855 Clouds 22 1009 88 6000 4.12 160 21:43 06.02.2021
2856 Clouds 22 1009 88 6000 4.12 160 21:23 06.02.2021
2857 Mist 21 1009 94 4000 4.12 170 20:52 06.02.2021
2858 Mist 21 1010 100 4000 2.57 180 20:26 06.02.2021
2859 Rain 21 1010 100 4000 1.54 140 19:57 06.02.2021
2860 Mist 21 1010 100 4000 1.54 140 19:34 06.02.2021
2861 Rain 21 1009 94 4000 1.54 160 18:54 06.02.2021
2862 Rain 23 1009 83 5000 3.09 310 18:34 06.02.2021
2863 Rain 24 1009 78 10000 1.03 0 17:56 06.02.2021
2864 Rain 24 1009 83 10000 2.06 340 17:38 06.02.2021
2865 Clouds 24 1009 83 10000 2.06 340 17:19 06.02.2021
2866 Clouds 24 1010 83 10000 2.06 340 16:42 06.02.2021
2867 Clouds 24 1010 83 10000 2.06 340 16:24 06.02.2021
2868 Clouds 24 1010 83 10000 2.57 360 15:48 06.02.2021
2869 Clouds 24 1010 83 10000 2.57 360 15:26 06.02.2021
2870 Clouds 24 1010 83 10000 2.06 340 14:46 06.02.2021
2871 Clouds 24 1010 83 10000 2.06 340 14:28 06.02.2021
2872 Clouds 23 1010 88 10000 2.57 360 13:53 06.02.2021
2873 Clouds 23 1010 88 10000 2.57 360 13:34 06.02.2021
2874 Clouds 22 1009 94 10000 2.06 60 12:23 06.02.2021
2875 Clouds 22 1009 94 7000 1.54 50 11:58 06.02.2021
2876 Clouds 22 1009 94 7000 1.54 50 11:39 06.02.2021
2877 Clouds 21 1009 94 7000 1.54 50 11:19 06.02.2021
2878 Clouds 22 1008 83 6000 1.03 0 10:47 06.02.2021
2879 Clouds 22 1008 83 6000 1.03 0 10:25 06.02.2021
2880 Rain 22 1007 83 10000 1.03 20 09:37 06.02.2021
2881 Clouds 22 1007 83 10000 1.03 20 09:18 06.02.2021
2882 Clouds 22 1007 88 10000 1.03 20 08:52 06.02.2021
2883 Clouds 22 1007 88 10000 1.03 20 08:28 06.02.2021
2884 Mist 22 1007 94 4000 3.6 270 06:50 06.02.2021
2885 Clouds 22 1008 88 10000 4.63 260 05:39 06.02.2021
2886 Rain 23 1008 94 8000 3.09 110 02:44 06.02.2021
2887 Rain 23 1007 100 6000 3.09 110 00:56 06.02.2021
2888 Clouds 23 1007 100 6000 3.09 110 00:37 06.02.2021
2889 Clouds 23 1007 100 6000 3.09 110 00:18 06.02.2021
2890 Rain 23 1006 94 4500 5.66 170 23:30 05.02.2021
2891 Rain 23 1006 100 1000 2.06 90 22:51 05.02.2021
2892 Rain 23 1006 100 4500 7.2 190 22:25 05.02.2021
2893 Rain 24 1006 100 5000 6.69 190 21:57 05.02.2021
2894 Rain 24 1005 100 6000 7.2 180 21:37 05.02.2021
2895 Rain 24 1004 100 4000 7.2 180 20:56 05.02.2021
2896 Mist 24 1004 100 4000 7.2 180 20:34 05.02.2021
2897 Rain 25 1005 94 2000 6.69 180 19:46 05.02.2021
2898 Rain 27 1004 94 10000 8.75 170 19:18 05.02.2021
2899 Rain 28 1004 88 10000 7.72 160 18:43 05.02.2021
2900 Clouds 29 1004 88 10000 7.72 160 18:19 05.02.2021
2901 Rain 30 1004 74 10000 2.06 60 17:42 05.02.2021
2902 Clouds 30 1004 74 10000 2.06 60 17:20 05.02.2021
2903 Clouds 28 1005 89 10000 2.57 10 16:43 05.02.2021
2904 Clouds 28 1005 89 10000 2.57 10 16:21 05.02.2021
2905 Clouds 28 1006 89 10000 3.09 360 15:50 05.02.2021
2906 Clouds 28 1006 89 10000 3.09 360 15:23 05.02.2021
2907 Clouds 26 1006 94 9000 5.14 340 14:40 05.02.2021
2908 Rain 26 1006 94 9000 5.14 340 14:21 05.02.2021
2909 Rain 25 1006 88 9000 2.06 320 13:53 05.02.2021
2910 Rain 25 1006 88 9000 2.06 320 13:33 05.02.2021
2911 Rain 24 1006 100 6000 3.6 10 12:46 05.02.2021
2912 Rain 24 1006 100 6000 3.6 10 12:25 05.02.2021
2913 Rain 24 1006 94 6000 3.09 360 11:40 05.02.2021
2914 Rain 23 1006 94 6000 3.09 360 11:21 05.02.2021
2915 Rain 23 1006 94 8000 3.09 160 10:54 05.02.2021
2916 Rain 24 1006 94 8000 3.09 160 10:26 05.02.2021
2917 Rain 25 1006 83 10000 4.12 230 09:45 05.02.2021
2918 Rain 25 1006 83 10000 4.12 230 09:26 05.02.2021
2919 Rain 24 1006 83 10000 7.2 200 08:51 05.02.2021
2920 Rain 27 1005 69 10000 8.23 210 07:53 05.02.2021
2921 Rain 28 1004 74 10000 3.13 7 07:34 05.02.2021
2922 Rain 28 1004 74 10000 1.03 0 06:48 05.02.2021
2923 Rain 28 1004 74 10000 2.06 50 05:36 05.02.2021
2924 Rain 29 1005 83 10000 3.6 30 02:52 05.02.2021
2925 Rain 29 1005 83 10000 3.6 30 02:24 05.02.2021
2926 Clouds 28 1004 78 10000 1.54 70 00:39 05.02.2021
2927 Clouds 29 1004 78 10000 1.54 70 00:19 05.02.2021
2928 Clouds 32 1004 55 10000 4.12 190 23:55 04.02.2021
2929 Clouds 33 1004 55 10000 4.12 190 23:36 04.02.2021
2930 Clouds 33 1004 55 10000 4.12 190 23:18 04.02.2021
2931 Clouds 33 1003 58 10000 6.17 180 22:46 04.02.2021
2932 Clouds 33 1003 58 10000 6.17 180 22:25 04.02.2021
2933 Clouds 34 1003 55 10000 7.2 180 21:42 04.02.2021
2934 Clouds 34 1003 55 10000 7.2 180 21:19 04.02.2021
2935 Clouds 36 1004 49 10000 6.17 190 20:46 04.02.2021
2936 Clouds 36 1004 49 10000 6.17 190 20:28 04.02.2021
2937 Clouds 37 1004 52 10000 5.14 170 19:42 04.02.2021
2938 Clouds 36 1006 55 10000 4.63 160 18:56 04.02.2021
2939 Clouds 36 1006 55 10000 4.63 160 18:25 04.02.2021
2940 Clouds 37 1006 58 10000 2.57 150 17:53 04.02.2021
2941 Clouds 37 1006 58 10000 2.57 150 17:26 04.02.2021
2942 Clear 36 1007 55 10000 2.57 140 16:56 04.02.2021
2943 Clear 37 1007 44 10000 2.57 340 16:38 04.02.2021
2944 Clear 36 1007 44 10000 2.57 340 16:18 04.02.2021
2945 Clear 34 1008 55 10000 2.06 360 15:39 04.02.2021
2946 Clear 34 1008 55 10000 2.06 360 15:20 04.02.2021
2947 Clear 33 1009 70 10000 2.06 360 14:42 04.02.2021
2948 Clear 32 1009 70 10000 2.06 360 14:20 04.02.2021
2949 Clear 31 1009 65 10000 3.09 330 13:45 04.02.2021
2950 Clear 31 1009 65 10000 3.09 330 13:25 04.02.2021
2951 Clear 29 1009 78 10000 2.57 320 12:52 04.02.2021
2952 Clear 27 1009 78 10000 2.06 330 11:57 04.02.2021
2953 Clear 27 1009 78 10000 2.06 330 11:37 04.02.2021
2954 Clear 25 1009 83 10000 2.57 340 10:58 04.02.2021
2955 Clear 25 1009 83 10000 2.57 340 10:34 04.02.2021
2956 Clear 25 1010 83 10000 4.12 70 09:45 04.02.2021
2957 Clear 25 1010 83 10000 4.12 70 09:22 04.02.2021
2958 Clear 26 1010 78 10000 3.09 80 08:51 04.02.2021
2959 Clear 25 1010 78 10000 3.09 80 08:26 04.02.2021
2960 Clear 25 1010 83 10000 2.06 70 07:56 04.02.2021
2961 Clear 25 1010 83 10000 2.06 70 07:33 04.02.2021
2962 Clear 26 1011 73 10000 2.06 70 06:45 04.02.2021
2963 Clear 26 1011 73 10000 1.54 80 05:52 04.02.2021
2964 Clear 27 1012 74 10000 2.57 90 02:40 04.02.2021
2965 Clear 28 1012 74 10000 2.57 90 02:18 04.02.2021
2966 Clear 30 1010 69 10000 2.57 150 00:20 04.02.2021
2967 Clouds 31 1010 61 10000 4.63 190 23:34 03.02.2021
2968 Clouds 32 1010 58 10000 5.66 190 22:40 03.02.2021
2969 Clouds 32 1010 58 10000 5.66 190 22:20 03.02.2021
2970 Clouds 32 1009 61 10000 6.17 170 21:51 03.02.2021
2971 Clouds 32 1009 61 10000 6.17 170 21:24 03.02.2021
2972 Clouds 33 1009 58 10000 7.72 180 20:54 03.02.2021
2973 Clouds 33 1009 58 10000 7.72 180 20:35 03.02.2021
2974 Clouds 33 1009 65 10000 7.2 180 19:56 03.02.2021
2975 Clouds 33 1009 65 10000 7.2 180 19:27 03.02.2021
2976 Clouds 33 1010 62 10000 6.69 160 18:59 03.02.2021
2977 Clouds 33 1010 62 10000 6.69 160 18:39 03.02.2021
2978 Clouds 33 1010 62 10000 6.69 160 18:39 03.02.2021
2979 Clouds 33 1010 62 10000 6.69 160 18:19 03.02.2021
2980 Clouds 33 1011 65 10000 6.69 150 17:48 03.02.2021
2981 Clouds 33 1011 65 10000 6.69 150 17:27 03.02.2021
2982 Clouds 33 1011 62 10000 5.14 150 16:48 03.02.2021
2983 Clouds 33 1011 62 10000 5.14 150 16:26 03.02.2021
2984 Clouds 32 1012 74 10000 3.09 140 15:41 03.02.2021
2985 Clouds 32 1012 74 10000 3.09 140 15:22 03.02.2021
2986 Clouds 30 1013 65 10000 3.09 350 14:47 03.02.2021
2987 Clouds 31 1013 65 10000 3.09 350 14:24 03.02.2021
2988 Clear 30 1013 69 10000 2.57 330 13:50 03.02.2021
2989 Clear 29 1013 69 10000 2.57 330 13:21 03.02.2021
2990 Clear 29 1013 74 10000 2.57 330 12:47 03.02.2021
2991 Clear 27 1013 74 10000 2.57 330 12:22 03.02.2021
2992 Clear 26 1013 78 10000 1.03 10 11:47 03.02.2021
2993 Clear 26 1013 78 10000 1.03 10 11:28 03.02.2021
2994 Clear 24 1012 88 10000 1.54 360 10:52 03.02.2021
2995 Clear 25 1012 88 10000 1.54 360 10:21 03.02.2021
2996 Clear 25 1012 83 10000 3.6 80 09:47 03.02.2021
2997 Clear 25 1012 83 10000 3.6 80 09:27 03.02.2021
2998 Clear 26 1012 78 10000 2.06 100 08:52 03.02.2021
2999 Clear 26 1012 78 10000 2.06 100 08:24 03.02.2021
3000 Clear 26 1012 78 10000 2.57 70 07:39 03.02.2021
3001 Clear 27 1012 78 10000 3.09 80 06:40 03.02.2021
3002 Clear 27 1012 78 10000 2.57 70 04:52 03.02.2021
3003 Clear 26 1012 83 10000 1.03 0 04:29 03.02.2021
3004 Clear 27 1012 83 10000 1.03 0 03:18 03.02.2021
3005 Clear 28 1012 69 10000 1.54 350 02:26 03.02.2021
3006 Clear 28 1011 78 10000 4.12 340 00:30 03.02.2021
3007 Clouds 28 1010 70 10000 3.6 340 23:53 02.02.2021
3008 Clouds 29 1010 70 10000 3.6 340 23:29 02.02.2021
3009 Clouds 30 1009 55 10000 1.03 0 22:59 02.02.2021
3010 Clouds 30 1009 55 10000 1.03 0 22:22 02.02.2021
3011 Clouds 30 1009 58 10000 5.66 50 21:57 02.02.2021
3012 Clouds 30 1009 58 10000 5.66 50 21:37 02.02.2021
3013 Clouds 32 1009 58 10000 5.66 50 21:18 02.02.2021
3014 Clouds 33 1008 58 10000 7.2 170 20:43 02.02.2021
3015 Clouds 33 1008 58 10000 7.2 170 20:20 02.02.2021
3016 Clouds 33 1008 58 10000 7.2 170 20:20 02.02.2021
3017 Clouds 33 1008 55 10000 6.69 160 19:48 02.02.2021
3018 Clouds 33 1008 55 10000 6.69 160 19:29 02.02.2021
3019 Clouds 33 1009 58 10000 6.69 160 18:45 02.02.2021
3020 Clouds 33 1009 58 10000 6.69 160 18:25 02.02.2021
3021 Clouds 34 1009 58 10000 5.66 160 17:50 02.02.2021
3022 Clouds 34 1009 58 10000 5.66 160 17:23 02.02.2021
3023 Clouds 33 1010 65 10000 4.63 150 16:57 02.02.2021
3024 Clouds 33 1010 65 10000 4.63 150 16:38 02.02.2021
3025 Clouds 33 1010 65 10000 4.63 150 16:18 02.02.2021
3026 Clear 33 1010 66 10000 3.6 130 15:42 02.02.2021
3027 Clear 32 1010 66 10000 3.6 130 15:21 02.02.2021
3028 Clear 32 1011 62 10000 2.57 350 14:41 02.02.2021
3029 Clear 31 1011 62 10000 2.57 350 14:19 02.02.2021
3030 Clear 30 1011 61 10000 2.57 340 13:54 02.02.2021
3031 Clear 30 1011 61 10000 2.57 340 13:36 02.02.2021
3032 Clear 29 1011 61 10000 2.57 340 13:18 02.02.2021
3033 Clear 28 1011 78 10000 3.09 340 12:31 02.02.2021
3034 Clear 27 1010 78 10000 3.09 350 11:44 02.02.2021
3035 Clear 27 1010 78 10000 3.09 350 11:22 02.02.2021
3036 Clear 26 1010 78 10000 1.03 0 10:55 02.02.2021
3037 Clear 26 1010 78 10000 1.03 0 10:27 02.02.2021
3038 Clouds 27 1010 65 10000 2.06 360 09:47 02.02.2021
3039 Clouds 27 1010 65 10000 2.06 360 09:25 02.02.2021
3040 Clouds 27 1010 65 10000 2.06 290 08:55 02.02.2021
3041 Clouds 27 1010 65 10000 2.06 290 08:28 02.02.2021
3042 Clouds 26 1010 65 10000 2.57 340 07:31 02.02.2021
3043 Clouds 27 1010 65 10000 2.57 300 06:43 02.02.2021
3044 Clouds 27 1010 69 10000 4.12 260 05:53 02.02.2021
3045 Rain 28 1011 61 10000 2.06 40 04:57 02.02.2021
3046 Clouds 28 1010 69 10000 2.06 330 02:44 02.02.2021
3047 Clouds 29 1010 69 10000 2.06 330 02:23 02.02.2021
3048 Clouds 29 1009 61 10000 4.12 80 00:35 02.02.2021
3049 Clouds 32 1009 62 10000 2.06 180 23:20 01.02.2021
3050 Clouds 32 1008 62 10000 2.57 120 22:51 01.02.2021
3051 Clouds 32 1008 62 10000 2.57 120 22:33 01.02.2021
3052 Clouds 34 1007 62 10000 6.17 120 21:53 01.02.2021
3053 Clouds 34 1007 62 10000 6.17 120 21:34 01.02.2021
3054 Clouds 34 1007 55 10000 4.12 150 20:57 01.02.2021
3055 Clouds 34 1007 55 10000 4.12 150 20:38 01.02.2021
3056 Clouds 34 1007 55 10000 4.12 150 20:19 01.02.2021
3057 Clouds 34 1008 58 10000 5.14 160 19:39 01.02.2021
3058 Clouds 35 1008 58 10000 5.14 160 19:20 01.02.2021
3059 Clouds 35 1009 62 10000 5.66 160 18:49 01.02.2021
3060 Clouds 35 1009 62 10000 5.66 160 18:27 01.02.2021
3061 Clouds 35 1009 62 10000 4.12 160 17:47 01.02.2021
3062 Clouds 35 1009 62 10000 4.12 160 17:24 01.02.2021
3063 Clouds 34 1010 58 10000 3.09 350 16:55 01.02.2021
3064 Clouds 35 1010 58 10000 3.09 350 16:29 01.02.2021
3065 Clear 33 1011 62 10000 3.09 340 15:44 01.02.2021
3066 Clear 34 1011 62 10000 3.09 340 15:19 01.02.2021
3067 Clear 31 1011 62 10000 2.57 320 14:52 01.02.2021
3068 Clear 32 1011 62 10000 2.57 320 14:33 01.02.2021
3069 Clear 29 1011 78 10000 3.6 340 13:50 01.02.2021
3070 Clear 30 1011 78 10000 3.6 340 13:27 01.02.2021
3071 Clear 28 1011 83 10000 2.57 340 12:56 01.02.2021
3072 Clear 28 1011 83 10000 2.57 340 12:37 01.02.2021
3073 Clear 27 1011 83 10000 2.57 340 12:19 01.02.2021
3074 Clouds 26 1012 83 10000 3.6 340 11:39 01.02.2021
3075 Clouds 26 1012 83 10000 3.6 340 11:18 01.02.2021
3076 Clouds 25 1011 83 10000 0.51 0 10:42 01.02.2021
3077 Clouds 27 1011 83 10000 0.51 0 10:19 01.02.2021
3078 Clouds 27 1011 78 10000 1.54 330 09:43 01.02.2021
3079 Clear 26 1010 78 10000 2.06 340 08:58 01.02.2021
3080 Rain 26 1010 78 10000 2.06 340 08:27 01.02.2021
3081 Clouds 26 1010 69 10000 1.54 280 07:36 01.02.2021
3082 Clear 27 1010 65 10000 3.6 360 05:46 01.02.2021
3083 Clear 27 1010 83 10000 1.03 160 02:43 01.02.2021
3084 Clear 29 1008 78 10000 4.12 150 00:31 01.02.2021
3085 Clear 30 1008 78 10000 3.6 170 23:40 31.01.2021
3086 Clear 33 1007 55 10000 4.12 180 22:42 31.01.2021
3087 Clear 33 1007 55 10000 4.12 180 22:23 31.01.2021
3088 Clear 33 1007 51 10000 5.14 180 21:49 31.01.2021
3089 Clear 34 1007 51 10000 5.14 180 21:23 31.01.2021
3090 Rain 34 1008 51 10000 5.14 180 20:49 31.01.2021
3091 Clear 34 1008 51 10000 5.14 180 20:21 31.01.2021
3092 Clear 34 1008 51 10000 4.63 150 19:55 31.01.2021
3093 Rain 34 1008 51 10000 4.63 150 19:37 31.01.2021
3094 Rain 34 1008 51 10000 4.63 150 19:18 31.01.2021
3095 Clear 35 1009 55 10000 4.12 160 18:40 31.01.2021
3096 Clear 35 1009 55 10000 4.12 160 18:21 31.01.2021
3097 Rain 35 1009 55 10000 4.12 150 17:46 31.01.2021
3098 Rain 35 1009 55 10000 4.12 150 17:23 31.01.2021
3099 Clear 36 1010 55 10000 2.06 0 16:50 31.01.2021
3100 Clear 36 1010 55 10000 2.06 0 16:50 31.01.2021
3101 Clear 36 1010 55 10000 2.06 0 16:31 31.01.2021
3102 Clear 36 1011 46 10000 2.57 320 15:52 31.01.2021
3103 Rain 36 1011 46 10000 2.57 320 15:34 31.01.2021
3104 Clear 33 1011 70 10000 2.57 360 14:44 31.01.2021
3105 Clear 32 1011 70 10000 2.57 360 14:24 31.01.2021
3106 Clear 31 1011 70 10000 3.09 350 13:53 31.01.2021
3107 Clear 31 1011 70 10000 3.09 350 13:35 31.01.2021
3108 Clear 30 1011 69 10000 3.09 340 12:49 31.01.2021
3109 Clear 30 1011 69 10000 3.09 340 12:23 31.01.2021
3110 Clear 28 1011 78 10000 3.09 330 11:47 31.01.2021
3111 Clear 28 1011 78 10000 3.09 330 11:29 31.01.2021
3112 Clear 26 1011 83 10000 2.57 340 10:59 31.01.2021
3113 Clear 26 1011 83 10000 2.57 340 10:35 31.01.2021
3114 Clear 26 1010 88 10000 2.06 340 09:55 31.01.2021
3115 Clear 27 1010 73 10000 2.57 60 09:27 31.01.2021
3116 Clear 27 1010 73 10000 2.57 70 08:34 31.01.2021
3117 Clear 27 1010 73 10000 3.09 70 07:20 31.01.2021
3118 Clear 27 1011 69 10000 2.57 40 05:42 31.01.2021
3119 Clear 31 1010 65 10000 3.6 160 00:52 31.01.2021
3120 Clear 31 1010 65 10000 3.6 160 00:26 31.01.2021
3121 Clouds 32 1009 61 10000 5.14 190 23:34 30.01.2021
3122 Clouds 33 1009 55 10000 6.69 190 22:59 30.01.2021
3123 Clouds 33 1009 55 10000 6.69 190 22:33 30.01.2021
3124 Clouds 34 1008 51 10000 5.14 170 21:43 30.01.2021
3125 Clouds 35 1008 51 10000 5.14 170 21:23 30.01.2021
3126 Clouds 35 1009 55 10000 5.66 140 20:50 30.01.2021
3127 Clouds 35 1009 55 10000 5.66 140 20:32 30.01.2021
3128 Clouds 36 1009 49 10000 4.12 150 19:58 30.01.2021
3129 Clouds 36 1009 49 10000 4.12 150 19:39 30.01.2021
3130 Clouds 36 1009 49 10000 4.12 150 19:19 30.01.2021
3131 Clouds 37 1010 49 10000 5.14 150 18:40 30.01.2021
3132 Clouds 37 1010 49 10000 5.14 150 18:19 30.01.2021
3133 Clouds 37 1010 49 10000 4.12 150 17:37 30.01.2021
3134 Clouds 37 1010 49 10000 4.12 150 17:18 30.01.2021
3135 Clouds 36 1011 49 10000 1.54 110 16:37 30.01.2021
3136 Clouds 36 1011 49 10000 1.54 110 16:19 30.01.2021
3137 Clear 37 1011 43 10000 2.06 20 15:44 30.01.2021
3138 Clear 36 1011 43 10000 2.06 20 15:23 30.01.2021
3139 Clear 34 1012 58 10000 2.06 360 14:52 30.01.2021
3140 Clear 34 1012 58 10000 2.06 360 14:27 30.01.2021
3141 Clear 32 1012 74 10000 2.57 350 13:53 30.01.2021
3142 Clear 31 1012 74 10000 2.57 350 13:20 30.01.2021
3143 Clear 30 1012 74 10000 2.06 340 12:43 30.01.2021
3144 Clear 30 1012 74 10000 2.06 340 12:23 30.01.2021
3145 Clear 27 1011 89 10000 3.09 350 11:43 30.01.2021
3146 Clear 25 1011 83 10000 2.57 330 10:56 30.01.2021
3147 Clear 25 1011 83 10000 2.57 330 10:27 30.01.2021
3148 Clear 27 1011 88 10000 2.57 80 09:41 30.01.2021
3149 Clear 27 1011 88 10000 2.57 80 09:22 30.01.2021
3150 Clear 27 1010 78 10000 2.57 70 08:44 30.01.2021
3151 Clear 27 1010 78 10000 2.06 30 07:41 30.01.2021
3152 Clear 28 1011 69 10000 2.57 340 06:25 30.01.2021
3153 Clear 28 1010 83 10000 4.12 340 03:51 30.01.2021
3154 Clear 29 1010 83 10000 4.12 340 03:31 30.01.2021
3155 Clear 30 1010 78 10000 2.57 340 02:22 30.01.2021
3156 Clear 29 1008 83 10000 2.57 140 00:56 30.01.2021
3157 Clear 30 1008 83 10000 2.57 140 00:27 30.01.2021
3158 Clouds 31 1008 69 10000 4.63 170 23:54 29.01.2021
3159 Clouds 32 1008 69 10000 4.63 170 23:28 29.01.2021
3160 Clouds 33 1007 58 10000 5.66 170 22:52 29.01.2021
3161 Clouds 33 1007 58 10000 5.66 170 22:32 29.01.2021
3162 Clouds 34 1007 58 10000 5.66 160 21:59 29.01.2021
3163 Clouds 34 1007 58 10000 5.66 160 21:27 29.01.2021
3164 Clouds 35 1007 51 10000 7.2 160 20:43 29.01.2021
3165 Clouds 35 1007 51 10000 7.2 160 20:24 29.01.2021
3166 Clouds 37 1008 46 10000 5.66 170 19:40 29.01.2021
3167 Clouds 37 1008 46 10000 5.66 170 19:21 29.01.2021
3168 Clouds 37 1008 43 10000 3.6 160 18:56 29.01.2021
3169 Clouds 37 1009 52 10000 4.12 30 17:51 29.01.2021
3170 Clouds 37 1009 52 10000 4.12 30 17:23 29.01.2021
3171 Clouds 37 1009 55 10000 4.12 30 16:58 29.01.2021
3172 Clouds 37 1009 55 10000 4.12 30 16:38 29.01.2021
3173 Clouds 37 1009 55 10000 4.12 30 16:19 29.01.2021
3174 Clear 37 1010 55 10000 3.6 40 15:41 29.01.2021
3175 Clear 35 1010 55 10000 3.6 40 15:22 29.01.2021
3176 Clear 35 1010 55 10000 2.57 30 14:30 29.01.2021
3177 Clear 33 1011 70 10000 2.06 360 13:58 29.01.2021
3178 Clear 33 1011 70 10000 2.06 360 13:34 29.01.2021
3179 Clear 31 1010 61 10000 2.57 340 12:48 29.01.2021
3180 Clear 29 1010 61 10000 2.57 340 12:20 29.01.2021
3181 Clear 28 1010 78 10000 3.09 330 11:46 29.01.2021
3182 Clear 26 1010 78 10000 3.09 330 11:18 29.01.2021
3183 Clear 24 1010 88 10000 3.09 340 10:47 29.01.2021
3184 Clear 24 1010 88 10000 3.09 340 10:26 29.01.2021
3185 Clear 27 1010 73 10000 1.03 60 09:44 29.01.2021
3186 Clear 27 1009 73 10000 1.54 270 08:52 29.01.2021
3187 Clear 27 1009 73 10000 1.54 270 08:28 29.01.2021
3188 Clear 26 1009 69 10000 2.06 80 07:54 29.01.2021
3189 Clear 28 1009 69 10000 2.06 80 07:35 29.01.2021
3190 Clear 28 1009 73 10000 2.06 350 06:58 29.01.2021
3191 Clear 28 1009 69 10000 2.06 330 05:20 29.01.2021
3192 Clear 28 1009 83 10000 2.06 160 02:53 29.01.2021
3193 Clear 30 1008 65 10000 3.09 180 00:39 29.01.2021
3194 Clear 30 1008 65 10000 3.09 180 00:20 29.01.2021
3195 Clouds 30 1008 61 10000 5.66 150 23:43 28.01.2021
3196 Clouds 30 1008 61 10000 5.66 150 23:24 28.01.2021
3197 Clouds 30 1007 61 10000 6.17 150 22:46 28.01.2021
3198 Clouds 30 1007 61 10000 6.17 150 22:26 28.01.2021
3199 Clouds 32 1007 58 10000 6.17 150 21:56 28.01.2021
3200 Clouds 32 1007 58 10000 6.17 150 21:34 28.01.2021
3201 Clouds 33 1007 54 10000 6.17 160 20:59 28.01.2021
3202 Clouds 33 1007 54 10000 6.17 160 20:39 28.01.2021
3203 Clouds 34 1007 54 10000 6.17 160 20:18 28.01.2021
3204 Clouds 34 1008 51 10000 7.2 160 19:41 28.01.2021
3205 Clouds 35 1008 51 10000 7.2 160 19:23 28.01.2021
3206 Clouds 36 1008 55 10000 6.17 160 18:43 28.01.2021
3207 Clouds 36 1008 55 10000 6.17 160 18:20 28.01.2021
3208 Clear 37 1008 49 10000 3.09 130 17:46 28.01.2021
3209 Clear 37 1008 49 10000 3.09 130 17:27 28.01.2021
3210 Clear 36 1009 55 10000 4.63 30 16:45 28.01.2021
3211 Clear 37 1009 55 10000 4.63 30 16:24 28.01.2021
3212 Clear 37 1009 55 10000 4.12 30 15:44 28.01.2021
3213 Clear 35 1009 55 10000 4.12 30 15:19 28.01.2021
3214 Clear 35 1010 52 10000 2.57 10 14:42 28.01.2021
3215 Clear 35 1010 52 10000 2.57 10 14:23 28.01.2021
3216 Clear 32 1010 62 10000 2.57 350 13:48 28.01.2021
3217 Clear 32 1010 62 10000 2.57 350 13:19 28.01.2021
3218 Clear 31 1010 69 10000 3.09 350 12:45 28.01.2021
3219 Clear 29 1010 69 10000 3.09 350 12:21 28.01.2021
3220 Clear 28 1009 74 10000 3.09 340 11:44 28.01.2021
3221 Clear 26 1009 74 10000 3.09 340 11:20 28.01.2021
3222 Clear 25 1009 78 10000 3.09 360 10:54 28.01.2021
3223 Clear 25 1009 78 10000 3.09 360 10:35 28.01.2021
3224 Clear 26 1009 78 10000 3.09 360 09:59 28.01.2021
3225 Clear 26 1008 69 10000 1.54 170 09:30 28.01.2021
3226 Clear 26 1008 69 10000 1.54 150 08:57 28.01.2021
3227 Clear 26 1008 69 10000 1.54 150 08:38 28.01.2021
3228 Clear 26 1008 69 10000 2.06 120 07:45 28.01.2021
3229 Clear 26 1008 69 10000 2.06 100 06:51 28.01.2021
3230 Clear 26 1008 69 10000 2.06 100 06:31 28.01.2021
3231 Clear 27 1009 69 10000 0.51 140 04:30 28.01.2021
3232 Clear 31 1008 62 10000 1.54 200 01:41 28.01.2021
3233 Clear 33 1007 55 10000 4.12 170 23:56 27.01.2021
3234 Clear 34 1007 55 10000 4.12 170 23:24 27.01.2021
3235 Clear 35 1007 46 10000 3.09 210 22:44 27.01.2021
3236 Clear 35 1007 46 10000 3.09 210 22:25 27.01.2021
3237 Clouds 35 1007 58 10000 3.6 160 21:44 27.01.2021
3238 Clouds 35 1007 58 10000 3.6 160 21:24 27.01.2021
3239 Clouds 36 1008 49 10000 3.6 150 20:55 27.01.2021
3240 Clouds 36 1008 49 10000 3.6 150 20:31 27.01.2021
3241 Clouds 36 1009 49 10000 4.12 150 19:57 27.01.2021
3242 Clouds 36 1009 49 10000 4.12 150 19:37 27.01.2021
3243 Clouds 36 1009 49 10000 4.12 150 19:18 27.01.2021
3244 Clouds 36 1009 46 10000 3.09 150 18:41 27.01.2021
3245 Clouds 36 1009 46 10000 3.09 150 18:22 27.01.2021
3246 Clouds 37 1010 49 10000 1.54 0 17:44 27.01.2021
3247 Clouds 36 1010 49 10000 1.54 0 17:18 27.01.2021
3248 Clear 36 1011 46 10000 3.6 10 16:47 27.01.2021
3249 Clear 36 1011 46 10000 3.6 10 16:28 27.01.2021
3250 Clear 36 1011 46 10000 3.6 10 16:28 27.01.2021
3251 Clear 35 1012 58 10000 2.06 30 15:50 27.01.2021
3252 Clear 34 1012 58 10000 2.06 30 15:30 27.01.2021
3253 Clear 33 1012 66 10000 2.06 20 14:42 27.01.2021
3254 Clear 32 1012 66 10000 3.6 10 14:22 27.01.2021
3255 Clear 32 1012 66 10000 3.6 10 13:43 27.01.2021
3256 Clear 30 1011 74 10000 3.6 350 12:58 27.01.2021
3257 Clear 30 1011 74 10000 3.6 350 12:38 27.01.2021
3258 Clear 28 1011 74 10000 3.09 340 12:18 27.01.2021
3259 Clear 28 1011 74 10000 3.09 340 11:41 27.01.2021
3260 Clear 25 1011 78 10000 2.06 320 11:21 27.01.2021
3261 Clear 24 1011 78 10000 2.06 320 10:39 27.01.2021
3262 Clear 25 1011 78 10000 2.21 14 10:19 27.01.2021
3263 Clear 25 1010 78 10000 1.03 160 09:41 27.01.2021
3264 Clear 25 1010 78 10000 1.03 120 08:57 27.01.2021
3265 Clear 26 1010 78 10000 1.03 120 08:31 27.01.2021
3266 Clear 26 1010 73 10000 1.03 120 07:43 27.01.2021
3267 Clear 26 1011 73 10000 1.54 110 06:58 27.01.2021
3268 Clear 26 1011 73 10000 1.54 110 06:19 27.01.2021
3269 Clear 27 1011 69 10000 2.57 100 05:43 27.01.2021
3270 Rain 28 1011 74 10000 2.35 39 03:34 27.01.2021
3271 Clear 29 1011 65 10000 1.03 120 02:23 27.01.2021
3272 Clear 29 1011 65 10000 1.03 120 01:50 27.01.2021
3273 Clear 30 1010 65 10000 2.06 160 00:34 27.01.2021
3274 Clear 30 1010 65 10000 3.6 170 23:49 26.01.2021
3275 Clear 30 1010 65 10000 3.6 170 23:30 26.01.2021
3276 Clouds 31 1010 61 10000 4.63 170 22:50 26.01.2021
3277 Clouds 31 1010 61 10000 4.63 170 22:24 26.01.2021
3278 Clouds 31 1010 65 10000 5.66 160 21:54 26.01.2021
3279 Clouds 32 1010 65 10000 5.66 160 21:34 26.01.2021
3280 Clouds 32 1010 69 10000 6.17 180 20:58 26.01.2021
3281 Clouds 32 1010 69 10000 6.17 180 20:40 26.01.2021
3282 Clouds 32 1010 69 10000 6.17 180 20:21 26.01.2021
3283 Clouds 32 1011 62 10000 7.2 180 19:46 26.01.2021
3284 Clouds 32 1011 62 10000 7.2 180 19:24 26.01.2021
3285 Clouds 32 1011 65 10000 6.17 170 18:49 26.01.2021
3286 Clouds 32 1011 65 10000 6.17 170 18:28 26.01.2021
3287 Clouds 31 1012 74 10000 6.69 160 17:55 26.01.2021
3288 Clouds 31 1012 74 10000 6.69 160 17:37 26.01.2021
3289 Clouds 31 1012 69 10000 5.66 150 16:56 26.01.2021
3290 Clouds 32 1012 69 10000 5.66 150 16:37 26.01.2021
3291 Clouds 32 1012 69 10000 5.66 150 16:19 26.01.2021
3292 Clouds 32 1013 74 10000 5.14 150 15:46 26.01.2021
3293 Clouds 32 1013 74 10000 5.14 150 15:26 26.01.2021
3294 Clear 31 1013 74 10000 4.63 140 14:48 26.01.2021
3295 Clear 30 1013 74 10000 4.63 140 14:29 26.01.2021
3296 Rain 29 1013 78 10000 3.09 140 13:37 26.01.2021
3297 Clear 29 1013 78 10000 3.09 140 13:18 26.01.2021
3298 Clear 28 1013 83 10000 2.57 140 12:43 26.01.2021
3299 Clear 27 1013 83 10000 2.57 140 12:24 26.01.2021
3300 Clear 27 1012 74 10000 1.03 0 11:54 26.01.2021
3301 Clear 27 1012 74 10000 1.03 0 11:33 26.01.2021
3302 Clear 25 1011 78 10000 1.54 90 10:45 26.01.2021
3303 Clear 25 1011 78 10000 1.54 90 10:26 26.01.2021
3304 Clear 25 1011 78 10000 2.57 100 09:42 26.01.2021
3305 Clear 25 1011 78 10000 2.57 100 09:23 26.01.2021
3306 Clear 26 1011 69 10000 1.54 70 08:50 26.01.2021
3307 Clear 26 1011 69 10000 1.54 70 08:24 26.01.2021
3308 Clear 26 1011 78 10000 1.54 90 07:39 26.01.2021
3309 Clear 27 1011 69 10000 2.57 110 05:59 26.01.2021
3310 Clear 27 1011 69 10000 2.57 110 05:41 26.01.2021
3311 Clear 28 1011 69 10000 1.03 0 04:23 26.01.2021
3312 Clear 29 1011 74 10000 3.6 70 02:21 26.01.2021
3313 Clear 30 1010 69 10000 2.06 160 00:54 26.01.2021
3314 Clear 31 1009 62 10000 3.6 180 23:36 25.01.2021
3315 Clear 32 1008 58 10000 5.14 180 22:57 25.01.2021
3316 Clear 33 1008 58 10000 5.14 180 22:36 25.01.2021
3317 Clouds 33 1009 58 10000 5.14 180 21:50 25.01.2021
3318 Clouds 33 1009 58 10000 5.14 180 21:28 25.01.2021
3319 Clouds 33 1009 58 10000 5.66 190 20:52 25.01.2021
3320 Clouds 34 1009 58 10000 5.66 190 20:33 25.01.2021
3321 Clouds 32 1010 62 10000 5.66 180 19:51 25.01.2021
3322 Clouds 33 1010 62 10000 5.66 180 19:31 25.01.2021
3323 Clouds 32 1010 65 10000 5.14 160 18:49 25.01.2021
3324 Clouds 33 1010 65 10000 5.14 160 18:28 25.01.2021
3325 Clear 32 1011 61 10000 5.14 160 17:58 25.01.2021
3326 Clear 32 1011 61 10000 5.14 160 17:40 25.01.2021
3327 Clear 32 1011 61 10000 5.14 160 17:22 25.01.2021
3328 Clear 32 1012 62 10000 3.09 150 16:41 25.01.2021
3329 Clear 32 1012 62 10000 3.09 150 16:22 25.01.2021
3330 Clear 32 1012 65 10000 3.6 150 15:49 25.01.2021
3331 Clear 33 1012 58 10000 2.57 10 15:29 25.01.2021
3332 Clear 30 1012 69 10000 2.06 20 14:50 25.01.2021
3333 Clear 29 1012 69 10000 2.06 20 14:20 25.01.2021
3334 Clear 29 1013 74 10000 2.06 330 13:54 25.01.2021
3335 Clear 29 1013 74 10000 2.06 330 13:54 25.01.2021
3336 Clear 29 1013 74 10000 2.06 330 13:34 25.01.2021
3337 Clear 27 1013 73 10000 1.54 10 12:46 25.01.2021
3338 Clear 27 1013 73 10000 1.54 10 12:24 25.01.2021
3339 Clear 25 1012 78 10000 1.03 20 11:55 25.01.2021
3340 Clear 25 1012 78 10000 1.03 20 11:20 25.01.2021
3341 Clear 24 1012 78 10000 1.03 20 10:43 25.01.2021
3342 Clear 25 1012 78 10000 1.03 20 10:20 25.01.2021
3343 Clear 25 1012 83 10000 1.54 90 09:46 25.01.2021
3344 Clear 24 1012 83 10000 1.54 90 09:28 25.01.2021
3345 Clear 24 1011 88 10000 2.06 70 08:32 25.01.2021
3346 Clear 25 1011 83 10000 2.06 110 07:46 25.01.2021
3347 Clear 25 1011 83 10000 2.06 110 07:26 25.01.2021
3348 Clear 25 1011 83 10000 1.03 90 06:23 25.01.2021
3349 Clear 27 1012 69 10000 4.12 100 01:35 25.01.2021
3350 Clear 28 1012 69 10000 4.12 110 00:31 25.01.2021
3351 Clear 29 1012 69 10000 3.09 160 23:20 24.01.2021
3352 Clear 29 1011 69 10000 5.14 180 22:47 24.01.2021
3353 -273 0 0 0 0 0 22:27 24.01.2021
3354 Clear 30 1011 69 10000 5.14 180 22:27 24.01.2021
3355 Clear 30 1011 69 10000 5.14 180 22:27 24.01.2021
3356 Clear 30 1011 69 10000 5.14 180 22:27 24.01.2021
3357 Clouds 31 1011 74 10000 6.69 180 21:51 24.01.2021
3358 Clouds 31 1011 74 10000 6.69 180 21:27 24.01.2021
3359 Clouds 31 1011 70 10000 4.63 180 20:46 24.01.2021
3360 Clouds 31 1011 70 10000 4.63 180 20:23 24.01.2021
3361 Clouds 31 1011 70 10000 4.63 180 20:23 24.01.2021
3362 Clouds 32 1012 58 10000 5.14 150 19:57 24.01.2021
3363 Clouds 32 1012 58 10000 5.14 150 19:38 24.01.2021
3364 Rain 31 1012 58 10000 5.14 150 19:19 24.01.2021
3365 Clouds 31 1013 61 10000 5.66 150 18:41 24.01.2021
3366 Clouds 31 1013 61 10000 5.66 150 18:21 24.01.2021
3367 Clouds 31 1013 61 10000 5.66 160 17:57 24.01.2021
3368 Clouds 31 1013 61 10000 5.66 160 17:38 24.01.2021
3369 Clouds 31 1013 61 10000 5.66 160 17:18 24.01.2021
3370 Clouds 32 1014 65 10000 4.12 160 16:41 24.01.2021
3371 Clouds 31 1014 65 10000 4.12 160 16:20 24.01.2021
3372 Clear 31 1015 65 10000 2.57 110 15:45 24.01.2021
3373 Clear 31 1015 65 10000 2.57 110 15:20 24.01.2021
3374 Clear 29 1015 57 10000 2.57 320 14:56 24.01.2021
3375 Clear 29 1015 57 10000 2.57 320 14:32 24.01.2021
3376 Clear 28 1015 69 10000 2.57 330 13:36 24.01.2021
3377 Clear 27 1015 65 10000 1.54 350 12:55 24.01.2021
3378 Clear 27 1015 65 10000 1.54 350 12:36 24.01.2021
3379 Clear 26 1015 65 10000 1.54 350 12:18 24.01.2021
3380 Clear 26 1015 73 10000 1.54 20 11:43 24.01.2021
3381 Clear 25 1015 73 10000 1.54 20 11:22 24.01.2021
3382 Clear 24 1014 73 10000 2.01 38 10:35 24.01.2021
3383 Clear 24 1014 78 10000 1.54 100 09:50 24.01.2021
3384 Clear 24 1014 78 10000 1.54 100 09:22 24.01.2021
3385 Clear 23 1014 78 10000 2.06 110 08:51 24.01.2021
3386 Clear 25 1015 73 10000 2.06 130 05:18 24.01.2021
3387 Clouds 27 1015 69 10000 4.12 100 02:21 24.01.2021
3388 Clouds 28 1014 65 10000 4.12 90 00:58 24.01.2021
3389 Clouds 28 1014 65 10000 4.12 90 00:23 24.01.2021
3390 Clouds 29 1014 65 10000 5.14 80 23:46 23.01.2021
3391 Clouds 30 1014 65 10000 5.14 80 23:22 23.01.2021
3392 Clouds 30 1014 66 10000 2.57 140 22:41 23.01.2021
3393 Clouds 31 1014 66 10000 2.57 140 22:21 23.01.2021
3394 Clouds 31 1014 66 10000 2.57 140 22:21 23.01.2021
3395 Clouds 32 1013 66 10000 7.2 110 21:48 23.01.2021
3396 Clouds 32 1013 66 10000 7.2 110 21:21 23.01.2021
3397 Clouds 32 1013 66 10000 6.17 130 20:43 23.01.2021
3398 Clouds 32 1013 66 10000 6.17 130 20:21 23.01.2021
3399 Clouds 32 1014 62 10000 5.66 150 19:46 23.01.2021
3400 Clouds 32 1014 62 10000 5.66 150 19:20 23.01.2021
3401 Clouds 32 1015 58 10000 4.63 160 18:46 23.01.2021
3402 Clouds 32 1015 58 10000 4.63 160 18:25 23.01.2021
3403 Clouds 32 1015 65 10000 6.69 160 17:45 23.01.2021
3404 Clouds 32 1015 65 10000 6.69 160 17:26 23.01.2021
3405 Clouds 31 1016 74 10000 6.17 160 16:48 23.01.2021
3406 Clouds 31 1016 74 10000 6.17 160 16:25 23.01.2021
3407 Clear 31 1017 74 10000 5.66 150 15:40 23.01.2021
3408 Clear 31 1017 74 10000 5.66 150 15:21 23.01.2021
3409 Clear 31 1017 65 10000 2.57 120 14:32 23.01.2021
3410 Clear 29 1017 74 10000 2.57 320 13:54 23.01.2021
3411 Clear 29 1017 74 10000 2.57 320 13:35 23.01.2021
3412 Clear 29 1017 74 10000 2.57 320 13:35 23.01.2021
3413 Clear 28 1017 74 10000 3.09 330 12:57 23.01.2021
3414 Clear 28 1017 74 10000 3.09 330 12:28 23.01.2021
3415 Clear 26 1017 83 10000 2.06 30 11:47 23.01.2021
3416 Clear 26 1017 83 10000 2.06 30 11:27 23.01.2021
3417 Clear 25 1017 83 10000 2.57 30 10:50 23.01.2021
3418 Clear 25 1017 83 10000 2.57 30 10:21 23.01.2021
3419 Clear 24 1017 88 10000 2.06 110 09:47 23.01.2021
3420 Clouds 25 1016 94 10000 2.57 110 08:56 23.01.2021
3421 Clouds 25 1016 94 10000 2.57 110 08:31 23.01.2021
3422 Clouds 25 1016 94 10000 2.57 100 07:25 23.01.2021
3423 Clouds 27 1017 78 10000 4.12 190 03:36 23.01.2021
3424 Clouds 28 1016 78 10000 2.06 140 00:54 23.01.2021
3425 Clouds 28 1016 83 10000 4.12 30 23:41 22.01.2021
3426 Clouds 29 1016 83 10000 4.12 30 23:18 22.01.2021
3427 Clouds 29 1016 78 10000 4.63 360 22:38 22.01.2021
3428 Clouds 30 1016 65 10000 3.09 180 21:47 22.01.2021
3429 Clouds 30 1016 65 10000 3.09 180 21:29 22.01.2021
3430 Clouds 31 1015 58 10000 0.51 90 20:57 22.01.2021
3431 Clouds 31 1015 58 10000 0.51 90 20:38 22.01.2021
3432 Clouds 30 1016 74 10000 7.72 170 19:56 22.01.2021
3433 Clouds 30 1016 74 10000 7.72 170 19:25 22.01.2021
3434 Clouds 31 1016 74 10000 7.72 180 18:59 22.01.2021
3435 Clouds 31 1016 74 10000 7.72 180 18:39 22.01.2021
3436 Clouds 30 1016 74 10000 7.72 180 18:20 22.01.2021
3437 Clouds 30 1017 74 10000 7.72 170 17:43 22.01.2021
3438 Clouds 30 1017 74 10000 7.72 170 17:20 22.01.2021
3439 Clouds 31 1017 74 10000 6.17 160 16:39 22.01.2021
3440 Clouds 31 1017 74 10000 6.17 160 16:20 22.01.2021
3441 Clouds 31 1018 78 10000 6.69 160 15:28 22.01.2021
3442 Clouds 30 1018 74 10000 2.57 140 14:58 22.01.2021
3443 Clouds 30 1018 74 10000 2.57 140 14:30 22.01.2021
3444 Clouds 30 1018 74 10000 2.57 140 14:30 22.01.2021
3445 Clouds 30 1018 69 10000 1.03 0 13:47 22.01.2021
3446 Clouds 30 1018 69 10000 1.03 0 13:28 22.01.2021
3447 Clouds 28 1017 74 10000 2.06 40 12:46 22.01.2021
3448 Clouds 27 1017 74 10000 2.06 40 12:22 22.01.2021
3449 Clouds 27 1017 78 10000 2.06 50 11:46 22.01.2021
3450 Clouds 24 1017 83 10000 2.06 40 10:56 22.01.2021
3451 Clouds 24 1017 83 10000 2.06 40 10:35 22.01.2021
3452 Clouds 25 1017 83 10000 2.06 40 09:59 22.01.2021
3453 Clouds 25 1016 83 10000 1.03 110 09:29 22.01.2021
3454 Clouds 25 1016 83 10000 1.54 110 08:51 22.01.2021
3455 Clouds 25 1016 83 10000 1.54 110 08:27 22.01.2021
3456 Clear 25 1015 83 10000 2.06 130 07:36 22.01.2021
3457 Clear 26 1015 83 10000 3.09 170 03:40 22.01.2021
3458 Clouds 28 1014 78 10000 6.69 190 00:41 22.01.2021
3459 Clouds 28 1013 74 10000 6.69 190 23:56 21.01.2021
3460 Clouds 28 1013 74 10000 6.69 190 23:38 21.01.2021
3461 Clouds 29 1013 69 10000 8.23 200 22:56 21.01.2021
3462 Clouds 29 1013 69 10000 8.23 200 22:38 21.01.2021
3463 Clouds 30 1013 69 10000 7.72 190 21:44 21.01.2021
3464 Clouds 30 1013 69 10000 7.72 190 21:44 21.01.2021
3465 Clouds 30 1013 69 10000 7.72 190 21:22 21.01.2021
3466 Clouds 31 1013 65 10000 8.23 190 20:55 21.01.2021
3467 Clouds 31 1013 65 10000 8.23 190 20:36 21.01.2021
3468 Clouds 31 1013 65 10000 8.23 190 20:18 21.01.2021
3469 Clouds 31 1013 74 10000 7.2 170 19:43 21.01.2021
3470 Clouds 31 1013 74 10000 7.2 170 19:23 21.01.2021
3471 Clouds 30 1014 78 10000 6.69 170 18:41 21.01.2021
3472 Clouds 30 1014 78 10000 6.69 170 18:21 21.01.2021
3473 Clouds 30 1014 78 10000 6.69 160 17:57 21.01.2021
3474 Clouds 30 1014 78 10000 6.69 160 17:21 21.01.2021
3475 Clouds 31 1014 74 10000 5.66 160 16:54 21.01.2021
3476 Clouds 31 1014 74 10000 5.66 160 16:36 21.01.2021
3477 Clouds 30 1014 74 10000 5.66 160 16:18 21.01.2021
3478 Clouds 30 1015 78 10000 5.66 160 15:45 21.01.2021
3479 Clouds 29 1015 78 10000 5.66 160 15:22 21.01.2021
3480 Clouds 29 1015 78 10000 4.12 140 14:39 21.01.2021
3481 Clouds 29 1015 78 10000 4.12 140 14:21 21.01.2021
3482 Clouds 28 1015 83 10000 3.09 140 13:42 21.01.2021
3483 Clouds 28 1015 83 10000 3.09 140 13:22 21.01.2021
3484 Clouds 28 1015 78 10000 1.03 130 12:42 21.01.2021
3485 Clouds 28 1015 78 10000 1.03 130 12:23 21.01.2021
3486 Clear 26 1015 83 10000 2.06 140 11:51 21.01.2021
3487 Clear 26 1015 83 10000 2.06 140 11:28 21.01.2021
3488 Clear 23 1014 88 10000 2.57 170 10:52 21.01.2021
3489 Clear 23 1014 88 10000 2.57 170 10:33 21.01.2021
3490 Clear 25 1013 83 10000 1.54 70 09:45 21.01.2021
3491 Clear 25 1013 83 10000 1.54 70 09:25 21.01.2021
3492 Clear 25 1013 83 10000 1.54 70 09:25 21.01.2021
3493 Clear 25 1013 83 10000 0.71 7 08:48 21.01.2021
3494 Clear 25 1013 83 10000 1.02 295 08:25 21.01.2021
3495 Clear 26 1013 73 10000 1.03 0 07:43 21.01.2021
3496 Clear 26 1013 73 10000 1.03 0 07:20 21.01.2021
3497 Clear 26 1013 78 10000 1.54 60 05:24 21.01.2021
3498 Clear 26 1013 83 10000 4.12 160 02:59 21.01.2021
3499 Clear 27 1013 78 10000 3.09 160 01:21 21.01.2021
3500 Clouds 27 1012 74 10000 3.6 180 00:40 21.01.2021
3501 Clouds 29 1011 65 10000 3.6 190 23:39 20.01.2021
3502 Clouds 29 1011 65 10000 3.6 190 23:21 20.01.2021
3503 Clouds 30 1011 69 10000 7.2 190 22:48 20.01.2021
3504 Clouds 30 1011 69 10000 7.2 190 22:28 20.01.2021
3505 Clouds 31 1010 61 10000 7.72 190 21:43 20.01.2021
3506 Clouds 31 1010 61 10000 7.72 190 21:22 20.01.2021
3507 Clouds 31 1011 65 10000 6.69 180 20:50 20.01.2021
3508 Clouds 31 1011 65 10000 6.69 180 20:21 20.01.2021
3509 Clouds 31 1011 61 10000 6.69 170 19:47 20.01.2021
3510 Clouds 31 1011 61 10000 6.69 170 19:27 20.01.2021
3511 Clouds 31 1012 58 10000 6.69 170 18:42 20.01.2021
3512 Clouds 31 1012 58 10000 6.69 170 18:20 20.01.2021
3513 Clouds 31 1012 69 10000 6.17 150 17:43 20.01.2021
3514 Clouds 31 1012 69 10000 6.17 150 17:24 20.01.2021
3515 Clouds 30 1013 74 10000 6.17 150 16:45 20.01.2021
3516 Clouds 30 1013 74 10000 6.17 150 16:20 20.01.2021
3517 Clouds 31 1014 78 10000 4.63 150 15:38 20.01.2021
3518 Clouds 29 1014 78 10000 3.6 150 14:57 20.01.2021
3519 Clouds 29 1014 78 10000 3.6 150 14:38 20.01.2021
3520 Clouds 28 1014 78 10000 3.6 150 14:18 20.01.2021
3521 Clouds 29 1014 78 10000 1.03 120 13:36 20.01.2021
3522 Clouds 27 1014 83 10000 1.54 140 12:55 20.01.2021
3523 Clouds 26 1014 83 10000 1.54 140 12:22 20.01.2021
3524 Clouds 25 1014 88 10000 0.52 120 11:40 20.01.2021
3525 Clouds 25 1014 88 10000 0.11 193 11:20 20.01.2021
3526 Clouds 24 1013 100 10000 1.03 180 10:46 20.01.2021
3527 Clouds 24 1013 100 10000 1.03 180 10:25 20.01.2021
3528 Clouds 26 1013 78 10000 3.09 270 09:38 20.01.2021
3529 Clouds 26 1013 78 10000 3.09 270 09:19 20.01.2021
3530 Clouds 26 1013 78 10000 3.6 230 08:41 20.01.2021
3531 Clouds 26 1013 78 10000 3.6 230 08:21 20.01.2021
3532 Clouds 26 1013 78 10000 3.6 270 07:48 20.01.2021
3533 Clouds 26 1013 78 10000 3.6 270 07:18 20.01.2021
3534 Clear 25 1013 88 10000 6.17 160 04:29 20.01.2021
3535 Clear 26 1013 88 10000 5.14 140 02:34 20.01.2021
3536 Clear 27 1012 69 10000 3.6 170 00:58 20.01.2021
3537 Clear 27 1012 83 10000 5.14 180 23:54 19.01.2021
3538 Clear 27 1012 83 10000 5.14 180 23:35 19.01.2021
3539 Clouds 27 1011 88 10000 7.72 150 22:59 19.01.2021
3540 Clouds 27 1011 88 10000 7.72 150 22:40 19.01.2021
3541 Clouds 27 1011 88 10000 7.72 150 22:21 19.01.2021
3542 Clouds 28 1011 83 10000 8.75 160 21:55 19.01.2021
3543 Clouds 28 1011 83 10000 8.75 160 21:35 19.01.2021
3544 Clouds 28 1011 83 10000 7.2 150 20:50 19.01.2021
3545 Clouds 29 1011 83 10000 7.2 150 20:30 19.01.2021
3546 Clouds 29 1011 74 10000 7.72 150 19:56 19.01.2021
3547 Clouds 30 1011 74 10000 7.72 150 19:37 19.01.2021
3548 Clouds 30 1011 74 10000 7.72 150 19:19 19.01.2021
3549 Clouds 30 1011 78 10000 7.72 140 18:39 19.01.2021
3550 Clouds 30 1011 78 10000 7.72 140 18:20 19.01.2021
3551 Clouds 31 1012 78 10000 7.72 140 17:44 19.01.2021
3552 Clouds 31 1012 78 10000 7.72 140 17:22 19.01.2021
3553 Clouds 31 1012 74 10000 6.69 130 16:41 19.01.2021
3554 Clouds 32 1012 74 10000 6.69 130 16:23 19.01.2021
3555 Clouds 33 1012 70 10000 4.63 150 15:52 19.01.2021
3556 Clouds 33 1012 70 10000 4.63 150 15:33 19.01.2021
3557 Clear 31 1012 70 10000 4.63 140 14:49 19.01.2021
3558 Clear 32 1012 70 10000 4.63 140 14:28 19.01.2021
3559 Clear 30 1012 74 10000 4.12 150 13:52 19.01.2021
3560 Clear 30 1012 74 10000 4.12 150 13:52 19.01.2021
3561 Clear 30 1012 74 10000 4.12 150 13:28 19.01.2021
3562 Clear 28 1012 78 10000 2.06 130 12:58 19.01.2021
3563 Clear 28 1012 78 10000 2.06 130 12:34 19.01.2021
3564 Clear 28 1011 83 10000 2.57 150 11:57 19.01.2021
3565 Clear 27 1011 83 10000 2.57 150 11:37 19.01.2021
3566 Clear 26 1011 83 10000 2.57 150 11:19 19.01.2021
3567 Clear 24 1011 88 10000 2.06 130 10:41 19.01.2021
3568 Clear 25 1011 88 10000 2.06 130 10:19 19.01.2021
3569 Clouds 27 1011 83 10000 3.6 90 09:46 19.01.2021
3570 Clouds 27 1011 83 10000 3.6 90 09:20 19.01.2021
3571 Clear 27 1010 83 10000 3.6 70 08:34 19.01.2021
3572 Clear 28 1010 73 10000 2.06 60 07:53 19.01.2021
3573 Clear 27 1010 73 10000 2.06 60 07:18 19.01.2021
3574 Clear 29 1010 69 10000 1.54 250 04:48 19.01.2021
3575 Clear 28 1010 83 10000 1.03 0 02:23 19.01.2021
3576 Clear 31 1010 51 10000 3.6 190 00:41 19.01.2021
3577 Clear 31 1009 58 10000 5.14 180 23:57 18.01.2021
3578 Clear 30 1009 58 10000 5.14 180 23:28 18.01.2021
3579 Clear 30 1008 61 10000 6.17 160 22:44 18.01.2021
3580 Clear 30 1008 61 10000 6.17 160 22:23 18.01.2021
3581 Clouds 33 1008 54 10000 6.17 160 21:48 18.01.2021
3582 Clouds 34 1008 54 10000 6.17 160 21:23 18.01.2021
3583 Clouds 34 1008 51 10000 6.69 160 20:57 18.01.2021
3584 Clouds 34 1008 51 10000 6.69 160 20:34 18.01.2021
3585 Clouds 35 1009 49 10000 7.2 170 19:54 18.01.2021
3586 Clouds 35 1009 49 10000 7.2 170 19:35 18.01.2021
3587 Clouds 36 1009 49 10000 4.63 170 18:53 18.01.2021
3588 Clouds 36 1009 49 10000 4.63 170 18:33 18.01.2021
3589 Clear 36 1009 49 10000 2.57 160 17:52 18.01.2021
3590 Clear 36 1009 52 10000 4.12 30 17:32 18.01.2021
3591 Clear 35 1009 52 10000 4.63 40 16:55 18.01.2021
3592 Clear 35 1009 52 10000 4.63 40 16:35 18.01.2021
3593 Clear 35 1010 52 10000 2.57 30 15:58 18.01.2021
3594 Clear 36 1010 52 10000 2.57 30 15:40 18.01.2021
3595 Clear 35 1010 52 10000 2.57 30 15:19 18.01.2021
3596 Clear 34 1010 48 10000 3.09 330 14:42 18.01.2021
3597 Clear 34 1010 48 10000 3.09 330 14:24 18.01.2021
3598 Clear 32 1010 62 10000 3.09 20 13:45 18.01.2021
3599 Clear 32 1010 62 10000 3.09 20 13:24 18.01.2021
3600 Clear 31 1009 62 10000 3.6 350 12:49 18.01.2021
3601 Clear 30 1009 62 10000 3.6 350 12:19 18.01.2021
3602 Clear 29 1009 69 10000 2.06 10 11:48 18.01.2021
3603 Clear 29 1009 69 10000 2.06 10 11:27 18.01.2021
3604 Clear 26 1009 74 10000 1.54 20 10:53 18.01.2021
3605 Clear 26 1009 74 10000 1.54 20 10:35 18.01.2021
3606 Clear 27 1009 73 10000 2.57 150 09:43 18.01.2021
3607 Clear 27 1009 73 10000 2.57 150 09:19 18.01.2021
3608 Clear 27 1008 69 10000 1.54 80 08:47 18.01.2021
3609 Clear 27 1008 69 10000 1.54 100 07:55 18.01.2021
3610 Clear 27 1009 65 10000 2.06 120 06:56 18.01.2021
3611 Clear 28 1009 69 10000 2.57 130 04:58 18.01.2021
3612 Clear 28 1009 69 10000 2.06 100 04:31 18.01.2021
3613 Clear 29 1009 69 10000 2.06 100 03:57 18.01.2021
3614 Clear 29 1009 69 10000 2.06 100 03:38 18.01.2021
3615 Clear 29 1009 69 10000 2.06 100 03:18 18.01.2021
3616 Clear 29 1009 65 10000 1.03 0 02:27 18.01.2021
3617 Clear 31 1007 66 10000 4.12 60 00:43 18.01.2021
3618 Clear 31 1007 66 10000 4.12 60 00:23 18.01.2021
3619 Clouds 32 1007 58 10000 3.6 80 23:44 17.01.2021
3620 Clouds 33 1007 58 10000 3.6 80 23:20 17.01.2021
3621 Clouds 33 1006 55 10000 2.57 170 22:28 17.01.2021
3622 Clouds 35 1006 51 10000 4.12 180 21:59 17.01.2021
3623 Clouds 35 1006 51 10000 4.12 180 21:39 17.01.2021
3624 Clouds 35 1006 51 10000 4.12 180 21:21 17.01.2021
3625 Clouds 34 1006 58 10000 5.66 160 20:47 17.01.2021
3626 Clouds 34 1006 58 10000 5.66 160 20:47 17.01.2021
3627 Clouds 35 1006 58 10000 5.66 160 20:25 17.01.2021
3628 Clouds 36 1007 55 10000 4.63 160 19:42 17.01.2021
3629 Clouds 35 1007 55 10000 4.63 160 19:22 17.01.2021
3630 Clouds 35 1008 52 10000 3.09 150 18:41 17.01.2021
3631 Clouds 35 1008 52 10000 3.09 150 18:21 17.01.2021
3632 Clouds 35 1009 52 10000 2.06 0 17:47 17.01.2021
3633 Clouds 35 1009 52 10000 2.06 0 17:26 17.01.2021
3634 Clouds 34 1009 55 10000 2.57 140 16:44 17.01.2021
3635 Clouds 34 1009 55 10000 2.57 140 16:20 17.01.2021
3636 Clear 35 1010 55 10000 1.54 0 15:43 17.01.2021
3637 Clear 34 1010 55 10000 1.54 0 15:24 17.01.2021
3638 Clear 33 1011 55 10000 1.54 20 14:49 17.01.2021
3639 Clear 33 1011 55 10000 1.54 20 14:26 17.01.2021
3640 Clear 32 1011 58 10000 2.06 320 13:45 17.01.2021
3641 Clear 32 1011 58 10000 2.06 320 13:27 17.01.2021
3642 Clear 30 1011 61 10000 1.54 40 12:53 17.01.2021
3643 Clear 30 1011 61 10000 1.54 40 12:31 17.01.2021
3644 Clear 29 1011 74 10000 1.03 20 11:59 17.01.2021
3645 Clear 29 1011 74 10000 1.03 20 11:24 17.01.2021
3646 Clear 25 1010 83 10000 1.03 50 10:48 17.01.2021
3647 Clear 25 1010 83 10000 1.03 50 10:21 17.01.2021
3648 Clear 26 1010 78 10000 1.03 120 09:42 17.01.2021
3649 Clear 25 1009 78 10000 1.54 100 08:46 17.01.2021
3650 Clear 26 1009 73 10000 1.03 140 06:57 17.01.2021
3651 Clear 27 1009 74 10000 1.03 50 04:28 17.01.2021
3652 Clear 28 1009 69 10000 1.03 90 02:48 17.01.2021
3653 Clouds 29 1008 65 10000 2.57 60 00:51 17.01.2021
3654 Clouds 30 1008 65 10000 2.57 60 00:20 17.01.2021
3655 Clouds 30 1008 62 10000 3.6 90 23:51 16.01.2021
3656 Clouds 31 1008 62 10000 3.6 90 23:20 16.01.2021
3657 Clouds 32 1007 62 10000 2.06 150 22:45 16.01.2021
3658 Clouds 33 1007 66 10000 6.17 140 21:59 16.01.2021
3659 Clouds 33 1007 66 10000 6.17 140 21:40 16.01.2021
3660 Clouds 33 1007 66 10000 6.17 140 21:20 16.01.2021
3661 Clouds 34 1008 62 10000 4.63 150 20:45 16.01.2021
3662 Clouds 34 1008 62 10000 4.63 150 20:22 16.01.2021
3663 Clouds 34 1009 58 10000 7.2 160 19:48 16.01.2021
3664 Clouds 34 1009 58 10000 7.2 160 19:29 16.01.2021
3665 Clouds 33 1009 70 10000 6.17 160 18:44 16.01.2021
3666 Clouds 33 1009 70 10000 6.17 160 18:26 16.01.2021
3667 Clouds 34 1010 66 10000 5.14 150 17:49 16.01.2021
3668 Clouds 34 1010 66 10000 5.14 150 17:30 16.01.2021
3669 Clouds 34 1011 62 10000 5.14 150 16:50 16.01.2021
3670 Clouds 34 1011 62 10000 5.14 150 16:31 16.01.2021
3671 Clouds 33 1011 62 10000 2.06 120 15:54 16.01.2021
3672 Clouds 33 1011 62 10000 2.06 120 15:33 16.01.2021
3673 Clouds 32 1012 62 10000 2.06 360 14:31 16.01.2021
3674 Clouds 30 1012 69 10000 2.06 10 13:50 16.01.2021
3675 Clouds 30 1012 69 10000 2.06 10 13:30 16.01.2021
3676 Clouds 29 1011 74 10000 1.54 110 12:47 16.01.2021
3677 Clouds 28 1011 74 10000 1.54 110 12:22 16.01.2021
3678 Clouds 27 1011 78 10000 1.54 150 11:55 16.01.2021
3679 Clouds 27 1011 78 10000 1.54 150 11:26 16.01.2021
3680 Clear 24 1011 78 10000 1.54 170 10:50 16.01.2021
3681 Clear 24 1011 78 10000 1.54 170 10:30 16.01.2021
3682 Clear 24 1011 78 10000 3.09 130 09:50 16.01.2021
3683 Clear 25 1011 78 10000 3.09 130 09:19 16.01.2021
3684 Clear 25 1010 78 10000 2.57 100 08:18 16.01.2021
3685 Clear 25 1010 78 10000 2.57 130 06:44 16.01.2021
3686 Clear 26 1011 78 10000 3.6 110 04:52 16.01.2021
3687 Clouds 27 1011 78 10000 3.09 70 02:59 16.01.2021
3688 Clouds 27 1011 78 10000 3.09 70 02:37 16.01.2021
3689 Clouds 28 1010 74 10000 3.09 180 00:45 16.01.2021
3690 Clouds 28 1010 74 10000 3.09 180 00:20 16.01.2021
3691 Clouds 28 1010 74 10000 4.63 200 23:30 15.01.2021
3692 Clouds 29 1009 74 10000 6.17 170 22:38 15.01.2021
3693 Clouds 29 1009 74 10000 6.17 170 22:18 15.01.2021
3694 Rain 30 1009 65 10000 7.2 200 21:42 15.01.2021
3695 Rain 31 1009 70 10000 6.17 170 20:48 15.01.2021
3696 Clouds 32 1009 70 10000 6.17 170 20:23 15.01.2021
3697 Clouds 30 1010 69 10000 6.69 180 19:48 15.01.2021
3698 Clouds 31 1010 69 10000 6.69 180 19:28 15.01.2021
3699 Clouds 30 1011 74 10000 6.69 160 18:47 15.01.2021
3700 Clouds 30 1011 74 10000 6.69 160 18:20 15.01.2021
3701 Clouds 30 1012 74 10000 6.17 150 17:59 15.01.2021
3702 Clouds 30 1012 74 10000 6.17 150 17:40 15.01.2021
3703 Clouds 31 1012 74 10000 6.17 150 17:21 15.01.2021
3704 Clouds 31 1012 74 10000 6.17 150 17:21 15.01.2021
3705 Clouds 31 1012 74 10000 4.63 150 16:44 15.01.2021
3706 Clouds 31 1012 74 10000 4.63 150 16:23 15.01.2021
3707 Clouds 31 1013 69 10000 5.14 150 15:41 15.01.2021
3708 Clouds 32 1013 69 10000 5.14 150 15:21 15.01.2021
3709 Clouds 29 1013 78 10000 3.09 150 14:43 15.01.2021
3710 Clouds 29 1013 78 10000 3.09 150 14:24 15.01.2021
3711 Clear 29 1013 74 10000 1.54 320 13:41 15.01.2021
3712 Clear 29 1013 74 10000 1.54 320 13:21 15.01.2021
3713 Clear 28 1013 74 10000 1.54 50 12:51 15.01.2021
3714 Clear 28 1013 74 10000 1.54 50 12:31 15.01.2021
3715 Clear 26 1013 83 10000 2.06 20 11:46 15.01.2021
3716 Clear 26 1013 83 10000 2.06 20 11:27 15.01.2021
3717 Clear 25 1013 78 10000 1.54 360 10:56 15.01.2021
3718 Clear 25 1013 78 10000 1.54 360 10:37 15.01.2021
3719 Clear 24 1013 83 10000 1.03 360 09:56 15.01.2021
3720 Clouds 25 1013 88 10000 2.06 110 09:35 15.01.2021
3721 Clouds 25 1012 83 10000 3.09 70 08:48 15.01.2021
3722 Clouds 25 1012 83 10000 3.09 70 08:21 15.01.2021
3723 Clouds 25 1012 83 10000 2.06 110 07:41 15.01.2021
3724 Clouds 25 1012 83 10000 2.06 110 07:19 15.01.2021
3725 Clear 25 1013 88 10000 4.12 180 04:35 15.01.2021
3726 Clear 27 1013 74 10000 1.54 120 01:52 15.01.2021
3727 Clouds 27 1011 78 10000 3.09 160 23:55 14.01.2021
3728 Clouds 27 1011 78 10000 3.09 160 23:28 14.01.2021
3729 Clouds 28 1011 74 10000 2.06 350 22:48 14.01.2021
3730 Clouds 29 1011 74 10000 2.06 350 22:25 14.01.2021
3731 Clouds 29 1011 65 10000 5.14 360 21:49 14.01.2021
3732 Rain 29 1011 65 10000 5.14 360 21:21 14.01.2021
3733 Clouds 30 1010 65 10000 7.72 180 20:52 14.01.2021
3734 Clouds 31 1010 65 10000 7.72 180 20:27 14.01.2021
3735 Clouds 30 1011 74 10000 7.2 170 19:48 14.01.2021
3736 Clouds 30 1011 74 10000 7.2 170 19:30 14.01.2021
3737 Clouds 30 1011 69 10000 7.2 170 18:56 14.01.2021
3738 Clouds 30 1011 69 10000 7.2 170 18:32 14.01.2021
3739 Clouds 31 1012 69 10000 6.17 150 17:54 14.01.2021
3740 Clouds 31 1012 69 10000 6.17 150 17:28 14.01.2021
3741 Clouds 31 1012 70 10000 5.66 150 16:54 14.01.2021
3742 Clouds 31 1012 70 10000 5.66 150 16:27 14.01.2021
3743 Clouds 31 1012 70 10000 4.63 150 15:52 14.01.2021
3744 Clouds 32 1012 70 10000 4.63 150 15:27 14.01.2021
3745 Clouds 30 1013 70 10000 1.54 20 14:42 14.01.2021
3746 Clouds 31 1013 70 10000 1.54 20 14:21 14.01.2021
3747 Clouds 30 1013 74 10000 2.06 340 13:54 14.01.2021
3748 Clouds 30 1013 74 10000 2.06 340 13:23 14.01.2021
3749 Clouds 28 1012 74 10000 2.06 350 12:56 14.01.2021
3750 Clouds 27 1012 74 10000 2.06 350 12:21 14.01.2021
3751 Clouds 27 1012 78 10000 2.06 10 11:55 14.01.2021
3752 Clouds 27 1012 78 10000 2.06 10 11:28 14.01.2021
3753 Clouds 25 1012 83 10000 1.54 50 10:58 14.01.2021
3754 Clouds 25 1012 83 10000 1.54 50 10:40 14.01.2021
3755 Clouds 25 1012 83 10000 1.54 50 10:18 14.01.2021
3756 Clouds 26 1012 83 10000 2.57 100 09:42 14.01.2021
3757 Clouds 25 1012 83 10000 2.57 100 09:20 14.01.2021
3758 Clouds 25 1011 83 10000 2.06 100 08:33 14.01.2021
3759 Clouds 26 1011 78 10000 2.06 90 07:57 14.01.2021
3760 Clouds 26 1011 78 10000 2.06 90 07:39 14.01.2021
3761 Clouds 26 1011 78 10000 2.06 100 06:37 14.01.2021
3762 Clouds 27 1012 73 10000 2.06 100 04:57 14.01.2021
3763 Clouds 28 1010 74 10000 4.12 170 00:34 14.01.2021
3764 Clouds 29 1009 69 10000 5.14 190 23:33 13.01.2021
3765 Clouds 30 1009 65 10000 6.17 190 22:51 13.01.2021
3766 Clouds 31 1009 65 10000 6.17 190 22:26 13.01.2021
3767 Clouds 30 1009 65 10000 6.69 200 21:48 13.01.2021
3768 Clouds 30 1009 65 10000 6.69 200 21:22 13.01.2021
3769 Clouds 30 1009 69 10000 6.69 170 20:51 13.01.2021
3770 Clouds 31 1009 69 10000 6.69 170 20:27 13.01.2021
3771 Clouds 30 1010 70 10000 6.69 170 19:56 13.01.2021
3772 Clouds 31 1010 70 10000 6.69 170 19:31 13.01.2021
3773 Clouds 31 1010 70 10000 6.17 160 18:53 13.01.2021
3774 Clouds 31 1010 70 10000 6.17 160 18:53 13.01.2021
3775 Clouds 31 1010 70 10000 6.17 160 18:34 13.01.2021
3776 Clouds 31 1011 70 10000 5.66 150 17:51 13.01.2021
3777 Clouds 31 1011 70 10000 5.66 150 17:19 13.01.2021
3778 Clouds 31 1011 70 10000 5.14 150 16:47 13.01.2021
3779 Clouds 32 1011 70 10000 5.14 150 16:21 13.01.2021
3780 Clouds 31 1012 79 10000 4.12 150 15:51 13.01.2021
3781 Clouds 32 1012 79 10000 4.12 150 15:32 13.01.2021
3782 Clouds 31 1012 74 10000 2.57 150 14:34 13.01.2021
3783 Clouds 29 1012 70 10000 2.57 120 13:51 13.01.2021
3784 Clouds 29 1012 70 10000 2.57 120 13:27 13.01.2021
3785 Clouds 28 1012 78 10000 1.03 0 12:46 13.01.2021
3786 Clouds 28 1012 78 10000 1.03 0 12:28 13.01.2021
3787 Clouds 27 1011 78 10000 1.54 60 11:53 13.01.2021
3788 Clouds 27 1011 78 10000 1.54 60 11:34 13.01.2021
3789 Clouds 26 1011 83 10000 1.54 50 10:50 13.01.2021
3790 Clouds 27 1011 83 10000 1.54 50 10:32 13.01.2021
3791 Clouds 27 1011 83 10000 2.06 40 09:55 13.01.2021
3792 Clouds 26 1011 83 10000 3.09 70 09:30 13.01.2021
3793 Clouds 26 1010 83 10000 1.54 290 08:51 13.01.2021
3794 Clouds 27 1010 83 10000 1.54 290 08:31 13.01.2021
3795 Clouds 27 1010 83 10000 1.54 350 07:35 13.01.2021
3796 Clouds 27 1010 83 10000 1.54 330 06:54 13.01.2021
3797 Clouds 27 1010 78 10000 3.09 50 04:20 13.01.2021
3798 Clouds 27 1010 78 10000 3.09 50 03:45 13.01.2021
3799 Clouds 27 1010 78 10000 3.09 50 03:27 13.01.2021
3800 Clouds 28 1010 79 10000 2.57 310 01:19 13.01.2021
3801 Clouds 30 1008 70 10000 4.63 180 23:55 12.01.2021
3802 Clouds 30 1008 70 10000 4.63 180 23:22 12.01.2021
3803 Clouds 31 1008 66 10000 5.14 180 22:46 12.01.2021
3804 Clouds 31 1008 66 10000 5.14 180 22:46 12.01.2021
3805 Clouds 31 1008 66 10000 5.14 180 22:24 12.01.2021
3806 Clouds 32 1007 62 10000 5.66 190 21:51 12.01.2021
3807 Clouds 32 1007 62 10000 5.66 190 21:30 12.01.2021
3808 Clouds 33 1007 70 10000 5.66 160 20:49 12.01.2021
3809 Clouds 33 1007 70 10000 5.66 160 20:27 12.01.2021
3810 Clouds 31 1008 74 10000 6.69 160 19:55 12.01.2021
3811 Clouds 31 1008 74 10000 6.69 160 19:35 12.01.2021
3812 Clouds 33 1009 58 10000 5.66 160 18:46 12.01.2021
3813 Clouds 33 1009 58 10000 5.66 160 18:24 12.01.2021
3814 Clouds 32 1010 74 10000 7.2 160 17:44 12.01.2021
3815 Clouds 32 1010 74 10000 7.2 160 17:25 12.01.2021
3816 Clouds 33 1010 70 10000 5.14 140 16:44 12.01.2021
3817 Clouds 33 1010 70 10000 5.14 140 16:24 12.01.2021
3818 Clouds 32 1011 66 10000 2.57 350 15:41 12.01.2021
3819 Clouds 32 1011 66 10000 2.57 350 15:21 12.01.2021
3820 Clouds 31 1011 70 10000 2.06 340 14:43 12.01.2021
3821 Clouds 31 1011 70 10000 2.06 340 14:23 12.01.2021
3822 Clouds 30 1011 78 10000 3.09 350 13:52 12.01.2021
3823 Clouds 29 1011 78 10000 3.09 350 13:22 12.01.2021
3824 Clouds 29 1011 74 10000 2.06 360 12:26 12.01.2021
3825 Clouds 27 1011 78 10000 2.57 30 11:41 12.01.2021
3826 Clear 25 1010 83 10000 1.54 10 10:55 12.01.2021
3827 Clear 25 1010 83 10000 1.54 10 10:25 12.01.2021
3828 Clear 26 1010 83 10000 2.06 10 09:58 12.01.2021
3829 Clouds 25 1010 83 10000 1.03 90 09:38 12.01.2021
3830 Clouds 26 1010 83 10000 1.03 90 09:18 12.01.2021
3831 Clouds 26 1010 88 10000 1.03 60 08:26 12.01.2021
3832 Clear 26 1010 88 10000 1.54 120 07:37 12.01.2021
3833 Clouds 26 1010 94 10000 1.54 110 06:50 12.01.2021
3834 Clouds 26 1010 94 10000 2.57 350 05:34 12.01.2021
3835 Clouds 26 1011 74 10000 4.63 340 03:28 12.01.2021
3836 Clouds 26 1011 74 10000 4.63 340 03:28 12.01.2021
3837 Clouds 29 1010 74 10000 4.12 70 02:21 12.01.2021
3838 Clouds 29 1010 70 10000 4.63 70 01:31 12.01.2021
3839 Clear 29 1009 78 10000 1.03 160 00:19 12.01.2021
3840 Clouds 30 1009 78 10000 3.6 170 23:39 11.01.2021
3841 Clouds 30 1009 78 10000 3.6 170 23:18 11.01.2021
3842 Clouds 31 1008 70 10000 5.14 180 22:45 11.01.2021
3843 Clouds 31 1008 70 10000 5.14 180 22:27 11.01.2021
3844 Clouds 32 1009 70 10000 5.66 170 21:44 11.01.2021
3845 Clouds 32 1009 70 10000 5.66 170 21:25 11.01.2021
3846 Clouds 32 1009 70 10000 6.17 170 20:50 11.01.2021
3847 Clouds 32 1009 70 10000 6.17 170 20:31 11.01.2021
3848 Clouds 32 1010 74 10000 5.66 170 19:59 11.01.2021
3849 Clouds 31 1010 74 10000 5.66 170 19:37 11.01.2021
3850 Clouds 31 1010 74 10000 5.66 170 19:19 11.01.2021
3851 Clouds 31 1010 79 10000 6.17 160 18:41 11.01.2021
3852 Clouds 31 1010 79 10000 6.17 160 18:22 11.01.2021
3853 Clouds 31 1010 79 10000 6.17 160 17:42 11.01.2021
3854 Clouds 31 1010 79 10000 6.17 160 17:23 11.01.2021
3855 Clouds 31 1011 79 10000 4.63 160 16:47 11.01.2021
3856 Clouds 31 1011 79 10000 4.63 160 16:28 11.01.2021
3857 Clouds 31 1011 79 10000 1.54 300 15:53 11.01.2021
3858 Clouds 31 1011 79 10000 1.54 300 15:33 11.01.2021
3859 Clouds 30 1011 83 10000 1.54 330 14:45 11.01.2021
3860 Rain 30 1011 83 10000 1.54 330 14:26 11.01.2021
3861 Rain 29 1012 78 10000 1.03 0 13:45 11.01.2021
3862 Rain 28 1012 78 10000 1.03 0 13:22 11.01.2021
3863 Rain 28 1012 83 10000 3.6 120 12:42 11.01.2021
3864 Clouds 28 1012 83 10000 3.6 120 12:23 11.01.2021
3865 Clouds 26 1011 89 10000 2.57 110 11:45 11.01.2021
3866 Clouds 26 1010 89 10000 1.67 71 10:55 11.01.2021
3867 Clouds 26 1010 89 10000 1.67 71 10:35 11.01.2021
3868 Rain 26 1010 89 10000 1.01 73 09:54 11.01.2021
3869 Clouds 27 1010 94 10000 2.06 120 09:36 11.01.2021
3870 Rain 25 1010 88 10000 3.6 90 08:52 11.01.2021
3871 Rain 27 1010 88 10000 3.6 90 08:33 11.01.2021
3872 Rain 27 1010 88 10000 3.6 100 07:48 11.01.2021
3873 Clouds 27 1010 88 10000 3.6 100 07:25 11.01.2021
3874 Clouds 27 1010 89 10000 2.57 120 06:49 11.01.2021
3875 Clouds 26 1011 94 10000 2.57 30 02:31 11.01.2021
3876 Clouds 27 1011 94 10000 5.14 330 00:57 11.01.2021
3877 Clouds 28 1010 84 10000 5.14 340 23:48 10.01.2021
3878 Clouds 29 1010 84 10000 5.14 340 23:23 10.01.2021
3879 Clouds 29 1009 83 10000 6.69 180 22:44 10.01.2021
3880 Clouds 30 1009 83 10000 6.69 180 22:20 10.01.2021
3881 Clouds 31 1008 84 10000 7.2 170 21:41 10.01.2021
3882 Clouds 31 1008 84 10000 7.2 170 21:19 10.01.2021
3883 Clouds 31 1008 79 10000 7.2 160 20:49 10.01.2021
3884 Clouds 32 1008 79 10000 7.2 160 20:29 10.01.2021
3885 Clouds 32 1008 79 10000 6.69 160 19:42 10.01.2021
3886 Clouds 32 1008 79 10000 6.69 160 19:23 10.01.2021
3887 Clouds 32 1009 79 10000 7.2 160 18:45 10.01.2021
3888 Clouds 32 1009 79 10000 7.2 160 18:21 10.01.2021
3889 Clouds 32 1010 79 10000 5.14 160 17:27 10.01.2021
3890 Clouds 32 1010 79 10000 3.6 150 16:58 10.01.2021
3891 Clouds 32 1010 79 10000 3.6 150 16:32 10.01.2021
3892 Clouds 31 1011 79 10000 2.57 140 15:43 10.01.2021
3893 Clouds 31 1011 79 10000 2.57 140 15:24 10.01.2021
3894 Clouds 30 1011 84 10000 2.57 360 14:43 10.01.2021
3895 Clouds 30 1011 84 10000 2.57 360 14:24 10.01.2021
3896 Clouds 29 1011 89 10000 2.57 10 13:54 10.01.2021
3897 Clouds 29 1011 89 10000 2.57 10 13:36 10.01.2021
3898 Clouds 28 1011 89 10000 2.57 10 13:18 10.01.2021
3899 Clouds 28 1011 89 10000 2.06 360 12:42 10.01.2021
3900 Rain 26 1011 89 10000 1.54 350 11:58 10.01.2021
3901 Rain 26 1011 89 10000 1.54 350 11:22 10.01.2021
3902 Clouds 25 1011 94 10000 3.09 330 10:58 10.01.2021
3903 Clouds 25 1011 94 10000 3.09 330 10:30 10.01.2021
3904 Rain 26 1011 94 10000 4.12 330 09:58 10.01.2021
3905 Clouds 25 1011 94 10000 2.06 340 09:18 10.01.2021
3906 Rain 26 1010 88 10000 2.06 330 08:20 10.01.2021
3907 Clouds 26 1010 88 10000 2.06 350 07:28 10.01.2021
3908 Clouds 27 1010 89 10000 2.06 320 06:19 10.01.2021
3909 Clouds 27 1011 89 10000 1.54 320 05:35 10.01.2021
3910 Clouds 27 1011 89 10000 1.54 20 02:56 10.01.2021
3911 Clouds 27 1010 89 10000 2.57 350 00:48 10.01.2021
3912 Clouds 28 1010 94 10000 2.57 350 23:48 09.01.2021
3913 Clouds 28 1010 83 10000 3.09 150 23:28 09.01.2021
3914 Clouds 29 1010 89 10000 3.6 140 22:47 09.01.2021
3915 Clouds 29 1010 89 10000 3.6 140 22:18 09.01.2021
3916 Clouds 29 1009 89 10000 5.14 160 21:56 09.01.2021
3917 Clouds 29 1009 89 10000 5.14 160 21:38 09.01.2021
3918 Clouds 29 1009 89 10000 5.14 160 21:18 09.01.2021
3919 Clouds 29 1009 84 10000 5.14 170 20:39 09.01.2021
3920 Clouds 29 1009 79 10000 6.17 160 19:45 09.01.2021
3921 Clouds 29 1009 79 10000 6.17 160 19:22 09.01.2021
3922 Clouds 30 1009 74 10000 7.2 170 18:44 09.01.2021
3923 Clouds 30 1009 74 10000 7.2 170 18:26 09.01.2021
3924 Clouds 31 1009 74 10000 5.66 170 17:47 09.01.2021
3925 Clouds 31 1009 74 10000 5.66 170 17:27 09.01.2021
3926 Clouds 31 1010 79 10000 5.66 150 16:36 09.01.2021
3927 Clouds 31 1010 79 10000 4.12 150 15:52 09.01.2021
3928 Clouds 31 1010 79 10000 4.12 150 15:32 09.01.2021
3929 Clouds 30 1011 79 10000 1.54 70 14:41 09.01.2021
3930 Clouds 29 1011 79 10000 1.54 70 14:20 09.01.2021
3931 Clouds 28 1011 83 10000 2.06 20 13:49 09.01.2021
3932 Clouds 28 1011 83 10000 2.06 20 13:30 09.01.2021
3933 Clouds 28 1011 89 10000 1.54 30 12:50 09.01.2021
3934 Clouds 28 1011 89 10000 1.54 30 12:24 09.01.2021
3935 Clouds 26 1011 94 10000 1.54 40 11:56 09.01.2021
3936 Clouds 26 1011 94 10000 1.54 50 11:33 09.01.2021
3937 Clouds 25 1010 94 10000 2.57 30 10:55 09.01.2021
3938 Clouds 25 1010 94 10000 2.57 30 10:36 09.01.2021
3939 Clouds 27 1010 83 10000 2.06 30 09:54 09.01.2021
3940 Clouds 26 1010 88 10000 1.03 50 09:29 09.01.2021
3941 Clouds 26 1009 88 10000 2.06 330 08:59 09.01.2021
3942 Clouds 26 1009 88 10000 3.09 340 07:38 09.01.2021
3943 Clouds 26 1009 88 10000 3.09 340 07:38 09.01.2021
3944 Clouds 26 1009 88 10000 1.54 300 06:40 09.01.2021
3945 Clouds 27 1010 78 10000 1.03 270 04:54 09.01.2021
3946 Clouds 26 1011 94 10000 3.09 310 03:25 09.01.2021
3947 Clouds 27 1011 94 10000 3.6 330 02:38 09.01.2021
3948 Clouds 27 1011 94 10000 3.6 330 02:19 09.01.2021
3949 Clouds 27 1010 89 10000 2.57 150 00:37 09.01.2021
3950 Clouds 28 1010 89 10000 2.57 150 00:19 09.01.2021
3951 Clouds 28 1010 89 10000 4.12 170 23:26 08.01.2021
3952 Clouds 29 1009 74 10000 5.14 180 22:38 08.01.2021
3953 Clouds 30 1008 74 10000 7.2 180 21:46 08.01.2021
3954 Clouds 31 1008 70 10000 6.69 190 20:57 08.01.2021
3955 Clouds 31 1008 70 10000 6.69 190 20:27 08.01.2021
3956 Clouds 32 1008 62 10000 7.72 190 19:56 08.01.2021
3957 Clouds 32 1008 62 10000 7.72 190 19:23 08.01.2021
3958 Clouds 33 1008 58 10000 8.75 200 18:50 08.01.2021
3959 Clouds 32 1008 58 10000 8.75 200 18:30 08.01.2021
3960 Clouds 32 1009 58 10000 8.23 190 17:50 08.01.2021
3961 Clouds 33 1009 58 10000 8.23 190 17:22 08.01.2021
3962 Clouds 33 1009 62 10000 7.2 170 16:44 08.01.2021
3963 Clouds 33 1009 55 10000 7.72 170 15:44 08.01.2021
3964 Clouds 33 1009 55 10000 7.72 170 15:25 08.01.2021
3965 Clouds 33 1009 62 10000 5.14 170 14:36 08.01.2021
3966 Clouds 30 1009 74 10000 3.09 20 13:47 08.01.2021
3967 Clouds 32 1009 74 10000 3.09 20 13:21 08.01.2021
3968 Rain 31 1009 79 10000 3.6 20 12:49 08.01.2021
3969 Clear 29 1009 79 10000 3.6 20 12:20 08.01.2021
3970 Clear 29 1008 62 10000 3.6 310 11:45 08.01.2021
3971 Clear 29 1008 62 10000 3.6 310 11:27 08.01.2021
3972 Clear 28 1008 65 10000 4.12 260 10:53 08.01.2021
3973 Clear 28 1008 65 10000 4.12 260 10:34 08.01.2021
3974 Clouds 27 1008 65 10000 6.17 260 09:46 08.01.2021
3975 Clouds 27 1008 65 10000 6.17 260 09:28 08.01.2021
3976 Clouds 27 1008 69 10000 3.6 280 08:39 08.01.2021
3977 Clouds 28 1008 65 10000 3.6 310 07:29 08.01.2021
3978 Clouds 28 1010 69 10000 2.06 320 06:21 08.01.2021
3979 Clouds 30 1009 74 10000 2.06 180 00:22 08.01.2021
3980 Clouds 30 1008 70 10000 3.09 170 23:41 07.01.2021
3981 Clouds 31 1008 70 10000 4.12 160 22:47 07.01.2021
3982 Clouds 31 1008 70 10000 4.12 160 22:26 07.01.2021
3983 Clouds 32 1007 70 10000 5.14 170 21:47 07.01.2021
3984 Clouds 32 1007 70 10000 5.14 170 21:27 07.01.2021
3985 Clouds 32 1007 74 10000 7.2 160 20:47 07.01.2021
3986 Clouds 32 1007 74 10000 7.2 160 20:29 07.01.2021
3987 Clouds 33 1007 79 10000 7.2 160 19:46 07.01.2021
3988 Clouds 33 1007 79 10000 7.2 160 19:23 07.01.2021
3989 Clouds 33 1008 70 10000 7.72 150 18:40 07.01.2021
3990 Clouds 33 1008 70 10000 7.72 150 18:19 07.01.2021
3991 Clouds 34 1008 70 10000 6.17 150 17:31 07.01.2021
3992 Clouds 34 1009 66 10000 2.06 110 16:55 07.01.2021
3993 Clouds 34 1009 66 10000 2.06 110 16:32 07.01.2021
3994 Clear 34 1009 74 10000 2.57 340 15:48 07.01.2021
3995 Clear 33 1009 74 10000 2.57 340 15:30 07.01.2021
3996 Clear 32 1009 70 10000 3.09 360 14:27 07.01.2021
3997 Clear 29 1009 78 10000 3.09 340 13:49 07.01.2021
3998 Clear 30 1009 78 10000 3.09 340 13:28 07.01.2021
3999 Clouds 30 1009 63 10000 0.92 17 12:55 07.01.2021
4000 Clear 27 1009 88 10000 2.6 10 12:23 07.01.2021
4001 Clear 26 1009 88 10000 2.6 10 11:39 07.01.2021
4002 Clear 25 1009 94 10000 3.1 360 10:56 07.01.2021
4003 Clear 25 1009 94 10000 3.1 360 10:37 07.01.2021
4004 Clear 25 1009 94 10000 3.1 350 09:57 07.01.2021
4005 Clear 26 1009 88 10000 1 350 09:38 07.01.2021
4006 Clear 25 1008 88 10000 1 30 08:40 07.01.2021
4007 Clear 26 1008 83 10000 2.1 10 08:21 07.01.2021
4008 Clear 26 1008 83 10000 2.1 10 07:40 07.01.2021
4009 Clear 27 1008 83 10000 3.6 360 06:46 07.01.2021
4010 Clear 26 1010 88 10000 3.6 360 02:18 07.01.2021
4011 Clouds 28 1009 70 10000 4.6 310 23:58 06.01.2021
4012 Clouds 28 1009 70 10000 4.6 310 23:25 06.01.2021
4013 Clouds 31 1009 70 10000 3.1 330 22:23 06.01.2021
4014 Clouds 31 1008 70 10000 4.1 170 21:41 06.01.2021
4015 Clouds 31 1008 70 10000 4.1 170 21:22 06.01.2021
4016 Clouds 31 1008 70 10000 4.1 170 21:22 06.01.2021
4017 Clouds 31 1008 70 10000 6.2 180 20:42 06.01.2021
4018 Rain 31 1008 74 10000 7.2 160 20:22 06.01.2021
4019 Clouds 31 1008 74 10000 7.2 160 19:47 06.01.2021
4020 Clouds 31 1008 74 10000 7.2 160 19:27 06.01.2021
4021 Clouds 32 1008 74 10000 6.7 160 18:46 06.01.2021
4022 Clouds 33 1008 74 10000 6.7 160 18:28 06.01.2021
4023 Clouds 33 1009 83 10000 6.7 150 17:46 06.01.2021
4024 Clouds 33 1009 79 10000 4.1 150 17:27 06.01.2021
4025 Clouds 33 1009 79 10000 4.1 150 16:57 06.01.2021
4026 Clouds 33 1010 70 10000 2.6 360 16:21 06.01.2021
4027 Rain 33 1010 70 10000 2.6 360 15:59 06.01.2021
4028 Rain 33 1010 70 10000 2.6 360 15:35 06.01.2021
4029 Clear 33 1011 79 10000 2.6 10 14:58 06.01.2021
4030 Clear 33 1011 79 10000 2.6 10 14:31 06.01.2021
4031 Clear 31 1011 83 10000 3.1 340 13:52 06.01.2021
4032 Clear 31 1011 83 10000 3.1 340 13:26 06.01.2021
4033 Clear 30 1011 78 10000 1.5 10 12:55 06.01.2021
4034 Clear 30 1011 78 10000 1.5 10 12:30 06.01.2021
4035 Clear 28 1011 78 10000 2.6 360 11:44 06.01.2021
4036 Clear 25 1010 88 10000 2.1 350 11:21 06.01.2021
4037 Clear 25 1010 88 10000 2.1 350 10:39 06.01.2021
4038 Clear 25 1010 88 10000 2.6 350 09:52 06.01.2021
4039 Clear 25 1010 88 10000 2.1 30 09:31 06.01.2021
4040 Clear 25 1010 88 10000 1 50 08:52 06.01.2021
4041 Clear 25 1009 88 10000 1.5 0 08:19 06.01.2021
4042 Clear 25 1009 88 10000 1.5 0 07:51 06.01.2021
4043 Clear 25 1009 88 10000 1 50 06:44 06.01.2021
4044 Clear 26 1010 78 10000 1 60 05:29 06.01.2021
4045 Clear 26 1011 94 10000 2.6 170 03:21 06.01.2021
4046 Rain 26 1011 94 10000 2.6 170 02:42 06.01.2021
4047 Rain 27 1010 94 10000 3.1 160 02:20 06.01.2021
4048 Clear 28 1010 83 10000 5.1 190 23:51 05.01.2021
4049 Clouds 28 1009 83 10000 5.1 180 22:57 05.01.2021
4050 Clouds 28 1009 83 10000 5.1 180 22:38 05.01.2021
4051 Clouds 29 1010 83 10000 6.2 170 22:19 05.01.2021
4052 Clouds 29 1009 78 10000 6.2 170 21:26 05.01.2021
4053 Clouds 29 1009 78 10000 6.2 170 20:31 05.01.2021
4054 Clouds 29 1010 78 10000 7.2 170 19:57 05.01.2021
4055 Clouds 29 1010 78 10000 7.2 170 19:38 05.01.2021
4056 Rain 31 1010 78 10000 7.2 170 19:20 05.01.2021
4057 Clouds 30 1011 83 10000 6.7 160 18:42 05.01.2021
4058 Clouds 30 1011 83 10000 6.7 160 18:19 05.01.2021
4059 Clouds 30 1011 83 10000 6.7 160 17:42 05.01.2021
4060 Clouds 30 1011 83 10000 6.7 160 17:21 05.01.2021
4061 Clouds 31 1011 88 10000 6.7 160 16:45 05.01.2021
4062 Clear 30 1012 78 10000 4.6 140 16:21 05.01.2021
4063 Clear 30 1012 78 10000 4.6 140 15:49 05.01.2021
4064 Clear 30 1012 74 10000 1.5 350 14:49 05.01.2021
4065 Clear 29 1012 83 10000 2.6 330 14:20 05.01.2021
4066 Clear 28 1012 83 10000 2.6 330 13:44 05.01.2021
4067 Clear 27 1012 88 10000 2.6 360 13:21 05.01.2021
4068 Clear 27 1012 88 10000 2.6 360 12:47 05.01.2021
4069 Clouds 25 1012 94 10000 1.5 360 12:22 05.01.2021
4070 Clouds 25 1012 94 10000 1.5 360 11:39 05.01.2021
4071 Clouds 23 1012 94 10000 2.1 30 10:46 05.01.2021
4072 Clouds 24 1012 94 10000 2.6 30 10:27 05.01.2021
4073 Clouds 25 1012 83 10000 2.1 360 09:49 05.01.2021
4074 Clouds 25 1012 83 10000 2.1 360 09:49 05.01.2021
4075 Clouds 25 1012 83 10000 2.1 360 09:28 05.01.2021
4076 Clouds 25 1012 88 10000 2.1 360 08:27 05.01.2021
4077 Clouds 25 1011 83 10000 2.6 270 06:47 05.01.2021
4078 Clouds 26 1012 83 10000 1 0 04:55 05.01.2021
4079 Clouds 26 1012 88 10000 4.1 170 00:51 05.01.2021
4080 Clouds 26 1012 88 10000 6.2 160 23:46 04.01.2021
4081 Clouds 26 1011 88 10000 6.2 170 23:26 04.01.2021
4082 Clouds 26 1011 88 10000 6.2 170 22:54 04.01.2021
4083 Clouds 26 1011 88 10000 6.2 170 22:34 04.01.2021
4084 Clouds 27 1010 83 10000 6.2 160 21:52 04.01.2021
4085 Clouds 27 1010 83 10000 6.2 160 21:34 04.01.2021
4086 Clouds 28 1010 78 10000 7.2 160 20:48 04.01.2021
4087 Clouds 28 1010 78 10000 7.7 160 20:29 04.01.2021
4088 Clouds 28 1010 78 10000 7.7 160 19:52 04.01.2021
4089 Clouds 28 1010 78 10000 7.2 160 19:28 04.01.2021
4090 Clouds 28 1010 78 10000 7.2 160 18:55 04.01.2021
4091 Clouds 29 1010 78 10000 6.7 160 18:25 04.01.2021
4092 Clouds 29 1010 78 10000 6.7 160 17:44 04.01.2021
4093 Clouds 29 1010 78 10000 5.7 160 17:25 04.01.2021
4094 Clouds 29 1010 78 10000 5.7 160 16:48 04.01.2021
4095 Clouds 29 1010 78 10000 5.7 160 16:27 04.01.2021
4096 Clouds 29 1011 78 10000 5.1 140 15:50 04.01.2021
4097 Clouds 29 1011 83 10000 4.1 140 15:31 04.01.2021
4098 Clouds 30 1011 78 10000 2.1 40 14:46 04.01.2021
4099 Clouds 28 1012 83 10000 3.1 20 13:48 04.01.2021
4100 Clouds 26 1012 88 10000 3.6 310 13:25 04.01.2021
4101 Clouds 26 1012 88 10000 3.6 310 12:44 04.01.2021
4102 Clouds 24 1011 88 10000 2.6 310 11:59 04.01.2021
4103 Clouds 24 1011 88 10000 2.6 310 11:29 04.01.2021
4104 Clouds 23 1011 88 10000 1.5 230 10:54 04.01.2021
4105 Clouds 23 1011 88 10000 1.5 230 10:29 04.01.2021
4106 Clouds 24 1011 88 10000 1.5 200 09:58 04.01.2021
4107 Rain 24 1011 88 10000 1 180 09:22 04.01.2021
4108 Clouds 24 1011 88 10000 1 180 08:48 04.01.2021
4109 Clouds 24 1010 88 10000 1 210 08:18 04.01.2021
4110 Rain 24 1010 88 10000 1 210 07:44 04.01.2021
4111 Rain 24 1012 88 10000 2.1 220 05:34 04.01.2021
4112 Rain 24 1012 94 10000 1 40 04:31 04.01.2021
4113 Clouds 24 1012 94 10000 1.5 150 01:26 04.01.2021
4114 Rain 24 1012 88 10000 3.1 150 23:51 03.01.2021
4115 Clouds 25 1011 83 10000 5.1 170 23:26 03.01.2021
4116 Clouds 25 1011 83 10000 5.1 170 22:57 03.01.2021
4117 Clouds 25 1011 83 10000 5.1 170 22:38 03.01.2021
4118 Clouds 26 1010 88 10000 4.6 170 22:18 03.01.2021
4119 Clouds 26 1010 88 10000 4.6 170 21:30 03.01.2021
4120 Rain 27 1010 78 10000 5.1 170 20:53 03.01.2021
4121 Clouds 27 1010 78 10000 5.1 170 20:34 03.01.2021
4122 Clouds 26 1011 78 10000 5.7 170 19:58 03.01.2021
4123 Clouds 27 1011 78 10000 5.7 170 19:37 03.01.2021
4124 Clouds 27 1011 74 10000 6.2 170 19:19 03.01.2021
4125 Clouds 27 1011 74 10000 6.2 170 18:42 03.01.2021
4126 Clouds 27 1011 83 10000 5.1 170 18:21 03.01.2021
4127 Clouds 27 1011 83 10000 5.1 170 17:49 03.01.2021
4128 Clouds 27 1012 78 10000 4.6 190 17:26 03.01.2021
4129 Clouds 27 1012 78 10000 4.6 190 16:44 03.01.2021
4130 Clouds 26 1012 88 10000 4.1 170 16:20 03.01.2021
4131 Clouds 26 1012 88 10000 4.1 170 15:52 03.01.2021
4132 Clouds 26 1012 88 10000 4.1 170 15:34 03.01.2021
4133 Clouds 25 1012 94 10000 3.1 150 14:58 03.01.2021
4134 Clouds 25 1012 94 10000 3.1 150 14:31 03.01.2021
4135 Clouds 24 1012 88 10000 2.1 230 13:47 03.01.2021
4136 Clouds 23 1012 88 10000 2.6 290 13:23 03.01.2021
4137 Clouds 23 1012 88 10000 2.6 290 13:23 03.01.2021
4138 Clouds 23 1012 88 10000 2.6 290 12:50 03.01.2021
4139 Clouds 22 1011 100 8000 4.1 310 11:43 03.01.2021
4140 Rain 22 1011 100 8000 4.1 310 11:24 03.01.2021
4141 Rain 22 1011 94 9000 1.5 270 10:55 03.01.2021
4142 Rain 22 1011 94 9000 1.5 270 10:30 03.01.2021
4143 Clouds 22 1011 94 7000 2.6 300 09:41 03.01.2021
4144 Rain 22 1011 94 3500 1.5 170 09:23 03.01.2021
4145 Clouds 22 1011 94 9000 3.1 270 07:54 03.01.2021
4146 Clouds 23 1011 88 10000 1.5 180 05:59 03.01.2021
4147 Rain 23 1012 94 4000 5.7 150 02:29 03.01.2021
4148 Rain 22 1012 94 3500 3.1 150 01:48 03.01.2021
4149 Rain 23 1012 94 4000 6.7 140 00:24 03.01.2021
4150 Rain 23 1012 94 3500 6.2 160 23:30 02.01.2021
4151 Rain 23 1012 94 4000 7.2 160 22:59 02.01.2021
4152 Rain 23 1012 94 4000 7.2 160 22:33 02.01.2021
4153 Rain 23 1011 100 4000 9.3 160 21:59 02.01.2021
4154 Rain 23 1011 100 4000 9.3 160 21:37 02.01.2021
4155 Rain 24 1011 94 4000 5.7 180 21:19 02.01.2021
4156 Rain 24 1011 94 4000 5.7 180 20:40 02.01.2021
4157 Rain 25 1011 94 4000 5.7 180 20:20 02.01.2021
4158 Rain 25 1011 94 9000 4.1 170 19:43 02.01.2021
4159 Rain 25 1011 94 9000 4.1 170 19:43 02.01.2021
4160 Rain 25 1011 94 9000 5.1 160 19:19 02.01.2021
4161 Clouds 25 1011 94 9000 5.1 160 18:43 02.01.2021
4162 Rain 26 1012 83 10000 3.1 160 18:25 02.01.2021
4163 Rain 26 1012 83 10000 3.1 160 17:46 02.01.2021
4164 Rain 25 1012 83 10000 3.6 170 17:25 02.01.2021
4165 Rain 24 1012 88 7000 1.5 170 16:41 02.01.2021
4166 Rain 24 1012 88 7000 4.6 150 16:20 02.01.2021
4167 Rain 26 1012 88 7000 4.6 150 15:43 02.01.2021
4168 Rain 27 1012 83 9000 3.6 140 15:25 02.01.2021
4169 Clouds 27 1012 83 9000 3.6 140 14:37 02.01.2021
4170 Clouds 28 1012 94 9000 3.6 40 14:18 02.01.2021
4171 Clouds 28 1012 94 9000 3.6 40 13:39 02.01.2021
4172 Clouds 27 1012 88 9000 1.5 10 12:54 02.01.2021
4173 Clouds 27 1012 88 9000 1.5 10 12:32 02.01.2021
4174 Clouds 25 1012 94 10000 2.1 20 11:57 02.01.2021
4175 Clouds 24 1012 94 10000 2.6 50 11:22 02.01.2021
4176 Clouds 24 1012 94 10000 2.6 50 10:58 02.01.2021
4177 Clouds 24 1012 94 10000 2.6 50 10:33 02.01.2021
4178 Clouds 25 1012 83 10000 2.1 290 09:54 02.01.2021
4179 Clouds 25 1012 83 10000 2.1 290 09:28 02.01.2021
4180 Clouds 25 1012 83 10000 0.82 255 08:53 02.01.2021
4181 Clouds 25 1012 83 10000 0.82 255 08:34 02.01.2021
4182 Clouds 24 1012 94 10000 1 80 07:53 02.01.2021
4183 Clouds 25 1012 83 10000 1.5 130 07:22 02.01.2021
4184 Clouds 25 1012 83 10000 1.5 130 06:56 02.01.2021
4185 Clouds 24 1013 94 10000 1.5 90 05:54 02.01.2021
4186 Clouds 25 1013 88 10000 2.1 140 01:37 02.01.2021
4187 Clouds 25 1013 88 9000 3.6 180 00:38 02.01.2021
4188 Rain 25 1013 88 9000 2.6 160 23:58 01.01.2021
4189 Rain 26 1012 78 10000 3.1 190 23:23 01.01.2021
4190 Rain 26 1012 78 10000 3.1 190 22:50 01.01.2021
4191 Clouds 26 1012 78 10000 3.1 190 22:27 01.01.2021
4192 Rain 27 1012 83 10000 2.1 160 21:59 01.01.2021
4193 Rain 27 1012 83 10000 2.1 160 21:41 01.01.2021
4194 Clouds 27 1012 88 10000 5.1 140 21:19 01.01.2021
4195 Clouds 27 1012 88 10000 5.1 140 20:48 01.01.2021
4196 Clouds 29 1012 78 10000 6.7 170 20:18 01.01.2021
4197 Clouds 28 1012 78 10000 6.7 170 19:42 01.01.2021
4198 Clouds 29 1012 74 10000 6.7 180 19:22 01.01.2021
4199 Clouds 29 1012 74 10000 6.7 180 18:45 01.01.2021
4200 Clouds 29 1012 74 10000 6.2 150 18:27 01.01.2021
4201 Clouds 29 1012 74 10000 6.2 150 17:48 01.01.2021
4202 Rain 29 1012 83 10000 6.7 160 17:23 01.01.2021
4203 Clouds 29 1012 83 10000 6.7 160 16:51 01.01.2021
4204 Clouds 30 1012 78 10000 6.2 140 16:26 01.01.2021
4205 Clouds 30 1012 78 10000 6.2 140 15:42 01.01.2021
4206 Clouds 30 1012 78 10000 3.1 150 14:49 01.01.2021
4207 Clouds 31 1012 83 9000 2.1 120 14:28 01.01.2021
4208 Clouds 30 1012 83 9000 2.1 120 13:40 01.01.2021
4209 Clouds 28 1012 88 9000 1.5 10 13:20 01.01.2021
4210 Clouds 28 1012 88 9000 1.5 10 12:36 01.01.2021
4211 Clouds 26 1011 88 10000 0.5 10 12:18 01.01.2021
4212 Clouds 26 1011 88 10000 0.5 10 11:39 01.01.2021
4213 Clouds 25 1011 94 10000 2.1 60 11:18 01.01.2021
4214 Clouds 25 1011 94 10000 2.1 60 10:34 01.01.2021
4215 Clouds 25 1010 88 8000 1 30 09:46 01.01.2021
4216 Clouds 24 1010 88 7000 1 20 09:20 01.01.2021
4217 Clouds 25 1010 88 6000 1 310 08:25 01.01.2021
4218 Clouds 26 1012 88 6000 2.1 280 04:53 01.01.2021
4219 Clouds 26 1012 88 10000 2.1 150 02:39 01.01.2021
4220 Rain 26 1012 88 10000 1.5 0 01:35 01.01.2021
4221 Rain 28 1011 88 7000 2.1 90 00:28 01.01.2021
4222 Rain 29 1010 83 10000 2.1 130 23:36 31.12.2020
4223 Rain 30 1010 66 10000 6.2 200 23:18 31.12.2020
4224 Rain 30 1010 66 10000 6.2 200 22:38 31.12.2020
4225 Rain 31 1007 65 10000 4.6 210 22:19 31.12.2020
4226 Rain 31 1007 65 10000 4.6 210 21:47 31.12.2020
4227 Thunderstorm 33 1008 62 7000 9.3 230 21:24 31.12.2020
4228 Rain 33 1007 66 10000 6.2 170 20:49 31.12.2020
4229 Rain 35 1007 62 10000 6.2 180 20:18 31.12.2020
4230 Rain 34 1007 62 10000 6.2 180 19:47 31.12.2020
4231 Clouds 35 1007 62 10000 6.2 180 19:28 31.12.2020
4232 Clouds 35 1007 62 10000 5.7 160 18:50 31.12.2020
4233 Clouds 35 1007 62 10000 5.7 160 18:24 31.12.2020
4234 Clouds 36 1008 56 10000 3.6 30 17:44 31.12.2020
4235 Clouds 36 1009 56 10000 5.7 20 17:23 31.12.2020
4236 Clouds 36 1009 56 10000 5.7 20 16:43 31.12.2020
4237 Clear 35 1009 62 10000 3.6 360 16:25 31.12.2020
4238 Clear 35 1009 62 10000 3.6 360 15:50 31.12.2020
4239 Clear 34 1009 74 10000 3.6 10 15:23 31.12.2020
4240 Clear 34 1009 74 10000 3.6 10 15:23 31.12.2020
4241 Clear 35 1009 74 10000 3.6 10 14:58 31.12.2020
4242 Clear 34 1009 74 10000 3.6 10 14:39 31.12.2020
4243 Clear 31 1009 79 10000 3.6 340 14:21 31.12.2020
4244 Clear 31 1009 79 10000 3.6 340 13:39 31.12.2020
4245 Clear 29 1009 83 10000 3.6 330 13:21 31.12.2020
4246 Clear 29 1009 83 10000 3.6 330 12:54 31.12.2020
4247 Clear 29 1009 83 10000 3.6 330 12:54 31.12.2020
4248 Clear 29 1009 83 10000 3.6 330 12:35 31.12.2020
4249 Clear 28 1009 83 10000 3.1 330 11:52 31.12.2020
4250 Clear 28 1009 83 10000 3.1 330 11:32 31.12.2020
4251 Clear 26 1009 83 10000 2.6 320 10:50 31.12.2020
4252 Clear 26 1009 83 10000 2.6 320 10:30 31.12.2020
4253 Clear 26 1009 88 10000 2.6 320 09:58 31.12.2020
4254 Clear 27 1009 78 10000 1.5 100 09:39 31.12.2020
4255 Clear 26 1009 83 10000 2.1 60 09:20 31.12.2020
4256 Clear 27 1009 83 10000 2.1 60 08:45 31.12.2020
4257 Clear 27 1009 88 10000 1.17 356 08:27 31.12.2020
4258 Clear 27 1009 88 10000 1.17 356 07:52 31.12.2020
4259 Clear 27 1008 83 10000 1.5 130 06:49 31.12.2020
4260 Clear 27 1009 88 10000 2.1 100 05:30 31.12.2020
4261 Clear 29 1009 79 10000 1 0 03:24 31.12.2020
4262 Clear 29 1009 79 10000 1.5 230 02:26 31.12.2020
4263 Clear 29 1009 79 10000 1.5 230 01:53 31.12.2020
4264 Clear 29 1009 79 10000 1.5 230 01:33 31.12.2020
4265 Clear 29 1009 88 10000 1.5 150 00:52 31.12.2020
4266 Clear 30 1008 88 10000 2.6 150 00:24 31.12.2020
4267 Clear 31 1008 74 10000 3.1 190 23:21 30.12.2020
4268 Clear 31 1008 74 10000 3.1 190 22:56 30.12.2020
4269 Clear 31 1008 74 10000 3.1 190 22:34 30.12.2020
4270 Clouds 31 1008 74 10000 4.6 170 21:50 30.12.2020
4271 Clouds 31 1008 74 10000 4.6 170 21:25 30.12.2020
4272 Clouds 32 1008 70 10000 4.6 170 20:53 30.12.2020
4273 Clouds 32 1008 74 10000 4.1 160 20:27 30.12.2020
4274 Clouds 32 1008 74 10000 4.1 160 19:58 30.12.2020
4275 Clouds 32 1008 74 10000 4.1 160 19:58 30.12.2020
4276 Clouds 32 1008 74 10000 4.1 160 19:58 30.12.2020
4277 Clouds 32 1008 74 10000 4.1 160 19:37 30.12.2020
4278 Clouds 33 1009 79 10000 3.1 130 19:18 30.12.2020
4279 Clouds 33 1009 79 10000 3.1 130 18:38 30.12.2020
4280 Clouds 32 1009 70 10000 2.1 10 18:20 30.12.2020
4281 Clouds 32 1009 70 10000 2.1 10 17:43 30.12.2020
4282 Clouds 31 1010 79 10000 2.1 350 17:24 30.12.2020
4283 Clouds 31 1010 79 10000 2.1 350 16:44 30.12.2020
4284 Clouds 30 1010 83 10000 2.1 350 15:51 30.12.2020
4285 Rain 30 1010 88 10000 3.1 350 15:31 30.12.2020
4286 Clouds 30 1010 88 10000 3.1 350 14:58 30.12.2020
4287 Clouds 30 1010 88 10000 3.1 350 14:40 30.12.2020
4288 Clouds 29 1010 88 10000 3.6 20 14:19 30.12.2020
4289 Clouds 26 1010 94 10000 3.1 10 13:19 30.12.2020
4290 Clouds 25 1009 94 10000 3.1 350 12:27 30.12.2020
4291 Clouds 26 1009 94 10000 3.1 350 11:48 30.12.2020
4292 Clouds 26 1009 94 10000 3.1 10 11:22 30.12.2020
4293 Rain 26 1009 94 10000 3.1 10 10:58 30.12.2020
4294 Rain 25 1009 94 10000 3.1 10 10:38 30.12.2020
4295 Rain 25 1009 94 10000 3.1 10 10:38 30.12.2020
4296 Rain 25 1009 94 10000 2.6 360 10:18 30.12.2020
4297 Rain 25 1009 94 10000 2.6 360 10:18 30.12.2020
4298 Rain 25 1010 88 6000 3.1 330 09:42 30.12.2020
4299 Clouds 25 1010 88 7000 2.1 300 08:54 30.12.2020
4300 Clouds 25 1010 88 7000 2.6 310 07:53 30.12.2020
4301 Clouds 25 1010 88 7000 2.6 310 07:27 30.12.2020
4302 Clouds 25 1010 88 7000 2.6 310 06:40 30.12.2020
4303 Clouds 26 1010 94 8000 3.1 330 05:49 30.12.2020
4304 Rain 26 1010 94 8000 3.1 330 05:30 30.12.2020
4305 Rain 26 1011 88 10000 2.1 350 03:44 30.12.2020
4306 Rain 26 1011 83 10000 2.1 320 03:24 30.12.2020
4307 Rain 27 1011 83 10000 2.1 320 02:36 30.12.2020
4308 Rain 27 1011 78 10000 3.1 330 01:47 30.12.2020
4309 Rain 26 1011 78 10000 3.1 330 01:29 30.12.2020
4310 Rain 27 1010 78 10000 2.6 330 00:46 30.12.2020
4311 Rain 26 1010 78 10000 2.6 330 00:26 30.12.2020
4312 Rain 26 1009 83 10000 3.6 360 23:52 29.12.2020
4313 Rain 27 1009 83 10000 3.6 360 23:34 29.12.2020
4314 Thunderstorm 28 1009 78 10000 6.2 360 22:50 29.12.2020
4315 Rain 28 1009 78 10000 6.2 360 22:31 29.12.2020
4316 Rain 29 1009 74 10000 5.7 360 21:56 29.12.2020
4317 Rain 29 1009 74 10000 3.6 80 21:37 29.12.2020
4318 Clouds 29 1009 78 10000 5.1 170 21:19 29.12.2020
4319 Clouds 29 1009 78 10000 5.1 170 20:42 29.12.2020
4320 Clouds 30 1009 74 10000 5.7 160 20:22 29.12.2020
4321 Clouds 31 1009 74 10000 5.7 160 19:45 29.12.2020
4322 Clouds 30 1009 74 10000 5.7 160 19:45 29.12.2020
4323 Clouds 31 1010 74 10000 4.6 150 19:21 29.12.2020
4324 Clouds 31 1010 74 10000 4.6 150 18:53 29.12.2020
4325 Clouds 31 1011 78 10000 4.6 140 18:28 29.12.2020
4326 Clouds 31 1011 78 10000 4.6 140 17:47 29.12.2020
4327 Clouds 31 1011 83 10000 4.6 150 17:23 29.12.2020
4328 Clouds 31 1011 83 10000 4.6 150 16:55 29.12.2020
4329 Clouds 30 1011 88 10000 3.6 140 16:27 29.12.2020
4330 Clouds 30 1011 88 10000 3.6 140 15:51 29.12.2020
4331 Clouds 30 1011 88 10000 3.6 140 15:33 29.12.2020
4332 Clouds 30 1012 78 10000 3.1 160 14:45 29.12.2020
4333 Clouds 28 1011 83 10000 2.1 140 14:27 29.12.2020
4334 Clouds 30 1011 83 10000 2.1 360 13:56 29.12.2020
4335 Clouds 28 1011 88 10000 2.1 330 13:25 29.12.2020
4336 Clouds 26 1011 88 10000 2.1 330 12:56 29.12.2020
4337 Clouds 27 1011 88 10000 2.1 330 12:36 29.12.2020
4338 Clouds 26 1011 88 10000 2.6 340 12:18 29.12.2020
4339 Clouds 26 1011 88 10000 2.6 340 11:45 29.12.2020
4340 Clouds 25 1011 94 10000 2.6 20 11:24 29.12.2020
4341 Clouds 25 1011 94 10000 3.1 10 10:20 29.12.2020
4342 Clouds 25 1011 88 10000 1.5 140 09:41 29.12.2020
4343 Clouds 25 1011 94 10000 3.1 10 09:19 29.12.2020
4344 Clouds 25 1011 94 10000 3.1 10 08:49 29.12.2020
4345 Clouds 25 1010 94 10000 2.1 90 07:40 29.12.2020
4346 Clouds 25 1012 88 10000 1 100 07:18 29.12.2020
4347 Rain 25 1013 94 10000 1.5 330 05:50 29.12.2020
4348 Rain 26 1013 83 8000 2.1 270 02:33 29.12.2020
4349 Clouds 26 1013 88 8000 4.6 10 00:43 29.12.2020
4350 Thunderstorm 26 1013 83 10000 1 0 23:39 28.12.2020
4351 Clouds 26 1012 83 10000 4.1 160 22:56 28.12.2020
4352 Clouds 26 1012 88 10000 4.1 180 22:22 28.12.2020
4353 Rain 26 1012 88 10000 4.1 180 21:42 28.12.2020
4354 Rain 27 1012 83 10000 5.7 170 21:21 28.12.2020
4355 Rain 27 1012 83 10000 5.7 170 20:40 28.12.2020
4356 Rain 28 1012 78 10000 5.1 150 20:21 28.12.2020
4357 Rain 28 1012 78 10000 5.1 150 19:42 28.12.2020
4358 Rain 28 1013 83 10000 4.6 160 19:23 28.12.2020
4359 Clouds 29 1013 83 10000 4.6 160 18:50 28.12.2020
4360 Rain 29 1014 88 9000 4.1 150 18:28 28.12.2020
4361 Rain 29 1014 88 9000 4.1 150 17:42 28.12.2020
4362 Rain 30 1014 83 10000 3.1 360 17:23 28.12.2020
4363 Rain 29 1014 83 10000 3.1 360 16:38 28.12.2020
4364 Rain 29 1014 88 10000 2.6 350 16:20 28.12.2020
4365 Clouds 29 1014 88 10000 2.6 350 15:45 28.12.2020
4366 Clouds 28 1014 88 9000 2.1 360 14:57 28.12.2020
4367 Rain 27 1014 94 7000 2.6 360 13:56 28.12.2020
4368 Clouds 27 1014 94 7000 2.6 360 13:35 28.12.2020
4369 Rain 27 1014 94 7000 2.1 350 12:55 28.12.2020
4370 Clouds 24 1014 94 7000 3.1 10 12:24 28.12.2020
4371 Clouds 24 1014 94 7000 3.1 10 11:47 28.12.2020
4372 Clouds 25 1014 94 8000 3.6 30 11:25 28.12.2020
4373 Rain 25 1014 94 8000 3.6 30 10:52 28.12.2020
4374 Rain 24 1014 94 8000 3.6 30 10:28 28.12.2020
4375 Rain 24 1014 94 10000 1 70 09:49 28.12.2020
4376 Clouds 24 1013 94 10000 2.1 90 09:21 28.12.2020
4377 Rain 24 1013 94 10000 2.1 90 08:55 28.12.2020
4378 Clouds 24 1013 94 10000 1.5 80 06:51 28.12.2020
4379 Rain 25 1014 94 10000 2.6 280 04:56 28.12.2020
4380 Rain 25 1014 88 10000 1.5 140 03:21 28.12.2020
4381 Clouds 25 1013 94 10000 1.5 120 01:52 28.12.2020
4382 Rain 24 1014 100 10000 1 230 23:50 27.12.2020
4383 Rain 24 1014 94 10000 1.5 210 23:20 27.12.2020
4384 Rain 25 1014 94 9000 1 170 22:24 27.12.2020
4385 Rain 25 1014 94 9000 1 170 21:47 27.12.2020
4386 Rain 25 1014 94 9000 3.1 200 21:20 27.12.2020
4387 Rain 25 1014 94 9000 3.1 200 19:59 27.12.2020
4388 Rain 26 1014 88 10000 2.6 140 19:24 27.12.2020
4389 Rain 26 1014 88 10000 2.6 140 18:49 27.12.2020
4390 Rain 27 1014 94 10000 1.5 110 18:20 27.12.2020
4391 Rain 27 1014 94 10000 1.5 110 17:56 27.12.2020
4392 Rain 27 1014 94 10000 1.5 110 17:35 27.12.2020
4393 Rain 26 1014 88 10000 2.1 30 16:56 27.12.2020
4394 Rain 26 1014 94 8000 3.1 340 16:22 27.12.2020
4395 Rain 26 1014 94 8000 3.1 340 15:31 27.12.2020
4396 Rain 25 1014 94 8000 3.6 330 14:50 27.12.2020
4397 Rain 25 1014 94 8000 3.6 330 14:31 27.12.2020
4398 Rain 24 1014 94 5000 3.1 330 13:36 27.12.2020
4399 Rain 24 1014 94 5000 2.1 320 12:56 27.12.2020
4400 Rain 24 1013 94 5000 3.1 310 12:25 27.12.2020
4401 Rain 24 1013 94 5000 3.1 310 11:42 27.12.2020
4402 Rain 24 1013 94 6000 1.5 280 11:20 27.12.2020
4403 Rain 24 1013 94 6000 1.5 280 11:20 27.12.2020
4404 Rain 24 1013 94 6000 1.5 280 10:45 27.12.2020
4405 Rain 24 1013 94 6000 1.5 290 10:19 27.12.2020
4406 Rain 24 1012 94 10000 2.6 160 09:37 27.12.2020
4407 Rain 25 1012 83 10000 3.1 120 08:28 27.12.2020
4408 Rain 25 1012 83 10000 2.1 140 07:29 27.12.2020
4409 Rain 25 1013 88 10000 2.6 110 06:48 27.12.2020
4410 Rain 25 1013 83 10000 1.5 100 05:38 27.12.2020
4411 Clouds 25 1012 94 10000 2.6 200 03:26 27.12.2020
4412 Clouds 25 1012 94 10000 2.6 120 02:30 27.12.2020
4413 Clouds 25 1012 94 10000 4.6 170 00:58 27.12.2020
4414 Clouds 25 1011 88 10000 5.7 170 23:44 26.12.2020
4415 Clouds 25 1010 88 10000 6.2 170 23:25 26.12.2020
4416 Clouds 25 1010 88 10000 6.2 170 22:46 26.12.2020
4417 Clouds 26 1010 88 10000 7.2 160 22:20 26.12.2020
4418 Clouds 26 1010 88 10000 7.2 160 21:54 26.12.2020
4419 Clouds 26 1010 88 10000 7.2 160 21:31 26.12.2020
4420 Clouds 26 1010 83 10000 6.7 160 20:46 26.12.2020
4421 Clouds 27 1010 83 10000 6.7 160 20:26 26.12.2020
4422 Clouds 27 1010 78 10000 7.2 160 19:50 26.12.2020
4423 Clouds 27 1010 78 10000 7.2 160 19:22 26.12.2020
4424 Clouds 27 1010 78 10000 7.2 160 18:36 26.12.2020
4425 Clouds 28 1011 83 10000 6.2 150 17:59 26.12.2020
4426 Clouds 28 1011 83 10000 6.2 150 17:39 26.12.2020
4427 Clouds 28 1011 83 10000 6.7 160 17:18 26.12.2020
4428 Clouds 28 1011 83 10000 6.7 160 16:31 26.12.2020
4429 Clouds 28 1012 74 10000 1 40 15:25 26.12.2020
4430 Clouds 28 1012 74 10000 1 40 14:46 26.12.2020
4431 Clouds 27 1012 83 10000 2.1 10 14:27 26.12.2020
4432 Clouds 27 1012 83 10000 2.1 10 13:43 26.12.2020
4433 Clouds 25 1012 88 10000 2.6 330 13:24 26.12.2020
4434 Clouds 25 1012 88 10000 2.6 330 12:44 26.12.2020
4435 Clouds 24 1012 88 10000 1.5 30 12:22 26.12.2020
4436 Clouds 24 1012 88 10000 1.5 30 11:51 26.12.2020
4437 Clouds 23 1012 88 10000 1.5 20 11:22 26.12.2020
4438 Clouds 23 1012 88 10000 1.5 20 10:54 26.12.2020
4439 Clouds 22 1011 88 10000 1 360 10:27 26.12.2020
4440 Clouds 23 1011 94 6000 3.1 310 09:50 26.12.2020
4441 Clouds 23 1011 94 6000 2.6 300 09:25 26.12.2020
4442 Clouds 23 1011 88 6000 2.6 290 08:33 26.12.2020
4443 Clouds 23 1011 88 6000 2.6 290 07:52 26.12.2020
4444 Clouds 23 1011 88 8000 3.6 300 06:31 26.12.2020
4445 Rain 23 1012 94 6000 4.6 10 03:19 26.12.2020
4446 Rain 22 1013 100 4500 1 0 01:35 26.12.2020
4447 Rain 23 1012 100 3000 5.1 70 00:26 26.12.2020
4448 Thunderstorm 23 1012 100 3000 5.1 70 23:40 25.12.2020
4449 Rain 24 1011 94 4000 1 190 23:22 25.12.2020
4450 Rain 24 1011 94 4500 1.5 190 22:45 25.12.2020
4451 Rain 24 1010 94 4500 2.1 230 21:58 25.12.2020
4452 Rain 24 1010 94 4500 2.1 230 21:58 25.12.2020
4453 Rain 24 1010 94 4000 1.5 170 21:34 25.12.2020
4454 Mist 24 1010 94 4000 1.5 170 20:57 25.12.2020
4455 Rain 25 1010 94 5000 1.5 260 20:37 25.12.2020
4456 Rain 25 1010 94 5000 2.1 200 19:49 25.12.2020
4457 Mist 25 1010 94 5000 2.1 200 19:26 25.12.2020
4458 Rain 25 1011 88 6000 4.1 200 18:39 25.12.2020
4459 Rain 26 1011 83 10000 4.1 180 17:53 25.12.2020
4460 Rain 27 1011 83 10000 4.1 180 17:34 25.12.2020
4461 Clouds 27 1013 83 10000 1 140 16:33 25.12.2020
4462 Clouds 26 1013 83 10000 1 140 15:59 25.12.2020
4463 Clouds 26 1013 83 10000 1 140 15:36 25.12.2020
4464 Clouds 26 1013 88 10000 2.1 10 14:58 25.12.2020
4465 Clouds 26 1013 88 10000 2.1 10 14:30 25.12.2020
4466 Clouds 26 1013 88 10000 2.1 10 13:45 25.12.2020
4467 Clouds 25 1013 88 10000 2.1 10 13:26 25.12.2020
4468 Clouds 23 1013 94 10000 1 350 12:47 25.12.2020
4469 Clouds 23 1012 94 10000 2.6 310 12:24 25.12.2020
4470 Clouds 23 1012 94 10000 2.6 310 11:45 25.12.2020
4471 Clouds 22 1012 94 10000 2.1 320 11:20 25.12.2020
4472 Clouds 23 1012 94 10000 2.1 320 10:32 25.12.2020
4473 Clouds 23 1012 94 10000 2.1 300 09:49 25.12.2020
4474 Clouds 22 1012 94 10000 2.1 290 08:49 25.12.2020
4475 Clouds 22 1012 94 10000 2.1 290 08:29 25.12.2020
4476 Clouds 23 1012 94 8000 3.1 280 06:49 25.12.2020
4477 Clouds 23 1014 94 6000 3.1 280 05:24 25.12.2020
4478 Clouds 23 1014 100 8000 2.1 290 02:19 25.12.2020
4479 Mist 23 1013 100 4000 1 0 00:20 25.12.2020
4480 Mist 23 1013 100 4000 1 0 23:30 24.12.2020
4481 Clouds 23 1013 100 7000 1 0 22:54 24.12.2020
4482 Drizzle 23 1013 94 4000 2.6 90 22:24 24.12.2020
4483 Drizzle 23 1013 94 4000 2.6 90 21:45 24.12.2020
4484 Clouds 24 1013 88 7000 1 0 20:59 24.12.2020
4485 Clouds 23 1013 94 6000 1.38 147 19:48 24.12.2020
4486 Rain 23 1014 94 4000 3.1 340 18:21 24.12.2020
4487 Drizzle 23 1014 94 4000 3.1 340 17:39 24.12.2020
4488 Drizzle 23 1014 94 4000 3.1 340 17:21 24.12.2020
4489 Drizzle 23 1014 100 4000 1.5 310 16:25 24.12.2020
4490 Rain 23 1014 94 2000 2.6 350 15:49 24.12.2020
4491 Rain 23 1015 94 2000 2.6 330 15:26 24.12.2020
4492 Rain 23 1015 94 2000 2.6 330 14:57 24.12.2020
4493 Drizzle 23 1015 94 2000 2.6 330 14:57 24.12.2020
4494 Mist 23 1015 94 5000 3.1 310 14:38 24.12.2020
4495 Mist 23 1014 94 5000 2.1 330 14:20 24.12.2020
4496 Rain 23 1014 94 5000 2.1 330 13:39 24.12.2020
4497 Mist 23 1014 94 5000 3.1 330 13:19 24.12.2020
4498 Rain 23 1014 94 5000 3.1 330 12:40 24.12.2020
4499 Rain 22 1013 100 6000 3.1 310 12:19 24.12.2020
4500 Rain 22 1013 100 6000 3.1 310 11:38 24.12.2020
4501 Rain 22 1013 100 6000 3.1 310 11:19 24.12.2020
4502 Rain 22 1013 94 5000 3.1 50 10:46 24.12.2020
4503 Mist 22 1013 94 5000 2.6 50 10:27 24.12.2020
4504 Rain 22 1013 94 7000 2.1 340 09:50 24.12.2020
4505 Rain 22 1012 94 8000 1.5 200 08:58 24.12.2020
4506 Rain 22 1012 94 10000 1.5 150 07:57 24.12.2020
4507 Clouds 22 1012 94 10000 1.5 150 07:37 24.12.2020
4508 Clouds 23 1012 94 10000 2.1 120 06:34 24.12.2020
4509 Clouds 23 1015 88 7000 1 0 04:24 24.12.2020
4510 Rain 22 1015 88 5000 1 0 01:53 24.12.2020
4511 Rain 22 1015 88 5000 2.1 360 01:30 24.12.2020
4512 Rain 22 1015 88 5000 2.1 360 00:55 24.12.2020
4513 Rain 22 1014 88 6000 3.6 300 00:19 24.12.2020
4514 Rain 22 1014 88 6000 3.6 300 23:40 23.12.2020
4515 Rain 22 1014 94 6000 3.6 60 23:21 23.12.2020
4516 Clouds 22 1014 94 6000 3.6 60 22:50 23.12.2020
4517 Clouds 24 1013 78 10000 4.1 90 22:29 23.12.2020
4518 Clouds 24 1013 78 10000 4.1 90 21:49 23.12.2020
4519 Clouds 24 1013 78 10000 4.1 90 21:23 23.12.2020
4520 Clouds 24 1013 83 10000 5.1 120 20:47 23.12.2020
4521 Clouds 24 1013 83 10000 5.1 120 20:47 23.12.2020
4522 Clouds 25 1013 78 10000 5.1 140 20:28 23.12.2020
4523 Clouds 25 1013 78 10000 5.1 140 19:59 23.12.2020
4524 Clouds 25 1013 78 10000 5.1 140 19:38 23.12.2020
4525 Clouds 24 1013 83 10000 5.7 130 19:19 23.12.2020
4526 Clouds 24 1013 83 10000 5.7 130 18:46 23.12.2020
4527 Clouds 25 1014 83 10000 4.1 160 18:21 23.12.2020
4528 Clouds 25 1014 83 10000 4.1 160 17:39 23.12.2020
4529 Clouds 25 1014 88 9000 2.1 140 17:20 23.12.2020
4530 Clouds 25 1014 88 9000 2.1 140 16:43 23.12.2020
4531 Clouds 25 1014 88 8000 2.1 360 16:25 23.12.2020
4532 Clouds 25 1014 88 8000 2.1 360 15:54 23.12.2020
4533 Clouds 24 1014 94 6000 2.1 350 15:28 23.12.2020
4534 Clouds 24 1014 94 6000 2.1 350 14:58 23.12.2020
4535 Clouds 24 1014 94 6000 2.1 350 14:39 23.12.2020
4536 Mist 24 1014 94 4800 2.1 330 14:20 23.12.2020
4537 Drizzle 24 1014 94 7000 3.1 330 13:43 23.12.2020
4538 Clouds 23 1013 94 9000 3.6 330 13:19 23.12.2020
4539 Clouds 23 1013 94 9000 3.6 330 12:51 23.12.2020
4540 Clouds 23 1013 94 9000 3.6 330 12:25 23.12.2020
4541 Clouds 23 1013 94 9000 3.1 320 11:47 23.12.2020
4542 Drizzle 23 1012 94 7000 2.6 330 11:20 23.12.2020
4543 Drizzle 23 1012 94 7000 2.6 330 10:50 23.12.2020
4544 Drizzle 23 1012 94 7000 2.6 330 10:31 23.12.2020
4545 Clouds 22 1012 94 6000 2.6 260 09:36 23.12.2020
4546 Mist 22 1012 94 2000 1.5 250 08:50 23.12.2020
4547 Mist 22 1012 94 4000 3.1 280 08:21 23.12.2020
4548 Mist 22 1012 94 4000 3.1 280 07:37 23.12.2020
4549 Clouds 22 1012 88 10000 4.1 270 06:41 23.12.2020
4550 Mist 22 1013 88 2000 3.1 280 05:54 23.12.2020
4551 Clouds 23 1013 88 4000 2.1 340 05:19 23.12.2020
4552 Clouds 24 1013 88 10000 4.6 140 01:32 23.12.2020
4553 Rain 23 1013 88 9000 4.1 150 00:30 23.12.2020
4554 Rain 23 1013 88 7000 4.1 150 23:39 22.12.2020
4555 Rain 23 1012 88 5000 6.2 160 23:21 22.12.2020
4556 Rain 23 1012 88 5000 6.2 160 22:42 22.12.2020
4557 Rain 24 1012 94 5000 7.7 160 22:22 22.12.2020
4558 Rain 24 1012 94 5000 7.7 160 21:48 22.12.2020
4559 Mist 25 1011 94 5000 8.2 160 21:20 22.12.2020
4560 Rain 25 1011 94 5000 8.2 160 20:53 22.12.2020
4561 Rain 25 1011 94 5000 8.2 160 20:35 22.12.2020
4562 Rain 25 1011 94 4000 7.7 170 19:54 22.12.2020
4563 Rain 26 1011 94 4000 7.7 170 19:29 22.12.2020
4564 Clouds 26 1011 94 8000 8.7 160 18:59 22.12.2020
4565 Clouds 26 1011 94 8000 8.7 160 18:38 22.12.2020
4566 Rain 26 1011 88 8000 8.2 170 18:20 22.12.2020
4567 Rain 26 1011 88 8000 8.2 170 17:38 22.12.2020
4568 Rain 26 1011 88 8000 8.2 170 17:18 22.12.2020
4569 Rain 27 1011 88 8000 5.7 180 16:47 22.12.2020
4570 Rain 27 1012 88 7000 4.6 170 16:21 22.12.2020
4571 Rain 27 1012 88 7000 4.6 170 15:47 22.12.2020
4572 Rain 27 1012 88 7000 4.6 170 15:29 22.12.2020
4573 Clouds 27 1011 88 9000 4.6 170 14:57 22.12.2020
4574 Rain 27 1011 88 9000 4.6 170 14:39 22.12.2020
4575 Rain 26 1012 94 9000 4.1 140 14:19 22.12.2020
4576 Rain 27 1012 94 9000 4.1 140 13:43 22.12.2020
4577 Rain 28 1011 83 9000 4.1 190 13:18 22.12.2020
4578 Rain 28 1011 83 9000 4.1 190 12:46 22.12.2020
4579 Clouds 28 1011 83 10000 3.1 180 12:28 22.12.2020
4580 Rain 28 1011 83 10000 3.1 180 11:57 22.12.2020
4581 Rain 28 1011 83 10000 3.1 180 11:39 22.12.2020
4582 Rain 27 1010 88 10000 1.5 160 11:20 22.12.2020
4583 Clouds 27 1010 88 10000 1.5 160 10:51 22.12.2020
4584 Clouds 27 1010 88 10000 1 160 10:24 22.12.2020
4585 Clouds 27 1010 88 10000 1 160 09:56 22.12.2020
4586 Clouds 27 1009 78 10000 3.1 290 09:23 22.12.2020
4587 Clouds 27 1009 78 10000 3.1 290 08:53 22.12.2020
4588 Clouds 27 1009 78 10000 3.1 290 08:30 22.12.2020
4589 Clouds 27 1009 78 10000 3.1 250 07:55 22.12.2020
4590 Clouds 27 1009 78 10000 3.1 250 07:55 22.12.2020
4591 Clouds 27 1009 78 10000 3.1 250 06:58 22.12.2020
4592 Clouds 27 1010 78 10000 3.6 270 05:48 22.12.2020
4593 Clouds 28 1011 78 10000 1.5 160 03:46 22.12.2020
4594 Clouds 28 1010 83 10000 3.1 140 01:35 22.12.2020
4595 Clouds 28 1009 88 10000 5.1 160 23:56 21.12.2020
4596 Clouds 28 1009 88 10000 5.1 160 23:37 21.12.2020
4597 Clouds 28 1009 78 10000 4.6 150 22:59 21.12.2020
4598 Clouds 29 1009 78 10000 4.6 150 22:36 21.12.2020
4599 Clouds 30 1008 74 10000 6.7 150 22:18 21.12.2020
4600 Clouds 30 1008 74 10000 6.7 150 21:41 21.12.2020
4601 Clouds 31 1007 74 10000 7.7 170 21:22 21.12.2020
4602 Clouds 31 1007 74 10000 7.7 170 20:40 21.12.2020
4603 Clouds 32 1008 66 10000 8.2 160 20:19 21.12.2020
4604 Clouds 32 1008 66 10000 8.2 160 19:45 21.12.2020
4605 Clouds 33 1008 62 10000 7.2 170 19:20 21.12.2020
4606 Clouds 33 1008 62 10000 7.2 170 18:54 21.12.2020
4607 Clouds 33 1008 62 10000 7.2 170 18:36 21.12.2020
4608 Clouds 34 1008 74 10000 6.7 160 18:18 21.12.2020
4609 Clouds 34 1008 74 10000 6.7 160 17:41 21.12.2020
4610 Clouds 34 1008 74 10000 6.7 160 17:22 21.12.2020
4611 Clouds 33 1009 74 10000 6.2 160 16:39 21.12.2020
4612 Clouds 33 1009 83 10000 5.1 150 16:18 21.12.2020
4613 Clouds 33 1009 83 10000 5.1 150 15:41 21.12.2020
4614 Clear 32 1009 74 10000 4.1 150 14:57 21.12.2020
4615 Clear 31 1009 74 10000 1 80 14:22 21.12.2020
4616 Clear 31 1009 74 10000 1 80 13:49 21.12.2020
4617 Clear 31 1009 74 10000 1 80 13:31 21.12.2020
4618 Clear 31 1009 83 10000 2.1 10 12:47 21.12.2020
4619 Clear 29 1009 88 10000 3.1 350 12:25 21.12.2020
4620 Clear 29 1009 88 10000 3.1 350 11:59 21.12.2020
4621 Clear 29 1009 88 10000 3.1 350 11:40 21.12.2020
4622 Clear 27 1008 88 10000 1 350 11:22 21.12.2020
4623 Clear 27 1008 88 10000 1 350 10:55 21.12.2020
4624 Clear 27 1008 88 10000 1 350 10:37 21.12.2020
4625 Clear 26 1008 94 10000 3.1 350 09:55 21.12.2020
4626 Clear 26 1009 83 10000 3.6 160 09:37 21.12.2020
4627 Clear 27 1009 83 10000 4.1 140 09:18 21.12.2020
4628 Clear 27 1009 78 10000 4.1 120 08:18 21.12.2020
4629 Clear 27 1010 78 10000 2.6 70 06:48 21.12.2020
4630 Clear 28 1010 74 10000 1.5 70 04:59 21.12.2020
4631 Clear 28 1009 62 10000 1.53 338 04:27 21.12.2020
4632 Clear 30 1008 66 10000 2.1 180 00:36 21.12.2020
4633 Clouds 30 1007 66 10000 3.6 180 23:39 20.12.2020
4634 Clouds 31 1006 62 10000 5.7 190 23:20 20.12.2020
4635 Clouds 31 1006 62 10000 5.7 190 22:43 20.12.2020
4636 Clouds 31 1006 66 10000 6.7 180 22:23 20.12.2020
4637 Clouds 31 1006 66 10000 6.7 180 21:42 20.12.2020
4638 Clouds 31 1006 79 10000 8.2 160 21:24 20.12.2020
4639 Clouds 31 1006 79 10000 8.2 160 20:59 20.12.2020
4640 Clouds 31 1006 79 10000 8.2 160 20:40 20.12.2020
4641 Clouds 31 1006 83 10000 7.2 160 20:21 20.12.2020
4642 Clouds 32 1006 83 10000 7.2 160 19:42 20.12.2020
4643 Clouds 32 1006 74 10000 6.7 160 19:20 20.12.2020
4644 Clouds 32 1006 74 10000 6.7 160 18:47 20.12.2020
4645 Clouds 33 1006 74 10000 6.7 160 18:29 20.12.2020
4646 Clouds 33 1007 74 10000 5.7 150 17:47 20.12.2020
4647 Clouds 33 1007 74 10000 5.7 150 17:28 20.12.2020
4648 Clouds 33 1007 83 10000 5.1 140 16:48 20.12.2020
4649 Clouds 32 1008 70 10000 5.7 150 16:29 20.12.2020
4650 Clouds 33 1008 70 10000 5.7 150 15:51 20.12.2020
4651 Clear 32 1008 70 10000 2.1 100 15:28 20.12.2020
4652 Clear 32 1008 70 10000 2.1 100 14:56 20.12.2020
4653 Clear 32 1008 70 10000 2.1 100 14:36 20.12.2020
4654 Clear 32 1008 74 10000 2.1 130 13:57 20.12.2020
4655 Clear 31 1008 74 10000 2.1 130 13:37 20.12.2020
4656 Clear 29 1008 88 10000 2.1 30 13:18 20.12.2020
4657 Clear 29 1008 88 10000 2.1 30 12:44 20.12.2020
4658 Clear 28 1008 88 10000 2.6 350 12:22 20.12.2020
4659 Clear 28 1008 88 10000 2.6 350 11:49 20.12.2020
4660 Rain 27 1008 94 10000 1.5 70 11:26 20.12.2020
4661 Clear 26 1008 94 10000 1.5 70 10:49 20.12.2020
4662 Clear 25 1008 94 10000 2.6 50 10:21 20.12.2020
4663 Clear 25 1008 94 10000 2.6 50 09:55 20.12.2020
4664 Clear 25 1008 88 10000 2.6 110 09:36 20.12.2020
4665 Clear 26 1008 88 10000 3.1 120 09:18 20.12.2020
4666 Clear 26 1008 88 10000 3.1 120 08:44 20.12.2020
4667 Clear 27 1008 88 10000 3.1 120 08:25 20.12.2020
4668 Clear 26 1008 88 10000 2.1 210 07:21 20.12.2020
4669 Clear 27 1008 88 10000 1.5 340 03:44 20.12.2020
4670 Clear 27 1007 83 10000 3.6 170 01:25 20.12.2020
4671 Clouds 27 1007 83 10000 4.6 180 23:58 19.12.2020
4672 Clouds 28 1006 78 10000 4.6 170 23:18 19.12.2020
4673 Clouds 28 1006 78 10000 4.6 170 23:18 19.12.2020
4674 Clouds 28 1006 78 10000 4.6 170 22:44 19.12.2020
4675 Clouds 29 1006 83 10000 5.7 170 22:25 19.12.2020
4676 Clouds 29 1006 83 10000 5.7 170 21:58 19.12.2020
4677 Clouds 29 1006 83 10000 5.7 170 21:38 19.12.2020
4678 Clouds 29 1007 78 10000 6.2 160 21:20 19.12.2020
4679 Clouds 29 1007 78 10000 6.2 160 20:39 19.12.2020
4680 Clouds 29 1007 78 10000 6.7 160 20:18 19.12.2020
4681 Clouds 29 1007 78 10000 6.7 160 19:49 19.12.2020
4682 Clouds 29 1007 78 10000 6.7 160 19:24 19.12.2020
4683 Clouds 29 1008 88 10000 8.2 160 18:34 19.12.2020
4684 Clouds 30 1008 83 10000 6.7 160 17:58 19.12.2020
4685 Clouds 30 1008 83 10000 6.7 160 17:40 19.12.2020
4686 Clouds 30 1008 83 10000 7.2 160 17:20 19.12.2020
4687 Clouds 30 1008 83 10000 7.2 160 16:42 19.12.2020
4688 Clouds 30 1008 83 10000 6.2 170 16:24 19.12.2020
4689 Clouds 30 1008 83 10000 6.2 170 15:54 19.12.2020
4690 Clouds 31 1008 83 10000 6.2 170 15:33 19.12.2020
4691 Clouds 31 1008 78 10000 5.1 150 14:40 19.12.2020
4692 Clouds 30 1008 83 10000 3.6 140 14:21 19.12.2020
4693 Clouds 30 1008 78 10000 2.6 340 13:41 19.12.2020
4694 Clear 29 1008 88 10000 2.1 360 13:19 19.12.2020
4695 Clear 29 1008 88 10000 2.1 360 12:44 19.12.2020
4696 Clear 29 1008 88 10000 2.1 360 12:25 19.12.2020
4697 Clouds 27 1008 88 10000 2.6 340 11:57 19.12.2020
4698 Clouds 27 1008 88 10000 2.6 340 11:57 19.12.2020
4699 Clouds 27 1008 88 10000 2.6 340 11:35 19.12.2020
4700 Clear 26 1008 94 10000 1 0 10:43 19.12.2020
4701 Clear 24 1008 100 10000 1 0 10:24 19.12.2020
4702 Clear 25 1008 100 10000 1 0 09:53 19.12.2020
4703 Clouds 26 1007 83 10000 1.5 310 09:35 19.12.2020
4704 Clouds 25 1007 83 10000 2.1 340 08:36 19.12.2020
4705 Clouds 26 1008 78 10000 1.5 340 07:25 19.12.2020
4706 Clouds 25 1008 88 10000 1.5 290 06:53 19.12.2020
4707 Clouds 26 1009 83 10000 3.1 330 06:20 19.12.2020
4708 Clouds 26 1009 74 10000 1 90 05:18 19.12.2020
4709 Thunderstorm 27 1010 94 10000 2.6 100 03:20 19.12.2020
4710 Clouds 27 1009 74 10000 3.6 170 00:40 19.12.2020
4711 Clouds 27 1009 74 10000 4.1 170 00:18 19.12.2020
4712 Clouds 27 1009 74 10000 4.1 170 23:48 18.12.2020
4713 Clouds 28 1008 78 10000 5.1 180 23:23 18.12.2020
4714 Clouds 28 1008 78 10000 5.1 180 22:46 18.12.2020
4715 Clouds 28 1008 78 10000 5.1 180 22:46 18.12.2020
4716 Clouds 29 1008 66 10000 7.2 170 22:24 18.12.2020
4717 Clouds 29 1008 66 10000 7.2 170 21:50 18.12.2020
4718 Clouds 30 1008 62 10000 8.2 180 21:31 18.12.2020
4719 Clouds 31 1008 62 10000 8.2 180 20:43 18.12.2020
4720 Clouds 31 1008 58 10000 9.3 190 20:22 18.12.2020
4721 Clouds 31 1008 58 10000 9.3 190 19:45 18.12.2020
4722 Clouds 31 1008 58 10000 9.3 190 19:22 18.12.2020
4723 Clouds 31 1008 62 10000 8.2 180 18:45 18.12.2020
4724 Clouds 31 1009 70 10000 6.2 170 18:25 18.12.2020
4725 Clouds 31 1009 70 10000 6.2 170 17:36 18.12.2020
4726 Clouds 31 1009 83 10000 3.6 140 16:57 18.12.2020
4727 Clouds 30 1009 78 10000 4.6 130 16:38 18.12.2020
4728 Clouds 30 1009 78 10000 4.6 130 16:20 18.12.2020
4729 Clouds 31 1009 78 10000 4.6 130 15:44 18.12.2020
4730 Clouds 30 1009 78 10000 4.6 130 15:25 18.12.2020
4731 Rain 30 1010 88 9000 3.6 140 14:55 18.12.2020
4732 Clouds 30 1009 78 8000 1 0 14:23 18.12.2020
4733 Clouds 31 1009 78 8000 1 0 13:51 18.12.2020
4734 Rain 29 1009 78 8000 1 0 13:32 18.12.2020
4735 Clouds 28 1009 83 8000 1.5 350 12:57 18.12.2020
4736 Clouds 27 1009 88 7000 2.1 330 12:34 18.12.2020
4737 Clouds 27 1009 88 7000 2.1 330 11:28 18.12.2020
4738 Clouds 26 1008 94 7000 2.1 360 10:40 18.12.2020
4739 Clouds 25 1008 94 7000 2.1 350 10:21 18.12.2020
4740 Clouds 26 1008 94 7000 2.1 350 09:58 18.12.2020
4741 Clouds 26 1009 88 10000 1 60 09:37 18.12.2020
4742 Clouds 26 1008 83 10000 2.1 20 09:18 18.12.2020
4743 Clouds 26 1008 83 10000 2.1 20 08:46 18.12.2020
4744 Clouds 26 1008 74 10000 1.35 343 08:20 18.12.2020
4745 Clouds 26 1009 78 10000 1 180 07:20 18.12.2020
4746 Clouds 26 1009 78 10000 1 180 06:59 18.12.2020
4747 Clouds 25 1010 88 10000 2.1 270 05:44 18.12.2020
4748 Clouds 26 1010 88 10000 2.1 320 05:23 18.12.2020
4749 Rain 26 1011 88 10000 1.5 320 04:42 18.12.2020
4750 Clear 27 1010 88 10000 2.6 170 01:47 18.12.2020
4751 Clear 27 1010 88 10000 3.1 160 00:31 18.12.2020
4752 Clouds 27 1010 88 10000 1.5 150 23:53 17.12.2020
4753 Clouds 27 1010 88 10000 1.5 150 23:25 17.12.2020
4754 Clouds 28 1009 83 10000 2.6 190 22:49 17.12.2020
4755 Clouds 28 1009 83 10000 2.6 190 22:28 17.12.2020
4756 Clouds 28 1009 88 10000 3.6 160 21:47 17.12.2020
4757 Clouds 28 1009 88 10000 3.6 160 21:47 17.12.2020
4758 Clouds 28 1009 88 10000 3.6 160 21:47 17.12.2020
4759 Clouds 28 1010 88 10000 5.7 160 21:22 17.12.2020
4760 Clouds 28 1010 88 10000 5.7 160 20:55 17.12.2020
4761 Clouds 28 1010 88 10000 5.7 160 20:37 17.12.2020
4762 Clouds 28 1010 88 10000 5.7 160 20:18 17.12.2020
4763 Rain 28 1010 88 10000 6.7 170 19:44 17.12.2020
4764 Clouds 28 1011 83 9000 6.2 160 19:22 17.12.2020
4765 Clouds 28 1011 83 9000 6.2 160 18:41 17.12.2020
4766 Clouds 29 1011 83 9000 5.7 160 18:22 17.12.2020
4767 Clouds 29 1011 83 9000 5.7 160 18:22 17.12.2020
4768 Clouds 29 1011 83 9000 5.7 160 17:51 17.12.2020
4769 Clouds 29 1011 83 9000 5.7 160 17:32 17.12.2020
4770 Clouds 29 1011 83 9000 5.7 160 17:32 17.12.2020
4771 Clouds 29 1013 88 9000 5.1 140 16:44 17.12.2020
4772 Clouds 29 1013 78 9000 5.1 170 16:24 17.12.2020
4773 Clouds 29 1013 78 9000 5.1 170 15:52 17.12.2020
4774 Clouds 28 1013 78 9000 5.7 170 15:31 17.12.2020
4775 Clouds 29 1013 78 9000 5.7 170 14:55 17.12.2020
4776 Clouds 27 1013 88 8000 4.1 150 14:31 17.12.2020
4777 Clouds 28 1013 88 8000 4.1 150 13:58 17.12.2020
4778 Clouds 27 1013 88 8000 4.1 150 13:35 17.12.2020
4779 Clouds 26 1013 88 10000 3.6 140 12:48 17.12.2020
4780 Clouds 25 1013 94 10000 1 120 12:25 17.12.2020
4781 Clouds 25 1013 94 10000 1 120 11:45 17.12.2020
4782 Clouds 25 1012 100 10000 0.5 0 11:25 17.12.2020
4783 Clouds 25 1012 100 10000 0.5 0 10:56 17.12.2020
4784 Clouds 24 1011 100 10000 0.5 0 10:21 17.12.2020
4785 Rain 26 1012 94 10000 1.5 70 09:29 17.12.2020
4786 Rain 27 1011 88 10000 3.1 70 08:20 17.12.2020
4787 Clear 26 1011 88 10000 3.1 70 07:39 17.12.2020
4788 Clear 26 1012 88 10000 1.5 100 07:18 17.12.2020
4789 Clear 25 1012 88 10000 1.5 100 06:42 17.12.2020
4790 Clear 25 1012 88 10000 1.5 110 06:24 17.12.2020
4791 Clouds 26 1012 94 10000 3.6 120 00:55 17.12.2020
4792 Clouds 27 1011 88 10000 3.1 130 23:57 16.12.2020
4793 Clouds 27 1012 88 10000 5.1 120 23:22 16.12.2020
4794 Clouds 27 1012 88 10000 5.1 120 22:58 16.12.2020
4795 Clouds 28 1012 88 10000 5.1 120 22:36 16.12.2020
4796 Clouds 29 1010 62 10000 7.2 170 21:54 16.12.2020
4797 Clouds 29 1010 62 10000 7.2 170 21:36 16.12.2020
4798 Clouds 30 1011 70 10000 7.2 170 20:59 16.12.2020
4799 Clouds 30 1011 70 10000 7.2 170 20:41 16.12.2020
4800 Clouds 30 1010 74 10000 6.7 160 20:19 16.12.2020
4801 Clouds 30 1011 78 10000 6.2 160 19:20 16.12.2020
4802 Clouds 30 1011 78 10000 6.2 160 18:57 16.12.2020
4803 Clouds 30 1011 78 10000 6.2 160 18:57 16.12.2020
4804 Clouds 30 1011 78 10000 6.2 160 18:57 16.12.2020
4805 Clouds 30 1011 78 10000 6.2 160 18:37 16.12.2020
4806 Clouds 30 1011 78 10000 6.2 160 18:19 16.12.2020
4807 Clouds 31 1011 83 10000 6.2 150 17:33 16.12.2020
4808 Clouds 31 1012 83 10000 4.6 150 16:42 16.12.2020
4809 Clouds 30 1012 94 10000 5.1 140 16:22 16.12.2020
4810 Clouds 30 1012 94 10000 5.1 140 16:22 16.12.2020
4811 Clouds 30 1012 94 10000 5.1 140 15:52 16.12.2020
4812 Clouds 30 1012 94 10000 5.1 140 15:32 16.12.2020
4813 Clouds 30 1012 88 10000 2.1 140 14:55 16.12.2020
4814 Clouds 30 1012 88 10000 2.1 140 14:37 16.12.2020
4815 Clouds 30 1012 83 10000 4.1 140 14:19 16.12.2020
4816 Clouds 30 1012 83 10000 4.1 140 13:37 16.12.2020
4817 Clouds 28 1011 88 10000 2.1 350 13:18 16.12.2020
4818 Clouds 28 1011 88 10000 2.1 350 12:42 16.12.2020
4819 Clouds 27 1011 88 10000 2.1 360 11:43 16.12.2020
4820 Clouds 26 1011 94 10000 2.1 30 11:23 16.12.2020
4821 Clouds 26 1011 94 10000 2.1 30 10:52 16.12.2020
4822 Clouds 26 1011 94 10000 2.1 30 10:27 16.12.2020
4823 Clouds 26 1011 94 10000 2.1 30 10:27 16.12.2020
4824 Clouds 26 1011 88 10000 1 0 09:50 16.12.2020
4825 Clouds 26 1011 88 10000 2.1 20 09:24 16.12.2020
4826 Clouds 26 1011 88 10000 1 50 08:22 16.12.2020
4827 Clouds 26 1011 88 10000 1 50 07:42 16.12.2020
4828 Clouds 26 1011 88 10000 1 170 07:20 16.12.2020
4829 Clouds 26 1012 88 10000 2.1 50 03:35 16.12.2020
4830 Rain 28 1011 66 10000 3.1 0 01:57 16.12.2020
4831 Rain 28 1009 65 10000 6.7 180 23:46 15.12.2020
4832 Rain 28 1008 69 10000 7.7 180 23:18 15.12.2020
4833 Rain 28 1008 69 10000 7.7 180 22:40 15.12.2020
4834 Clouds 29 1007 69 10000 8.7 180 22:20 15.12.2020
4835 Clouds 29 1007 69 10000 8.7 180 21:45 15.12.2020
4836 Clouds 31 1007 70 10000 6.7 170 21:22 15.12.2020
4837 Clouds 31 1007 70 10000 6.7 170 20:45 15.12.2020
4838 Clouds 31 1007 70 10000 7.2 170 20:26 15.12.2020
4839 Clouds 31 1007 70 10000 7.2 170 19:55 15.12.2020
4840 Clouds 32 1007 70 10000 7.2 170 19:33 15.12.2020
4841 Clouds 32 1008 74 10000 6.2 170 18:41 15.12.2020
4842 Clouds 32 1008 74 10000 6.2 160 18:22 15.12.2020
4843 Clouds 32 1008 74 10000 6.2 160 17:58 15.12.2020
4844 Clouds 32 1008 74 10000 6.2 160 17:40 15.12.2020
4845 Clouds 32 1009 83 10000 6.2 150 17:19 15.12.2020
4846 Clouds 32 1009 83 10000 6.2 150 16:32 15.12.2020
4847 Clouds 31 1010 88 10000 5.1 150 15:52 15.12.2020
4848 Clouds 31 1010 88 10000 5.1 150 15:31 15.12.2020
4849 Clear 32 1010 66 10000 1.5 340 14:48 15.12.2020
4850 Clear 29 1010 83 10000 2.6 330 14:21 15.12.2020
4851 Clear 30 1010 83 10000 2.6 330 13:52 15.12.2020
4852 Clear 30 1010 83 10000 2.6 330 13:32 15.12.2020
4853 Clear 28 1010 83 10000 2.6 350 12:47 15.12.2020
4854 Clouds 28 1010 88 10000 2.1 30 12:22 15.12.2020
4855 Clouds 28 1010 88 10000 2.1 30 11:56 15.12.2020
4856 Clouds 27 1010 88 10000 2.1 30 11:27 15.12.2020
4857 Clouds 26 1010 88 10000 1.5 190 10:57 15.12.2020
4858 Clouds 26 1010 88 10000 1.5 190 10:39 15.12.2020
4859 Clouds 26 1009 83 10000 4.1 170 09:53 15.12.2020
4860 Clouds 26 1009 83 10000 4.1 170 09:32 15.12.2020
4861 Clouds 26 1009 83 10000 4.1 170 09:32 15.12.2020
4862 Clouds 27 1009 83 10000 4.1 120 08:58 15.12.2020
4863 Clouds 27 1009 83 10000 4.1 120 08:30 15.12.2020
4864 Clouds 27 1009 88 10000 4.1 170 07:59 15.12.2020
4865 Clouds 27 1009 88 10000 4.1 170 07:37 15.12.2020
4866 Clouds 28 1009 83 10000 4.6 160 06:37 15.12.2020
4867 Rain 28 1009 78 10000 2.1 320 04:55 15.12.2020
4868 Rain 29 1008 78 10000 3.6 150 00:37 15.12.2020
4869 Rain 30 1007 74 10000 4.6 180 23:47 14.12.2020
4870 Clouds 30 1007 66 10000 5.7 180 23:19 14.12.2020
4871 Clouds 30 1007 66 10000 5.7 180 22:39 14.12.2020
4872 Clouds 31 1006 66 10000 5.7 170 21:56 14.12.2020
4873 Clouds 31 1006 66 10000 5.7 170 21:36 14.12.2020
4874 Clouds 32 1006 62 10000 6.7 160 20:57 14.12.2020
4875 Clouds 32 1006 62 10000 6.7 160 20:39 14.12.2020
4876 Clouds 32 1007 66 10000 5.1 170 20:18 14.12.2020
4877 Clouds 32 1007 66 10000 5.1 170 19:34 14.12.2020
4878 Clouds 33 1007 78 10000 6.7 160 18:57 14.12.2020
4879 Clouds 32 1007 78 10000 6.7 160 18:38 14.12.2020
4880 Clouds 33 1008 74 10000 6.2 150 18:18 14.12.2020
4881 Clouds 33 1008 74 10000 6.2 150 17:33 14.12.2020
4882 Clear 33 1009 70 10000 4.6 150 16:57 14.12.2020
4883 Clear 34 1009 70 10000 4.6 150 16:38 14.12.2020
4884 Clear 33 1009 74 10000 4.6 140 16:18 14.12.2020
4885 Clear 34 1009 79 10000 2.1 20 15:33 14.12.2020
4886 Clear 32 1010 79 10000 2.6 360 14:48 14.12.2020
4887 Clear 33 1010 79 10000 2.6 360 14:29 14.12.2020
4888 Clear 30 1010 88 10000 3.1 350 13:56 14.12.2020
4889 Clear 30 1010 88 10000 3.1 350 13:34 14.12.2020
4890 Clear 27 1010 94 10000 3.6 340 12:56 14.12.2020
4891 Clear 28 1010 94 10000 3.6 340 12:32 14.12.2020
4892 Clear 28 1010 88 10000 1.5 320 11:56 14.12.2020
4893 Clear 26 1010 94 10000 2.6 320 11:23 14.12.2020
4894 Clear 26 1010 94 10000 2.6 340 10:28 14.12.2020
4895 Clouds 26 1010 94 7000 1.5 130 09:53 14.12.2020
4896 Clouds 26 1010 94 7000 1.5 130 09:25 14.12.2020
4897 Clouds 26 1009 94 6000 1.5 80 08:44 14.12.2020
4898 Clouds 26 1009 94 7000 1.5 80 08:23 14.12.2020
4899 Clear 26 1010 94 10000 1.5 60 07:22 14.12.2020
4900 Clear 26 1010 94 10000 1.5 60 06:43 14.12.2020
4901 Clouds 26 1011 88 10000 1.5 220 03:58 14.12.2020
4902 Clouds 26 1012 83 10000 2.1 320 02:25 14.12.2020
4903 Clouds 27 1012 78 10000 1.5 320 00:51 14.12.2020
4904 Clouds 27 1012 78 10000 1.5 320 00:29 14.12.2020
4905 Clouds 27 1011 74 10000 1.5 320 23:44 13.12.2020
4906 Clouds 28 1011 78 10000 1.5 320 23:18 13.12.2020
4907 Clouds 28 1011 78 10000 1.5 320 22:43 13.12.2020
4908 Clouds 28 1010 74 10000 2.1 310 22:18 13.12.2020
4909 Clouds 28 1010 74 10000 2.1 310 21:42 13.12.2020
4910 Clouds 28 1011 78 10000 2.6 320 21:18 13.12.2020
4911 Clouds 28 1011 88 10000 3.6 200 20:33 13.12.2020
4912 Rain 28 1011 88 10000 3.6 200 19:50 13.12.2020
4913 Rain 27 1012 78 10000 1.5 280 19:27 13.12.2020
4914 Rain 27 1012 78 10000 1.5 280 18:57 13.12.2020
4915 Rain 28 1012 78 10000 1.5 280 18:39 13.12.2020
4916 Rain 26 1013 94 10000 3.1 320 18:19 13.12.2020
4917 Rain 26 1013 94 10000 3.1 320 17:45 13.12.2020
4918 Rain 24 1014 94 10000 3.6 30 17:18 13.12.2020
4919 Thunderstorm 24 1014 88 6000 4.1 320 16:53 13.12.2020
4920 Rain 27 1015 94 2000 5.7 340 16:34 13.12.2020
4921 Rain 27 1015 88 5000 1.5 110 15:48 13.12.2020
4922 Thunderstorm 28 1015 88 5000 1.5 110 15:27 13.12.2020
4923 Clouds 28 1015 88 9000 2.6 130 14:50 13.12.2020
4924 Clouds 28 1015 88 9000 2.6 130 14:29 13.12.2020
4925 Clouds 27 1014 88 9000 1 0 13:58 13.12.2020
4926 Clouds 27 1014 88 9000 1 0 13:36 13.12.2020
4927 Clouds 27 1014 94 9000 3.1 130 13:18 13.12.2020
4928 Rain 26 1014 94 9000 3.1 130 12:36 13.12.2020
4929 Rain 25 1014 94 10000 2.1 120 12:18 13.12.2020
4930 Rain 25 1014 94 10000 2.1 120 11:34 13.12.2020
4931 Rain 26 1013 88 10000 1 0 10:46 13.12.2020
4932 Rain 26 1013 88 10000 1 0 10:24 13.12.2020
4933 Rain 26 1013 83 10000 3.1 250 09:51 13.12.2020
4934 Rain 26 1012 83 10000 4.6 250 08:53 13.12.2020
4935 Rain 26 1012 83 10000 4.6 250 08:31 13.12.2020
4936 Clouds 26 1012 88 10000 5.1 270 07:27 13.12.2020
4937 Clear 26 1012 88 10000 1 30 03:26 13.12.2020
4938 Clear 26 1012 88 10000 1 30 02:32 13.12.2020
4939 Clouds 27 1012 83 10000 1.5 190 01:37 13.12.2020
4940 Clouds 27 1012 83 10000 1.5 190 00:46 13.12.2020
4941 Rain 27 1011 88 10000 2.6 130 23:50 12.12.2020
4942 Rain 27 1011 88 10000 2.6 130 23:29 12.12.2020
4943 Clouds 28 1011 78 10000 1.5 170 22:39 12.12.2020
4944 Clouds 28 1011 78 10000 1.5 170 22:39 12.12.2020
4945 Clouds 28 1011 78 10000 4.6 190 21:49 12.12.2020
4946 Clouds 28 1011 78 10000 4.6 190 21:31 12.12.2020
4947 Rain 27 1011 88 10000 4.6 160 20:48 12.12.2020
4948 Rain 29 1011 88 10000 5.1 140 20:24 12.12.2020
4949 Rain 29 1011 88 10000 5.1 140 19:55 12.12.2020
4950 Rain 29 1011 88 10000 5.1 140 19:35 12.12.2020
4951 Clouds 29 1011 88 10000 7.2 160 18:59 12.12.2020
4952 Clouds 30 1011 88 10000 7.2 160 18:41 12.12.2020
4953 Clouds 30 1012 83 10000 6.2 140 18:22 12.12.2020
4954 Clouds 30 1012 83 10000 6.2 140 17:42 12.12.2020
4955 Clouds 30 1013 83 10000 4.6 150 16:54 12.12.2020
4956 Clouds 29 1013 78 10000 1.5 80 15:59 12.12.2020
4957 Clouds 30 1013 78 10000 1.5 80 15:41 12.12.2020
4958 Clouds 29 1014 88 10000 2.1 350 14:55 12.12.2020
4959 Clouds 29 1014 88 10000 2.1 350 14:35 12.12.2020
4960 Clouds 28 1014 88 10000 2.6 340 13:47 12.12.2020
4961 Clouds 28 1014 88 10000 2.6 340 13:27 12.12.2020
4962 Rain 28 1013 94 10000 2.1 340 12:47 12.12.2020
4963 Rain 25 1013 94 10000 2.1 350 11:43 12.12.2020
4964 Clouds 25 1013 94 10000 1 350 10:53 12.12.2020
4965 Clouds 24 1012 94 8000 2.1 80 09:32 12.12.2020
4966 Clouds 24 1012 94 8000 2.1 80 08:53 12.12.2020
4967 Clouds 25 1014 88 10000 2.6 330 02:53 12.12.2020
4968 Clouds 25 1013 94 9000 6.2 190 23:54 11.12.2020
4969 Rain 26 1011 83 10000 7.7 180 22:28 11.12.2020
4970 Rain 27 1011 88 10000 6.7 170 20:40 11.12.2020
4971 Clouds 30 1013 83 10000 5.1 170 17:58 11.12.2020
4972 Clouds 29 1014 88 10000 4.6 160 15:54 11.12.2020
4973 Clouds 28 1013 83 10000 2.1 330 13:59 11.12.2020
4974 Clouds 25 1014 94 10000 2.6 340 13:23 11.12.2020
4975 Clouds 24 1013 94 10000 3.1 350 12:18 11.12.2020
4976 Clouds 24 1013 94 10000 3.1 350 11:51 11.12.2020
4977 Clouds 22 1013 94 10000 1.5 10 10:46 11.12.2020
4978 Clouds 23 1013 88 7000 3.6 60 08:48 11.12.2020
4979 Clouds 23 1014 88 10000 2.6 100 05:42 11.12.2020
4980 Clouds 23 1014 88 10000 1 90 04:52 11.12.2020
4981 Clouds 24 1014 94 10000 2.1 50 02:18 11.12.2020
4982 Clouds 24 1013 88 10000 2.6 170 00:23 11.12.2020
4983 Clouds 25 1012 88 10000 3.1 170 22:52 10.12.2020
4984 Rain 25 1012 94 10000 4.1 150 21:36 10.12.2020
4985 Clouds 26 1012 83 10000 4.1 150 20:42 10.12.2020
4986 Clouds 27 1012 88 10000 3.6 150 19:44 10.12.2020
4987 Clouds 26 1012 83 10000 3.6 150 18:57 10.12.2020
4988 Clouds 26 1013 94 8000 2.6 150 18:21 10.12.2020
4989 Rain 24 1013 94 6000 3.6 190 16:32 10.12.2020
4990 Rain 24 1013 94 6000 3.6 190 15:44 10.12.2020
4991 Clouds 25 1013 94 10000 1.5 130 14:52 10.12.2020
4992 Clouds 25 1013 94 10000 1.5 130 14:28 10.12.2020
4993 Clouds 24 1013 94 9000 2.6 340 12:54 10.12.2020
4994 Clouds 24 1013 100 9000 2.1 30 11:41 10.12.2020
4995 Clouds 22 1013 88 6000 4.1 310 08:57 10.12.2020
4996 Clouds 24 1013 88 6000 2.6 290 07:51 10.12.2020
4997 Clouds 24 1013 88 6000 2.6 300 06:46 10.12.2020
4998 Clouds 23 1013 100 6000 3.1 330 03:40 10.12.2020
4999 Clouds 25 1013 88 10000 2.1 250 02:24 10.12.2020
5000 Clouds 25 1012 88 10000 3.6 200 00:23 10.12.2020
5001 Clouds 25 1012 88 10000 4.1 180 22:58 09.12.2020
5002 Clouds 26 1011 88 10000 4.6 180 20:37 09.12.2020
5003 Rain 26 1011 83 10000 6.2 190 19:34 09.12.2020
5004 Rain 26 1012 78 10000 7.7 180 17:53 09.12.2020
5005 Rain 28 1012 83 10000 5.7 130 16:52 09.12.2020
5006 Rain 28 1013 83 10000 3.6 130 16:24 09.12.2020
5007 Clouds 28 1013 94 10000 3.6 140 15:31 09.12.2020
5008 Clouds 28 1013 94 10000 3.6 140 14:43 09.12.2020
5009 Clouds 26 1013 88 10000 3.6 140 14:23 09.12.2020
5010 Rain 28 1012 83 10000 2.6 340 13:19 09.12.2020
5011 Rain 27 1012 83 10000 2.6 340 12:46 09.12.2020
5012 Rain 25 1012 94 10000 2.6 30 11:54 09.12.2020
5013 Rain 24 1011 94 10000 1.5 110 11:23 09.12.2020
5014 Clouds 26 1011 83 10000 2.6 260 09:39 09.12.2020
5015 Clouds 25 1011 83 10000 1 290 08:26 09.12.2020
5016 Clouds 25 1011 83 10000 2.6 280 05:57 09.12.2020
5017 Rain 25 1012 94 10000 2.1 140 04:21 09.12.2020
5018 Clouds 25 1012 94 10000 2.6 130 01:59 09.12.2020
5019 Clouds 26 1011 83 10000 5.1 170 23:45 08.12.2020
5020 Rain 26 1011 83 10000 5.1 170 23:21 08.12.2020
5021 Clouds 28 1010 74 10000 6.2 180 21:35 08.12.2020
5022 Clouds 29 1009 74 10000 7.2 200 19:46 08.12.2020
5023 Clouds 29 1009 74 10000 7.2 200 19:46 08.12.2020
5024 Clouds 28 1009 78 10000 9.3 190 18:59 08.12.2020
5025 Clouds 29 1009 78 10000 9.3 190 18:27 08.12.2020
5026 Clouds 28 1010 94 10000 5.1 140 15:54 08.12.2020
5027 Clouds 28 1010 94 10000 4.1 140 14:34 08.12.2020
5028 Clouds 27 1011 94 10000 4.1 130 13:36 08.12.2020
5029 Clouds 26 1010 94 10000 2.6 130 12:32 08.12.2020
5030 Clouds 24 1010 94 10000 2.6 210 11:52 08.12.2020
5031 Clouds 24 1009 94 10000 2.6 270 10:50 08.12.2020
5032 Rain 23 1009 94 10000 3.1 270 10:31 08.12.2020
5033 Clouds 24 1009 94 10000 2.6 290 09:34 08.12.2020
5034 Rain 24 1010 94 6000 2.1 210 07:34 08.12.2020
5035 Mist 24 1011 100 3000 4.1 160 03:43 08.12.2020
5036 Clouds 25 1011 94 8000 3.6 160 01:36 08.12.2020
5037 Rain 24 1011 94 8000 4.1 170 00:43 08.12.2020
5038 Rain 25 1010 94 6000 3.1 160 22:50 07.12.2020
5039 Rain 25 1010 94 7000 4.1 150 22:18 07.12.2020
5040 Rain 26 1010 94 7000 4.1 160 20:45 07.12.2020
5041 Clouds 27 1010 94 8000 2.6 140 18:58 07.12.2020
5042 Rain 26 1011 88 7000 1.5 140 17:31 07.12.2020
5043 Rain 26 1011 88 7000 1.5 140 16:59 07.12.2020
5044 Rain 24 1012 100 5000 1 0 16:19 07.12.2020
5045 Rain 25 1012 100 5000 1.5 150 15:24 07.12.2020
5046 Rain 24 1012 100 5000 1.5 150 14:26 07.12.2020
5047 Rain 24 1013 100 4000 1 0 13:35 07.12.2020
5048 Rain 24 1013 94 3500 2.24 70 11:52 07.12.2020
5049 Rain 24 1013 94 3500 2.24 70 11:32 07.12.2020
5050 Rain 24 1012 94 3500 1.5 20 10:22 07.12.2020
5051 Rain 24 1011 94 7000 1.5 360 08:37 07.12.2020
5052 Rain 24 1011 94 5000 1 90 07:23 07.12.2020
5053 Mist 24 1013 94 5000 2.1 140 05:26 07.12.2020
5054 Rain 24 1013 94 10000 3.1 140 03:43 07.12.2020
5055 Rain 24 1013 100 4500 4.6 110 00:33 07.12.2020
5056 Clouds 24 1012 88 10000 6.2 120 22:48 06.12.2020
5057 Clouds 24 1012 88 10000 5.7 130 21:44 06.12.2020
5058 Clouds 24 1012 88 9000 4.6 130 20:41 06.12.2020
5059 Clouds 24 1013 88 10000 5.7 130 20:19 06.12.2020
5060 Clouds 23 1013 94 10000 5.1 160 19:20 06.12.2020
5061 Mist 24 1014 100 4500 4.1 170 17:31 06.12.2020
5062 Clouds 24 1014 100 9000 3.1 170 16:33 06.12.2020
5063 Clouds 24 1015 88 10000 2.6 160 14:49 06.12.2020
5064 Clouds 23 1015 94 6000 2.6 180 12:59 06.12.2020
5065 Clouds 23 1015 94 6000 2.6 180 12:30 06.12.2020
5066 Clouds 23 1015 94 10000 2.6 160 11:42 06.12.2020
5067 Rain 23 1015 94 10000 2.6 160 11:23 06.12.2020
5068 Rain 23 1014 88 10000 2.6 130 10:34 06.12.2020
5069 Rain 23 1015 88 10000 2.6 290 08:59 06.12.2020
5070 Clouds 23 1015 88 10000 2.1 310 07:29 06.12.2020
5071 Clouds 25 1016 73 10000 2.6 100 04:47 06.12.2020
5072 Rain 25 1016 78 10000 6.7 140 00:45 06.12.2020
5073 Clouds 25 1016 78 10000 6.7 140 00:26 06.12.2020
5074 Clouds 25 1015 83 10000 6.2 130 23:55 05.12.2020
5075 Clouds 25 1014 78 10000 7.2 150 22:24 05.12.2020
5076 Clouds 25 1014 83 10000 7.2 150 21:55 05.12.2020
5077 Clouds 25 1014 83 10000 7.2 150 21:28 05.12.2020
5078 Clouds 27 1014 88 9000 7.7 150 19:54 05.12.2020
5079 Clouds 27 1014 94 10000 7.2 160 18:46 05.12.2020
5080 Clouds 28 1015 83 10000 6.7 170 17:51 05.12.2020
5081 Clouds 28 1015 88 10000 5.7 160 16:45 05.12.2020
5082 Clouds 27 1016 83 10000 5.7 160 16:25 05.12.2020
5083 Clouds 27 1016 94 10000 4.6 150 14:39 05.12.2020
5084 Clouds 26 1015 94 10000 1 0 12:36 05.12.2020
5085 Clouds 26 1015 94 10000 1 150 11:50 05.12.2020
5086 Clouds 25 1014 94 10000 2.1 140 10:35 05.12.2020
5087 Clear 24 1014 94 10000 2.6 270 08:40 05.12.2020
5088 Clear 24 1014 88 10000 2.6 190 07:47 05.12.2020
5089 Clear 25 1015 83 10000 2.6 260 05:33 05.12.2020
5090 Clouds 28 1012 74 10000 5.7 190 23:59 04.12.2020
5091 Clouds 29 1012 74 10000 6.7 180 23:23 04.12.2020
5092 Clouds 30 1011 66 10000 5.7 160 21:34 04.12.2020
5093 Clouds 32 1011 55 10000 8.2 180 19:21 04.12.2020
5094 Clouds 32 1011 55 10000 8.2 180 18:39 04.12.2020
5095 Clouds 32 1011 66 10000 6.2 170 17:47 04.12.2020
5096 Clouds 32 1012 83 10000 7.2 140 16:32 04.12.2020
5097 Clouds 32 1012 78 10000 4.6 150 15:23 04.12.2020
5098 Clear 30 1012 78 10000 3.6 130 13:37 04.12.2020
5099 Clear 29 1011 83 10000 2.6 20 13:18 04.12.2020
5100 Clear 29 1010 88 10000 3.1 350 12:22 04.12.2020
5101 Clear 27 1009 88 10000 2.6 330 10:37 04.12.2020
5102 Clouds 27 1008 74 10000 1.5 290 09:25 04.12.2020
5103 Clouds 27 1009 74 10000 2.6 330 06:40 04.12.2020
5104 Clouds 28 1010 74 10000 2.6 320 04:53 04.12.2020
5105 Clear 27 1009 78 10000 3.1 320 01:53 04.12.2020
5106 Clouds 28 1006 78 10000 2.6 100 22:51 03.12.2020
5107 Clouds 30 1005 74 10000 6.2 170 21:37 03.12.2020
5108 Clouds 31 1005 62 10000 6.7 170 20:47 03.12.2020
5109 Clouds 34 1005 62 10000 7.7 170 19:25 03.12.2020
5110 Clouds 34 1005 62 10000 7.7 170 18:48 03.12.2020
5111 Clouds 32 1007 70 10000 3.6 160 17:21 03.12.2020
5112 Clouds 32 1007 70 10000 3.6 160 16:43 03.12.2020
5113 Clouds 31 1008 78 10000 3.1 150 15:33 03.12.2020
5114 Clouds 30 1008 70 10000 2.1 60 14:49 03.12.2020
5115 Clear 29 1009 78 10000 1.5 360 13:55 03.12.2020
5116 Clear 27 1009 88 10000 3.1 350 12:54 03.12.2020
5117 Clear 26 1009 94 10000 2.6 360 12:24 03.12.2020
5118 Clear 24 1009 94 10000 2.1 350 10:55 03.12.2020
5119 Clouds 24 1009 88 10000 1.5 360 08:49 03.12.2020
5120 Clouds 26 1011 83 10000 1.5 300 04:24 03.12.2020
5121 Clouds 25 1012 88 10000 1 180 02:20 03.12.2020
5122 Clouds 25 1012 94 10000 2.6 180 00:41 03.12.2020
5123 Clouds 25 1011 88 10000 6.2 160 22:47 02.12.2020
5124 Clouds 26 1011 83 10000 5.1 170 21:58 02.12.2020
5125 Clouds 26 1011 83 10000 7.2 170 20:52 02.12.2020
5126 Clouds 26 1011 83 10000 7.2 170 20:34 02.12.2020
5127 Clouds 27 1011 83 10000 6.7 150 19:58 02.12.2020
5128 Clouds 27 1011 83 10000 6.2 150 17:54 02.12.2020
5129 Clouds 28 1011 83 10000 6.2 150 17:35 02.12.2020
5130 Clouds 28 1012 88 10000 5.7 140 16:59 02.12.2020
5131 Clouds 27 1013 94 8000 4.1 140 14:47 02.12.2020
5132 Rain 25 1012 94 8000 2.6 140 11:34 02.12.2020
5133 Clouds 23 1011 100 10000 2.1 130 10:28 02.12.2020
5134 Clouds 23 1012 88 10000 3.1 270 08:36 02.12.2020
5135 Rain 24 1012 94 7000 4.6 310 01:39 02.12.2020
5136 Clouds 27 1011 88 10000 5.7 140 22:21 01.12.2020
5137 Clouds 29 1010 58 10000 8.2 210 20:49 01.12.2020
5138 Clouds 30 1010 62 10000 10.3 190 19:35 01.12.2020
5139 Clouds 29 1011 78 10000 7.2 140 17:49 01.12.2020
5140 Clouds 28 1012 83 10000 7.2 150 15:44 01.12.2020
5141 Clouds 29 1012 83 10000 4.6 150 13:38 01.12.2020
5142 Clear 28 1011 78 10000 2.6 140 12:25 01.12.2020
5143 Clear 28 1011 78 10000 2.6 10 11:26 01.12.2020
5144 Clear 27 1010 83 10000 3.6 350 10:38 01.12.2020
5145 Clouds 26 1010 74 10000 2.6 280 08:21 01.12.2020
5146 Rain 27 1011 69 10000 3.6 280 06:48 01.12.2020
5147 Clear 27 1011 83 10000 1.5 180 01:53 01.12.2020
5148 Clear 27 1010 83 10000 3.6 140 00:56 01.12.2020
5149 Clouds 29 1009 62 10000 4.6 180 23:21 30.11.2020
5150 Clouds 29 1009 62 10000 4.6 180 22:45 30.11.2020
5151 Clouds 29 1009 62 10000 4.6 180 22:25 30.11.2020
5152 Clouds 30 1009 66 10000 5.7 170 20:57 30.11.2020
5153 Clouds 31 1009 66 10000 7.2 170 19:42 30.11.2020
5154 Clouds 32 1011 58 10000 6.2 160 18:24 30.11.2020
5155 Clouds 32 1011 58 10000 6.2 160 17:48 30.11.2020
5156 Clouds 33 1011 55 10000 2.6 100 16:58 30.11.2020
5157 Clouds 33 1011 55 10000 2.6 100 16:38 30.11.2020
5158 Clear 32 1012 70 10000 3.6 40 14:47 30.11.2020
5159 Clear 31 1012 66 10000 3.1 360 13:53 30.11.2020
5160 Clear 31 1012 66 10000 3.1 360 13:53 30.11.2020
5161 Clear 29 1012 74 10000 2.1 10 12:27 30.11.2020
5162 Clear 27 1012 78 10000 3.1 360 11:58 30.11.2020
5163 Clear 25 1011 78 10000 2.1 350 10:30 30.11.2020
5164 Clear 25 1013 78 10000 2.6 160 09:51 30.11.2020
5165 Clear 26 1013 73 10000 2.6 190 07:26 30.11.2020
5166 Clear 29 1013 74 10000 3.1 130 00:54 30.11.2020
5167 Clouds 31 1011 62 10000 5.1 180 22:19 29.11.2020
5168 Clouds 31 1011 62 10000 5.1 180 21:42 29.11.2020
5169 Clouds 31 1011 62 10000 5.1 180 21:24 29.11.2020
5170 Clouds 32 1014 66 10000 4.6 150 17:48 29.11.2020
5171 Clouds 30 1015 74 10000 3.6 150 16:57 29.11.2020
5172 Clear 28 1017 74 10000 3.1 150 13:35 29.11.2020
5173 Clear 28 1016 69 10000 1.26 75 12:34 29.11.2020
5174 Clear 25 1016 83 10000 3.1 360 11:22 29.11.2020
5175 Clear 23 1015 78 10000 2.6 120 08:52 29.11.2020
5176 Clear 23 1015 78 10000 2.6 120 08:34 29.11.2020
5177 Clear 26 1017 74 10000 3.6 60 02:31 29.11.2020
5178 Clouds 28 1015 69 10000 4.6 190 22:58 28.11.2020
5179 Clouds 30 1015 62 10000 7.2 200 21:20 28.11.2020
5180 Clouds 31 1015 66 10000 6.7 210 19:54 28.11.2020
5181 Clouds 31 1015 66 10000 6.7 210 19:27 28.11.2020
5182 Clouds 31 1016 65 10000 6.2 200 18:55 28.11.2020
5183 Clouds 30 1017 65 10000 6.2 160 17:57 28.11.2020
5184 Clouds 30 1017 62 10000 5.7 170 16:56 28.11.2020
5185 Clouds 28 1018 78 10000 4.1 150 14:58 28.11.2020
5186 Clouds 28 1019 74 10000 1 0 13:47 28.11.2020
5187 Clouds 25 1017 83 10000 2.1 20 11:27 28.11.2020
5188 Clouds 24 1017 78 10000 2.6 80 09:25 28.11.2020
5189 Clear 24 1017 88 10000 4.1 140 03:39 28.11.2020
5190 Clouds 27 1016 78 10000 3.6 100 01:52 28.11.2020
5191 Clouds 29 1013 62 10000 4.6 190 23:21 27.11.2020
5192 Clouds 29 1013 62 10000 4.6 190 22:24 27.11.2020
5193 Clouds 31 1013 62 10000 4.1 160 20:39 27.11.2020
5194 Clouds 31 1013 66 10000 6.2 180 19:34 27.11.2020
5195 Clouds 31 1014 66 10000 6.7 170 18:57 27.11.2020
5196 Clouds 31 1015 65 10000 5.7 150 16:51 27.11.2020
5197 Clouds 29 1015 74 10000 3.6 150 14:45 27.11.2020
5198 Clear 27 1015 74 10000 2.6 360 13:18 27.11.2020
5199 Clear 27 1015 74 10000 2.6 360 12:46 27.11.2020
5200 Clear 27 1015 74 10000 2.1 340 11:34 27.11.2020
5201 Clear 25 1014 78 10000 2.1 340 10:44 27.11.2020
5202 Clear 22 1013 83 10000 1 80 09:51 27.11.2020
5203 Clouds 29 1012 74 10000 3.6 180 23:50 26.11.2020
5204 Clouds 31 1011 66 10000 5.7 190 22:25 26.11.2020
5205 Clouds 31 1011 66 10000 5.7 190 21:46 26.11.2020
5206 Clouds 31 1011 69 10000 6.2 160 20:43 26.11.2020
5207 Clouds 32 1011 66 10000 6.2 160 18:37 26.11.2020
5208 Clouds 32 1012 66 10000 4.1 150 17:34 26.11.2020
5209 Clouds 29 1015 74 10000 2.6 130 14:24 26.11.2020
5210 Clear 27 1015 83 10000 2.1 340 12:58 26.11.2020
5211 Clear 27 1015 83 10000 2.1 340 12:40 26.11.2020
5212 Clear 26 1015 83 10000 2.1 340 11:29 26.11.2020
5213 Clouds 23 1014 83 10000 2.6 350 10:25 26.11.2020
5214 Clear 22 1014 88 10000 1.5 140 09:39 26.11.2020
5215 Clouds 22 1014 88 10000 1.5 120 09:18 26.11.2020
5216 Clouds 22 1014 88 10000 1.5 120 08:34 26.11.2020
5217 Clouds 25 1016 83 10000 2.1 70 02:19 26.11.2020
5218 Clouds 28 1015 74 10000 6.7 70 22:31 25.11.2020
5219 Clouds 29 1015 74 10000 4.6 160 20:38 25.11.2020
5220 Clouds 29 1015 70 10000 4.6 140 19:27 25.11.2020
5221 Clouds 29 1017 69 10000 5.7 160 18:22 25.11.2020
5222 Clouds 28 1018 78 10000 5.1 160 15:56 25.11.2020
5223 Clouds 28 1018 78 10000 5.1 160 15:35 25.11.2020
5224 Clouds 26 1019 78 10000 2.6 330 13:47 25.11.2020
5225 Clouds 26 1019 78 10000 2.6 330 13:29 25.11.2020
5226 Clouds 25 1019 78 10000 2.6 100 11:44 25.11.2020
5227 Clouds 22 1018 83 10000 2.1 60 11:18 25.11.2020
5228 Clouds 22 1017 83 10000 2.1 130 09:18 25.11.2020
5229 Clouds 22 1017 83 10000 2.1 130 08:40 25.11.2020
5230 Clouds 24 1019 78 10000 5.1 80 03:58 25.11.2020
5231 Clouds 25 1020 73 10000 4.6 90 01:51 25.11.2020
5232 Clouds 25 1019 78 10000 3.6 100 00:22 25.11.2020
5233 Clouds 25 1019 83 10000 5.7 130 23:36 24.11.2020
5234 Clouds 26 1018 83 10000 5.7 140 22:57 24.11.2020
5235 Clouds 27 1018 74 10000 6.2 130 21:51 24.11.2020
5236 Clouds 27 1018 74 10000 6.2 130 21:29 24.11.2020
5237 Clouds 28 1018 74 10000 6.7 130 20:19 24.11.2020
5238 Clouds 28 1019 74 10000 6.2 160 18:39 24.11.2020
5239 Clouds 28 1019 83 10000 7.2 160 17:30 24.11.2020
5240 Clouds 28 1020 83 10000 7.2 170 16:39 24.11.2020
5241 Clouds 27 1020 83 10000 6.2 160 15:58 24.11.2020
5242 Clouds 27 1020 83 10000 6.2 160 15:40 24.11.2020
5243 Clouds 26 1021 83 10000 5.1 160 15:18 24.11.2020
5244 Clouds 26 1021 83 10000 5.1 160 14:33 24.11.2020
5245 Clouds 25 1021 83 10000 1 0 12:45 24.11.2020
5246 Clouds 24 1020 83 10000 1 60 12:22 24.11.2020
5247 Clouds 24 1020 83 10000 1 60 11:38 24.11.2020
5248 Clouds 24 1020 83 10000 1.02 49 10:41 24.11.2020
5249 Clouds 23 1019 88 10000 1 140 10:22 24.11.2020
5250 Clouds 22 1019 83 10000 2.1 50 09:35 24.11.2020
5251 Clouds 22 1019 88 10000 2.1 80 07:57 24.11.2020
5252 Clouds 23 1020 83 10000 3.1 110 04:19 24.11.2020
5253 Clouds 24 1018 83 10000 5.1 130 22:34 23.11.2020
5254 Clouds 24 1018 78 10000 4.6 150 21:37 23.11.2020
5255 Clouds 25 1018 78 10000 6.7 150 20:50 23.11.2020
5256 Clouds 26 1018 78 10000 6.7 150 20:26 23.11.2020
5257 Clouds 26 1019 73 10000 5.7 160 19:20 23.11.2020
5258 Clouds 26 1020 73 10000 4.6 160 17:26 23.11.2020
5259 Clouds 26 1020 73 10000 4.6 160 16:28 23.11.2020
5260 Clouds 26 1020 73 10000 4.6 160 16:28 23.11.2020
5261 Clouds 25 1020 65 10000 2.1 130 14:48 23.11.2020
5262 Clouds 25 1020 64 10000 1.5 150 13:33 23.11.2020
5263 Clouds 24 1020 64 10000 1.5 150 12:38 23.11.2020
5264 Clouds 23 1019 73 10000 1.5 150 11:48 23.11.2020
5265 Clouds 22 1019 78 10000 1.5 50 11:21 23.11.2020
5266 Clouds 22 1019 82 10000 1.5 260 09:32 23.11.2020
5267 Clouds 22 1018 88 10000 2.1 90 08:49 23.11.2020
5268 Clouds 22 1018 88 10000 2.6 140 07:29 23.11.2020
5269 Mist 23 1018 83 4000 5.1 130 00:39 23.11.2020
5270 Clouds 23 1017 88 7000 4.1 150 23:38 22.11.2020
5271 Rain 24 1016 83 10000 5.7 140 22:18 22.11.2020
5272 Clouds 25 1015 78 10000 6.2 160 20:54 22.11.2020
5273 Clouds 26 1015 78 10000 5.1 150 19:58 22.11.2020
5274 Clouds 26 1016 83 10000 5.7 160 18:56 22.11.2020
5275 Clouds 25 1017 78 10000 4.6 160 17:33 22.11.2020
5276 Clouds 24 1017 78 10000 4.1 160 15:58 22.11.2020
5277 Clouds 25 1017 73 10000 2.1 120 14:54 22.11.2020
5278 Clouds 24 1017 78 10000 0.5 90 12:50 22.11.2020
5279 Clouds 23 1017 78 10000 1 60 12:18 22.11.2020
5280 Clouds 23 1017 78 10000 1 60 11:36 22.11.2020
5281 Clouds 22 1016 83 10000 0.5 40 10:47 22.11.2020
5282 Clouds 22 1016 83 10000 0.5 40 10:29 22.11.2020
5283 Clouds 23 1017 73 10000 1 100 02:47 22.11.2020
5284 Clouds 24 1015 78 10000 4.1 100 23:54 21.11.2020
5285 Clouds 24 1014 73 10000 4.6 110 22:40 21.11.2020
5286 Clouds 24 1014 73 10000 5.1 130 21:30 21.11.2020
5287 Clouds 24 1014 73 10000 5.7 140 20:49 21.11.2020
5288 Clouds 25 1014 73 10000 5.7 160 20:18 21.11.2020
5289 Clouds 25 1014 73 10000 5.7 160 19:39 21.11.2020
5290 Clouds 25 1014 65 10000 5.7 160 18:50 21.11.2020
5291 Clouds 25 1014 73 10000 5.7 160 17:30 21.11.2020
5292 Clouds 25 1014 73 10000 5.7 160 16:44 21.11.2020
5293 Clouds 25 1015 73 10000 4.6 140 15:40 21.11.2020
5294 Clouds 25 1015 73 10000 2.1 130 15:20 21.11.2020
5295 Clouds 24 1015 73 10000 2.1 130 14:40 21.11.2020
5296 Clouds 23 1015 83 10000 2.1 330 12:44 21.11.2020
5297 Clouds 22 1014 88 10000 2.1 310 12:22 21.11.2020
5298 Clouds 22 1014 88 10000 2.1 310 11:49 21.11.2020
5299 Clouds 21 1014 88 10000 1 0 10:28 21.11.2020
5300 Clouds 21 1014 93 7000 3.1 180 08:52 21.11.2020
5301 Clouds 22 1014 88 8000 2.1 160 08:19 21.11.2020
5302 Clouds 22 1014 88 10000 2.1 170 05:42 21.11.2020
5303 Clouds 21 1015 94 6000 2.6 190 02:52 21.11.2020
5304 Mist 21 1014 83 5000 1.5 140 00:22 21.11.2020
5305 Mist 22 1013 94 5000 3.1 20 22:59 20.11.2020
5306 Clouds 22 1013 83 10000 1.5 20 21:45 20.11.2020
5307 Clouds 23 1013 73 10000 2.1 180 21:21 20.11.2020
5308 Clouds 23 1013 73 10000 2.1 180 21:21 20.11.2020
5309 Clouds 22 1013 83 9000 3.1 190 19:55 20.11.2020
5310 Clouds 22 1013 83 9000 5.1 190 18:55 20.11.2020
5311 Clouds 22 1013 83 9000 5.1 190 18:27 20.11.2020
5312 Mist 22 1013 94 5000 6.2 180 17:31 20.11.2020
5313 Clouds 22 1013 83 10000 4.1 180 16:47 20.11.2020
5314 Clouds 23 1013 88 10000 3.1 200 15:59 20.11.2020
5315 Clouds 23 1013 88 10000 3.1 200 15:39 20.11.2020
5316 Clouds 22 1012 88 9000 2.6 190 13:54 20.11.2020
5317 Mist 22 1012 94 5000 2.6 190 13:20 20.11.2020
5318 Mist 22 1012 94 5000 2.6 190 12:50 20.11.2020
5319 Mist 21 1012 100 5000 3.1 200 11:52 20.11.2020
5320 Mist 21 1011 94 5000 2.6 220 11:21 20.11.2020
5321 Clouds 22 1011 88 10000 2.6 290 09:52 20.11.2020
5322 Clouds 21 1011 94 4000 1 340 08:30 20.11.2020
5323 Clouds 22 1011 88 4000 1 110 07:49 20.11.2020
5324 Clouds 22 1011 94 4000 2.6 150 05:18 20.11.2020
5325 Mist 23 1008 94 4500 8.2 170 00:21 20.11.2020
5326 Rain 23 1006 94 3500 7.7 160 22:30 19.11.2020
5327 Rain 24 1006 88 5000 3.6 190 21:53 19.11.2020
5328 Clouds 24 1005 83 10000 6.2 190 20:57 19.11.2020
5329 Clouds 24 1005 88 10000 5.1 150 20:20 19.11.2020
5330 Clouds 24 1005 88 10000 5.1 150 19:27 19.11.2020
5331 Clouds 24 1006 78 10000 5.1 160 18:54 19.11.2020
5332 Clouds 25 1006 88 10000 5.7 150 17:27 19.11.2020
5333 Clouds 25 1007 88 10000 3.6 140 16:33 19.11.2020
5334 Clouds 25 1007 88 10000 2.6 170 15:31 19.11.2020
5335 Clouds 24 1007 94 9000 2.6 150 13:55 19.11.2020
5336 Clouds 24 1007 94 9000 2.6 150 13:36 19.11.2020
5337 Clouds 23 1007 94 9000 2.1 160 12:54 19.11.2020
5338 Clouds 23 1007 94 9000 2.1 160 12:33 19.11.2020
5339 Rain 22 1007 94 8000 1.5 60 11:41 19.11.2020
5340 Clouds 22 1008 88 7000 2.03 35 11:22 19.11.2020
5341 Rain 22 1008 88 7000 0.5 6 10:31 19.11.2020
5342 Mist 23 1008 88 5000 3.1 160 09:48 19.11.2020
5343 Mist 22 1008 88 5000 3.1 140 09:27 19.11.2020
5344 Mist 23 1008 88 5000 3.1 140 08:37 19.11.2020
5345 Mist 22 1009 88 5000 3.1 130 07:35 19.11.2020
5346 Rain 22 1010 100 6000 4.6 120 01:48 19.11.2020
5347 Clouds 22 1010 88 6000 4.6 130 00:32 19.11.2020
5348 Rain 22 1010 94 4000 3.6 170 23:32 18.11.2020
5349 Clouds 22 1008 94 8000 4.6 140 22:59 18.11.2020
5350 Clouds 22 1008 94 8000 4.6 140 22:29 18.11.2020
5351 Clouds 23 1008 94 8000 5.7 160 21:43 18.11.2020
5352 Clouds 23 1008 94 8000 5.7 160 21:25 18.11.2020
5353 Clouds 22 1008 100 8000 5.7 160 20:35 18.11.2020
5354 Clouds 23 1009 88 9000 4.6 180 19:42 18.11.2020
5355 Clouds 24 1009 83 10000 5.7 180 19:22 18.11.2020
5356 Clouds 24 1009 83 10000 5.7 180 18:40 18.11.2020
5357 Clouds 24 1010 88 10000 5.1 140 17:44 18.11.2020
5358 Clouds 24 1010 83 10000 3.1 150 16:52 18.11.2020
5359 Clouds 24 1011 83 9000 3.6 160 16:18 18.11.2020
5360 Clouds 23 1011 88 7000 1 0 14:41 18.11.2020
5361 Rain 22 1012 94 8000 1.5 120 14:19 18.11.2020
5362 Rain 22 1012 100 6000 3.6 160 13:22 18.11.2020
5363 Rain 22 1012 100 6000 3.6 160 12:43 18.11.2020
5364 Rain 22 1011 94 6000 3.1 180 11:51 18.11.2020
5365 Mist 22 1011 100 4000 3.1 130 10:57 18.11.2020
5366 Mist 22 1011 100 4000 3.1 130 10:30 18.11.2020
5367 Clouds 22 1010 94 10000 2.1 10 08:41 18.11.2020
5368 Clouds 23 1010 88 10000 4.6 10 06:49 18.11.2020
5369 Drizzle 23 1010 94 4000 3.1 180 04:34 18.11.2020
5370 Clouds 24 1008 94 6000 3.6 180 00:20 18.11.2020
5371 Rain 25 1007 88 8000 6.2 180 23:25 17.11.2020
5372 Rain 25 1007 88 8000 6.2 180 22:44 17.11.2020
5373 Clouds 25 1007 88 8000 6.2 180 22:26 17.11.2020
5374 Clouds 26 1006 83 8000 7.2 200 21:47 17.11.2020
5375 Clouds 27 1006 78 10000 7.7 200 21:23 17.11.2020
5376 Clouds 27 1006 78 10000 7.7 200 21:23 17.11.2020
5377 Clouds 27 1006 78 10000 7.7 200 20:43 17.11.2020
5378 Clouds 29 1006 66 10000 6.7 200 20:23 17.11.2020
5379 Clouds 29 1006 66 10000 6.7 200 19:24 17.11.2020
5380 Clouds 31 1006 58 10000 6.7 200 18:23 17.11.2020
5381 Clouds 30 1006 74 10000 7.7 160 17:28 17.11.2020
5382 Clouds 30 1006 74 10000 7.7 160 16:35 17.11.2020
5383 Clouds 30 1006 65 10000 7.2 180 15:57 17.11.2020
5384 Clouds 30 1006 65 10000 7.2 180 15:36 17.11.2020
5385 Clouds 31 1006 58 10000 4.6 300 14:58 17.11.2020
5386 Clouds 31 1006 58 10000 4.6 300 14:30 17.11.2020
5387 Rain 28 1006 74 10000 7.2 320 13:45 17.11.2020
5388 Clouds 27 1007 74 10000 6.2 310 13:21 17.11.2020
5389 Clouds 27 1007 74 10000 6.2 310 13:21 17.11.2020
5390 Clouds 27 1007 74 10000 6.2 310 12:41 17.11.2020
5391 Clouds 27 1007 69 10000 5.1 200 11:44 17.11.2020
5392 Clouds 24 1007 94 10000 3.1 310 11:21 17.11.2020
5393 Clouds 24 1007 94 10000 3.1 310 10:37 17.11.2020
5394 Clear 22 1004 94 10000 2.6 240 09:53 17.11.2020
5395 Clear 22 1004 94 10000 2.6 240 09:33 17.11.2020
5396 Clear 23 1004 88 10000 2.6 290 08:25 17.11.2020
5397 Clear 23 1004 88 10000 2.6 290 07:56 17.11.2020
5398 Clear 23 1004 88 10000 2.6 290 07:26 17.11.2020
5399 Clear 23 1006 88 10000 1 360 04:28 17.11.2020
5400 Clouds 24 1007 88 10000 2.6 340 02:59 17.11.2020
5401 Clouds 24 1007 88 10000 2.6 320 02:22 17.11.2020
5402 Clouds 24 1006 88 10000 3.6 340 00:56 17.11.2020
5403 Clouds 24 1006 88 10000 4.1 340 23:52 16.11.2020
5404 Clouds 25 1006 88 10000 4.1 340 23:29 16.11.2020
5405 Clouds 25 1006 88 10000 5.7 10 22:48 16.11.2020
5406 Clouds 26 1006 88 10000 5.1 310 22:22 16.11.2020
5407 Clouds 26 1006 88 10000 5.1 310 21:50 16.11.2020
5408 Clouds 26 1006 88 10000 5.1 310 21:27 16.11.2020
5409 Rain 27 1006 83 9000 8.7 320 20:59 16.11.2020
5410 Rain 31 1004 74 10000 6.7 180 20:26 16.11.2020
5411 Clouds 31 1004 74 10000 6.7 180 19:50 16.11.2020
5412 Clouds 31 1004 74 10000 6.7 180 19:28 16.11.2020
5413 Clouds 31 1005 78 10000 6.7 180 18:48 16.11.2020
5414 Clouds 31 1006 78 10000 7.2 170 18:18 16.11.2020
5415 Clouds 31 1007 78 10000 6.2 160 17:27 16.11.2020
5416 Clouds 31 1007 78 10000 6.2 160 16:57 16.11.2020
5417 Clouds 31 1007 78 10000 6.2 160 16:39 16.11.2020
5418 Clouds 30 1007 83 10000 5.1 150 16:19 16.11.2020
5419 Clouds 30 1007 83 10000 5.1 150 15:43 16.11.2020
5420 Clear 30 1008 74 10000 3.1 130 15:22 16.11.2020
5421 Clear 30 1008 74 10000 3.1 130 14:47 16.11.2020
5422 Clouds 29 1008 83 10000 3.1 340 13:37 16.11.2020
5423 Clouds 28 1008 83 10000 3.1 330 12:45 16.11.2020
5424 Clouds 28 1008 83 10000 3.1 330 12:45 16.11.2020
5425 Clouds 28 1008 83 10000 3.1 330 12:25 16.11.2020
5426 Clear 27 1008 83 10000 1.5 130 11:38 16.11.2020
5427 Clouds 25 1008 88 10000 1.5 120 11:20 16.11.2020
5428 Clouds 25 1008 88 10000 1.5 120 10:42 16.11.2020
5429 Clouds 25 1008 88 10000 1.5 120 10:24 16.11.2020
5430 Clouds 25 1008 83 10000 2.1 110 09:43 16.11.2020
5431 Clouds 25 1008 88 10000 1.5 150 09:22 16.11.2020
5432 Clouds 25 1008 88 10000 1.5 150 08:40 16.11.2020
5433 Clouds 25 1008 88 10000 1.5 150 07:44 16.11.2020
5434 Clouds 25 1008 83 10000 1.5 110 06:50 16.11.2020
5435 Clouds 24 1009 88 10000 1 150 06:24 16.11.2020
5436 Clouds 25 1010 88 10000 1.99 57 04:43 16.11.2020
5437 Clouds 25 1010 88 10000 2.1 190 02:30 16.11.2020
5438 Clouds 25 1010 88 10000 4.6 180 01:44 16.11.2020
5439 Clouds 26 1009 88 10000 6.2 190 23:58 15.11.2020
5440 Clouds 26 1008 88 10000 8.2 180 23:26 15.11.2020
5441 Clouds 26 1008 88 10000 8.2 180 22:50 15.11.2020
5442 Clouds 27 1008 83 10000 8.2 170 22:22 15.11.2020
5443 Clouds 27 1008 83 10000 8.2 170 21:47 15.11.2020
5444 Clouds 27 1008 83 10000 8.2 170 21:25 15.11.2020
5445 Clouds 28 1008 83 10000 9.3 180 20:44 15.11.2020
5446 Clouds 29 1008 83 10000 8.2 170 20:22 15.11.2020
5447 Clouds 29 1008 83 10000 8.2 170 19:48 15.11.2020
5448 Clouds 29 1009 83 10000 7.2 170 19:22 15.11.2020
5449 Clouds 29 1009 83 10000 7.2 170 18:58 15.11.2020
5450 Clouds 29 1009 83 10000 7.2 170 18:40 15.11.2020
5451 Clouds 30 1009 83 10000 7.7 160 18:20 15.11.2020
5452 Clouds 30 1009 83 10000 7.7 160 17:46 15.11.2020
5453 Clouds 29 1010 88 10000 6.7 160 17:25 15.11.2020
5454 Clouds 29 1010 88 10000 6.7 160 16:51 15.11.2020
5455 Clouds 29 1010 83 10000 4.1 150 16:21 15.11.2020
5456 Clouds 29 1010 83 10000 4.1 150 15:56 15.11.2020
5457 Clouds 29 1010 83 10000 4.1 150 15:37 15.11.2020
5458 Clouds 28 1011 78 10000 1.5 40 15:19 15.11.2020
5459 Clouds 28 1011 78 10000 1.5 40 14:36 15.11.2020
5460 Clouds 28 1011 83 10000 1.5 330 14:18 15.11.2020
5461 Clouds 28 1011 83 10000 1.5 330 13:39 15.11.2020
5462 Clouds 26 1011 88 9000 1.5 20 12:52 15.11.2020
5463 Clouds 25 1011 88 9000 2.1 20 12:26 15.11.2020
5464 Clouds 25 1011 88 9000 2.1 20 11:55 15.11.2020
5465 Clouds 25 1011 88 9000 2.1 20 11:37 15.11.2020
5466 Clouds 24 1011 94 9000 1.5 20 11:18 15.11.2020
5467 Clouds 24 1011 94 9000 1.5 20 10:43 15.11.2020
5468 Clouds 24 1011 88 6000 1 320 10:24 15.11.2020
5469 Clouds 24 1011 88 6000 1 320 09:41 15.11.2020
5470 Clouds 24 1011 88 10000 1 20 09:20 15.11.2020
5471 Rain 24 1011 88 10000 1 20 08:53 15.11.2020
5472 Clouds 24 1011 88 10000 1 20 08:28 15.11.2020
5473 Clouds 23 1011 94 10000 1 100 07:43 15.11.2020
5474 Rain 24 1012 83 10000 1 140 05:18 15.11.2020
5475 Clear 24 1012 83 10000 1 140 04:49 15.11.2020
5476 Clouds 25 1011 94 10000 3.1 140 00:49 15.11.2020
5477 Clouds 25 1011 94 10000 3.1 140 00:28 15.11.2020
5478 Clouds 25 1010 83 10000 4.6 160 23:37 14.11.2020
5479 Clouds 25 1010 78 10000 4.6 160 22:50 14.11.2020
5480 Clouds 25 1010 78 10000 4.6 160 22:31 14.11.2020
5481 Clouds 27 1009 78 10000 5.7 170 21:44 14.11.2020
5482 Clouds 27 1009 74 10000 5.7 160 21:22 14.11.2020
5483 Clouds 27 1009 74 10000 5.7 160 20:59 14.11.2020
5484 Clouds 27 1009 74 10000 5.7 160 20:28 14.11.2020
5485 Clouds 28 1009 74 10000 5.7 160 19:55 14.11.2020
5486 Clouds 28 1009 74 10000 5.7 160 19:35 14.11.2020
5487 Clouds 28 1010 78 10000 5.1 170 18:44 14.11.2020
5488 Clouds 28 1010 78 10000 5.1 170 18:25 14.11.2020
5489 Rain 27 1011 78 10000 5.7 150 17:59 14.11.2020
5490 Clouds 27 1011 78 10000 5.7 150 17:41 14.11.2020
5491 Rain 28 1011 78 10000 5.1 140 17:20 14.11.2020
5492 Clouds 28 1011 78 10000 5.1 140 16:44 14.11.2020
5493 Clouds 28 1012 78 10000 4.6 140 16:24 14.11.2020
5494 Clouds 28 1012 78 10000 4.6 140 15:52 14.11.2020
5495 Clouds 28 1012 78 10000 4.6 140 15:29 14.11.2020
5496 Clouds 27 1012 88 9000 3.6 140 14:49 14.11.2020
5497 Clouds 27 1012 88 9000 3.6 140 14:26 14.11.2020
5498 Clouds 26 1012 88 10000 2.6 130 13:49 14.11.2020
5499 Clouds 26 1012 88 10000 2.6 130 13:26 14.11.2020
5500 Clouds 25 1011 88 10000 2.6 180 12:48 14.11.2020
5501 Clouds 25 1011 88 10000 2.6 180 12:48 14.11.2020
5502 Clouds 25 1011 88 10000 2.6 180 12:30 14.11.2020
5503 Clouds 25 1011 88 7000 2.1 220 11:48 14.11.2020
5504 Clouds 25 1011 88 7000 2.1 220 11:30 14.11.2020
5505 Clouds 24 1010 94 10000 2.6 330 10:50 14.11.2020
5506 Clouds 24 1010 94 10000 2.6 330 10:27 14.11.2020
5507 Clouds 24 1010 94 10000 2.6 330 10:27 14.11.2020
5508 Clouds 23 1009 94 7000 1.5 40 09:56 14.11.2020
5509 Clouds 23 1009 94 7000 1.5 40 09:38 14.11.2020
5510 Clouds 24 1009 88 8000 2.1 30 09:19 14.11.2020
5511 Clouds 24 1009 88 8000 2.1 30 08:39 14.11.2020
5512 Rain 24 1009 88 8000 2.1 70 07:52 14.11.2020
5513 Rain 24 1009 88 8000 2.1 70 07:31 14.11.2020
5514 Rain 24 1010 94 8000 2.6 250 06:37 14.11.2020
5515 Clouds 24 1010 88 8000 1 10 06:19 14.11.2020
5516 Rain 24 1011 94 9000 1.5 360 04:30 14.11.2020
5517 Clouds 24 1011 88 10000 1 170 01:25 14.11.2020
5518 Rain 23 1010 100 10000 3.6 130 23:54 13.11.2020
5519 Rain 24 1010 100 10000 3.6 130 23:33 13.11.2020
5520 Clouds 25 1009 88 10000 4.1 140 22:56 13.11.2020
5521 Clouds 25 1009 88 10000 4.1 140 22:38 13.11.2020
5522 Clouds 25 1009 83 10000 4.1 170 22:19 13.11.2020
5523 Clouds 25 1009 83 10000 4.1 170 21:42 13.11.2020
5524 Clouds 25 1009 88 10000 6.2 170 21:22 13.11.2020
5525 Clouds 25 1009 88 10000 6.2 170 20:50 13.11.2020
5526 Clouds 25 1009 88 10000 6.2 170 20:23 13.11.2020
5527 Clouds 26 1009 83 10000 6.7 160 19:47 13.11.2020
5528 Clouds 26 1009 83 10000 6.7 160 19:24 13.11.2020
5529 Clouds 27 1009 83 10000 6.2 160 18:59 13.11.2020
5530 Clouds 27 1009 83 10000 6.2 160 18:32 13.11.2020
5531 Clouds 27 1010 78 10000 5.1 170 17:43 13.11.2020
5532 Clouds 28 1010 78 10000 3.1 140 17:21 13.11.2020
5533 Rain 28 1010 78 10000 3.1 140 16:50 13.11.2020
5534 Clouds 28 1010 78 10000 3.1 140 16:25 13.11.2020
5535 Clouds 27 1010 83 10000 4.1 140 15:59 13.11.2020
5536 Clouds 27 1010 83 10000 4.1 140 15:33 13.11.2020
5537 Clouds 27 1011 83 10000 2.6 140 14:55 13.11.2020
5538 Clouds 27 1011 83 10000 2.6 140 14:36 13.11.2020
5539 Clouds 27 1011 83 10000 2.6 140 14:36 13.11.2020
5540 Clouds 27 1011 83 7000 3.1 130 14:18 13.11.2020
5541 Clouds 27 1011 83 7000 3.1 130 14:18 13.11.2020
5542 Clouds 27 1011 83 7000 3.1 130 14:18 13.11.2020
5543 Clouds 27 1011 83 7000 3.1 130 14:18 13.11.2020
5544 Clouds 27 1011 83 7000 3.1 130 13:31 13.11.2020
5545 Clouds 25 1011 88 6000 3.1 130 12:55 13.11.2020
5546 Mist 25 1011 88 4500 2.1 140 12:37 13.11.2020
5547 Mist 24 1010 94 4500 1 140 12:18 13.11.2020
5548 Mist 24 1010 94 4500 1 140 11:45 13.11.2020
5549 Mist 23 1009 94 4500 0.5 0 11:20 13.11.2020
5550 Mist 23 1009 94 4500 0.5 0 10:47 13.11.2020
5551 Mist 23 1009 94 4500 0.5 0 10:29 13.11.2020
5552 Mist 23 1009 88 4000 1 170 09:47 13.11.2020
5553 Mist 23 1009 88 4000 1 170 09:27 13.11.2020
5554 Mist 23 1009 88 4000 1 170 09:27 13.11.2020
5555 Mist 23 1009 88 4000 1 170 09:27 13.11.2020
5556 Mist 23 1009 94 5000 1 0 08:53 13.11.2020
5557 Mist 23 1009 94 5000 1 0 08:26 13.11.2020
5558 Mist 23 1009 88 4000 1 80 07:50 13.11.2020
5559 Mist 23 1009 88 4000 1 80 07:27 13.11.2020
5560 Mist 23 1009 94 5000 1.5 240 06:55 13.11.2020
5561 Mist 23 1009 94 5000 1.5 240 06:36 13.11.2020
5562 Mist 24 1010 88 5000 2.6 330 05:41 13.11.2020
5563 Rain 24 1011 94 5000 1.5 270 03:41 13.11.2020
5564 Clouds 24 1011 94 6000 1 0 01:42 13.11.2020
5565 Clouds 24 1010 94 8000 2.1 120 00:36 13.11.2020
5566 Rain 25 1010 88 8000 3.6 160 23:50 12.11.2020
5567 Rain 25 1009 83 10000 4.6 160 23:21 12.11.2020
5568 Rain 25 1009 83 10000 4.6 160 22:55 12.11.2020
5569 Rain 25 1009 83 10000 4.6 160 22:37 12.11.2020
5570 Rain 25 1009 88 10000 5.7 150 21:59 12.11.2020
5571 Rain 25 1009 88 10000 5.7 150 21:40 12.11.2020
5572 Rain 26 1008 88 10000 5.1 150 21:22 12.11.2020
5573 Rain 26 1008 88 10000 5.1 150 20:42 12.11.2020
5574 Rain 27 1009 88 10000 4.6 140 20:23 12.11.2020
5575 Clouds 27 1009 88 10000 4.6 140 19:55 12.11.2020
5576 Clouds 27 1009 88 10000 4.6 140 19:37 12.11.2020
5577 Clouds 27 1009 78 7000 5.7 160 19:19 12.11.2020
5578 Clouds 27 1009 78 7000 5.7 160 18:42 12.11.2020
5579 Clouds 27 1010 83 7000 5.7 160 18:20 12.11.2020
5580 Clouds 27 1010 83 7000 5.7 160 17:43 12.11.2020
5581 Clouds 27 1011 88 7000 5.1 150 17:24 12.11.2020
5582 Clouds 27 1011 88 7000 5.1 150 16:45 12.11.2020
5583 Clouds 28 1011 83 7000 5.7 150 16:23 12.11.2020
5584 Clouds 28 1011 83 7000 5.7 150 15:53 12.11.2020
5585 Rain 28 1011 83 7000 5.7 150 15:29 12.11.2020
5586 Clouds 27 1011 83 7000 4.6 150 14:56 12.11.2020
5587 Clouds 27 1011 83 7000 4.6 150 14:38 12.11.2020
5588 Mist 26 1011 88 5000 3.1 150 14:19 12.11.2020
5589 Mist 26 1011 88 5000 3.1 150 13:45 12.11.2020
5590 Mist 25 1011 88 4000 1 100 13:20 12.11.2020
5591 Mist 25 1011 88 4000 1 100 12:49 12.11.2020
5592 Mist 25 1011 88 4000 1 100 12:25 12.11.2020
5593 Mist 24 1011 94 3800 1 320 11:57 12.11.2020
5594 Mist 24 1011 94 3800 1 320 11:39 12.11.2020
5595 Mist 23 1010 94 3500 1.5 30 10:54 12.11.2020
5596 Mist 23 1010 94 3500 1.5 30 10:35 12.11.2020
5597 Clouds 23 1010 88 7000 1 130 09:58 12.11.2020
5598 Clouds 23 1010 88 7000 1 130 09:38 12.11.2020
5599 Rain 23 1009 94 5000 1.5 70 09:18 12.11.2020
5600 Mist 23 1009 94 5000 1.5 70 08:40 12.11.2020
5601 Rain 23 1010 94 7000 1 60 08:21 12.11.2020
5602 Clouds 23 1010 94 7000 1 60 07:55 12.11.2020
5603 Clouds 23 1010 94 7000 1 60 07:36 12.11.2020
5604 Clouds 23 1010 94 7000 1.5 320 06:52 12.11.2020
5605 Rain 23 1010 94 7000 1.5 320 06:27 12.11.2020
5606 Clouds 23 1012 100 9000 1 160 03:50 12.11.2020
5607 Clouds 23 1013 100 9000 2.1 10 03:20 12.11.2020
5608 Rain 24 1012 94 10000 2.6 160 00:45 12.11.2020
5609 Rain 24 1012 100 10000 5.1 130 23:46 11.11.2020
5610 Rain 24 1012 100 10000 5.1 130 23:25 11.11.2020
5611 Rain 24 1010 88 10000 5.1 180 22:56 11.11.2020
5612 Rain 24 1010 88 10000 5.1 180 22:38 11.11.2020
5613 Rain 25 1010 83 10000 4.6 160 22:18 11.11.2020
5614 Clouds 25 1010 83 10000 4.6 160 21:41 11.11.2020
5615 Clouds 25 1010 83 10000 5.7 160 21:21 11.11.2020
5616 Clouds 25 1010 83 10000 5.7 160 20:55 11.11.2020
5617 Clouds 25 1010 83 10000 5.7 160 20:36 11.11.2020
5618 Clouds 27 1010 83 10000 5.1 160 20:18 11.11.2020
5619 Clouds 27 1010 83 10000 5.1 160 19:46 11.11.2020
5620 Clouds 27 1010 83 10000 5.1 160 19:28 11.11.2020
5621 Clouds 27 1010 83 8000 4.1 160 18:47 11.11.2020
5622 Clouds 27 1010 83 8000 4.1 160 18:27 11.11.2020
5623 Clouds 26 1011 88 6000 4.6 150 17:41 11.11.2020
5624 Clouds 26 1012 88 6000 4.1 140 17:22 11.11.2020
5625 Clouds 26 1012 88 6000 4.1 140 16:47 11.11.2020
5626 Clouds 26 1012 88 6000 4.1 140 16:28 11.11.2020
5627 Mist 25 1013 94 4000 3.6 140 15:48 11.11.2020
5628 Mist 25 1013 94 4000 3.6 140 15:26 11.11.2020
5629 Mist 25 1013 88 4000 3.6 180 14:55 11.11.2020
5630 Mist 25 1013 88 4000 3.6 180 14:34 11.11.2020
5631 Mist 24 1013 88 4000 4.1 180 13:56 11.11.2020
5632 Mist 24 1013 88 4000 4.1 180 13:33 11.11.2020
5633 Mist 24 1013 88 4000 4.1 180 13:33 11.11.2020
5634 Mist 24 1013 94 4000 4.1 180 12:44 11.11.2020
5635 Mist 24 1012 94 4000 2.6 160 12:20 11.11.2020
5636 Mist 24 1012 94 4000 2.6 160 11:49 11.11.2020
5637 Mist 24 1012 94 4000 2.6 160 11:30 11.11.2020
5638 Mist 23 1011 100 4000 1.5 170 10:42 11.11.2020
5639 Mist 23 1011 100 4000 1.5 170 10:24 11.11.2020
5640 Clouds 23 1011 88 8000 1 200 09:48 11.11.2020
5641 Clouds 23 1011 88 8000 1 200 09:28 11.11.2020
5642 Clouds 23 1010 88 8000 1.5 210 08:47 11.11.2020
5643 Clouds 23 1010 88 8000 1.5 210 08:28 11.11.2020
5644 Rain 23 1011 88 8000 3.1 270 07:52 11.11.2020
5645 Clouds 23 1011 88 8000 3.1 270 07:32 11.11.2020
5646 Clouds 23 1011 94 7000 2.6 310 06:28 11.11.2020
5647 Clouds 24 1012 88 7000 3.6 280 04:47 11.11.2020
5648 Rain 24 1013 94 7000 1.5 140 01:32 11.11.2020
5649 Rain 24 1013 94 8000 2.6 180 00:42 11.11.2020
5650 Clouds 25 1012 94 8000 3.6 170 23:56 10.11.2020
5651 Rain 24 1011 94 8000 3.6 170 23:24 10.11.2020
5652 Clouds 24 1011 94 8000 3.6 170 22:57 10.11.2020
5653 Clouds 24 1011 94 8000 3.6 170 22:36 10.11.2020
5654 Clouds 25 1011 94 7000 3.6 160 22:18 10.11.2020
5655 Clouds 25 1011 94 7000 3.6 160 21:39 10.11.2020
5656 Clouds 26 1011 94 8000 3.1 170 21:19 10.11.2020
5657 Clouds 26 1011 94 8000 3.1 170 20:43 10.11.2020
5658 Clouds 26 1011 94 8000 2.6 150 20:23 10.11.2020
5659 Clouds 26 1011 94 8000 2.6 150 19:57 10.11.2020
5660 Clouds 26 1011 94 8000 2.6 150 19:39 10.11.2020
5661 Clouds 26 1012 88 9000 1 10 19:20 10.11.2020
5662 Clouds 26 1012 88 9000 1 10 18:41 10.11.2020
5663 Clouds 26 1013 88 10000 2.6 330 18:21 10.11.2020
5664 Clouds 26 1013 88 10000 2.6 330 17:47 10.11.2020
5665 Clouds 26 1013 88 8000 1.5 100 17:28 10.11.2020
5666 Clouds 26 1013 88 8000 1.5 100 16:58 10.11.2020
5667 Clouds 26 1013 88 8000 1.5 100 16:39 10.11.2020
5668 Clouds 25 1014 88 10000 0.5 270 16:21 10.11.2020
5669 Rain 25 1014 88 10000 0.5 270 15:47 10.11.2020
5670 Clouds 25 1014 88 10000 0.5 270 15:27 10.11.2020
5671 Clouds 24 1015 88 9000 1.5 100 14:43 10.11.2020
5672 Clouds 23 1015 94 9000 2.6 140 14:23 10.11.2020
5673 Clouds 23 1015 94 9000 2.6 140 14:00 10.11.2020
5674 Clouds 23 1015 94 9000 2.6 140 13:38 10.11.2020
5675 Clouds 23 1015 94 8000 3.1 180 13:19 10.11.2020
5676 Rain 23 1015 94 8000 3.1 180 12:45 10.11.2020
5677 Rain 23 1015 94 8000 3.1 180 12:24 10.11.2020
5678 Clouds 23 1015 100 6000 2.6 180 11:43 10.11.2020
5679 Clouds 23 1014 100 7000 1.5 140 11:21 10.11.2020
5680 Clouds 23 1014 100 7000 1.5 140 10:57 10.11.2020
5681 Rain 23 1014 100 7000 1.5 140 10:38 10.11.2020
5682 Rain 24 1014 88 6000 2.1 240 10:19 10.11.2020
5683 Clouds 24 1014 88 6000 2.1 240 09:43 10.11.2020
5684 Clouds 24 1014 88 6000 2.1 240 09:24 10.11.2020
5685 Rain 24 1013 88 4000 2.6 270 08:53 10.11.2020
5686 Rain 24 1013 88 4000 2.6 270 08:27 10.11.2020
5687 Rain 24 1013 88 4000 2.6 320 07:44 10.11.2020
5688 Rain 24 1013 88 4000 2.6 320 07:24 10.11.2020
5689 Rain 24 1013 94 8000 0.1 56 06:40 10.11.2020
5690 Rain 24 1013 94 8000 1 220 05:43 10.11.2020
5691 Clouds 24 1014 94 4000 1 100 04:59 10.11.2020
5692 Drizzle 24 1014 100 5000 5.1 160 02:36 10.11.2020
5693 Clouds 24 1014 94 9000 5.1 160 01:30 10.11.2020
5694 Clouds 24 1014 94 8000 6.2 160 23:57 09.11.2020
5695 Clouds 24 1014 94 8000 6.2 160 23:36 09.11.2020
5696 Clouds 25 1013 94 9000 6.7 170 22:49 09.11.2020
5697 Clouds 25 1013 94 9000 6.7 170 22:25 09.11.2020
5698 Clouds 25 1013 94 8000 6.2 180 21:59 09.11.2020
5699 Clouds 25 1012 94 8000 5.7 170 21:38 09.11.2020
5700 Clouds 26 1012 94 7000 6.2 170 21:19 09.11.2020
5701 Clouds 26 1012 94 7000 6.2 170 20:39 09.11.2020
5702 Clouds 27 1012 88 8000 6.7 160 20:20 09.11.2020
5703 Clouds 28 1012 83 10000 6.2 170 19:42 09.11.2020
5704 Clouds 28 1012 83 10000 6.2 170 19:22 09.11.2020
5705 Clouds 27 1013 94 10000 5.1 170 18:42 09.11.2020
5706 Clouds 27 1014 88 10000 3.6 150 18:21 09.11.2020
5707 Clouds 27 1014 88 10000 3.6 150 17:58 09.11.2020
5708 Clouds 27 1014 88 10000 3.6 150 17:39 09.11.2020
5709 Clouds 26 1015 88 10000 3.1 140 17:21 09.11.2020
5710 Clouds 26 1015 88 10000 3.1 140 16:38 09.11.2020
5711 Clouds 26 1015 88 8000 3.6 140 16:19 09.11.2020
5712 Clouds 26 1015 88 8000 3.6 140 15:42 09.11.2020
5713 Clouds 26 1016 88 6000 3.1 140 15:24 09.11.2020
5714 Clouds 25 1016 88 6000 1.5 40 14:44 09.11.2020
5715 Clouds 25 1016 88 6000 1.5 40 14:26 09.11.2020
5716 Mist 25 1016 94 5000 2.6 20 13:51 09.11.2020
5717 Clouds 24 1016 94 8000 2.1 350 13:21 09.11.2020
5718 Clouds 24 1016 94 8000 2.1 350 12:50 09.11.2020
5719 Clouds 24 1016 94 8000 2.1 350 12:26 09.11.2020
5720 Clouds 23 1016 100 8000 1.5 350 11:59 09.11.2020
5721 Clouds 23 1016 100 8000 1.5 350 11:41 09.11.2020
5722 Clouds 22 1016 94 6000 0.91 238 11:22 09.11.2020
5723 Clouds 22 1016 94 6000 0.91 238 10:43 09.11.2020
5724 Mist 22 1015 94 4500 1.5 290 10:24 09.11.2020
5725 Mist 22 1015 94 4500 1.5 290 09:52 09.11.2020
5726 Clouds 22 1016 94 8000 1.96 262 09:28 09.11.2020
5727 Clouds 23 1016 88 10000 1.96 262 08:44 09.11.2020
5728 Mist 22 1015 94 5000 1.5 260 08:26 09.11.2020
5729 Mist 22 1015 94 5000 1.5 260 07:41 09.11.2020
5730 Clouds 22 1015 94 6000 1.5 300 07:21 09.11.2020
5731 Clouds 22 1015 94 6000 1.5 300 06:48 09.11.2020
5732 Clouds 22 1017 100 7000 3.6 170 03:49 09.11.2020
5733 Mist 22 1018 94 3000 3.6 250 01:55 09.11.2020
5734 Mist 22 1018 94 3000 3.6 250 01:37 09.11.2020
5735 Thunderstorm 23 1016 94 6000 4.6 180 00:35 09.11.2020
5736 Clouds 23 1016 94 7000 4.6 180 23:39 08.11.2020
5737 Clouds 23 1015 94 7000 3.6 180 23:20 08.11.2020
5738 Clouds 23 1015 94 7000 3.6 180 22:42 08.11.2020
5739 Clouds 23 1015 94 7000 3.1 160 22:21 08.11.2020
5740 Clouds 23 1015 94 7000 3.1 160 21:45 08.11.2020
5741 Clouds 23 1015 94 7000 3.6 170 21:21 08.11.2020
5742 Clouds 23 1015 94 7000 3.6 170 20:56 08.11.2020
5743 Clouds 23 1015 94 7000 3.6 170 20:38 08.11.2020
5744 Clouds 24 1015 94 7000 4.6 170 20:19 08.11.2020
5745 Clouds 24 1015 94 7000 4.6 170 19:43 08.11.2020
5746 Clouds 24 1016 83 10000 4.6 170 19:21 08.11.2020
5747 Clouds 24 1016 83 10000 4.6 170 18:55 08.11.2020
5748 Clouds 24 1016 83 10000 4.6 170 18:37 08.11.2020
5749 Clouds 25 1016 78 10000 4.6 150 18:19 08.11.2020
5750 Clouds 25 1016 78 10000 4.6 150 17:41 08.11.2020
5751 Clouds 25 1017 78 10000 4.6 150 17:20 08.11.2020
5752 Clouds 25 1017 78 10000 4.6 150 16:57 08.11.2020
5753 Clouds 25 1017 78 10000 4.6 150 16:37 08.11.2020
5754 Clouds 24 1017 78 10000 3.1 160 16:18 08.11.2020
5755 Clouds 24 1017 78 10000 3.1 160 15:44 08.11.2020
5756 Clouds 25 1017 78 10000 3.1 160 15:26 08.11.2020
5757 Clouds 24 1017 78 10000 1 0 14:42 08.11.2020
5758 Clouds 23 1018 83 10000 1.5 320 14:23 08.11.2020
5759 Clouds 23 1018 83 10000 1.5 320 13:56 08.11.2020
5760 Clouds 23 1018 83 10000 1.5 320 13:25 08.11.2020
5761 Clouds 23 1018 83 10000 1.02 151 12:55 08.11.2020
5762 Clouds 23 1018 83 10000 1.02 151 12:37 08.11.2020
5763 Clouds 22 1017 88 10000 1 0 12:18 08.11.2020
5764 Clouds 22 1017 88 10000 1 0 11:41 08.11.2020
5765 Clouds 21 1017 88 10000 0.5 0 11:22 08.11.2020
5766 Clouds 21 1017 88 10000 0.5 0 10:53 08.11.2020
5767 Clouds 21 1017 88 10000 1.5 320 10:21 08.11.2020
5768 Clouds 21 1017 88 10000 1.5 320 09:59 08.11.2020
5769 Clouds 21 1017 88 10000 1.5 320 09:41 08.11.2020
5770 Clouds 21 1016 88 10000 1.5 40 09:18 08.11.2020
5771 Clouds 21 1016 88 10000 1.5 40 08:44 08.11.2020
5772 Clouds 21 1017 88 10000 1 330 08:22 08.11.2020
5773 Clouds 21 1017 88 10000 1 330 07:53 08.11.2020
5774 Clouds 21 1017 88 10000 1 330 07:31 08.11.2020
5775 Clouds 21 1017 88 10000 1 0 06:27 08.11.2020
5776 Clouds 21 1017 88 10000 2.1 320 05:54 08.11.2020
5777 Clouds 21 1018 88 10000 2.1 330 04:51 08.11.2020
5778 Drizzle 22 1019 83 6000 2.6 100 02:20 08.11.2020
5779 Clouds 22 1018 78 10000 2.1 130 01:19 08.11.2020
5780 Clouds 22 1018 78 10000 2.1 130 01:19 08.11.2020
5781 Clouds 22 1018 78 10000 2.1 130 01:19 08.11.2020
5782 Clouds 22 1018 78 10000 2.1 130 00:31 08.11.2020
5783 Clouds 22 1018 78 10000 2.1 130 00:31 08.11.2020
5784 Clouds 23 1018 78 10000 3.1 160 23:51 07.11.2020
5785 Clouds 23 1018 78 10000 3.1 160 23:31 07.11.2020
5786 Clouds 23 1018 78 10000 4.1 160 22:48 07.11.2020
5787 Clouds 23 1018 78 10000 4.1 160 22:28 07.11.2020
5788 Clouds 23 1017 83 10000 5.1 160 21:58 07.11.2020
5789 Clouds 23 1017 83 10000 5.1 160 21:40 07.11.2020
5790 Clouds 23 1017 73 10000 6.2 170 21:19 07.11.2020
5791 Clouds 23 1017 73 10000 6.2 170 20:46 07.11.2020
5792 Clouds 23 1017 73 10000 6.2 170 20:28 07.11.2020
5793 Clouds 24 1017 69 10000 6.7 160 19:48 07.11.2020
5794 Clouds 24 1017 69 10000 6.7 160 19:27 07.11.2020
5795 Clouds 25 1017 64 10000 6.2 160 18:45 07.11.2020
5796 Clouds 25 1018 69 10000 5.7 160 18:27 07.11.2020
5797 Clouds 25 1018 69 10000 5.7 160 17:57 07.11.2020
5798 Clouds 25 1018 69 10000 5.7 160 17:37 07.11.2020
5799 Clouds 25 1019 57 10000 4.6 160 16:57 07.11.2020
5800 Clouds 25 1019 57 10000 4.6 160 16:39 07.11.2020
5801 Clouds 24 1019 69 10000 3.6 140 16:20 07.11.2020
5802 Clouds 24 1019 69 10000 3.6 140 15:42 07.11.2020
5803 Clouds 24 1019 78 10000 4.1 140 15:22 07.11.2020
5804 Clouds 24 1019 78 10000 4.1 140 14:48 07.11.2020
5805 Clouds 24 1019 78 10000 4.1 140 14:29 07.11.2020
5806 Clouds 23 1019 78 10000 1 80 13:56 07.11.2020
5807 Clouds 23 1019 78 10000 1 80 13:31 07.11.2020
5808 Clouds 22 1019 78 10000 1.5 20 12:55 07.11.2020
5809 Clouds 22 1019 78 10000 1.5 20 12:30 07.11.2020
5810 Clouds 21 1019 83 10000 2.1 20 11:45 07.11.2020
5811 Clouds 20 1018 83 10000 1.5 10 11:24 07.11.2020
5812 Clouds 20 1018 83 10000 1.5 10 10:46 07.11.2020
5813 Clouds 20 1018 83 10000 1.5 10 10:28 07.11.2020
5814 Clouds 20 1018 88 10000 1.5 50 09:58 07.11.2020
5815 Clouds 20 1018 88 10000 1.5 50 09:37 07.11.2020
5816 Clouds 20 1017 88 10000 2.1 80 08:56 07.11.2020
5817 Clouds 20 1017 88 10000 2.1 80 08:37 07.11.2020
5818 Clouds 20 1017 88 10000 2.1 60 08:18 07.11.2020
5819 Clouds 20 1017 88 10000 2.1 60 07:37 07.11.2020
5820 Clouds 20 1017 88 10000 2.1 80 06:48 07.11.2020
5821 Clouds 21 1017 83 10000 1.5 60 05:37 07.11.2020
5822 Clouds 21 1018 78 10000 1.5 50 03:25 07.11.2020
5823 Clouds 22 1017 73 10000 2.6 190 01:45 07.11.2020
5824 Clouds 22 1017 73 10000 2.6 190 01:25 07.11.2020
5825 Clouds 22 1017 73 10000 2.1 180 00:28 07.11.2020
5826 Clouds 22 1016 64 10000 3.1 190 23:30 06.11.2020
5827 Clouds 22 1016 64 10000 4.1 160 22:45 06.11.2020
5828 Clouds 23 1015 64 10000 4.6 180 22:20 06.11.2020
5829 Clouds 23 1015 64 10000 4.6 180 21:58 06.11.2020
5830 Clouds 23 1015 64 10000 4.6 180 21:40 06.11.2020
5831 Clouds 23 1015 73 10000 5.1 170 21:18 06.11.2020
5832 Clouds 23 1015 73 10000 5.1 170 20:43 06.11.2020
5833 Clouds 23 1015 73 10000 4.6 160 20:20 06.11.2020
5834 Clouds 23 1015 73 10000 4.6 160 19:45 06.11.2020
5835 Clouds 23 1015 73 10000 4.6 160 19:27 06.11.2020
5836 Clouds 23 1015 69 10000 4.6 160 18:47 06.11.2020
5837 Clouds 24 1015 69 10000 4.6 160 18:28 06.11.2020
5838 Clouds 24 1015 73 10000 4.1 150 17:53 06.11.2020
5839 Clouds 24 1015 73 10000 4.1 150 17:35 06.11.2020
5840 Clouds 24 1015 78 10000 3.6 140 16:59 06.11.2020
5841 Clouds 24 1015 78 10000 3.6 140 16:39 06.11.2020
5842 Clouds 24 1016 73 10000 2.1 130 16:20 06.11.2020
5843 Clouds 24 1016 73 10000 2.1 130 15:41 06.11.2020
5844 Clouds 23 1016 78 10000 3.1 30 15:22 06.11.2020
5845 Clouds 23 1016 78 10000 3.1 30 14:41 06.11.2020
5846 Clouds 22 1016 83 10000 2.6 10 14:18 06.11.2020
5847 Clouds 22 1016 83 10000 2.6 10 14:18 06.11.2020
5848 Clouds 22 1016 83 10000 2.6 10 13:42 06.11.2020
5849 Clouds 21 1016 83 10000 1.5 10 13:19 06.11.2020
5850 Clouds 21 1016 83 10000 1.5 10 12:42 06.11.2020
5851 Clouds 20 1016 88 10000 2.6 320 12:22 06.11.2020
5852 Clouds 20 1016 88 10000 2.6 320 11:39 06.11.2020
5853 Clouds 19 1015 88 9000 3.6 320 11:20 06.11.2020
5854 Clouds 19 1015 88 9000 3.6 320 10:36 06.11.2020
5855 Clouds 19 1015 88 10000 2.6 320 10:18 06.11.2020
5856 Clouds 19 1015 88 10000 2.6 320 09:41 06.11.2020
5857 Clouds 19 1014 88 10000 2.6 330 09:21 06.11.2020
5858 Clouds 19 1014 88 10000 2.6 330 08:47 06.11.2020
5859 Clouds 19 1014 88 10000 2.6 330 08:28 06.11.2020
5860 Clouds 19 1014 88 10000 1 30 07:44 06.11.2020
5861 Clouds 19 1014 88 10000 2.1 220 07:21 06.11.2020
5862 Clouds 19 1014 88 10000 2.1 220 06:48 06.11.2020
5863 Clouds 18 1014 93 10000 2.1 130 05:40 06.11.2020
5864 Clouds 19 1015 88 9000 5.1 160 02:53 06.11.2020
5865 Clouds 20 1014 82 10000 3.1 140 00:43 06.11.2020
5866 Clouds 20 1014 77 10000 2.1 140 00:18 06.11.2020
5867 Clouds 20 1014 77 10000 2.1 140 23:26 05.11.2020
5868 Clouds 20 1013 82 10000 4.6 150 22:50 05.11.2020
5869 Clouds 20 1013 82 10000 4.6 150 22:50 05.11.2020
5870 Clouds 20 1013 82 10000 5.7 160 22:26 05.11.2020
5871 Clouds 20 1013 82 10000 5.7 160 21:59 05.11.2020
5872 Clouds 20 1013 82 10000 5.7 160 21:41 05.11.2020
5873 Clouds 21 1012 82 10000 7.2 160 21:21 05.11.2020
5874 Clouds 21 1012 82 10000 7.2 160 21:21 05.11.2020
5875 Clouds 21 1012 82 10000 7.2 160 20:45 05.11.2020
5876 Clouds 21 1012 82 10000 7.2 160 20:26 05.11.2020
5877 Clouds 20 1013 88 8000 7.7 180 19:58 05.11.2020
5878 Clouds 20 1013 88 8000 7.7 180 19:40 05.11.2020
5879 Clouds 21 1013 94 8000 7.2 180 19:22 05.11.2020
5880 Mist 20 1013 93 2000 7.7 200 18:42 05.11.2020
5881 Clouds 22 1013 83 10000 7.2 190 18:24 05.11.2020
5882 Clouds 22 1013 83 10000 7.2 190 17:52 05.11.2020
5883 Clouds 22 1014 69 10000 8.2 190 17:27 05.11.2020
5884 Clouds 22 1014 69 10000 8.2 190 16:58 05.11.2020
5885 Clouds 22 1014 69 10000 8.2 190 16:40 05.11.2020
5886 Clouds 24 1014 73 10000 5.1 170 16:19 05.11.2020
5887 Clouds 24 1014 73 10000 5.1 170 15:43 05.11.2020
5888 Clouds 23 1014 83 10000 2.1 30 15:21 05.11.2020
5889 Clouds 23 1014 83 10000 2.1 30 14:45 05.11.2020
5890 Clouds 23 1014 83 10000 2.1 30 14:25 05.11.2020
5891 Clouds 23 1014 83 10000 2.6 20 13:42 05.11.2020
5892 Clouds 22 1015 88 10000 3.1 20 13:23 05.11.2020
5893 Clouds 22 1015 88 10000 3.1 20 12:50 05.11.2020
5894 Rain 21 1014 88 10000 1.5 350 12:25 05.11.2020
5895 Clouds 21 1014 88 10000 1.5 350 11:54 05.11.2020
5896 Clouds 21 1014 88 10000 1.5 350 11:28 05.11.2020
5897 Clouds 20 1014 88 10000 0.5 40 10:58 05.11.2020
5898 Clouds 20 1014 88 10000 0.5 40 10:39 05.11.2020
5899 Clouds 19 1014 93 10000 2.1 330 10:21 05.11.2020
5900 Clouds 19 1014 93 10000 2.1 330 09:44 05.11.2020
5901 Clouds 19 1014 93 10000 2.1 300 09:21 05.11.2020
5902 Clouds 19 1014 93 10000 2.1 300 09:21 05.11.2020
5903 Clouds 19 1014 93 10000 2.1 300 08:43 05.11.2020
5904 Clouds 19 1014 93 10000 2.1 300 08:25 05.11.2020
5905 Clouds 20 1014 88 10000 1 310 07:30 05.11.2020
5906 Clouds 19 1014 93 10000 1.5 250 06:52 05.11.2020
5907 Clouds 19 1014 93 10000 1.5 250 06:34 05.11.2020
5908 Clouds 19 1014 93 10000 1.5 250 06:34 05.11.2020
5909 Clouds 19 1014 93 10000 1.5 250 06:34 05.11.2020
5910 Clouds 20 1015 88 10000 2.6 310 05:23 05.11.2020
5911 Clouds 22 1015 73 10000 3.6 200 01:24 05.11.2020
5912 Clouds 22 1015 73 10000 3.6 200 00:32 05.11.2020
5913 Clouds 22 1014 73 10000 3.6 210 23:44 04.11.2020
5914 Clouds 22 1014 73 10000 3.6 210 23:26 04.11.2020
5915 Clouds 22 1014 78 10000 7.2 190 22:52 04.11.2020
5916 Clouds 22 1014 78 10000 7.2 190 22:26 04.11.2020
5917 Clouds 23 1013 73 10000 5.1 210 21:58 04.11.2020
5918 Clouds 23 1013 73 10000 5.1 210 21:37 04.11.2020
5919 Clouds 23 1013 78 10000 7.7 190 21:18 04.11.2020
5920 Clouds 23 1013 78 10000 7.7 190 20:43 04.11.2020
5921 Clouds 24 1013 73 10000 8.7 180 20:25 04.11.2020
5922 Clouds 24 1013 73 10000 8.7 180 19:49 04.11.2020
5923 Clouds 24 1013 73 10000 8.7 180 19:29 04.11.2020
5924 Clouds 24 1013 69 10000 7.2 180 18:55 04.11.2020
5925 Clouds 24 1013 69 10000 7.2 180 18:37 04.11.2020
5926 Clouds 24 1014 83 10000 4.6 130 18:18 04.11.2020
5927 Clouds 24 1014 83 10000 4.6 130 17:40 04.11.2020
5928 Clouds 23 1015 83 10000 4.6 150 17:22 04.11.2020
5929 Clouds 23 1015 83 10000 4.6 150 16:41 04.11.2020
5930 Clouds 23 1015 78 10000 4.6 150 16:23 04.11.2020
5931 Clouds 23 1015 78 10000 4.6 150 15:48 04.11.2020
5932 Clouds 23 1015 83 10000 3.1 150 15:25 04.11.2020
5933 Clouds 23 1015 83 10000 3.1 150 14:59 04.11.2020
5934 Clouds 23 1015 83 10000 3.1 150 14:41 04.11.2020
5935 Clouds 22 1015 78 10000 2.6 130 14:21 04.11.2020
5936 Clouds 22 1015 83 10000 1 40 13:47 04.11.2020
5937 Clouds 22 1015 88 10000 2.1 20 13:20 04.11.2020
5938 Clouds 22 1015 88 10000 2.1 20 12:54 04.11.2020
5939 Clouds 21 1015 88 10000 2.1 20 12:36 04.11.2020
5940 Clouds 21 1014 88 10000 1.5 40 11:59 04.11.2020
5941 Clouds 21 1014 88 10000 1.5 40 11:40 04.11.2020
5942 Clouds 19 1014 88 10000 1 100 11:20 04.11.2020
5943 Clouds 19 1014 88 10000 1 100 10:47 04.11.2020
5944 Clouds 19 1013 88 10000 1.5 330 10:22 04.11.2020
5945 Clouds 19 1013 88 10000 1.5 330 09:53 04.11.2020
5946 Clouds 19 1013 88 10000 1.5 330 09:25 04.11.2020
5947 Clouds 19 1013 88 10000 1.5 320 08:47 04.11.2020
5948 Clouds 19 1013 88 10000 1 260 08:21 04.11.2020
5949 Clouds 19 1013 88 10000 1 260 07:55 04.11.2020
5950 Clouds 19 1013 88 10000 1 260 07:30 04.11.2020
5951 Clouds 19 1014 88 8000 2.1 200 06:56 04.11.2020
5952 Clouds 19 1014 88 8000 2.1 200 06:37 04.11.2020
5953 Rain 19 1014 93 8000 3.1 10 04:18 04.11.2020
5954 Rain 20 1015 82 8000 2.6 80 02:28 04.11.2020
5955 Rain 20 1014 77 6000 1.5 260 00:57 04.11.2020
5956 Rain 21 1013 77 6000 1 180 23:50 03.11.2020
5957 Rain 22 1013 68 10000 3.6 150 23:24 03.11.2020
5958 Rain 22 1013 68 10000 3.6 150 22:42 03.11.2020
5959 Rain 23 1012 73 10000 5.7 120 22:22 03.11.2020
5960 Rain 23 1012 73 10000 5.7 120 21:59 03.11.2020
5961 Rain 23 1012 73 10000 5.7 120 21:41 03.11.2020
5962 Clouds 23 1012 69 10000 5.7 130 21:21 03.11.2020
5963 Clouds 23 1012 69 10000 5.7 130 20:46 03.11.2020
5964 Clouds 24 1012 69 10000 5.7 130 20:26 03.11.2020
5965 Clouds 23 1013 68 10000 5.1 140 19:46 03.11.2020
5966 Clouds 24 1013 68 10000 5.1 140 19:27 03.11.2020
5967 Clouds 22 1014 73 10000 6.7 160 18:57 03.11.2020
5968 Clouds 24 1014 73 10000 6.7 160 18:38 03.11.2020
5969 Clouds 23 1014 73 10000 6.2 160 18:18 03.11.2020
5970 Clouds 23 1014 73 10000 6.2 160 17:43 03.11.2020
5971 Clouds 25 1015 69 10000 5.7 160 17:25 03.11.2020
5972 Clouds 25 1015 69 10000 5.7 160 16:45 03.11.2020
5973 Clouds 25 1015 69 10000 5.7 160 16:25 03.11.2020
5974 Clouds 25 1015 69 10000 5.1 160 15:52 03.11.2020
5975 Clouds 25 1015 69 10000 5.1 160 15:29 03.11.2020
5976 Clouds 24 1016 64 10000 2.6 140 14:54 03.11.2020
5977 Clouds 24 1016 64 10000 2.6 140 14:33 03.11.2020
5978 Clouds 23 1016 73 10000 1.5 0 13:59 03.11.2020
5979 Clouds 23 1016 73 10000 1.5 0 13:40 03.11.2020
5980 Clouds 22 1016 77 10000 2.1 340 13:20 03.11.2020
5981 Clouds 22 1016 77 10000 2.1 340 12:44 03.11.2020
5982 Clouds 20 1015 77 10000 3.1 30 12:21 03.11.2020
5983 Clouds 20 1015 77 10000 3.1 30 11:46 03.11.2020
5984 Clouds 18 1015 82 10000 2.1 10 11:22 03.11.2020
5985 Clouds 18 1015 82 10000 2.1 10 10:55 03.11.2020
5986 Clouds 18 1015 82 10000 2.1 10 10:55 03.11.2020
5987 Clouds 18 1015 82 10000 2.1 10 10:36 03.11.2020
5988 Clouds 17 1014 88 10000 1 80 10:18 03.11.2020
5989 Clouds 17 1014 88 10000 1 80 09:44 03.11.2020
5990 Clouds 17 1014 88 10000 1.72 38 09:20 03.11.2020
5991 Clouds 17 1014 88 10000 1.72 38 08:45 03.11.2020
5992 Clouds 17 1014 88 10000 1.59 38 08:26 03.11.2020
5993 Clouds 18 1015 77 10000 1.5 300 07:37 03.11.2020
5994 Clouds 19 1015 72 10000 1 320 07:19 03.11.2020
5995 Clouds 19 1016 77 10000 1 340 06:21 03.11.2020
5996 Clouds 19 1016 77 10000 2.1 50 03:59 03.11.2020
5997 Clouds 21 1016 64 10000 2.6 190 00:44 03.11.2020
5998 Clouds 21 1015 64 10000 4.6 180 00:20 03.11.2020
5999 Clouds 21 1015 64 10000 4.6 180 23:43 02.11.2020
6000 Clouds 21 1015 60 10000 4.6 180 23:20 02.11.2020
6001 Clouds 21 1015 60 10000 4.6 180 22:43 02.11.2020
6002 Clouds 21 1015 60 10000 4.6 180 22:23 02.11.2020
6003 Clouds 22 1014 60 10000 5.1 180 21:39 02.11.2020
6004 Clouds 23 1014 53 10000 6.7 170 21:20 02.11.2020
6005 Clouds 23 1014 53 10000 6.7 170 20:55 02.11.2020
6006 Clouds 23 1014 53 10000 6.7 170 20:37 02.11.2020
6007 Clouds 23 1014 53 10000 5.7 170 20:18 02.11.2020
6008 Clouds 24 1014 53 10000 5.7 170 19:42 02.11.2020
6009 Clouds 24 1014 53 10000 5.7 170 19:24 02.11.2020
6010 Clouds 23 1015 56 10000 5.7 180 18:42 02.11.2020
6011 Clouds 23 1015 56 10000 5.1 160 18:21 02.11.2020
6012 Clouds 23 1015 56 10000 5.1 160 17:57 02.11.2020
6013 Clouds 23 1015 56 10000 5.1 160 17:39 02.11.2020
6014 Clouds 23 1015 60 10000 4.6 160 17:20 02.11.2020
6015 Clouds 23 1015 60 10000 4.6 160 16:41 02.11.2020
6016 Clouds 23 1016 64 10000 4.1 160 16:23 02.11.2020
6017 Clouds 23 1016 64 10000 4.1 160 15:42 02.11.2020
6018 Clouds 22 1016 68 10000 2.6 90 15:24 02.11.2020
6019 Clouds 22 1016 68 10000 2.6 90 14:54 02.11.2020
6020 Clouds 22 1016 82 10000 2.1 90 14:21 02.11.2020
6021 Clouds 22 1016 82 10000 2.1 90 13:58 02.11.2020
6022 Clouds 22 1016 82 10000 2.1 90 13:40 02.11.2020
6023 Clouds 21 1016 88 10000 2.1 360 13:21 02.11.2020
6024 Clouds 21 1016 88 10000 2.1 360 12:33 02.11.2020
6025 Clouds 19 1015 82 10000 2.6 330 11:59 02.11.2020
6026 Clouds 19 1015 82 10000 2.6 330 11:39 02.11.2020
6027 Clouds 17 1015 88 10000 3.1 330 11:19 02.11.2020
6028 Clouds 17 1015 88 10000 3.1 330 10:44 02.11.2020
6029 Clouds 17 1015 88 10000 2.6 310 10:22 02.11.2020
6030 Clouds 17 1015 88 10000 2.6 310 09:55 02.11.2020
6031 Clouds 17 1015 88 10000 2.6 310 09:25 02.11.2020
6032 Clouds 17 1015 88 10000 2.6 310 08:46 02.11.2020
6033 Clouds 17 1015 88 8000 3.1 320 08:28 02.11.2020
6034 Clouds 17 1015 88 8000 3.1 320 07:55 02.11.2020
6035 Clouds 17 1015 88 8000 3.1 320 07:32 02.11.2020
6036 Clouds 17 1015 93 9000 4.1 330 06:43 02.11.2020
6037 Clouds 17 1016 88 8000 3.6 250 04:56 02.11.2020
6038 Clouds 19 1016 72 10000 3.6 260 01:26 02.11.2020
6039 Clouds 20 1015 64 10000 3.1 240 00:36 02.11.2020
6040 Clouds 20 1015 64 10000 4.6 220 23:56 01.11.2020
6041 Clouds 20 1015 64 10000 4.6 220 23:37 01.11.2020
6042 Clouds 20 1015 83 10000 3.1 230 23:19 01.11.2020
6043 Clouds 20 1015 83 10000 3.1 230 22:41 01.11.2020
6044 Clouds 20 1014 68 10000 2.6 220 22:18 01.11.2020
6045 Clouds 20 1014 68 10000 2.6 220 21:41 01.11.2020
6046 Clouds 20 1014 77 10000 2.1 210 21:23 01.11.2020
6047 Clouds 20 1014 77 10000 2.1 210 20:46 01.11.2020
6048 Clouds 20 1014 77 10000 2.1 210 20:25 01.11.2020
6049 Clouds 19 1015 82 7000 3.1 180 19:46 01.11.2020
6050 Clouds 19 1015 82 7000 3.1 180 19:28 01.11.2020
6051 Rain 22 1014 68 10000 4.1 210 18:57 01.11.2020
6052 Rain 22 1014 68 10000 4.1 210 18:38 01.11.2020
6053 Clouds 22 1014 77 10000 2.1 180 18:19 01.11.2020
6054 Clouds 22 1014 77 10000 2.1 180 17:43 01.11.2020
6055 Rain 20 1015 82 6000 5.7 200 17:25 01.11.2020
6056 Rain 20 1015 82 6000 5.7 200 16:45 01.11.2020
6057 Rain 20 1015 82 6000 5.7 200 16:26 01.11.2020
6058 Rain 21 1015 77 8000 2.6 220 15:57 01.11.2020
6059 Rain 21 1015 77 8000 2.6 220 15:38 01.11.2020
6060 Rain 21 1015 77 8000 2.6 220 15:38 01.11.2020
6061 Haze 22 1015 64 4000 6.2 190 15:18 01.11.2020
6062 Haze 22 1015 64 4000 6.2 190 14:45 01.11.2020
6063 Rain 22 1015 68 10000 4.6 180 14:22 01.11.2020
6064 Rain 22 1015 68 10000 4.6 180 13:57 01.11.2020
6065 Rain 22 1015 68 10000 4.6 180 13:39 01.11.2020
6066 Rain 22 1014 73 10000 3.6 200 13:20 01.11.2020
6067 Rain 22 1014 73 10000 3.6 200 12:40 01.11.2020
6068 Clouds 21 1014 77 10000 3.1 210 12:18 01.11.2020
6069 Clouds 21 1014 77 10000 3.1 210 11:48 01.11.2020
6070 Clouds 20 1014 77 10000 1.5 230 11:18 01.11.2020
6071 Clouds 20 1014 77 10000 1.5 230 10:42 01.11.2020
6072 Clouds 19 1014 88 9000 3.1 270 10:24 01.11.2020
6073 Clouds 19 1014 88 9000 3.1 270 09:49 01.11.2020
6074 Clouds 20 1014 94 8000 1.5 310 09:24 01.11.2020
6075 Clouds 20 1014 94 8000 1.5 310 08:40 01.11.2020
6076 Clouds 20 1014 94 7000 1 270 07:54 01.11.2020
6077 Clouds 20 1014 94 7000 1.5 270 06:48 01.11.2020
6078 Mist 20 1016 94 4500 3.6 180 02:32 01.11.2020
6079 Mist 20 1016 88 5000 3.1 200 01:41 01.11.2020
6080 Clouds 20 1015 94 8000 2.6 190 23:58 31.10.2020
6081 Mist 20 1015 94 4500 4.6 200 23:24 31.10.2020
6082 Clouds 20 1014 94 8000 2.6 110 22:45 31.10.2020
6083 Mist 20 1015 93 4000 5.1 160 22:24 31.10.2020
6084 Mist 20 1015 93 4000 5.1 160 21:47 31.10.2020
6085 Mist 21 1014 88 4000 3.6 180 21:23 31.10.2020
6086 Mist 21 1014 88 4000 3.6 180 21:23 31.10.2020
6087 Mist 21 1014 88 4000 3.6 180 20:46 31.10.2020
6088 Mist 21 1015 88 4000 3.1 200 20:21 31.10.2020
6089 Mist 21 1015 88 4000 3.1 200 19:58 31.10.2020
6090 Mist 21 1015 88 4000 3.1 200 19:38 31.10.2020
6091 Clouds 22 1015 83 10000 6.7 190 19:18 31.10.2020
6092 Clouds 23 1015 83 10000 5.7 190 18:43 31.10.2020
6093 Clouds 22 1015 83 10000 2.1 360 17:56 31.10.2020
6094 Clouds 22 1015 83 10000 2.1 360 17:37 31.10.2020
6095 Clouds 22 1015 83 10000 3.6 330 17:18 31.10.2020
6096 Clouds 22 1016 83 10000 2.6 330 16:41 31.10.2020
6097 Clouds 21 1016 88 7000 1.5 90 16:20 31.10.2020
6098 Clouds 21 1016 88 7000 1.5 90 15:42 31.10.2020
6099 Mist 22 1016 94 5000 1 70 15:22 31.10.2020
6100 Mist 22 1017 88 2000 2.6 100 14:46 31.10.2020
6101 Mist 22 1017 88 2000 2.6 100 14:27 31.10.2020
6102 Clouds 21 1017 94 7000 1 20 13:50 31.10.2020
6103 Mist 20 1016 94 4500 0.5 40 13:24 31.10.2020
6104 Mist 20 1016 94 4500 0.5 40 12:42 31.10.2020
6105 Drizzle 21 1016 83 10000 1.5 310 11:48 31.10.2020
6106 Drizzle 21 1016 83 10000 1.5 310 11:29 31.10.2020
6107 Clouds 20 1016 88 10000 2.6 330 10:58 31.10.2020
6108 Clouds 20 1016 88 10000 2.6 330 10:36 31.10.2020
6109 Clouds 20 1016 88 10000 1.5 270 09:45 31.10.2020
6110 Clouds 20 1016 88 10000 1.5 270 09:27 31.10.2020
6111 Clouds 20 1016 88 8000 2.1 270 08:40 31.10.2020
6112 Clouds 19 1016 88 10000 1 300 07:59 31.10.2020
6113 Clouds 19 1016 88 10000 1 300 07:27 31.10.2020
6114 Clouds 20 1016 82 10000 1 150 06:42 31.10.2020
6115 Clouds 20 1017 82 10000 1.5 130 06:20 31.10.2020
6116 Clouds 20 1018 88 6000 5.1 190 03:46 31.10.2020
6117 Mist 20 1018 94 4000 7.2 180 01:44 31.10.2020
6118 Mist 20 1017 94 1600 9.8 180 00:47 31.10.2020
6119 Mist 20 1016 94 1600 13.4 180 23:53 30.10.2020
6120 Mist 20 1016 94 1600 13.4 180 23:27 30.10.2020
6121 Mist 21 1015 94 1600 12.9 180 22:56 30.10.2020
6122 Mist 21 1014 94 1600 9.3 190 22:37 30.10.2020
6123 Mist 21 1013 94 1600 8.2 200 22:18 30.10.2020
6124 Rain 21 1013 94 1600 8.2 200 21:41 30.10.2020
6125 Mist 22 1012 94 1500 5.1 200 21:22 30.10.2020
6126 Mist 22 1012 94 4000 6.7 170 20:44 30.10.2020
6127 Rain 22 1012 94 4000 6.7 170 20:25 30.10.2020
6128 Mist 22 1012 94 3000 5.1 180 19:54 30.10.2020
6129 Rain 22 1012 94 3000 5.1 180 19:22 30.10.2020
6130 Mist 23 1012 94 3000 4.6 170 18:53 30.10.2020
6131 Rain 23 1012 94 4000 5.7 180 18:34 30.10.2020
6132 Clouds 23 1013 94 8000 5.7 180 17:59 30.10.2020
6133 Rain 23 1013 94 8000 5.7 180 17:40 30.10.2020
6134 Rain 23 1014 94 4000 5.1 190 17:20 30.10.2020
6135 Mist 23 1014 94 4000 5.1 190 16:49 30.10.2020
6136 Mist 24 1014 94 4000 5.1 190 16:24 30.10.2020
6137 Rain 25 1014 88 10000 5.1 180 15:41 30.10.2020
6138 Clouds 25 1014 83 10000 4.6 170 15:21 30.10.2020
6139 Clouds 25 1014 83 10000 4.6 170 14:55 30.10.2020
6140 Clouds 25 1014 83 10000 4.6 170 14:36 30.10.2020
6141 Clouds 25 1014 83 10000 5.1 200 14:18 30.10.2020
6142 Clouds 25 1014 83 10000 5.1 200 13:41 30.10.2020
6143 Clouds 25 1014 83 10000 4.6 180 13:19 30.10.2020
6144 Clouds 24 1014 88 10000 3.1 180 12:41 30.10.2020
6145 Clouds 23 1013 94 8000 3.6 190 12:21 30.10.2020
6146 Clouds 23 1013 94 8000 3.6 190 11:44 30.10.2020
6147 Rain 23 1013 94 8000 3.1 180 11:20 30.10.2020
6148 Rain 23 1012 88 8000 4.1 180 10:50 30.10.2020
6149 Rain 23 1012 88 8000 4.1 180 10:25 30.10.2020
6150 Rain 24 1012 83 8000 3.6 260 09:46 30.10.2020
6151 Clouds 24 1012 83 8000 4.6 240 09:24 30.10.2020
6152 Clouds 24 1012 83 8000 4.6 240 08:55 30.10.2020
6153 Rain 24 1012 83 8000 4.6 240 08:31 30.10.2020
6154 Clouds 24 1012 83 8000 4.1 250 07:52 30.10.2020
6155 Clouds 24 1012 83 8000 4.1 250 07:33 30.10.2020
6156 Clouds 24 1012 88 8000 3.6 280 06:49 30.10.2020
6157 Clouds 24 1012 88 8000 3.6 250 05:39 30.10.2020
6158 Clouds 25 1013 88 10000 3.6 180 02:41 30.10.2020
6159 Clouds 25 1010 78 10000 5.7 200 00:47 30.10.2020
6160 Clouds 26 1011 83 10000 4.6 160 23:58 29.10.2020
6161 Clouds 25 1011 83 10000 4.6 160 23:40 29.10.2020
6162 Clouds 26 1011 78 10000 5.1 180 23:21 29.10.2020
6163 Clouds 26 1011 78 10000 5.1 180 22:43 29.10.2020
6164 Clouds 26 1009 78 10000 7.7 170 22:24 29.10.2020
6165 Clouds 26 1009 78 10000 7.7 170 21:43 29.10.2020
6166 Clouds 27 1008 83 10000 7.2 160 21:22 29.10.2020
6167 Clouds 26 1008 83 10000 7.2 160 21:22 29.10.2020
6168 Clouds 27 1008 83 10000 7.2 160 20:42 29.10.2020
6169 Clouds 27 1008 78 10000 7.2 160 20:21 29.10.2020
6170 Clouds 27 1008 78 10000 7.2 160 19:56 29.10.2020
6171 Clouds 27 1008 78 10000 7.2 160 19:37 29.10.2020
6172 Clouds 28 1009 78 10000 7.7 160 19:18 29.10.2020
6173 Clouds 28 1009 78 10000 7.7 160 18:41 29.10.2020
6174 Clouds 28 1009 78 10000 8.7 160 18:21 29.10.2020
6175 Clouds 28 1009 78 10000 8.7 160 17:42 29.10.2020
6176 Clouds 28 1009 78 10000 8.7 160 17:22 29.10.2020
6177 Clouds 28 1009 78 10000 8.7 160 16:52 29.10.2020
6178 Clouds 28 1009 74 10000 7.7 160 16:23 29.10.2020
6179 Clouds 28 1009 74 10000 7.7 160 15:58 29.10.2020
6180 Clouds 28 1009 74 10000 7.7 160 15:40 29.10.2020
6181 Clear 29 1009 69 10000 6.2 160 15:21 29.10.2020
6182 Clear 29 1009 69 10000 6.2 160 14:46 29.10.2020
6183 Clear 29 1009 65 10000 2.1 140 14:24 29.10.2020
6184 Clear 29 1009 65 10000 2.1 140 13:59 29.10.2020
6185 Clear 29 1009 74 10000 2.1 50 13:40 29.10.2020
6186 Clear 28 1008 78 10000 3.1 350 13:21 29.10.2020
6187 Clear 28 1008 78 10000 3.1 350 12:40 29.10.2020
6188 Clear 26 1008 83 10000 2.6 360 12:19 29.10.2020
6189 Clear 26 1008 83 10000 2.6 360 11:47 29.10.2020
6190 Clear 23 1008 88 10000 3.1 360 11:24 29.10.2020
6191 Clear 23 1008 88 10000 3.1 360 10:38 29.10.2020
6192 Clear 23 1007 78 10000 2.6 350 10:19 29.10.2020
6193 Clear 23 1007 78 10000 2.6 350 09:53 29.10.2020
6194 Clear 23 1007 78 10000 2.6 350 09:28 29.10.2020
6195 Clear 24 1007 78 10000 3.1 340 08:56 29.10.2020
6196 Clear 24 1007 78 10000 3.1 340 08:34 29.10.2020
6197 Clear 24 1007 78 10000 2.1 330 07:58 29.10.2020
6198 Clear 24 1007 78 10000 2.1 330 07:39 29.10.2020
6199 Clear 24 1007 78 10000 2.1 330 06:57 29.10.2020
6200 Clear 26 1007 65 10000 2.6 300 05:35 29.10.2020
6201 Clear 26 1008 61 10000 3.1 280 04:45 29.10.2020
6202 Clouds 27 1010 66 10000 1.12 126 01:25 29.10.2020
6203 Clear 27 1009 62 10000 1.16 153 00:31 29.10.2020
6204 Clear 27 1009 62 10000 1.16 153 23:49 28.10.2020
6205 Clear 28 1007 59 10000 1.54 137 23:22 28.10.2020
6206 Clear 28 1007 59 10000 1.54 137 22:45 28.10.2020
6207 Clouds 28 1003 74 10000 8.2 150 22:27 28.10.2020
6208 Clouds 28 1003 74 10000 8.2 150 22:27 28.10.2020
6209 Clouds 28 1003 74 10000 8.2 150 21:59 28.10.2020
6210 Clouds 28 1003 74 10000 8.2 150 21:40 28.10.2020
6211 Clouds 29 1003 78 10000 8.2 160 21:20 28.10.2020
6212 Clouds 29 1003 78 10000 8.2 160 20:42 28.10.2020
6213 Clouds 30 1003 78 10000 7.7 150 20:22 28.10.2020
6214 Clouds 30 1003 78 10000 7.7 150 19:51 28.10.2020
6215 Clouds 30 1003 78 10000 7.7 150 19:29 28.10.2020
6216 Clouds 30 1003 74 10000 7.2 140 18:50 28.10.2020
6217 Clouds 31 1003 74 10000 7.2 150 18:22 28.10.2020
6218 Clouds 31 1003 74 10000 7.2 150 17:57 28.10.2020
6219 Clouds 31 1003 74 10000 7.2 150 17:39 28.10.2020
6220 Clouds 32 1003 74 10000 7.2 150 17:18 28.10.2020
6221 Clouds 32 1003 74 10000 7.2 150 16:44 28.10.2020
6222 Clouds 31 1004 74 10000 3.1 150 16:23 28.10.2020
6223 Clouds 31 1004 74 10000 3.1 150 16:23 28.10.2020
6224 Clouds 31 1004 74 10000 3.1 150 15:40 28.10.2020
6225 Clear 29 999 56 10000 0.79 203 15:19 28.10.2020
6226 Clear 29 999 62 10000 0.79 203 14:44 28.10.2020
6227 Clear 29 1004 78 10000 2.6 360 14:26 28.10.2020
6228 Clear 25 1000 75 10000 0.95 30 12:50 28.10.2020
6229 Clear 24 1000 77 10000 1.52 23 12:31 28.10.2020
6230 Clear 24 1000 79 10000 1.52 23 11:59 28.10.2020
6231 Clear 23 1004 83 10000 1 50 11:41 28.10.2020
6232 Rain 23 1000 81 10000 1.07 6 11:20 28.10.2020
6233 Clear 23 1000 83 10000 1.07 6 10:50 28.10.2020
6234 Clear 22 1003 83 10000 1 120 10:32 28.10.2020
6235 Clear 22 1003 83 10000 1 120 09:45 28.10.2020
6236 Clear 22 1003 83 10000 1 120 09:24 28.10.2020
6237 Clear 22 1003 88 10000 1.5 80 08:51 28.10.2020
6238 Clear 22 1003 88 10000 1.5 80 08:33 28.10.2020
6239 Clear 23 1003 83 10000 1.5 80 07:55 28.10.2020
6240 Clear 23 1003 83 10000 1.5 80 07:37 28.10.2020
6241 Clear 23 1003 83 10000 2.1 100 07:19 28.10.2020
6242 Clear 23 1003 83 10000 2.1 100 06:39 28.10.2020
6243 Clear 24 1003 78 10000 1.5 90 05:44 28.10.2020
6244 Clear 24 1003 78 10000 1.5 100 04:51 28.10.2020
6245 Clear 24 1003 88 10000 1.5 340 04:23 28.10.2020
6246 Clear 24 1003 83 10000 2.6 180 02:25 28.10.2020
6247 Clear 24 1002 88 10000 4.6 180 00:36 28.10.2020
6248 Clear 25 1002 83 10000 6.2 190 23:51 27.10.2020
6249 Clear 25 1001 78 10000 7.7 180 23:22 27.10.2020
6250 Clear 25 1001 78 10000 7.7 180 22:45 27.10.2020
6251 Clear 27 1001 78 10000 7.7 190 22:25 27.10.2020
6252 Clear 27 1001 78 10000 7.7 190 21:57 27.10.2020
6253 Clear 27 1001 78 10000 7.7 190 21:39 27.10.2020
6254 Clear 28 1001 73 10000 7.7 160 21:20 27.10.2020
6255 Clear 28 1001 73 10000 7.7 160 20:54 27.10.2020
6256 Clear 28 1001 73 10000 7.7 160 20:36 27.10.2020
6257 Clear 29 1001 73 10000 7.7 160 20:18 27.10.2020
6258 Clear 29 1001 73 10000 7.7 160 19:39 27.10.2020
6259 Clouds 29 1002 78 10000 6.7 160 19:20 27.10.2020
6260 Clouds 29 1002 78 10000 6.7 160 18:57 27.10.2020
6261 Clouds 29 1002 78 10000 6.7 160 18:39 27.10.2020
6262 Clear 28 1003 83 10000 6.7 160 18:18 27.10.2020
6263 Clear 28 1003 83 10000 6.7 160 17:42 27.10.2020
6264 Clear 28 1005 78 10000 5.1 150 17:21 27.10.2020
6265 Clear 28 1005 78 10000 5.1 150 17:21 27.10.2020
6266 Clear 28 1005 78 10000 5.1 150 16:48 27.10.2020
6267 Clouds 28 1005 78 10000 3.1 150 16:25 27.10.2020
6268 Clouds 28 1005 78 10000 3.1 150 15:48 27.10.2020
6269 Clouds 28 1005 78 10000 3.1 150 15:30 27.10.2020
6270 Clouds 27 1006 73 10000 3.1 320 14:55 27.10.2020
6271 Clouds 27 1006 73 10000 3.1 320 14:37 27.10.2020
6272 Clouds 26 1007 73 10000 3.6 330 14:19 27.10.2020
6273 Clouds 26 1007 73 10000 3.6 330 13:33 27.10.2020
6274 Clouds 25 1007 78 10000 2.6 350 12:59 27.10.2020
6275 Clouds 25 1007 78 10000 2.6 350 12:39 27.10.2020
6276 Clouds 23 1007 83 10000 1.5 340 12:20 27.10.2020
6277 Clouds 23 1007 83 10000 1.5 340 11:42 27.10.2020
6278 Clouds 21 1007 88 10000 2.6 40 11:22 27.10.2020
6279 Clouds 21 1007 88 10000 2.6 40 10:47 27.10.2020
6280 Clouds 21 1007 88 10000 2.6 40 10:28 27.10.2020
6281 Clear 21 1008 83 10000 3.1 140 09:46 27.10.2020
6282 Clear 21 1008 83 10000 3.1 140 09:26 27.10.2020
6283 Clear 21 1008 88 10000 2.1 110 08:39 27.10.2020
6284 Clear 21 1008 88 10000 2.6 90 08:20 27.10.2020
6285 Clear 21 1008 88 10000 2.6 90 07:45 27.10.2020
6286 Clear 21 1008 88 10000 2.6 90 07:45 27.10.2020
6287 Clear 21 1008 88 10000 2.6 90 07:45 27.10.2020
6288 Clouds 22 1008 83 10000 2.1 100 07:26 27.10.2020
6289 Clouds 22 1008 83 10000 2.1 100 06:38 27.10.2020
6290 Clouds 22 1008 83 10000 2.1 90 06:19 27.10.2020
6291 Clouds 22 1008 83 10000 2.1 90 05:41 27.10.2020
6292 Clouds 22 1009 83 10000 3.6 100 04:50 27.10.2020
6293 Clouds 23 1009 88 10000 2.1 120 02:34 27.10.2020
6294 Clouds 23 1009 83 10000 3.1 150 00:58 27.10.2020
6295 Clouds 23 1009 83 10000 4.6 170 23:47 26.10.2020
6296 Clouds 24 1009 83 10000 4.6 170 23:29 26.10.2020
6297 Clouds 24 1008 83 10000 6.2 170 22:51 26.10.2020
6298 Clouds 24 1008 83 10000 6.2 170 22:27 26.10.2020
6299 Clouds 24 1008 83 10000 5.7 160 21:50 26.10.2020
6300 Clouds 25 1008 83 10000 6.2 160 21:21 26.10.2020
6301 Clouds 25 1008 83 10000 6.2 160 20:58 26.10.2020
6302 Clouds 25 1008 83 10000 6.2 160 20:40 26.10.2020
6303 Clouds 26 1008 78 10000 7.2 160 20:21 26.10.2020
6304 Clouds 25 1008 78 10000 7.2 160 19:47 26.10.2020
6305 Clouds 25 1008 78 10000 7.2 160 19:25 26.10.2020
6306 Clouds 26 1009 78 10000 6.2 170 18:46 26.10.2020
6307 Clouds 25 1009 78 10000 7.2 160 18:25 26.10.2020
6308 Clouds 25 1009 78 10000 7.2 160 17:59 26.10.2020
6309 Clouds 25 1009 78 10000 7.2 160 17:40 26.10.2020
6310 Clouds 24 1010 83 10000 6.2 160 17:22 26.10.2020
6311 Clouds 24 1010 83 10000 6.2 160 16:43 26.10.2020
6312 Clouds 25 1011 78 10000 5.1 170 16:22 26.10.2020
6313 Clouds 25 1011 78 10000 5.1 170 15:44 26.10.2020
6314 Clouds 23 1011 83 10000 4.6 170 15:25 26.10.2020
6315 Clouds 23 1011 83 10000 4.6 170 14:54 26.10.2020
6316 Clouds 23 1011 83 10000 4.6 170 14:35 26.10.2020
6317 Clouds 24 1011 83 10000 2.1 160 13:48 26.10.2020
6318 Clouds 24 1011 83 10000 2.1 160 13:28 26.10.2020
6319 Clouds 23 1011 88 10000 1.5 340 12:58 26.10.2020
6320 Clouds 23 1011 88 10000 1.5 340 12:39 26.10.2020
6321 Clouds 22 1011 88 10000 1 0 12:20 26.10.2020
6322 Clouds 22 1011 88 10000 1 0 11:46 26.10.2020
6323 Clouds 22 1011 88 9000 1.5 20 11:23 26.10.2020
6324 Clouds 22 1011 88 9000 1.5 20 10:57 26.10.2020
6325 Clouds 22 1011 88 9000 1.5 20 10:38 26.10.2020
6326 Clouds 20 1010 94 4000 1.5 30 10:18 26.10.2020
6327 Clouds 20 1010 94 4000 1.5 30 09:39 26.10.2020
6328 Clouds 21 1010 88 4000 2.1 130 09:18 26.10.2020
6329 Clouds 22 1009 83 10000 1 110 08:27 26.10.2020
6330 Clouds 22 1009 83 10000 1 110 07:52 26.10.2020
6331 Clouds 22 1009 83 10000 1 110 07:31 26.10.2020
6332 Clouds 22 1009 83 10000 1.5 340 05:58 26.10.2020
6333 Clouds 22 1010 88 10000 4.1 180 04:20 26.10.2020
6334 Clouds 23 1011 78 10000 3.6 170 03:21 26.10.2020
6335 Clouds 23 1011 78 10000 3.6 170 03:21 26.10.2020
6336 Clouds 23 1010 78 10000 3.1 170 01:36 26.10.2020
6337 Clouds 23 1010 78 10000 4.1 140 00:44 26.10.2020
6338 Rain 23 1010 78 10000 4.1 140 00:25 26.10.2020
6339 Clouds 23 1010 78 10000 4.6 130 23:38 25.10.2020
6340 Clouds 24 1009 78 10000 3.6 160 23:18 25.10.2020
6341 Clouds 24 1009 78 10000 3.6 160 22:39 25.10.2020
6342 Clouds 25 1008 69 10000 4.1 170 22:20 25.10.2020
6343 Clouds 25 1008 69 10000 4.1 170 21:40 25.10.2020
6344 Clouds 26 1007 61 10000 6.2 80 21:20 25.10.2020
6345 Clouds 26 1007 61 10000 6.2 80 20:45 25.10.2020
6346 Clouds 27 1007 65 10000 7.2 90 20:25 25.10.2020
6347 Clouds 27 1007 65 10000 7.2 90 19:59 25.10.2020
6348 Clouds 27 1007 65 10000 7.2 90 19:41 25.10.2020
6349 Clouds 27 1007 69 10000 4.6 160 19:21 25.10.2020
6350 Clouds 27 1007 69 10000 4.6 160 18:41 25.10.2020
6351 Clouds 26 1008 73 10000 5.1 190 18:23 25.10.2020
6352 Clouds 26 1008 73 10000 5.1 190 17:59 25.10.2020
6353 Rain 26 1008 73 10000 5.1 190 17:38 25.10.2020
6354 Clouds 26 1009 73 10000 4.6 190 17:20 25.10.2020
6355 Clouds 26 1009 73 10000 4.6 190 16:52 25.10.2020
6356 Clouds 26 1009 73 10000 4.6 190 16:31 25.10.2020
6357 Clouds 25 1010 78 10000 5.7 190 15:52 25.10.2020
6358 Clouds 25 1010 78 10000 5.7 190 15:32 25.10.2020
6359 Clouds 25 1010 73 10000 4.6 80 14:59 25.10.2020
6360 Clouds 25 1010 73 10000 4.6 80 14:40 25.10.2020
6361 Clouds 25 1011 73 10000 6.2 70 14:21 25.10.2020
6362 Clouds 25 1011 73 10000 6.2 70 13:42 25.10.2020
6363 Clouds 22 1011 88 10000 4.1 170 13:20 25.10.2020
6364 Clouds 22 1011 88 10000 4.1 170 12:46 25.10.2020
6365 Clouds 22 1011 88 10000 4.1 170 12:26 25.10.2020
6366 Clouds 21 1011 94 10000 4.6 140 11:54 25.10.2020
6367 Clouds 21 1011 94 10000 4.6 140 11:36 25.10.2020
6368 Clouds 21 1011 94 10000 4.6 170 11:18 25.10.2020
6369 Clouds 21 1011 94 10000 4.6 170 10:43 25.10.2020
6370 Clouds 21 1011 94 10000 4.6 170 10:21 25.10.2020
6371 Clouds 21 1009 88 10000 4.1 100 09:43 25.10.2020
6372 Clouds 21 1009 88 10000 4.6 90 09:19 25.10.2020
6373 Clouds 21 1009 88 10000 4.6 90 08:47 25.10.2020
6374 Clouds 21 1009 88 10000 4.6 90 08:29 25.10.2020
6375 Clouds 22 1009 88 10000 4.1 120 07:48 25.10.2020
6376 Clouds 22 1009 88 10000 4.1 120 07:27 25.10.2020
6377 Clouds 21 1010 88 10000 3.1 80 06:48 25.10.2020
6378 Clouds 22 1011 88 10000 5.1 90 05:43 25.10.2020
6379 Clouds 22 1011 88 10000 6.7 110 04:52 25.10.2020
6380 Clouds 23 1012 88 9000 2.6 110 02:59 25.10.2020
6381 Rain 23 1012 88 9000 4.1 60 01:32 25.10.2020
6382 Rain 23 1011 88 9000 5.7 60 00:47 25.10.2020
6383 Rain 24 1011 83 9000 5.7 60 00:19 25.10.2020
6384 Rain 24 1011 83 9000 5.7 60 23:52 24.10.2020
6385 Rain 24 1011 83 9000 5.7 60 23:25 24.10.2020
6386 Rain 25 1011 83 10000 4.1 180 22:55 24.10.2020
6387 Rain 25 1011 83 10000 4.1 180 22:37 24.10.2020
6388 Rain 25 1010 78 10000 4.6 200 22:18 24.10.2020
6389 Rain 25 1010 78 10000 4.6 200 21:41 24.10.2020
6390 Rain 25 1011 78 10000 5.7 190 21:20 24.10.2020
6391 Clouds 25 1011 78 10000 5.7 190 20:47 24.10.2020
6392 Rain 26 1011 73 10000 5.1 190 20:23 24.10.2020
6393 Rain 26 1011 73 10000 5.1 190 19:55 24.10.2020
6394 Rain 26 1011 73 10000 5.1 190 19:37 24.10.2020
6395 Rain 26 1012 73 10000 4.6 160 19:18 24.10.2020
6396 Rain 26 1012 73 10000 4.6 160 18:42 24.10.2020
6397 Rain 27 1013 69 10000 2.6 140 18:22 24.10.2020
6398 Rain 27 1013 69 10000 2.6 140 17:39 24.10.2020
6399 Clouds 26 1013 69 10000 3.1 140 17:20 24.10.2020
6400 Clouds 26 1013 69 10000 3.1 140 16:45 24.10.2020
6401 Clouds 25 1014 69 10000 2.1 140 16:22 24.10.2020
6402 Clouds 25 1014 69 10000 2.1 140 15:41 24.10.2020
6403 Clouds 24 1015 69 10000 2.6 150 15:20 24.10.2020
6404 Clouds 24 1015 69 10000 2.6 150 14:54 24.10.2020
6405 Clouds 24 1015 69 10000 2.6 150 14:29 24.10.2020
6406 Clouds 23 1015 73 10000 2.6 150 13:47 24.10.2020
6407 Clouds 23 1015 73 10000 2.6 150 13:29 24.10.2020
6408 Clear 23 1014 73 10000 2.1 140 12:55 24.10.2020
6409 Clear 23 1014 73 10000 2.1 140 12:37 24.10.2020
6410 Clear 23 1014 73 10000 0.5 0 12:19 24.10.2020
6411 Clear 23 1014 73 10000 0.5 0 11:42 24.10.2020
6412 Clear 22 1013 73 10000 0.5 0 10:59 24.10.2020
6413 Clear 21 1013 73 10000 2.1 130 10:39 24.10.2020
6414 Clear 21 1014 73 10000 3.1 170 09:58 24.10.2020
6415 Clear 21 1014 73 10000 3.1 170 09:40 24.10.2020
6416 Clear 21 1013 73 10000 4.1 100 09:21 24.10.2020
6417 Clear 21 1013 73 10000 4.1 100 08:51 24.10.2020
6418 Clear 21 1014 73 10000 4.1 130 08:18 24.10.2020
6419 Clear 21 1014 73 10000 4.1 130 07:48 24.10.2020
6420 Clear 22 1014 68 10000 3.1 110 07:19 24.10.2020
6421 Clear 22 1014 68 10000 3.1 110 06:44 24.10.2020
6422 Clear 23 1016 69 10000 3.12 66 04:45 24.10.2020
6423 Clear 24 1015 69 10000 2.1 160 02:20 24.10.2020
6424 Clear 24 1014 73 10000 5.1 180 00:44 24.10.2020
6425 Clear 24 1014 73 10000 5.1 180 00:23 24.10.2020
6426 Clear 24 1014 73 10000 5.1 180 23:59 23.10.2020
6427 Clear 24 1014 73 10000 5.1 180 23:38 23.10.2020
6428 Clear 25 1013 65 10000 4.1 160 23:19 23.10.2020
6429 Clear 25 1013 65 10000 4.1 160 22:42 23.10.2020
6430 Clear 25 1013 65 10000 4.1 160 22:21 23.10.2020
6431 Clear 26 1013 65 10000 8.2 130 21:53 23.10.2020
6432 Clear 26 1013 65 10000 8.2 130 21:30 23.10.2020
6433 Clear 26 1013 65 10000 7.2 140 20:58 23.10.2020
6434 Clear 26 1013 65 10000 7.2 140 20:38 23.10.2020
6435 Clouds 28 1014 57 10000 6.7 160 20:18 23.10.2020
6436 Clouds 28 1014 57 10000 6.7 160 19:43 23.10.2020
6437 Clouds 27 1015 65 10000 7.2 160 19:25 23.10.2020
6438 Clouds 27 1015 65 10000 7.2 160 18:42 23.10.2020
6439 Clouds 26 1016 61 10000 4.6 160 18:23 23.10.2020
6440 Clouds 26 1016 61 10000 4.6 160 17:45 23.10.2020
6441 Clear 26 1018 65 10000 4.6 170 17:21 23.10.2020
6442 Clear 26 1018 65 10000 4.6 170 16:50 23.10.2020
6443 Clear 26 1018 65 10000 4.6 170 16:30 23.10.2020
6444 Clear 25 1019 69 10000 4.6 150 15:56 23.10.2020
6445 Clear 25 1019 69 10000 4.6 150 15:38 23.10.2020
6446 Clear 24 1019 60 10000 2.6 330 15:19 23.10.2020
6447 Clear 24 1019 60 10000 2.6 330 14:41 23.10.2020
6448 Clear 23 1020 64 10000 2.1 340 14:22 23.10.2020
6449 Clear 23 1020 64 10000 2.1 340 13:41 23.10.2020
6450 Clear 22 1020 68 10000 1.5 10 13:23 23.10.2020
6451 Clear 22 1020 68 10000 1.5 10 12:50 23.10.2020
6452 Clear 22 1020 68 10000 1.5 10 12:30 23.10.2020
6453 Clear 21 1019 73 10000 2.1 110 11:50 23.10.2020
6454 Clear 21 1019 73 10000 2.1 110 11:26 23.10.2020
6455 Clear 21 1019 77 10000 4.1 110 10:52 23.10.2020
6456 Clear 21 1019 77 10000 3.1 140 10:26 23.10.2020
6457 Clear 21 1019 77 10000 3.1 140 09:57 23.10.2020
6458 Clear 21 1019 77 10000 3.1 140 09:38 23.10.2020
6459 Clear 21 1019 77 10000 4.1 120 09:19 23.10.2020
6460 Clear 21 1019 77 10000 4.1 120 08:49 23.10.2020
6461 Clear 21 1019 73 10000 2.6 110 08:23 23.10.2020
6462 Clear 21 1019 73 10000 2.6 110 07:26 23.10.2020
6463 Clear 21 1020 73 10000 4.6 100 06:46 23.10.2020
6464 Clear 21 1020 73 10000 4.1 100 06:19 23.10.2020
6465 Clear 22 1020 73 10000 5.1 100 03:37 23.10.2020
6466 Clouds 23 1020 73 10000 4.6 110 02:26 23.10.2020
6467 Clouds 23 1019 73 10000 5.1 110 00:49 23.10.2020
6468 Clouds 23 1018 73 10000 6.7 120 00:21 23.10.2020
6469 Clouds 23 1018 73 10000 6.7 120 23:37 22.10.2020
6470 Clouds 24 1018 64 10000 6.2 140 23:18 22.10.2020
6471 Clouds 24 1018 64 10000 6.2 140 22:44 22.10.2020
6472 Clouds 24 1017 73 10000 7.7 140 22:22 22.10.2020
6473 Clouds 24 1017 73 10000 7.7 140 21:49 22.10.2020
6474 Clouds 24 1017 73 10000 7.7 140 21:31 22.10.2020
6475 Clouds 25 1017 69 10000 7.7 140 20:59 22.10.2020
6476 Clouds 25 1017 69 10000 7.7 140 20:41 22.10.2020
6477 Clouds 25 1018 69 10000 7.2 140 20:23 22.10.2020
6478 Clouds 25 1018 69 10000 7.2 140 19:43 22.10.2020
6479 Clouds 26 1018 65 10000 7.2 140 19:20 22.10.2020
6480 Clouds 26 1018 65 10000 7.2 140 18:44 22.10.2020
6481 Clouds 26 1019 73 10000 7.7 130 18:22 22.10.2020
6482 Clouds 26 1019 73 10000 7.7 130 17:58 22.10.2020
6483 Clouds 26 1019 73 10000 7.7 130 17:39 22.10.2020
6484 Clouds 25 1019 78 10000 7.2 140 17:20 22.10.2020
6485 Clouds 25 1019 78 10000 7.2 140 16:42 22.10.2020
6486 Clouds 25 1019 83 10000 3.6 140 16:23 22.10.2020
6487 Clouds 25 1019 83 10000 3.6 140 15:48 22.10.2020
6488 Clouds 25 1019 83 10000 3.6 140 15:26 22.10.2020
6489 Clouds 25 1019 78 10000 3.1 170 14:50 22.10.2020
6490 Clouds 25 1019 78 10000 3.1 170 14:27 22.10.2020
6491 Clouds 24 1019 88 10000 2.6 160 13:58 22.10.2020
6492 Clouds 24 1019 88 10000 2.6 160 13:39 22.10.2020
6493 Clouds 23 1019 88 10000 2.6 180 13:20 22.10.2020
6494 Clouds 23 1019 88 10000 2.6 180 12:29 22.10.2020
6495 Clouds 22 1018 94 10000 3.1 170 11:54 22.10.2020
6496 Clouds 22 1018 94 10000 3.1 170 11:36 22.10.2020
6497 Clear 21 1018 88 10000 2.6 170 11:18 22.10.2020
6498 Clear 21 1018 88 10000 2.6 170 10:44 22.10.2020
6499 Clear 21 1018 88 10000 3.1 160 10:23 22.10.2020
6500 Clear 21 1018 88 10000 3.1 160 09:42 22.10.2020
6501 Clear 21 1018 88 10000 2.1 150 09:18 22.10.2020
6502 Clear 21 1018 88 10000 2.1 150 08:39 22.10.2020
6503 Clear 23 1018 83 10000 2.1 130 08:19 22.10.2020
6504 Clouds 23 1018 83 10000 2.1 130 07:43 22.10.2020
6505 Clear 23 1019 83 10000 3.1 140 07:18 22.10.2020
6506 Clear 23 1019 83 10000 3.1 140 06:41 22.10.2020
6507 Clouds 23 1019 83 10000 3.1 140 06:23 22.10.2020
6508 Clouds 23 1019 88 10000 4.1 160 05:38 22.10.2020
6509 Clouds 23 1019 94 10000 5.7 170 03:25 22.10.2020
6510 Clouds 24 1018 83 10000 6.7 160 00:55 22.10.2020
6511 Clouds 23 1017 88 10000 6.2 170 00:22 22.10.2020
6512 Clouds 23 1017 88 10000 6.2 170 23:43 21.10.2020
6513 Clouds 25 1016 83 10000 6.7 170 23:19 21.10.2020
6514 Clouds 25 1016 83 10000 6.2 160 22:38 21.10.2020
6515 Clouds 26 1016 83 10000 6.7 160 22:19 21.10.2020
6516 Clouds 26 1016 83 10000 6.7 160 22:19 21.10.2020
6517 Clouds 26 1016 83 10000 7.2 160 21:46 21.10.2020
6518 Clouds 27 1016 74 10000 6.7 160 21:20 21.10.2020
6519 Clouds 27 1016 74 10000 6.7 160 20:59 21.10.2020
6520 Clouds 27 1016 74 10000 6.7 160 20:40 21.10.2020
6521 Clouds 27 1015 78 10000 7.2 150 20:18 21.10.2020
6522 Clouds 27 1015 78 10000 7.2 150 19:41 21.10.2020
6523 Clouds 27 1016 74 10000 7.2 150 19:22 21.10.2020
6524 Clouds 27 1016 74 10000 7.2 150 18:53 21.10.2020
6525 Clouds 27 1016 74 10000 7.2 150 18:30 21.10.2020
6526 Clouds 26 1017 83 10000 6.7 150 17:51 21.10.2020
6527 Clouds 26 1017 83 10000 5.1 150 17:22 21.10.2020
6528 Clouds 26 1017 83 10000 5.1 150 16:59 21.10.2020
6529 Clouds 26 1017 83 10000 5.1 150 16:40 21.10.2020
6530 Clouds 26 1017 83 10000 5.1 150 16:20 21.10.2020
6531 Clouds 27 1017 74 10000 4.6 160 15:48 21.10.2020
6532 Clouds 27 1017 74 10000 4.6 160 15:28 21.10.2020
6533 Clouds 26 1016 83 9000 2.6 140 14:57 21.10.2020
6534 Clouds 26 1016 83 9000 2.6 140 14:38 21.10.2020
6535 Clouds 26 1016 83 9000 2.6 140 14:19 21.10.2020
6536 Clouds 26 1016 78 9000 2.1 140 13:42 21.10.2020
6537 Clouds 26 1016 78 9000 2.1 140 13:21 21.10.2020
6538 Clouds 24 1016 83 10000 1.5 360 12:41 21.10.2020
6539 Clouds 23 1015 88 10000 1 110 12:21 21.10.2020
6540 Clouds 23 1015 88 10000 1 110 11:47 21.10.2020
6541 Clouds 23 1015 88 10000 1 110 11:21 21.10.2020
6542 Clouds 23 1015 88 10000 1 30 10:58 21.10.2020
6543 Clouds 23 1015 88 10000 1 30 10:40 21.10.2020
6544 Clouds 23 1015 88 10000 1 30 10:20 21.10.2020
6545 Clouds 23 1015 83 10000 1 90 09:44 21.10.2020
6546 Clouds 23 1015 83 10000 1 90 09:25 21.10.2020
6547 Clouds 23 1014 88 10000 2.1 70 08:42 21.10.2020
6548 Clouds 23 1014 88 10000 2.1 70 08:23 21.10.2020
6549 Clear 23 1014 83 10000 1.5 300 07:56 21.10.2020
6550 Clear 23 1014 83 10000 1.5 300 07:24 21.10.2020
6551 Clear 24 1015 78 10000 1.5 310 06:46 21.10.2020
6552 Clear 24 1015 78 10000 1.5 310 06:24 21.10.2020
6553 Clouds 25 1015 88 10000 1 120 03:48 21.10.2020
6554 Clouds 26 1013 73 10000 5.1 200 00:49 21.10.2020
6555 Clouds 26 1012 78 10000 6.2 190 23:37 20.10.2020
6556 Clouds 27 1012 74 10000 7.2 190 22:47 20.10.2020
6557 Clouds 27 1012 74 10000 7.2 190 22:25 20.10.2020
6558 Clouds 28 1012 69 10000 5.7 160 21:48 20.10.2020
6559 Clouds 29 1012 65 10000 6.7 160 21:20 20.10.2020
6560 Clouds 29 1012 65 10000 6.7 160 20:44 20.10.2020
6561 Clouds 29 1012 65 10000 6.7 160 20:25 20.10.2020
6562 Clouds 29 1013 69 10000 5.1 150 19:57 20.10.2020
6563 Clouds 29 1013 69 10000 5.1 150 19:39 20.10.2020
6564 Clouds 29 1014 61 10000 4.6 150 19:20 20.10.2020
6565 Clouds 29 1014 61 10000 4.6 150 18:45 20.10.2020
6566 Clouds 29 1014 61 10000 4.6 150 18:26 20.10.2020
6567 Clouds 28 1014 65 10000 3.6 150 17:42 20.10.2020
6568 Clouds 28 1014 65 10000 3.6 150 17:23 20.10.2020
6569 Clouds 28 1015 69 10000 2.1 130 16:48 20.10.2020
6570 Clouds 28 1015 69 10000 2.1 130 16:26 20.10.2020
6571 Clouds 26 1015 69 10000 2.1 20 15:50 20.10.2020
6572 Clouds 26 1015 69 10000 2.1 20 15:32 20.10.2020
6573 Clouds 25 1015 69 10000 2.6 330 14:59 20.10.2020
6574 Clouds 25 1015 69 10000 2.6 330 14:39 20.10.2020
6575 Clouds 25 1015 69 10000 2.6 330 14:21 20.10.2020
6576 Clouds 24 1016 73 10000 2.1 360 13:44 20.10.2020
6577 Clouds 24 1016 73 10000 2.1 360 13:23 20.10.2020
6578 Clouds 23 1015 78 10000 1 20 12:58 20.10.2020
6579 Clouds 23 1015 78 10000 1 20 12:40 20.10.2020
6580 Clouds 23 1015 78 10000 1 20 12:21 20.10.2020
6581 Clouds 22 1014 73 10000 1 340 11:40 20.10.2020
6582 Clouds 22 1014 73 10000 1 340 11:20 20.10.2020
6583 Clouds 20 1014 82 10000 2.6 90 10:37 20.10.2020
6584 Clouds 20 1014 82 10000 2.6 90 10:19 20.10.2020
6585 Clouds 21 1014 77 10000 2.6 100 09:38 20.10.2020
6586 Clouds 21 1014 77 10000 2.6 100 09:18 20.10.2020
6587 Clouds 21 1014 77 10000 2.6 120 08:37 20.10.2020
6588 Clouds 21 1015 77 10000 2.6 150 07:53 20.10.2020
6589 Clouds 21 1015 77 10000 2.6 150 07:26 20.10.2020
6590 Clouds 22 1015 73 10000 2.6 110 06:31 20.10.2020
6591 Clouds 22 1015 78 10000 3.1 120 05:43 20.10.2020
6592 Clouds 24 1016 73 10000 2.1 100 03:58 20.10.2020
6593 Clouds 24 1015 73 10000 3.1 110 02:25 20.10.2020
6594 Clouds 25 1014 73 10000 4.6 120 00:59 20.10.2020
6595 Clouds 25 1014 73 10000 4.6 120 00:41 20.10.2020
6596 Clouds 26 1014 69 10000 3.6 80 00:21 20.10.2020
6597 Clouds 26 1014 69 10000 3.6 80 23:47 19.10.2020
6598 Clouds 26 1014 69 10000 3.6 80 23:24 19.10.2020
6599 Clouds 27 1013 65 10000 5.1 80 22:44 19.10.2020
6600 Clouds 27 1013 65 10000 5.1 80 22:24 19.10.2020
6601 Clouds 27 1013 65 10000 5.1 80 22:24 19.10.2020
6602 Clouds 27 1013 65 10000 3.1 160 21:48 19.10.2020
6603 Clouds 27 1013 65 10000 3.1 160 21:22 19.10.2020
6604 Clouds 28 1013 65 10000 4.1 160 20:52 19.10.2020
6605 Clouds 28 1013 65 10000 4.1 160 20:33 19.10.2020
6606 Clouds 28 1014 61 10000 4.6 150 19:56 19.10.2020
6607 Clouds 28 1014 61 10000 4.6 150 19:38 19.10.2020
6608 Clouds 28 1015 58 10000 4.6 160 19:18 19.10.2020
6609 Clouds 28 1015 58 10000 4.6 160 18:42 19.10.2020
6610 Clouds 26 1016 65 10000 4.6 170 18:18 19.10.2020
6611 Clouds 26 1016 65 10000 4.6 170 17:45 19.10.2020
6612 Clouds 26 1016 65 10000 4.6 170 17:25 19.10.2020
6613 Clouds 27 1016 61 10000 3.6 160 16:48 19.10.2020
6614 Clouds 27 1016 61 10000 3.6 160 16:28 19.10.2020
6615 Clouds 21 1011 75 10000 2.81 103 15:44 19.10.2020
6616 Clouds 20 1011 74 10000 0.45 103 15:25 19.10.2020
6617 Clouds 20 1011 76 10000 1.93 96 14:52 19.10.2020
6618 Clouds 18 1012 80 10000 2.24 73 14:27 19.10.2020
6619 Clouds 18 1011 81 10000 2.02 65 13:55 19.10.2020
6620 Clouds 18 1011 81 10000 2.24 73 13:36 19.10.2020
6621 Clouds 18 1011 81 10000 2.36 59 13:18 19.10.2020
6622 Clouds 17 1011 84 10000 2.36 59 12:43 19.10.2020
6623 Clouds 17 1011 84 10000 2.55 58 12:25 19.10.2020
6624 Clouds 20 1015 77 10000 3.6 110 11:42 19.10.2020
6625 Clouds 20 1015 77 10000 3.6 110 11:21 19.10.2020
6626 Clouds 20 1015 77 10000 3.6 110 10:44 19.10.2020
6627 Clouds 20 1015 77 10000 2.6 130 10:21 19.10.2020
6628 Clouds 20 1015 77 10000 2.6 130 09:52 19.10.2020
6629 Clouds 20 1014 77 10000 2.6 120 09:23 19.10.2020
6630 Clouds 20 1014 77 10000 2.6 120 08:49 19.10.2020
6631 Clouds 20 1014 77 10000 2.6 120 08:24 19.10.2020
6632 Clouds 20 1015 82 10000 3.1 130 07:55 19.10.2020
6633 Clouds 21 1015 77 10000 3.1 80 07:20 19.10.2020
6634 Clouds 21 1016 77 10000 2.6 80 06:20 19.10.2020
6635 Rain 23 1016 73 10000 7.7 70 04:47 19.10.2020
6636 Clouds 23 1016 73 10000 8.7 70 03:44 19.10.2020
6637 Clouds 23 1015 78 10000 7.7 70 01:28 19.10.2020
6638 Clouds 25 1014 69 10000 6.2 80 00:26 19.10.2020
6639 Clouds 25 1014 69 10000 6.2 80 23:56 18.10.2020
6640 Clouds 25 1014 69 10000 6.2 80 23:37 18.10.2020
6641 Clouds 25 1014 73 10000 3.6 120 23:18 18.10.2020
6642 Clouds 25 1014 73 10000 3.6 120 22:43 18.10.2020
6643 Clouds 26 1014 69 10000 5.1 150 22:18 18.10.2020
6644 Clouds 26 1014 69 10000 5.1 150 21:38 18.10.2020
6645 Clouds 26 1014 65 10000 7.2 140 21:20 18.10.2020
6646 Clouds 26 1014 65 10000 7.2 140 20:43 18.10.2020
6647 Clouds 26 1014 65 10000 5.7 140 20:22 18.10.2020
6648 Clouds 26